<?xml version='1.0' encoding='UTF-8'?><gpx version="1.1" creator="JPX - https://github.com/jenetics/jpx" xmlns="http://www.topografix.com/GPX/1/1"><trk><trkseg><trkpt lat="43.89526334014779" lon="11.247743339657005"><ele>550.0</ele><time>2026-03-28T10:03:15.999Z</time></trkpt><trkpt lat="43.89534330752025" lon="11.247705040740136"><ele>550.0</ele><time>2026-03-28T10:03:18.999Z</time></trkpt><trkpt lat="43.895409036241496" lon="11.247668279462506"><ele>550.0</ele><time>2026-03-28T10:03:21.999Z</time></trkpt><trkpt lat="43.8954829423795" lon="11.247656255812865"><ele>550.0</ele><time>2026-03-28T10:03:24.999Z</time></trkpt><trkpt lat="43.89554944938324" lon="11.247662910659898"><ele>550.0</ele><time>2026-03-28T10:03:27.999Z</time></trkpt><trkpt lat="43.89563740377889" lon="11.247680525056541"><ele>550.0</ele><time>2026-03-28T10:03:31.999Z</time></trkpt><trkpt lat="43.895706034591406" lon="11.247698508893"><ele>550.0</ele><time>2026-03-28T10:03:34.999Z</time></trkpt><trkpt lat="43.89576927846655" lon="11.247698030364068"><ele>550.0</ele><time>2026-03-28T10:03:37.999Z</time></trkpt><trkpt lat="43.895845395241444" lon="11.247698172765023"><ele>550.0</ele><time>2026-03-28T10:03:41.999Z</time></trkpt><trkpt lat="43.89590844056927" lon="11.247693396618601"><ele>550.0</ele><time>2026-03-28T10:03:46.999Z</time></trkpt><trkpt lat="43.89597523515571" lon="11.247716702329527"><ele>550.0</ele><time>2026-03-28T10:03:49.999Z</time></trkpt><trkpt lat="43.89603554481715" lon="11.247748949490239"><ele>550.0</ele><time>2026-03-28T10:03:53.999Z</time></trkpt><trkpt lat="43.89610184018351" lon="11.247787172744564"><ele>550.0</ele><time>2026-03-28T10:03:56.999Z</time></trkpt><trkpt lat="43.896167567315445" lon="11.24782602307545"><ele>549.5714285714286</ele><time>2026-03-28T10:04:00.999Z</time></trkpt><trkpt lat="43.89623312441379" lon="11.24780982008521"><ele>549.1428571428571</ele><time>2026-03-28T10:04:03.999Z</time></trkpt><trkpt lat="43.89629663636151" lon="11.247819614993366"><ele>548.7142857142857</ele><time>2026-03-28T10:04:06.999Z</time></trkpt><trkpt lat="43.89636473397005" lon="11.247865965446659"><ele>548.2857142857142</ele><time>2026-03-28T10:04:10.999Z</time></trkpt><trkpt lat="43.8964200279397" lon="11.247917645207513"><ele>547.8571428571428</ele><time>2026-03-28T10:04:13.999Z</time></trkpt><trkpt lat="43.896501564091295" lon="11.247944757812304"><ele>547.4285714285714</ele><time>2026-03-28T10:04:17.999Z</time></trkpt><trkpt lat="43.8965644567823" lon="11.247991028238012"><ele>547.0</ele><time>2026-03-28T10:04:21.999Z</time></trkpt><trkpt lat="43.8966186329437" lon="11.24805493761674"><ele>547.0</ele><time>2026-03-28T10:04:25.999Z</time></trkpt><trkpt lat="43.89667539803151" lon="11.248114393231466"><ele>547.0</ele><time>2026-03-28T10:04:30.999Z</time></trkpt><trkpt lat="43.896741691134295" lon="11.248174822868169"><ele>547.0</ele><time>2026-03-28T10:04:33.999Z</time></trkpt><trkpt lat="43.89680643875316" lon="11.248232142917923"><ele>547.0</ele><time>2026-03-28T10:04:36.999Z</time></trkpt><trkpt lat="43.896878123776" lon="11.248291409723485"><ele>547.0</ele><time>2026-03-28T10:04:39.999Z</time></trkpt><trkpt lat="43.89693811503235" lon="11.248353608333971"><ele>547.0</ele><time>2026-03-28T10:04:41.999Z</time></trkpt><trkpt lat="43.89700968200761" lon="11.24841279009064"><ele>546.1428571428571</ele><time>2026-03-28T10:04:44.999Z</time></trkpt><trkpt lat="43.897065473815054" lon="11.248468791488078"><ele>545.2857142857142</ele><time>2026-03-28T10:04:47.999Z</time></trkpt><trkpt lat="43.89712757198113" lon="11.248546672065244"><ele>544.4285714285714</ele><time>2026-03-28T10:04:51.999Z</time></trkpt><trkpt lat="43.89717789842073" lon="11.248614665620723"><ele>543.5714285714286</ele><time>2026-03-28T10:04:59.999Z</time></trkpt><trkpt lat="43.89725071240098" lon="11.248645838729434"><ele>542.7142857142858</ele><time>2026-03-28T10:06:02Z</time></trkpt><trkpt lat="43.897317547538954" lon="11.248651064927685"><ele>541.8571428571429</ele><time>2026-03-28T10:06:06Z</time></trkpt><trkpt lat="43.89738253960523" lon="11.248679813551538"><ele>541.0</ele><time>2026-03-28T10:06:10Z</time></trkpt><trkpt lat="43.897458232764734" lon="11.248686588698154"><ele>541.0</ele><time>2026-03-28T10:06:15Z</time></trkpt><trkpt lat="43.897519805713124" lon="11.2487107430983"><ele>541.0</ele><time>2026-03-28T10:06:28Z</time></trkpt><trkpt lat="43.897566283088324" lon="11.248633162728567"><ele>541.0</ele><time>2026-03-28T10:09:16Z</time></trkpt><trkpt lat="43.89764586391247" lon="11.248581128915395"><ele>541.0</ele><time>2026-03-28T10:09:19Z</time></trkpt><trkpt lat="43.89771811306952" lon="11.248553335990328"><ele>541.0</ele><time>2026-03-28T10:09:21Z</time></trkpt><trkpt lat="43.89777958257879" lon="11.24849690143822"><ele>541.0</ele><time>2026-03-28T10:09:23Z</time></trkpt><trkpt lat="43.89785482109324" lon="11.248425379190746"><ele>540.3333333333334</ele><time>2026-03-28T10:09:25Z</time></trkpt><trkpt lat="43.8979072814529" lon="11.248366544692374"><ele>539.6666666666667</ele><time>2026-03-28T10:09:27Z</time></trkpt><trkpt lat="43.89795766915234" lon="11.248310575497669"><ele>539.0</ele><time>2026-03-28T10:09:29Z</time></trkpt><trkpt lat="43.89803180170341" lon="11.248260324799965"><ele>538.3333333333334</ele><time>2026-03-28T10:09:31Z</time></trkpt><trkpt lat="43.898117079728344" lon="11.248200363171668"><ele>537.6666666666666</ele><time>2026-03-28T10:09:34Z</time></trkpt><trkpt lat="43.89819876386413" lon="11.24813942872491"><ele>537.0</ele><time>2026-03-28T10:09:37Z</time></trkpt><trkpt lat="43.898284082414456" lon="11.248106802088556"><ele>535.7142857142857</ele><time>2026-03-28T10:09:39Z</time></trkpt><trkpt lat="43.89834687296843" lon="11.248062535528698"><ele>534.4285714285714</ele><time>2026-03-28T10:09:42Z</time></trkpt><trkpt lat="43.89840688939747" lon="11.248012368440213"><ele>533.1428571428571</ele><time>2026-03-28T10:09:45Z</time></trkpt><trkpt lat="43.89847765843417" lon="11.247962175505673"><ele>531.8571428571429</ele><time>2026-03-28T10:09:48Z</time></trkpt><trkpt lat="43.89852156392098" lon="11.247885026038519"><ele>530.5714285714286</ele><time>2026-03-28T10:09:51Z</time></trkpt><trkpt lat="43.89859715763623" lon="11.247842893989112"><ele>529.2857142857142</ele><time>2026-03-28T10:09:54Z</time></trkpt><trkpt lat="43.89865154699447" lon="11.247785739717589"><ele>528.0</ele><time>2026-03-28T10:09:57Z</time></trkpt><trkpt lat="43.89869977571198" lon="11.247728421653736"><ele>526.2857142857142</ele><time>2026-03-28T10:09:59Z</time></trkpt><trkpt lat="43.898755703228964" lon="11.247654600310975"><ele>524.5714285714286</ele><time>2026-03-28T10:10:03Z</time></trkpt><trkpt lat="43.89883014911245" lon="11.247637067305057"><ele>522.8571428571429</ele><time>2026-03-28T10:10:06Z</time></trkpt><trkpt lat="43.89889526429261" lon="11.247668316447454"><ele>521.1428571428571</ele><time>2026-03-28T10:10:09Z</time></trkpt><trkpt lat="43.898958901323" lon="11.247698491750612"><ele>519.4285714285714</ele><time>2026-03-28T10:10:12Z</time></trkpt><trkpt lat="43.899033590714474" lon="11.247717866710834"><ele>517.7142857142857</ele><time>2026-03-28T10:10:16Z</time></trkpt><trkpt lat="43.89909281207556" lon="11.24767668536836"><ele>516.0</ele><time>2026-03-28T10:10:19Z</time></trkpt><trkpt lat="43.899152068330636" lon="11.247605143216468"><ele>516.0</ele><time>2026-03-28T10:10:23Z</time></trkpt><trkpt lat="43.89922954101158" lon="11.247523225536117"><ele>516.0</ele><time>2026-03-28T10:10:36Z</time></trkpt><trkpt lat="43.89928251693658" lon="11.247459603382014"><ele>516.0</ele><time>2026-03-28T10:10:42Z</time></trkpt><trkpt lat="43.899307477721734" lon="11.247366963350474"><ele>516.0</ele><time>2026-03-28T10:10:48Z</time></trkpt><trkpt lat="43.89929496887623" lon="11.247266410815262"><ele>516.0</ele><time>2026-03-28T10:10:54Z</time></trkpt><trkpt lat="43.89932625031712" lon="11.247182259963884"><ele>516.0</ele><time>2026-03-28T10:10:59Z</time></trkpt><trkpt lat="43.89938503099094" lon="11.247124390303439"><ele>514.1666666666666</ele><time>2026-03-28T10:11:02Z</time></trkpt><trkpt lat="43.899432474889046" lon="11.247066187078392"><ele>512.3333333333334</ele><time>2026-03-28T10:11:15Z</time></trkpt><trkpt lat="43.899361042450906" lon="11.247074151918046"><ele>510.5</ele><time>2026-03-28T10:12:54Z</time></trkpt><trkpt lat="43.89929198943781" lon="11.247122273558945"><ele>508.6666666666667</ele><time>2026-03-28T10:13:01Z</time></trkpt><trkpt lat="43.8993601572115" lon="11.247125445773714"><ele>506.83333333333337</ele><time>2026-03-28T10:13:18Z</time></trkpt><trkpt lat="43.899439869491715" lon="11.247001283569297"><ele>505.0</ele><time>2026-03-28T10:15:47Z</time></trkpt><trkpt lat="43.89950537191806" lon="11.246983909168502"><ele>505.00000000000006</ele><time>2026-03-28T10:16:53Z</time></trkpt><trkpt lat="43.899580048463875" lon="11.246928344747765"><ele>505.0</ele><time>2026-03-28T10:16:56Z</time></trkpt><trkpt lat="43.899633886919325" lon="11.246837678046358"><ele>505.0</ele><time>2026-03-28T10:16:59Z</time></trkpt><trkpt lat="43.8996827641005" lon="11.24676961550796"><ele>505.0</ele><time>2026-03-28T10:17:01Z</time></trkpt><trkpt lat="43.89972704509946" lon="11.246675943850715"><ele>505.00000000000006</ele><time>2026-03-28T10:17:04Z</time></trkpt><trkpt lat="43.89978655439483" lon="11.24659572965591"><ele>505.0</ele><time>2026-03-28T10:17:07Z</time></trkpt><trkpt lat="43.899852734211585" lon="11.246522296003084"><ele>503.6666666666667</ele><time>2026-03-28T10:17:10Z</time></trkpt><trkpt lat="43.8998967054062" lon="11.246453054186032"><ele>502.33333333333337</ele><time>2026-03-28T10:17:13Z</time></trkpt><trkpt lat="43.89993731578086" lon="11.246371625761457"><ele>501.0</ele><time>2026-03-28T10:17:17Z</time></trkpt><trkpt lat="43.899960627095126" lon="11.246274507982687"><ele>499.66666666666663</ele><time>2026-03-28T10:17:22Z</time></trkpt><trkpt lat="43.899859081591906" lon="11.246239943402736"><ele>498.3333333333333</ele><time>2026-03-28T10:17:26Z</time></trkpt><trkpt lat="43.89977921152283" lon="11.246195578081426"><ele>497.0</ele><time>2026-03-28T10:17:28Z</time></trkpt><trkpt lat="43.89971095281788" lon="11.246126309009151"><ele>496.99999999999994</ele><time>2026-03-28T10:17:30Z</time></trkpt><trkpt lat="43.899624679227145" lon="11.246069734671618"><ele>497.0</ele><time>2026-03-28T10:17:33Z</time></trkpt><trkpt lat="43.899549939409226" lon="11.246009731987742"><ele>497.0</ele><time>2026-03-28T10:17:36Z</time></trkpt><trkpt lat="43.899495439321676" lon="11.245962266981154"><ele>497.0</ele><time>2026-03-28T10:17:38Z</time></trkpt><trkpt lat="43.89943842573263" lon="11.245909404997825"><ele>496.99999999999994</ele><time>2026-03-28T10:17:40Z</time></trkpt><trkpt lat="43.89934938083913" lon="11.245813255178563"><ele>497.0</ele><time>2026-03-28T10:17:43Z</time></trkpt><trkpt lat="43.899301568143756" lon="11.245754430784764"><ele>497.16666666666663</ele><time>2026-03-28T10:17:45Z</time></trkpt><trkpt lat="43.89924440549265" lon="11.245673030681413"><ele>497.3333333333333</ele><time>2026-03-28T10:17:47Z</time></trkpt><trkpt lat="43.899193682794845" lon="11.24556972830652"><ele>497.5</ele><time>2026-03-28T10:17:49.999Z</time></trkpt><trkpt lat="43.89914532795599" lon="11.245485166636898"><ele>497.66666666666663</ele><time>2026-03-28T10:17:52.999Z</time></trkpt><trkpt lat="43.8991037696231" lon="11.245405149155113"><ele>497.8333333333333</ele><time>2026-03-28T10:17:54.999Z</time></trkpt><trkpt lat="43.899054622197475" lon="11.245331853702442"><ele>498.0</ele><time>2026-03-28T10:17:57.999Z</time></trkpt><trkpt lat="43.89901476192966" lon="11.245233799951738"><ele>496.3333333333333</ele><time>2026-03-28T10:18:00.999Z</time></trkpt><trkpt lat="43.89896689854507" lon="11.245162219500898"><ele>494.66666666666663</ele><time>2026-03-28T10:18:03.999Z</time></trkpt><trkpt lat="43.89892602070528" lon="11.245069830175797"><ele>493.0</ele><time>2026-03-28T10:18:06.999Z</time></trkpt><trkpt lat="43.89888366178365" lon="11.244981722165575"><ele>491.3333333333333</ele><time>2026-03-28T10:18:08.999Z</time></trkpt><trkpt lat="43.89883027086285" lon="11.244887549328602"><ele>489.66666666666663</ele><time>2026-03-28T10:18:10.999Z</time></trkpt><trkpt lat="43.898769363254196" lon="11.244788324980009"><ele>488.0</ele><time>2026-03-28T10:18:13Z</time></trkpt><trkpt lat="43.898726820126484" lon="11.244720127894471"><ele>485.79999999999995</ele><time>2026-03-28T10:18:15Z</time></trkpt><trkpt lat="43.8986675060018" lon="11.244637128458935"><ele>483.59999999999997</ele><time>2026-03-28T10:18:18Z</time></trkpt><trkpt lat="43.89861733680285" lon="11.244519490975067"><ele>481.40000000000003</ele><time>2026-03-28T10:18:21Z</time></trkpt><trkpt lat="43.8985889686577" lon="11.244375627999842"><ele>479.20000000000005</ele><time>2026-03-28T10:18:23Z</time></trkpt><trkpt lat="43.89859051406252" lon="11.244235904244686"><ele>477.0</ele><time>2026-03-28T10:18:25Z</time></trkpt><trkpt lat="43.89859584600342" lon="11.244087916556218"><ele>475.20000000000005</ele><time>2026-03-28T10:18:27Z</time></trkpt><trkpt lat="43.89859080649186" lon="11.243950734097373"><ele>473.40000000000003</ele><time>2026-03-28T10:18:29Z</time></trkpt><trkpt lat="43.89857202791793" lon="11.243842235497851"><ele>471.59999999999997</ele><time>2026-03-28T10:18:31Z</time></trkpt><trkpt lat="43.89855675525638" lon="11.243722894046376"><ele>469.79999999999995</ele><time>2026-03-28T10:18:33Z</time></trkpt><trkpt lat="43.898526269694365" lon="11.243595983515148"><ele>468.0</ele><time>2026-03-28T10:18:35Z</time></trkpt><trkpt lat="43.898490408753986" lon="11.24347188589376"><ele>468.0</ele><time>2026-03-28T10:18:37Z</time></trkpt><trkpt lat="43.898454134775285" lon="11.243368904878528"><ele>468.0</ele><time>2026-03-28T10:18:39Z</time></trkpt><trkpt lat="43.89839648816987" lon="11.243239179505705"><ele>468.0</ele><time>2026-03-28T10:18:42Z</time></trkpt><trkpt lat="43.8983376455974" lon="11.243149023490528"><ele>468.0</ele><time>2026-03-28T10:18:44Z</time></trkpt><trkpt lat="43.89827243930868" lon="11.243105297548823"><ele>468.0</ele><time>2026-03-28T10:18:46Z</time></trkpt><trkpt lat="43.898204008198604" lon="11.243041499620139"><ele>468.0</ele><time>2026-03-28T10:18:49Z</time></trkpt><trkpt lat="43.89814766555988" lon="11.2429443677909"><ele>468.5</ele><time>2026-03-28T10:18:52Z</time></trkpt><trkpt lat="43.898085445719175" lon="11.242878064304247"><ele>469.0</ele><time>2026-03-28T10:18:54Z</time></trkpt><trkpt lat="43.89805212513253" lon="11.242798249406892"><ele>469.5</ele><time>2026-03-28T10:18:56Z</time></trkpt><trkpt lat="43.89797707424098" lon="11.242705090398697"><ele>470.0</ele><time>2026-03-28T10:18:59Z</time></trkpt><trkpt lat="43.897914344190916" lon="11.242635535286272"><ele>470.5</ele><time>2026-03-28T10:19:01Z</time></trkpt><trkpt lat="43.89783919216734" lon="11.242573095745772"><ele>471.0</ele><time>2026-03-28T10:19:03Z</time></trkpt><trkpt lat="43.89774282844987" lon="11.242526291068964"><ele>471.0</ele><time>2026-03-28T10:19:05Z</time></trkpt><trkpt lat="43.89768727841243" lon="11.24243564006776"><ele>471.0</ele><time>2026-03-28T10:19:07Z</time></trkpt><trkpt lat="43.89766235500557" lon="11.242300144805363"><ele>471.0</ele><time>2026-03-28T10:19:09Z</time></trkpt><trkpt lat="43.89766923561365" lon="11.242171448838464"><ele>471.0</ele><time>2026-03-28T10:19:11Z</time></trkpt><trkpt lat="43.89768001084716" lon="11.242054001220126"><ele>471.0</ele><time>2026-03-28T10:19:13Z</time></trkpt><trkpt lat="43.89767676976622" lon="11.241940640774214"><ele>471.0</ele><time>2026-03-28T10:19:15Z</time></trkpt><trkpt lat="43.89766363675601" lon="11.241812556654613"><ele>469.5</ele><time>2026-03-28T10:19:17Z</time></trkpt><trkpt lat="43.89766533665074" lon="11.241708791134045"><ele>468.0</ele><time>2026-03-28T10:19:19Z</time></trkpt><trkpt lat="43.897663918220005" lon="11.241585027409277"><ele>466.5</ele><time>2026-03-28T10:19:21Z</time></trkpt><trkpt lat="43.897677146304595" lon="11.241456410177156"><ele>465.0</ele><time>2026-03-28T10:19:23Z</time></trkpt><trkpt lat="43.89769028773675" lon="11.241319349911766"><ele>463.5</ele><time>2026-03-28T10:19:25Z</time></trkpt><trkpt lat="43.897690665451094" lon="11.241213481457354"><ele>462.0</ele><time>2026-03-28T10:19:27Z</time></trkpt><trkpt lat="43.89769110622317" lon="11.24111465636091"><ele>460.8333333333333</ele><time>2026-03-28T10:19:29Z</time></trkpt><trkpt lat="43.89767416232291" lon="11.24101059850133"><ele>459.66666666666663</ele><time>2026-03-28T10:19:31Z</time></trkpt><trkpt lat="43.897653614096924" lon="11.240892002616397"><ele>458.5</ele><time>2026-03-28T10:19:34Z</time></trkpt><trkpt lat="43.897651072008024" lon="11.240775786002937"><ele>457.3333333333333</ele><time>2026-03-28T10:19:37Z</time></trkpt><trkpt lat="43.89766344887087" lon="11.240653235829281"><ele>456.16666666666663</ele><time>2026-03-28T10:19:40Z</time></trkpt><trkpt lat="43.89767876824905" lon="11.240553286241111"><ele>455.0</ele><time>2026-03-28T10:19:42Z</time></trkpt><trkpt lat="43.89772202339168" lon="11.240468691260107"><ele>454.66666666666663</ele><time>2026-03-28T10:19:44Z</time></trkpt><trkpt lat="43.89778034648204" lon="11.240376174706022"><ele>454.3333333333333</ele><time>2026-03-28T10:19:46Z</time></trkpt><trkpt lat="43.89783254786357" lon="11.240281646228633"><ele>454.0</ele><time>2026-03-28T10:19:49Z</time></trkpt><trkpt lat="43.89787005083126" lon="11.240188480565172"><ele>453.66666666666663</ele><time>2026-03-28T10:19:53Z</time></trkpt><trkpt lat="43.89789216323732" lon="11.2400883556156"><ele>453.3333333333333</ele><time>2026-03-28T10:19:56Z</time></trkpt><trkpt lat="43.897926843997496" lon="11.24000670269224"><ele>453.0</ele><time>2026-03-28T10:19:58Z</time></trkpt><trkpt lat="43.89794541486079" lon="11.239892000336516"><ele>453.3333333333333</ele><time>2026-03-28T10:20:00Z</time></trkpt><trkpt lat="43.8979731262132" lon="11.239748907122372"><ele>453.66666666666663</ele><time>2026-03-28T10:20:03Z</time></trkpt><trkpt lat="43.89796936814177" lon="11.239661257692742"><ele>454.0</ele><time>2026-03-28T10:20:06Z</time></trkpt><trkpt lat="43.89798145827326" lon="11.23956406143784"><ele>454.3333333333333</ele><time>2026-03-28T10:20:08Z</time></trkpt><trkpt lat="43.89799758999961" lon="11.239458635665674"><ele>454.66666666666663</ele><time>2026-03-28T10:20:10Z</time></trkpt><trkpt lat="43.89800787772017" lon="11.2393634756857"><ele>455.0</ele><time>2026-03-28T10:20:13Z</time></trkpt><trkpt lat="43.89801379760098" lon="11.239229102137546"><ele>455.0</ele><time>2026-03-28T10:20:16Z</time></trkpt><trkpt lat="43.898002762949595" lon="11.23914221067341"><ele>455.0</ele><time>2026-03-28T10:20:18Z</time></trkpt><trkpt lat="43.898004675067185" lon="11.238988939354417"><ele>455.0</ele><time>2026-03-28T10:20:20Z</time></trkpt><trkpt lat="43.89799167865445" lon="11.238894228993404"><ele>455.0</ele><time>2026-03-28T10:20:21Z</time></trkpt><trkpt lat="43.89797037310021" lon="11.238727621711844"><ele>455.0</ele><time>2026-03-28T10:20:24Z</time></trkpt><trkpt lat="43.89792634575937" lon="11.238601908839417"><ele>453.3333333333333</ele><time>2026-03-28T10:20:26Z</time></trkpt><trkpt lat="43.89788394961289" lon="11.23851058444279"><ele>451.66666666666663</ele><time>2026-03-28T10:20:28Z</time></trkpt><trkpt lat="43.897816568590535" lon="11.238442512384678"><ele>450.0</ele><time>2026-03-28T10:20:30Z</time></trkpt><trkpt lat="43.897749454377" lon="11.23837073752508"><ele>448.33333333333337</ele><time>2026-03-28T10:20:32Z</time></trkpt><trkpt lat="43.89766493579847" lon="11.23833030040786"><ele>446.6666666666667</ele><time>2026-03-28T10:20:34Z</time></trkpt><trkpt lat="43.897601146786" lon="11.238295131912125"><ele>445.0</ele><time>2026-03-28T10:20:36Z</time></trkpt><trkpt lat="43.897532992769435" lon="11.238258958195745"><ele>448.50000000000006</ele><time>2026-03-28T10:20:38Z</time></trkpt><trkpt lat="43.89746514191828" lon="11.238232103691702"><ele>452.0</ele><time>2026-03-28T10:20:40Z</time></trkpt><trkpt lat="43.897391764419105" lon="11.238214327952779"><ele>455.5</ele><time>2026-03-28T10:20:42Z</time></trkpt><trkpt lat="43.89731396166625" lon="11.238190383372357"><ele>459.0</ele><time>2026-03-28T10:20:44Z</time></trkpt><trkpt lat="43.89723397686448" lon="11.238207761640169"><ele>462.50000000000006</ele><time>2026-03-28T10:20:46Z</time></trkpt><trkpt lat="43.89715556159809" lon="11.238206919442073"><ele>466.0</ele><time>2026-03-28T10:20:48Z</time></trkpt><trkpt lat="43.897074504846636" lon="11.238240348643915"><ele>466.00000000000006</ele><time>2026-03-28T10:20:50Z</time></trkpt><trkpt lat="43.89699860480832" lon="11.238276636030337"><ele>466.0</ele><time>2026-03-28T10:20:52Z</time></trkpt><trkpt lat="43.896914402319005" lon="11.238254159953582"><ele>466.0</ele><time>2026-03-28T10:20:55Z</time></trkpt><trkpt lat="43.89690001308005" lon="11.238164628056143"><ele>466.0</ele><time>2026-03-28T10:20:57Z</time></trkpt><trkpt lat="43.896931965683976" lon="11.23806377163894"><ele>466.00000000000006</ele><time>2026-03-28T10:21:00Z</time></trkpt><trkpt lat="43.89694168277987" lon="11.237961904674457"><ele>466.0</ele><time>2026-03-28T10:21:03Z</time></trkpt><trkpt lat="43.896934240376204" lon="11.237867314282022"><ele>462.00000000000006</ele><time>2026-03-28T10:21:05Z</time></trkpt><trkpt lat="43.89694530975311" lon="11.237747808168281"><ele>458.0</ele><time>2026-03-28T10:21:07Z</time></trkpt><trkpt lat="43.8969682671496" lon="11.237642298079322"><ele>454.0</ele><time>2026-03-28T10:21:09Z</time></trkpt><trkpt lat="43.89696431452124" lon="11.23752301610209"><ele>450.0</ele><time>2026-03-28T10:21:11Z</time></trkpt><trkpt lat="43.89695276808755" lon="11.23739811332061"><ele>446.00000000000006</ele><time>2026-03-28T10:21:13Z</time></trkpt><trkpt lat="43.896968093802684" lon="11.237288869133868"><ele>442.0</ele><time>2026-03-28T10:21:16Z</time></trkpt><trkpt lat="43.89695692797187" lon="11.237192622161828"><ele>438.20000000000005</ele><time>2026-03-28T10:21:19Z</time></trkpt><trkpt lat="43.89696013075917" lon="11.237101587316294"><ele>434.40000000000003</ele><time>2026-03-28T10:21:21Z</time></trkpt><trkpt lat="43.89695655412555" lon="11.236926716304342"><ele>430.6</ele><time>2026-03-28T10:21:24Z</time></trkpt><trkpt lat="43.89693216552847" lon="11.236817671001738"><ele>426.79999999999995</ele><time>2026-03-28T10:21:26Z</time></trkpt><trkpt lat="43.896904504996975" lon="11.236713375955453"><ele>423.0</ele><time>2026-03-28T10:21:28Z</time></trkpt><trkpt lat="43.89685555372572" lon="11.23659226728234"><ele>423.0</ele><time>2026-03-28T10:21:31Z</time></trkpt><trkpt lat="43.89682418499672" lon="11.236471666051894"><ele>423.0</ele><time>2026-03-28T10:21:34Z</time></trkpt><trkpt lat="43.89685679981788" lon="11.236326384612555"><ele>423.0</ele><time>2026-03-28T10:21:38Z</time></trkpt><trkpt lat="43.89686459596381" lon="11.236209012328647"><ele>423.0</ele><time>2026-03-28T10:21:42Z</time></trkpt><trkpt lat="43.896875479749475" lon="11.236099177195975"><ele>423.0</ele><time>2026-03-28T10:21:45Z</time></trkpt><trkpt lat="43.896887202838016" lon="11.235999330041775"><ele>423.0</ele><time>2026-03-28T10:21:47Z</time></trkpt><trkpt lat="43.896873609166015" lon="11.235899438868476"><ele>421.8333333333333</ele><time>2026-03-28T10:21:49Z</time></trkpt><trkpt lat="43.896874977254996" lon="11.235810609157236"><ele>420.66666666666663</ele><time>2026-03-28T10:21:52Z</time></trkpt><trkpt lat="43.89686051353173" lon="11.235667651099124"><ele>419.5</ele><time>2026-03-28T10:21:55Z</time></trkpt><trkpt lat="43.896864004003454" lon="11.235499204073816"><ele>418.3333333333333</ele><time>2026-03-28T10:21:59Z</time></trkpt><trkpt lat="43.896874359747656" lon="11.235374251320927"><ele>417.16666666666663</ele><time>2026-03-28T10:22:01Z</time></trkpt><trkpt lat="43.89688668212584" lon="11.235282873838882"><ele>416.0</ele><time>2026-03-28T10:22:03Z</time></trkpt><trkpt lat="43.8968710862881" lon="11.235192924148905"><ele>415.16666666666663</ele><time>2026-03-28T10:22:05Z</time></trkpt><trkpt lat="43.896880505373574" lon="11.235080091501178"><ele>414.3333333333333</ele><time>2026-03-28T10:22:07Z</time></trkpt><trkpt lat="43.89687035917319" lon="11.234962929064634"><ele>413.5</ele><time>2026-03-28T10:22:09Z</time></trkpt><trkpt lat="43.89686589658175" lon="11.23486871740992"><ele>412.66666666666663</ele><time>2026-03-28T10:22:11Z</time></trkpt><trkpt lat="43.89686128382478" lon="11.234770884374347"><ele>411.8333333333333</ele><time>2026-03-28T10:22:14Z</time></trkpt><trkpt lat="43.89684031503516" lon="11.234644639083621"><ele>411.0</ele><time>2026-03-28T10:22:18Z</time></trkpt><trkpt lat="43.896805528534514" lon="11.234564738207963"><ele>408.8333333333333</ele><time>2026-03-28T10:22:21Z</time></trkpt><trkpt lat="43.89676753958391" lon="11.234479682564837"><ele>406.66666666666663</ele><time>2026-03-28T10:22:24Z</time></trkpt><trkpt lat="43.89670192989745" lon="11.234393540733736"><ele>404.5</ele><time>2026-03-28T10:22:27Z</time></trkpt><trkpt lat="43.89662514234437" lon="11.234347782857872"><ele>402.3333333333333</ele><time>2026-03-28T10:22:30Z</time></trkpt><trkpt lat="43.896541419107166" lon="11.234315518563255"><ele>400.16666666666663</ele><time>2026-03-28T10:22:33Z</time></trkpt><trkpt lat="43.8964773632563" lon="11.234272441532877"><ele>398.0</ele><time>2026-03-28T10:22:36Z</time></trkpt><trkpt lat="43.89647093925061" lon="11.234166221830268"><ele>401.8333333333333</ele><time>2026-03-28T10:22:39Z</time></trkpt><trkpt lat="43.89650526112319" lon="11.234060420651282"><ele>405.66666666666663</ele><time>2026-03-28T10:22:42Z</time></trkpt><trkpt lat="43.89653676579932" lon="11.233946125845"><ele>409.5</ele><time>2026-03-28T10:22:46Z</time></trkpt><trkpt lat="43.896561343737794" lon="11.23383726779205"><ele>413.33333333333337</ele><time>2026-03-28T10:22:48Z</time></trkpt><trkpt lat="43.896579285234445" lon="11.233691744643378"><ele>417.1666666666667</ele><time>2026-03-28T10:22:51Z</time></trkpt><trkpt lat="43.89660375075717" lon="11.233590883489645"><ele>421.0</ele><time>2026-03-28T10:22:53Z</time></trkpt><trkpt lat="43.896627517098146" lon="11.233501480649933"><ele>421.00000000000006</ele><time>2026-03-28T10:22:55Z</time></trkpt><trkpt lat="43.8966343256364" lon="11.233412375457476"><ele>421.0</ele><time>2026-03-28T10:22:57Z</time></trkpt><trkpt lat="43.89663767611842" lon="11.233294433803612"><ele>421.0</ele><time>2026-03-28T10:23:00Z</time></trkpt><trkpt lat="43.89665849262604" lon="11.23319716681767"><ele>421.0</ele><time>2026-03-28T10:23:02Z</time></trkpt><trkpt lat="43.89669325896718" lon="11.233083813467731"><ele>421.00000000000006</ele><time>2026-03-28T10:23:04Z</time></trkpt><trkpt lat="43.89671724305606" lon="11.232987740852941"><ele>421.0</ele><time>2026-03-28T10:23:06Z</time></trkpt><trkpt lat="43.8967395451404" lon="11.232878446842985"><ele>419.83333333333337</ele><time>2026-03-28T10:23:08Z</time></trkpt><trkpt lat="43.896740403212526" lon="11.232787661593816"><ele>418.6666666666667</ele><time>2026-03-28T10:23:10Z</time></trkpt><trkpt lat="43.896757301212816" lon="11.232690594237237"><ele>417.5</ele><time>2026-03-28T10:23:12Z</time></trkpt><trkpt lat="43.89677379884596" lon="11.232576623286457"><ele>416.33333333333337</ele><time>2026-03-28T10:23:15Z</time></trkpt><trkpt lat="43.896782323758345" lon="11.232471125564192"><ele>415.1666666666667</ele><time>2026-03-28T10:23:17Z</time></trkpt><trkpt lat="43.89675456701647" lon="11.232344632909632"><ele>414.0</ele><time>2026-03-28T10:23:19Z</time></trkpt><trkpt lat="43.89672136296402" lon="11.232236918904297"><ele>411.0</ele><time>2026-03-28T10:23:21Z</time></trkpt><trkpt lat="43.89669323782132" lon="11.232155569893553"><ele>408.0</ele><time>2026-03-28T10:23:23Z</time></trkpt><trkpt lat="43.89663161821204" lon="11.232059253295947"><ele>405.0</ele><time>2026-03-28T10:23:27Z</time></trkpt><trkpt lat="43.89657961078279" lon="11.231941121908475"><ele>402.0</ele><time>2026-03-28T10:23:29Z</time></trkpt><trkpt lat="43.8965136689342" lon="11.231869518581654"><ele>399.0</ele><time>2026-03-28T10:23:31Z</time></trkpt><trkpt lat="43.89643684771395" lon="11.231787211466163"><ele>396.0</ele><time>2026-03-28T10:23:34Z</time></trkpt><trkpt lat="43.896377522137115" lon="11.231726355678694"><ele>396.0</ele><time>2026-03-28T10:23:36Z</time></trkpt><trkpt lat="43.89631369889579" lon="11.231667192567667"><ele>396.0</ele><time>2026-03-28T10:23:38Z</time></trkpt><trkpt lat="43.896262942459266" lon="11.23160837901905"><ele>396.0</ele><time>2026-03-28T10:23:40Z</time></trkpt><trkpt lat="43.89620052299707" lon="11.231562102106771"><ele>396.0</ele><time>2026-03-28T10:23:42Z</time></trkpt><trkpt lat="43.89611938405807" lon="11.231497494289204"><ele>396.0</ele><time>2026-03-28T10:23:44Z</time></trkpt><trkpt lat="43.89607812591014" lon="11.231405965558347"><ele>396.0</ele><time>2026-03-28T10:23:46Z</time></trkpt><trkpt lat="43.89610548429725" lon="11.231316375536222"><ele>394.8333333333333</ele><time>2026-03-28T10:23:49Z</time></trkpt><trkpt lat="43.89616212761229" lon="11.231256394900925"><ele>393.66666666666663</ele><time>2026-03-28T10:23:52Z</time></trkpt><trkpt lat="43.89621937691292" lon="11.231198357235492"><ele>392.5</ele><time>2026-03-28T10:23:56Z</time></trkpt><trkpt lat="43.89626523382915" lon="11.231082324514782"><ele>391.3333333333333</ele><time>2026-03-28T10:24:00Z</time></trkpt><trkpt lat="43.89633363582093" lon="11.230969686959423"><ele>390.16666666666663</ele><time>2026-03-28T10:24:03Z</time></trkpt><trkpt lat="43.896383908375896" lon="11.230874452934609"><ele>389.0</ele><time>2026-03-28T10:24:05Z</time></trkpt><trkpt lat="43.896435189628015" lon="11.230775566523008"><ele>388.99999999999994</ele><time>2026-03-28T10:24:07Z</time></trkpt><trkpt lat="43.89649796435908" lon="11.230644176185704"><ele>389.0</ele><time>2026-03-28T10:24:09Z</time></trkpt><trkpt lat="43.896545844302295" lon="11.230584941814286"><ele>389.0</ele><time>2026-03-28T10:24:11Z</time></trkpt><trkpt lat="43.896571880221856" lon="11.230500800066018"><ele>389.0</ele><time>2026-03-28T10:24:12Z</time></trkpt><trkpt lat="43.89662458515834" lon="11.230403486119277"><ele>388.99999999999994</ele><time>2026-03-28T10:24:14Z</time></trkpt><trkpt lat="43.89666055996328" lon="11.23025509016763"><ele>389.0</ele><time>2026-03-28T10:24:16Z</time></trkpt><trkpt lat="43.89669864115329" lon="11.230115488732057"><ele>389.3333333333333</ele><time>2026-03-28T10:24:18Z</time></trkpt><trkpt lat="43.89671810496762" lon="11.229981564009494"><ele>389.66666666666663</ele><time>2026-03-28T10:24:20Z</time></trkpt><trkpt lat="43.89673015386508" lon="11.22986413728711"><ele>390.0</ele><time>2026-03-28T10:24:22Z</time></trkpt><trkpt lat="43.8967364667017" lon="11.229752509396254"><ele>390.33333333333337</ele><time>2026-03-28T10:24:24Z</time></trkpt><trkpt lat="43.89674439178521" lon="11.229641598690412"><ele>390.6666666666667</ele><time>2026-03-28T10:24:26Z</time></trkpt><trkpt lat="43.89679994655935" lon="11.229589625342586"><ele>391.0</ele><time>2026-03-28T10:24:28Z</time></trkpt><trkpt lat="43.896885056880734" lon="11.22954270594978"><ele>387.1666666666667</ele><time>2026-03-28T10:24:31Z</time></trkpt><trkpt lat="43.89695338017828" lon="11.22951021920448"><ele>383.33333333333337</ele><time>2026-03-28T10:24:34Z</time></trkpt><trkpt lat="43.89702663343417" lon="11.229478030230542"><ele>379.5</ele><time>2026-03-28T10:24:36Z</time></trkpt><trkpt lat="43.897080590447764" lon="11.229395729921773"><ele>375.6666666666667</ele><time>2026-03-28T10:24:38Z</time></trkpt><trkpt lat="43.89712621554205" lon="11.229268219291226"><ele>371.83333333333337</ele><time>2026-03-28T10:24:41Z</time></trkpt><trkpt lat="43.89713995188414" lon="11.229159948611636"><ele>368.0</ele><time>2026-03-28T10:24:43Z</time></trkpt><trkpt lat="43.89717004420422" lon="11.229061598976124"><ele>367.5</ele><time>2026-03-28T10:24:45Z</time></trkpt><trkpt lat="43.89716931353204" lon="11.228960541571242"><ele>367.0</ele><time>2026-03-28T10:24:48Z</time></trkpt><trkpt lat="43.89717330232259" lon="11.228831087916188"><ele>366.5</ele><time>2026-03-28T10:24:50Z</time></trkpt><trkpt lat="43.89718595388472" lon="11.228730826276182"><ele>366.0</ele><time>2026-03-28T10:24:52Z</time></trkpt><trkpt lat="43.897168149256565" lon="11.228624694141947"><ele>365.5</ele><time>2026-03-28T10:24:54Z</time></trkpt><trkpt lat="43.897160269069204" lon="11.228497072558987"><ele>365.0</ele><time>2026-03-28T10:24:57Z</time></trkpt><trkpt lat="43.8971467082864" lon="11.228396037809217"><ele>365.00000000000006</ele><time>2026-03-28T10:25:00Z</time></trkpt><trkpt lat="43.89713281076158" lon="11.228304588903944"><ele>365.0</ele><time>2026-03-28T10:25:03Z</time></trkpt><trkpt lat="43.89711156694" lon="11.228219086090572"><ele>365.0</ele><time>2026-03-28T10:25:06Z</time></trkpt><trkpt lat="43.89710197563721" lon="11.228118761598603"><ele>365.0</ele><time>2026-03-28T10:25:09Z</time></trkpt><trkpt lat="43.89711226106199" lon="11.22801648466741"><ele>365.0</ele><time>2026-03-28T10:25:12Z</time></trkpt><trkpt lat="43.897158244184496" lon="11.227937458378312"><ele>365.00000000000006</ele><time>2026-03-28T10:25:16Z</time></trkpt><trkpt lat="43.89723080137837" lon="11.227906990663456"><ele>365.0</ele><time>2026-03-28T10:25:21Z</time></trkpt><trkpt lat="43.89729647268203" lon="11.227870215385224"><ele>365.83333333333337</ele><time>2026-03-28T10:25:25Z</time></trkpt><trkpt lat="43.89735852846278" lon="11.227839095809436"><ele>366.6666666666667</ele><time>2026-03-28T10:25:29Z</time></trkpt><trkpt lat="43.897431107890164" lon="11.227798086025496"><ele>367.5</ele><time>2026-03-28T10:25:32Z</time></trkpt><trkpt lat="43.89750052223623" lon="11.227736855752083"><ele>368.3333333333333</ele><time>2026-03-28T10:25:35Z</time></trkpt><trkpt lat="43.897558699513716" lon="11.227662691427108"><ele>369.16666666666663</ele><time>2026-03-28T10:25:39Z</time></trkpt><trkpt lat="43.89761501640705" lon="11.227601805171565"><ele>370.0</ele><time>2026-03-28T10:25:41Z</time></trkpt><trkpt lat="43.89768776533201" lon="11.227559704246362"><ele>366.8333333333333</ele><time>2026-03-28T10:25:45Z</time></trkpt><trkpt lat="43.89776171493382" lon="11.227514702969112"><ele>363.66666666666663</ele><time>2026-03-28T10:25:48Z</time></trkpt><trkpt lat="43.89782018281008" lon="11.227432399962446"><ele>360.5</ele><time>2026-03-28T10:25:51Z</time></trkpt><trkpt lat="43.89785669256524" lon="11.22734080650403"><ele>357.3333333333333</ele><time>2026-03-28T10:25:53Z</time></trkpt><trkpt lat="43.897880293558416" lon="11.227211476734645"><ele>354.1666666666667</ele><time>2026-03-28T10:25:55Z</time></trkpt><trkpt lat="43.89793645005096" lon="11.2271210813224"><ele>351.0</ele><time>2026-03-28T10:25:57Z</time></trkpt><trkpt lat="43.89799926074116" lon="11.227093308821079"><ele>351.0</ele><time>2026-03-28T10:26:00Z</time></trkpt><trkpt lat="43.89806013511051" lon="11.2270684476068"><ele>351.0</ele><time>2026-03-28T10:26:03Z</time></trkpt><trkpt lat="43.89816891437909" lon="11.227053654134767"><ele>351.0</ele><time>2026-03-28T10:26:07Z</time></trkpt><trkpt lat="43.89822403416406" lon="11.226981229926393"><ele>351.0</ele><time>2026-03-28T10:26:09Z</time></trkpt><trkpt lat="43.89828866713564" lon="11.226935459723578"><ele>351.0</ele><time>2026-03-28T10:26:11Z</time></trkpt><trkpt lat="43.898385052854536" lon="11.226894724511718"><ele>351.0</ele><time>2026-03-28T10:26:14Z</time></trkpt><trkpt lat="43.89845101676395" lon="11.226861703974915"><ele>347.6666666666667</ele><time>2026-03-28T10:26:16Z</time></trkpt><trkpt lat="43.898531356460516" lon="11.22683483985402"><ele>344.3333333333333</ele><time>2026-03-28T10:26:18Z</time></trkpt><trkpt lat="43.898611604446714" lon="11.226780173252852"><ele>341.0</ele><time>2026-03-28T10:26:21Z</time></trkpt><trkpt lat="43.89866071781869" lon="11.226714136849283"><ele>337.66666666666663</ele><time>2026-03-28T10:26:23Z</time></trkpt><trkpt lat="43.89874430690051" lon="11.226659146050485"><ele>334.3333333333333</ele><time>2026-03-28T10:26:26Z</time></trkpt><trkpt lat="43.89881398061376" lon="11.226574059516965"><ele>331.0</ele><time>2026-03-28T10:26:29Z</time></trkpt><trkpt lat="43.8988498804195" lon="11.226452475373941"><ele>331.0</ele><time>2026-03-28T10:26:32Z</time></trkpt><trkpt lat="43.898894298478645" lon="11.226370587044547"><ele>331.0</ele><time>2026-03-28T10:26:35Z</time></trkpt><trkpt lat="43.8989437320201" lon="11.226316237921672"><ele>331.0</ele><time>2026-03-28T10:26:37Z</time></trkpt><trkpt lat="43.89901392876918" lon="11.22628947031955"><ele>331.0</ele><time>2026-03-28T10:26:40Z</time></trkpt><trkpt lat="43.89909591357902" lon="11.226232108586322"><ele>331.0</ele><time>2026-03-28T10:26:42Z</time></trkpt><trkpt lat="43.89916642019807" lon="11.226196366817266"><ele>331.0</ele><time>2026-03-28T10:26:44Z</time></trkpt><trkpt lat="43.899238088792835" lon="11.226166387697244"><ele>327.42857142857144</ele><time>2026-03-28T10:26:47Z</time></trkpt><trkpt lat="43.899302000306115" lon="11.226146872121344"><ele>323.85714285714283</ele><time>2026-03-28T10:26:50Z</time></trkpt><trkpt lat="43.8993806472837" lon="11.226102372002245"><ele>320.2857142857143</ele><time>2026-03-28T10:26:52Z</time></trkpt><trkpt lat="43.89944012034084" lon="11.226023692315323"><ele>316.7142857142857</ele><time>2026-03-28T10:26:54Z</time></trkpt><trkpt lat="43.89948761917033" lon="11.225954638601939"><ele>313.14285714285717</ele><time>2026-03-28T10:26:56Z</time></trkpt><trkpt lat="43.89951772839019" lon="11.22586890047527"><ele>309.57142857142856</ele><time>2026-03-28T10:26:58Z</time></trkpt><trkpt lat="43.8995692813576" lon="11.225792539182146"><ele>306.0</ele><time>2026-03-28T10:27:01Z</time></trkpt><trkpt lat="43.89963930645728" lon="11.225750686021492"><ele>306.0</ele><time>2026-03-28T10:27:04Z</time></trkpt><trkpt lat="43.899665911635104" lon="11.225670707374393"><ele>306.0</ele><time>2026-03-28T10:27:06Z</time></trkpt><trkpt lat="43.899660491315736" lon="11.225558434595298"><ele>306.0</ele><time>2026-03-28T10:27:08Z</time></trkpt><trkpt lat="43.89962033338646" lon="11.225470275210878"><ele>306.0</ele><time>2026-03-28T10:27:10Z</time></trkpt><trkpt lat="43.89956760528318" lon="11.22540346495528"><ele>306.0</ele><time>2026-03-28T10:27:12Z</time></trkpt><trkpt lat="43.89950621087808" lon="11.225358963865066"><ele>306.0</ele><time>2026-03-28T10:27:14Z</time></trkpt><trkpt lat="43.899486876823175" lon="11.225246092155874"><ele>306.0</ele><time>2026-03-28T10:27:16Z</time></trkpt><trkpt lat="43.899517996949534" lon="11.225147330062896"><ele>305.5</ele><time>2026-03-28T10:27:18Z</time></trkpt><trkpt lat="43.89952607916338" lon="11.225056354190551"><ele>305.0</ele><time>2026-03-28T10:27:20Z</time></trkpt><trkpt lat="43.89954877142418" lon="11.224945944057206"><ele>304.5</ele><time>2026-03-28T10:27:22Z</time></trkpt><trkpt lat="43.899586248551465" lon="11.22485049992944"><ele>304.0</ele><time>2026-03-28T10:27:24Z</time></trkpt><trkpt lat="43.89962232946811" lon="11.224759803013631"><ele>303.5</ele><time>2026-03-28T10:27:26Z</time></trkpt><trkpt lat="43.89965231884588" lon="11.224645925582283"><ele>303.0</ele><time>2026-03-28T10:27:28Z</time></trkpt><trkpt lat="43.899665722223126" lon="11.224532337725051"><ele>301.5</ele><time>2026-03-28T10:27:30Z</time></trkpt><trkpt lat="43.89966846051581" lon="11.224432498473242"><ele>300.0</ele><time>2026-03-28T10:27:32Z</time></trkpt><trkpt lat="43.89966066763999" lon="11.224299097401843"><ele>298.5</ele><time>2026-03-28T10:27:35Z</time></trkpt><trkpt lat="43.899644509800716" lon="11.224207502339299"><ele>297.0</ele><time>2026-03-28T10:27:37Z</time></trkpt><trkpt lat="43.899636767310255" lon="11.2241058909834"><ele>295.5</ele><time>2026-03-28T10:27:39Z</time></trkpt><trkpt lat="43.89962306248675" lon="11.223991597880703"><ele>294.0</ele><time>2026-03-28T10:27:42Z</time></trkpt><trkpt lat="43.89962040834312" lon="11.223900370504797"><ele>294.0</ele><time>2026-03-28T10:27:45Z</time></trkpt><trkpt lat="43.89962131921828" lon="11.223773212346751"><ele>294.0</ele><time>2026-03-28T10:27:48Z</time></trkpt><trkpt lat="43.89963989858991" lon="11.223672389043086"><ele>294.0</ele><time>2026-03-28T10:27:51Z</time></trkpt><trkpt lat="43.89968070391983" lon="11.223573198573083"><ele>294.0</ele><time>2026-03-28T10:27:54Z</time></trkpt><trkpt lat="43.89972818925776" lon="11.22348114151997"><ele>294.0</ele><time>2026-03-28T10:27:57Z</time></trkpt><trkpt lat="43.89976603393015" lon="11.223409911873759"><ele>294.0</ele><time>2026-03-28T10:28:00Z</time></trkpt><trkpt lat="43.89982310684539" lon="11.223358221741698"><ele>294.0</ele><time>2026-03-28T10:28:03Z</time></trkpt><trkpt lat="43.899889073625076" lon="11.22335056366826"><ele>294.0</ele><time>2026-03-28T10:28:05Z</time></trkpt><trkpt lat="43.89995584531554" lon="11.223321805120419"><ele>294.0</ele><time>2026-03-28T10:28:09Z</time></trkpt><trkpt lat="43.900030499394674" lon="11.223299761235658"><ele>294.0</ele><time>2026-03-28T10:28:14Z</time></trkpt><trkpt lat="43.90010734820053" lon="11.223249099504459"><ele>294.0</ele><time>2026-03-28T10:28:17Z</time></trkpt><trkpt lat="43.90018675892812" lon="11.223173702099452"><ele>294.0</ele><time>2026-03-28T10:28:20Z</time></trkpt><trkpt lat="43.900233519810904" lon="11.223104803266748"><ele>290.8333333333333</ele><time>2026-03-28T10:28:22Z</time></trkpt><trkpt lat="43.900273469020725" lon="11.223027582123175"><ele>287.6666666666667</ele><time>2026-03-28T10:28:24Z</time></trkpt><trkpt lat="43.90031590969713" lon="11.222962183249347"><ele>284.5</ele><time>2026-03-28T10:28:40Z</time></trkpt><trkpt lat="43.900317502289326" lon="11.222857779335854"><ele>281.33333333333337</ele><time>2026-03-28T10:29:03Z</time></trkpt><trkpt lat="43.90039186074415" lon="11.222840991325617"><ele>278.1666666666667</ele><time>2026-03-28T10:30:08Z</time></trkpt><trkpt lat="43.90044498926275" lon="11.222744377971802"><ele>275.0</ele><time>2026-03-28T10:30:10Z</time></trkpt><trkpt lat="43.900486443438105" lon="11.22263971537202"><ele>275.0</ele><time>2026-03-28T10:30:12Z</time></trkpt><trkpt lat="43.90053442940328" lon="11.22251001444717"><ele>275.0</ele><time>2026-03-28T10:30:14Z</time></trkpt><trkpt lat="43.90056689796336" lon="11.222383724097083"><ele>275.0</ele><time>2026-03-28T10:30:16Z</time></trkpt><trkpt lat="43.90066529600529" lon="11.22235198515926"><ele>275.0</ele><time>2026-03-28T10:30:18Z</time></trkpt><trkpt lat="43.9007634405359" lon="11.22241874536116"><ele>275.0</ele><time>2026-03-28T10:30:20Z</time></trkpt><trkpt lat="43.90086144966073" lon="11.222405672600555"><ele>276.0</ele><time>2026-03-28T10:30:22Z</time></trkpt><trkpt lat="43.900942151486504" lon="11.222332207429504"><ele>277.0</ele><time>2026-03-28T10:30:24Z</time></trkpt><trkpt lat="43.90098745525878" lon="11.222258484062827"><ele>278.0</ele><time>2026-03-28T10:30:26Z</time></trkpt><trkpt lat="43.901019206084705" lon="11.222163431450712"><ele>279.0</ele><time>2026-03-28T10:30:28Z</time></trkpt><trkpt lat="43.90106253869871" lon="11.222092407668033"><ele>280.0</ele><time>2026-03-28T10:30:30Z</time></trkpt><trkpt lat="43.901114827266724" lon="11.221981691245503"><ele>281.0</ele><time>2026-03-28T10:30:34Z</time></trkpt><trkpt lat="43.901167761523" lon="11.221934054538718"><ele>281.0</ele><time>2026-03-28T10:30:36Z</time></trkpt><trkpt lat="43.90124202162289" lon="11.221896917129959"><ele>281.0</ele><time>2026-03-28T10:30:38Z</time></trkpt><trkpt lat="43.90130306255045" lon="11.221787374625746"><ele>281.0</ele><time>2026-03-28T10:30:41Z</time></trkpt><trkpt lat="43.90135472273275" lon="11.221735398117765"><ele>281.0</ele><time>2026-03-28T10:30:43Z</time></trkpt><trkpt lat="43.90141849525278" lon="11.221715958042843"><ele>281.0</ele><time>2026-03-28T10:30:47Z</time></trkpt><trkpt lat="43.90149159926728" lon="11.22173912565943"><ele>281.0</ele><time>2026-03-28T10:30:50.999Z</time></trkpt><trkpt lat="43.901557966814195" lon="11.221770014347806"><ele>281.0</ele><time>2026-03-28T10:30:54.999Z</time></trkpt><trkpt lat="43.90162190368052" lon="11.22181642288051"><ele>281.0</ele><time>2026-03-28T10:30:57.999Z</time></trkpt><trkpt lat="43.90168534116111" lon="11.221832129714143"><ele>281.0</ele><time>2026-03-28T10:30:59.999Z</time></trkpt><trkpt lat="43.901749351092676" lon="11.221872369429263"><ele>281.0</ele><time>2026-03-28T10:31:01.999Z</time></trkpt><trkpt lat="43.90180801877998" lon="11.22191567747778"><ele>281.0</ele><time>2026-03-28T10:31:03.999Z</time></trkpt><trkpt lat="43.90188370272524" lon="11.221988790239008"><ele>281.0</ele><time>2026-03-28T10:31:05.999Z</time></trkpt><trkpt lat="43.901989960976756" lon="11.222037853246277"><ele>280.2</ele><time>2026-03-28T10:31:07.999Z</time></trkpt><trkpt lat="43.902084044646536" lon="11.222069640024806"><ele>279.40000000000003</ele><time>2026-03-28T10:31:09.999Z</time></trkpt><trkpt lat="43.90218773546544" lon="11.222077921371675"><ele>278.6</ele><time>2026-03-28T10:31:12Z</time></trkpt><trkpt lat="43.90229461994216" lon="11.222062586807372"><ele>277.8</ele><time>2026-03-28T10:31:14Z</time></trkpt><trkpt lat="43.90240131719939" lon="11.222047147423991"><ele>277.0</ele><time>2026-03-28T10:31:16Z</time></trkpt><trkpt lat="43.902508089833155" lon="11.222035202608081"><ele>274.5</ele><time>2026-03-28T10:31:18Z</time></trkpt><trkpt lat="43.902618813483485" lon="11.222026092193348"><ele>272.0</ele><time>2026-03-28T10:31:20Z</time></trkpt><trkpt lat="43.90271037891854" lon="11.22202696637645"><ele>269.5</ele><time>2026-03-28T10:31:22Z</time></trkpt><trkpt lat="43.90277465699634" lon="11.222018679919586"><ele>267.0</ele><time>2026-03-28T10:31:24Z</time></trkpt><trkpt lat="43.9028597903054" lon="11.221976568767431"><ele>264.5</ele><time>2026-03-28T10:31:26Z</time></trkpt><trkpt lat="43.90293469030249" lon="11.221974770870519"><ele>262.0</ele><time>2026-03-28T10:31:28Z</time></trkpt><trkpt lat="43.90299667531686" lon="11.222018582305614"><ele>262.0</ele><time>2026-03-28T10:31:29Z</time></trkpt><trkpt lat="43.90309727967853" lon="11.222065472007586"><ele>262.0</ele><time>2026-03-28T10:31:31Z</time></trkpt><trkpt lat="43.90317698983822" lon="11.222086024359507"><ele>262.0</ele><time>2026-03-28T10:31:32Z</time></trkpt><trkpt lat="43.90327276662773" lon="11.222131067387622"><ele>262.0</ele><time>2026-03-28T10:31:34Z</time></trkpt><trkpt lat="43.9033655369813" lon="11.222154826836205"><ele>262.0</ele><time>2026-03-28T10:31:36Z</time></trkpt><trkpt lat="43.90349361787401" lon="11.222206234801664"><ele>261.0</ele><time>2026-03-28T10:31:38Z</time></trkpt><trkpt lat="43.90358830636173" lon="11.222233324553905"><ele>260.0</ele><time>2026-03-28T10:31:40Z</time></trkpt><trkpt lat="43.90367086586812" lon="11.222272858381858"><ele>259.0</ele><time>2026-03-28T10:31:42Z</time></trkpt><trkpt lat="43.90376115901825" lon="11.222306124071196"><ele>258.0</ele><time>2026-03-28T10:31:44Z</time></trkpt><trkpt lat="43.90385179177235" lon="11.222312822738706"><ele>257.0</ele><time>2026-03-28T10:31:46Z</time></trkpt><trkpt lat="43.90392702551596" lon="11.222381078422005"><ele>257.0</ele><time>2026-03-28T10:31:48Z</time></trkpt><trkpt lat="43.90399108680372" lon="11.222446593480042"><ele>257.0</ele><time>2026-03-28T10:31:50Z</time></trkpt><trkpt lat="43.904071177115775" lon="11.222493119783438"><ele>257.0</ele><time>2026-03-28T10:31:53Z</time></trkpt><trkpt lat="43.90413873135146" lon="11.222484077174546"><ele>257.0</ele><time>2026-03-28T10:31:55Z</time></trkpt><trkpt lat="43.90421105494765" lon="11.222442035506718"><ele>257.0</ele><time>2026-03-28T10:31:57Z</time></trkpt><trkpt lat="43.90425690230482" lon="11.22236719987961"><ele>257.0</ele><time>2026-03-28T10:31:59Z</time></trkpt><trkpt lat="43.90431515616631" lon="11.222284685400494"><ele>256.4</ele><time>2026-03-28T10:32:01Z</time></trkpt><trkpt lat="43.90438301157343" lon="11.22222405833076"><ele>255.79999999999998</ele><time>2026-03-28T10:32:03Z</time></trkpt><trkpt lat="43.90446926253337" lon="11.2221586809154"><ele>255.2</ele><time>2026-03-28T10:32:05Z</time></trkpt><trkpt lat="43.904530700714425" lon="11.222091931940946"><ele>254.6</ele><time>2026-03-28T10:32:07Z</time></trkpt><trkpt lat="43.904631235491905" lon="11.22205238287015"><ele>254.0</ele><time>2026-03-28T10:32:09Z</time></trkpt><trkpt lat="43.90474096415596" lon="11.22201731779161"><ele>254.0</ele><time>2026-03-28T10:32:11Z</time></trkpt><trkpt lat="43.90482135906394" lon="11.221999577469983"><ele>253.99999999999997</ele><time>2026-03-28T10:32:13Z</time></trkpt><trkpt lat="43.90492142567364" lon="11.221941552277263"><ele>253.99999999999997</ele><time>2026-03-28T10:32:15Z</time></trkpt><trkpt lat="43.90502824065119" lon="11.221942874018614"><ele>254.0</ele><time>2026-03-28T10:32:17Z</time></trkpt><trkpt lat="43.90515965240477" lon="11.221908047543582"><ele>254.0</ele><time>2026-03-28T10:32:20Z</time></trkpt><trkpt lat="43.90522639587792" lon="11.221842947887984"><ele>252.0</ele><time>2026-03-28T10:32:22Z</time></trkpt><trkpt lat="43.905287767705694" lon="11.221875776416725"><ele>249.99999999999997</ele><time>2026-03-28T10:32:24Z</time></trkpt><trkpt lat="43.90537672257531" lon="11.221844080869031"><ele>247.99999999999997</ele><time>2026-03-28T10:32:26Z</time></trkpt><trkpt lat="43.90543171372423" lon="11.221797354209462"><ele>246.0</ele><time>2026-03-28T10:32:27Z</time></trkpt><trkpt lat="43.9056514152878" lon="11.221782375036332"><ele>244.0</ele><time>2026-03-28T10:32:33Z</time></trkpt><trkpt lat="43.905715387338944" lon="11.221747615250672"><ele>244.0</ele><time>2026-03-28T10:32:35Z</time></trkpt><trkpt lat="43.90580389179609" lon="11.221738455704813"><ele>244.0</ele><time>2026-03-28T10:32:37Z</time></trkpt><trkpt lat="43.90601766030038" lon="11.221776912866794"><ele>244.0</ele><time>2026-03-28T10:32:43Z</time></trkpt><trkpt lat="43.90608477222396" lon="11.221773850471333"><ele>244.0</ele><time>2026-03-28T10:32:45Z</time></trkpt><trkpt lat="43.906162952137926" lon="11.22176575123343"><ele>240.49999999999997</ele><time>2026-03-28T10:32:47Z</time></trkpt><trkpt lat="43.90623237381177" lon="11.221693040815062"><ele>237.0</ele><time>2026-03-28T10:32:50Z</time></trkpt><trkpt lat="43.906272052756954" lon="11.221591086411658"><ele>233.5</ele><time>2026-03-28T10:32:52Z</time></trkpt><trkpt lat="43.90626923534178" lon="11.22144300691314"><ele>230.0</ele><time>2026-03-28T10:32:54Z</time></trkpt><trkpt lat="43.90628285655107" lon="11.221348111060314"><ele>226.49999999999997</ele><time>2026-03-28T10:32:56Z</time></trkpt><trkpt lat="43.90621594423281" lon="11.221253436689757"><ele>223.0</ele><time>2026-03-28T10:32:58Z</time></trkpt><trkpt lat="43.90616921699496" lon="11.221190388244516"><ele>222.4</ele><time>2026-03-28T10:33:00Z</time></trkpt><trkpt lat="43.90610056084587" lon="11.221135257336405"><ele>221.8</ele><time>2026-03-28T10:33:02Z</time></trkpt><trkpt lat="43.90604132258483" lon="11.22110048306961"><ele>221.2</ele><time>2026-03-28T10:33:03Z</time></trkpt><trkpt lat="43.905945136035086" lon="11.221039797351077"><ele>220.6</ele><time>2026-03-28T10:33:05Z</time></trkpt><trkpt lat="43.90588103378968" lon="11.220943359062975"><ele>220.0</ele><time>2026-03-28T10:33:07Z</time></trkpt><trkpt lat="43.90578059292941" lon="11.22082889665806"><ele>219.83333333333331</ele><time>2026-03-28T10:33:09Z</time></trkpt><trkpt lat="43.90570327212519" lon="11.220762895038177"><ele>219.66666666666666</ele><time>2026-03-28T10:33:11Z</time></trkpt><trkpt lat="43.90565429673435" lon="11.220671854829646"><ele>219.5</ele><time>2026-03-28T10:33:13Z</time></trkpt><trkpt lat="43.90559079827257" lon="11.220605454947307"><ele>219.33333333333331</ele><time>2026-03-28T10:33:16Z</time></trkpt><trkpt lat="43.90553217666577" lon="11.220528654715242"><ele>219.16666666666666</ele><time>2026-03-28T10:33:18Z</time></trkpt><trkpt lat="43.90550154137366" lon="11.22044203222422"><ele>219.0</ele><time>2026-03-28T10:33:20Z</time></trkpt><trkpt lat="43.905453799596664" lon="11.220383644356762"><ele>219.0</ele><time>2026-03-28T10:33:22Z</time></trkpt><trkpt lat="43.90539623859456" lon="11.220289257254734"><ele>219.0</ele><time>2026-03-28T10:33:25Z</time></trkpt><trkpt lat="43.90531969763335" lon="11.220252630269332"><ele>219.0</ele><time>2026-03-28T10:33:26Z</time></trkpt><trkpt lat="43.905243575261785" lon="11.220176948131321"><ele>219.0</ele><time>2026-03-28T10:33:28Z</time></trkpt><trkpt lat="43.90523245015661" lon="11.220083555167909"><ele>219.0</ele><time>2026-03-28T10:33:31Z</time></trkpt><trkpt lat="43.90531597348953" lon="11.220142368195297"><ele>219.0</ele><time>2026-03-28T10:33:34Z</time></trkpt><trkpt lat="43.90538428994294" lon="11.22019200062551"><ele>219.0</ele><time>2026-03-28T10:33:37Z</time></trkpt><trkpt lat="43.90545528183147" lon="11.220208060350739"><ele>219.0</ele><time>2026-03-28T10:33:39Z</time></trkpt><trkpt lat="43.9055142333861" lon="11.22025231723936"><ele>219.0</ele><time>2026-03-28T10:33:41Z</time></trkpt><trkpt lat="43.90560793019563" lon="11.220211851226873"><ele>219.0</ele><time>2026-03-28T10:33:43Z</time></trkpt><trkpt lat="43.90570023774138" lon="11.220168994070862"><ele>219.0</ele><time>2026-03-28T10:33:46Z</time></trkpt><trkpt lat="43.905796527144496" lon="11.22017214990348"><ele>219.0</ele><time>2026-03-28T10:33:48Z</time></trkpt><trkpt lat="43.905872171258984" lon="11.2201512650673"><ele>216.79999999999998</ele><time>2026-03-28T10:33:50Z</time></trkpt><trkpt lat="43.90596436182029" lon="11.220138835203251"><ele>214.59999999999997</ele><time>2026-03-28T10:33:52Z</time></trkpt><trkpt lat="43.90607254186032" lon="11.220105851602874"><ele>212.4</ele><time>2026-03-28T10:33:54Z</time></trkpt><trkpt lat="43.906153032213986" lon="11.220082403859678"><ele>210.2</ele><time>2026-03-28T10:33:56Z</time></trkpt><trkpt lat="43.90626233143404" lon="11.219983019418587"><ele>208.0</ele><time>2026-03-28T10:33:58Z</time></trkpt><trkpt lat="43.90635686992598" lon="11.21993905729992"><ele>208.0</ele><time>2026-03-28T10:34:00Z</time></trkpt><trkpt lat="43.90646574316095" lon="11.219865836415657"><ele>208.0</ele><time>2026-03-28T10:34:02Z</time></trkpt><trkpt lat="43.906564076679906" lon="11.219805892150477"><ele>208.0</ele><time>2026-03-28T10:34:04Z</time></trkpt><trkpt lat="43.906630848113934" lon="11.219780210524288"><ele>208.0</ele><time>2026-03-28T10:34:06Z</time></trkpt><trkpt lat="43.90672099027952" lon="11.219718546731718"><ele>208.0</ele><time>2026-03-28T10:34:08Z</time></trkpt><trkpt lat="43.90681212194434" lon="11.219713815452124"><ele>205.0</ele><time>2026-03-28T10:34:10Z</time></trkpt><trkpt lat="43.90688571374393" lon="11.219731956229362"><ele>202.0</ele><time>2026-03-28T10:34:12Z</time></trkpt><trkpt lat="43.90704425257081" lon="11.219813354322296"><ele>199.0</ele><time>2026-03-28T10:34:17Z</time></trkpt><trkpt lat="43.90715545776412" lon="11.21987694372783"><ele>196.0</ele><time>2026-03-28T10:34:19Z</time></trkpt><trkpt lat="43.90722965236624" lon="11.219925688083743"><ele>193.0</ele><time>2026-03-28T10:34:21Z</time></trkpt><trkpt lat="43.90733829873727" lon="11.219931126088339"><ele>193.0</ele><time>2026-03-28T10:34:23Z</time></trkpt><trkpt lat="43.90742018515376" lon="11.219920425434372"><ele>193.0</ele><time>2026-03-28T10:34:26Z</time></trkpt><trkpt lat="43.90753150987067" lon="11.219893133718234"><ele>193.0</ele><time>2026-03-28T10:34:29Z</time></trkpt><trkpt lat="43.90760089330005" lon="11.219865175885728"><ele>193.0</ele><time>2026-03-28T10:34:30Z</time></trkpt><trkpt lat="43.907721059477765" lon="11.219773270844707"><ele>193.0</ele><time>2026-03-28T10:34:32Z</time></trkpt><trkpt lat="43.90776992942959" lon="11.219693491444373"><ele>190.33333333333331</ele><time>2026-03-28T10:34:33Z</time></trkpt><trkpt lat="43.90781878806582" lon="11.219573131698604"><ele>187.66666666666666</ele><time>2026-03-28T10:34:35Z</time></trkpt><trkpt lat="43.90785070732398" lon="11.219491580595108"><ele>185.0</ele><time>2026-03-28T10:34:36Z</time></trkpt><trkpt lat="43.90790947463284" lon="11.219399938304429"><ele>182.33333333333331</ele><time>2026-03-28T10:34:38Z</time></trkpt><trkpt lat="43.907982366556794" lon="11.21929455234986"><ele>179.66666666666666</ele><time>2026-03-28T10:34:40Z</time></trkpt><trkpt lat="43.90802239016171" lon="11.219225870458892"><ele>177.0</ele><time>2026-03-28T10:34:41Z</time></trkpt><trkpt lat="43.90809849658594" lon="11.2191518585176"><ele>177.0</ele><time>2026-03-28T10:34:43Z</time></trkpt><trkpt lat="43.908173205922445" lon="11.219054383143897"><ele>177.0</ele><time>2026-03-28T10:34:45Z</time></trkpt><trkpt lat="43.90823511749816" lon="11.219025277815911"><ele>177.0</ele><time>2026-03-28T10:34:47Z</time></trkpt><trkpt lat="43.90829044460152" lon="11.218945328902574"><ele>177.0</ele><time>2026-03-28T10:34:49Z</time></trkpt><trkpt lat="43.90834424928296" lon="11.218859550663678"><ele>177.0</ele><time>2026-03-28T10:34:51Z</time></trkpt><trkpt lat="43.90841309831769" lon="11.218769543512298"><ele>177.0</ele><time>2026-03-28T10:34:54Z</time></trkpt><trkpt lat="43.908482360515606" lon="11.218699845190484"><ele>177.0</ele><time>2026-03-28T10:34:57Z</time></trkpt><trkpt lat="43.90853767483421" lon="11.218610047626877"><ele>177.0</ele><time>2026-03-28T10:35:00Z</time></trkpt><trkpt lat="43.908593512490555" lon="11.218557736277992"><ele>177.0</ele><time>2026-03-28T10:35:02Z</time></trkpt><trkpt lat="43.908650134094195" lon="11.218508941020367"><ele>177.0</ele><time>2026-03-28T10:35:04Z</time></trkpt><trkpt lat="43.90871955462749" lon="11.218456748312327"><ele>177.0</ele><time>2026-03-28T10:35:07Z</time></trkpt><trkpt lat="43.90877008630964" lon="11.218398843269568"><ele>177.0</ele><time>2026-03-28T10:35:11Z</time></trkpt><trkpt lat="43.90884326126282" lon="11.218384882938501"><ele>177.0</ele><time>2026-03-28T10:35:15Z</time></trkpt><trkpt lat="43.90891324399743" lon="11.21833650454033"><ele>177.0</ele><time>2026-03-28T10:35:19Z</time></trkpt><trkpt lat="43.90899596836084" lon="11.218218556483317"><ele>177.0</ele><time>2026-03-28T10:36:56Z</time></trkpt><trkpt lat="43.90908512087114" lon="11.21820250053224"><ele>177.0</ele><time>2026-03-28T10:46:44.001Z</time></trkpt><trkpt lat="43.90900412787519" lon="11.218213819062507"><ele>177.0</ele><time>2026-03-28T10:47:20.001Z</time></trkpt><trkpt lat="43.90906238457251" lon="11.218103578613427"><ele>177.0</ele><time>2026-03-28T10:50:14Z</time></trkpt><trkpt lat="43.90911770241756" lon="11.218052074958235"><ele>176.85714285714286</ele><time>2026-03-28T10:50:16Z</time></trkpt><trkpt lat="43.90917916849355" lon="11.218009720319913"><ele>176.7142857142857</ele><time>2026-03-28T10:50:20Z</time></trkpt><trkpt lat="43.90924007895901" lon="11.217951818932455"><ele>176.57142857142856</ele><time>2026-03-28T10:50:25Z</time></trkpt><trkpt lat="43.90929963126922" lon="11.217902000600763"><ele>176.42857142857144</ele><time>2026-03-28T10:50:29Z</time></trkpt><trkpt lat="43.909353355380276" lon="11.217850892131407"><ele>176.28571428571428</ele><time>2026-03-28T10:50:32Z</time></trkpt><trkpt lat="43.90941201063788" lon="11.217773895292936"><ele>176.14285714285714</ele><time>2026-03-28T10:50:35Z</time></trkpt><trkpt lat="43.90945120835721" lon="11.217661828228573"><ele>176.0</ele><time>2026-03-28T10:50:38Z</time></trkpt><trkpt lat="43.90940866623906" lon="11.217538037196826"><ele>176.33333333333331</ele><time>2026-03-28T10:50:41Z</time></trkpt><trkpt lat="43.90937812170587" lon="11.217449333103584"><ele>176.66666666666666</ele><time>2026-03-28T10:50:43Z</time></trkpt><trkpt lat="43.90932237843363" lon="11.217376503749469"><ele>177.0</ele><time>2026-03-28T10:50:45Z</time></trkpt><trkpt lat="43.90926199260265" lon="11.217296966216411"><ele>177.33333333333334</ele><time>2026-03-28T10:50:47Z</time></trkpt><trkpt lat="43.90919373653249" lon="11.217218690263552"><ele>177.66666666666669</ele><time>2026-03-28T10:50:49Z</time></trkpt><trkpt lat="43.909123175531505" lon="11.21713969523055"><ele>178.0</ele><time>2026-03-28T10:50:51Z</time></trkpt><trkpt lat="43.909050525320126" lon="11.217061904742561"><ele>178.0</ele><time>2026-03-28T10:50:53Z</time></trkpt><trkpt lat="43.90898080916332" lon="11.21697830158024"><ele>178.0</ele><time>2026-03-28T10:50:55Z</time></trkpt><trkpt lat="43.90891109988502" lon="11.216895550597604"><ele>178.0</ele><time>2026-03-28T10:50:57Z</time></trkpt><trkpt lat="43.90884246341633" lon="11.216805232888879"><ele>178.0</ele><time>2026-03-28T10:50:59Z</time></trkpt><trkpt lat="43.90877096663365" lon="11.216728411883908"><ele>178.0</ele><time>2026-03-28T10:51:01Z</time></trkpt><trkpt lat="43.908678632312174" lon="11.21661887384466"><ele>178.0</ele><time>2026-03-28T10:51:04Z</time></trkpt><trkpt lat="43.90861087095942" lon="11.21654030266665"><ele>178.0</ele><time>2026-03-28T10:51:06Z</time></trkpt><trkpt lat="43.90852519959579" lon="11.216451327488834"><ele>178.0</ele><time>2026-03-28T10:51:08Z</time></trkpt><trkpt lat="43.90840444880538" lon="11.216319221891583"><ele>178.0</ele><time>2026-03-28T10:51:10Z</time></trkpt><trkpt lat="43.908350664578116" lon="11.216253059897001"><ele>178.0</ele><time>2026-03-28T10:51:11Z</time></trkpt><trkpt lat="43.90828786610809" lon="11.216210552356236"><ele>178.2</ele><time>2026-03-28T10:51:12Z</time></trkpt><trkpt lat="43.90822323106709" lon="11.216155775858887"><ele>178.4</ele><time>2026-03-28T10:51:13Z</time></trkpt><trkpt lat="43.90812188864757" lon="11.216057566953781"><ele>178.6</ele><time>2026-03-28T10:51:15Z</time></trkpt><trkpt lat="43.90802690898697" lon="11.215958046703358"><ele>178.79999999999998</ele><time>2026-03-28T10:51:17Z</time></trkpt><trkpt lat="43.9079168186798" lon="11.21587493441448"><ele>179.0</ele><time>2026-03-28T10:51:19Z</time></trkpt><trkpt lat="43.90781250831305" lon="11.215793082514033"><ele>179.0</ele><time>2026-03-28T10:51:21Z</time></trkpt><trkpt lat="43.90773389113182" lon="11.21571243851567"><ele>179.0</ele><time>2026-03-28T10:51:23Z</time></trkpt><trkpt lat="43.907652903354894" lon="11.215624569605104"><ele>179.0</ele><time>2026-03-28T10:51:25Z</time></trkpt><trkpt lat="43.90755945591618" lon="11.215561326859866"><ele>179.0</ele><time>2026-03-28T10:51:27Z</time></trkpt><trkpt lat="43.90746236075147" lon="11.215489099753537"><ele>179.0</ele><time>2026-03-28T10:51:29Z</time></trkpt><trkpt lat="43.90738193477068" lon="11.215403581283299"><ele>178.66666666666666</ele><time>2026-03-28T10:51:31Z</time></trkpt><trkpt lat="43.90730406861882" lon="11.215291076959717"><ele>178.33333333333331</ele><time>2026-03-28T10:51:33Z</time></trkpt><trkpt lat="43.90725542247651" lon="11.215230340028153"><ele>178.0</ele><time>2026-03-28T10:51:34Z</time></trkpt><trkpt lat="43.90720395423443" lon="11.215158300243743"><ele>177.66666666666666</ele><time>2026-03-28T10:51:35Z</time></trkpt><trkpt lat="43.907158720746104" lon="11.215075908951142"><ele>177.33333333333334</ele><time>2026-03-28T10:51:36Z</time></trkpt><trkpt lat="43.90710858695399" lon="11.214983106693039"><ele>177.0</ele><time>2026-03-28T10:51:37Z</time></trkpt><trkpt lat="43.907066948439564" lon="11.214880644158901"><ele>178.5</ele><time>2026-03-28T10:51:38Z</time></trkpt><trkpt lat="43.9070353560329" lon="11.21478099218903"><ele>180.0</ele><time>2026-03-28T10:51:39Z</time></trkpt><trkpt lat="43.90700410964091" lon="11.214684330496206"><ele>181.5</ele><time>2026-03-28T10:51:40Z</time></trkpt><trkpt lat="43.90697189435565" lon="11.21458771590363"><ele>183.0</ele><time>2026-03-28T10:51:41Z</time></trkpt><trkpt lat="43.90694535167169" lon="11.214488843114207"><ele>184.5</ele><time>2026-03-28T10:51:42Z</time></trkpt><trkpt lat="43.90691847676094" lon="11.214391500149057"><ele>186.0</ele><time>2026-03-28T10:51:43Z</time></trkpt><trkpt lat="43.9068853106618" lon="11.214294856479482"><ele>186.0</ele><time>2026-03-28T10:51:44Z</time></trkpt><trkpt lat="43.906859388050286" lon="11.21419686956494"><ele>186.0</ele><time>2026-03-28T10:51:45Z</time></trkpt><trkpt lat="43.90682875849288" lon="11.214093463102081"><ele>186.0</ele><time>2026-03-28T10:51:46Z</time></trkpt><trkpt lat="43.90679907541278" lon="11.2139946812913"><ele>186.0</ele><time>2026-03-28T10:51:47Z</time></trkpt><trkpt lat="43.90676742633882" lon="11.213896165314917"><ele>186.0</ele><time>2026-03-28T10:51:48Z</time></trkpt><trkpt lat="43.90673117233169" lon="11.213798535784049"><ele>186.0</ele><time>2026-03-28T10:51:49.001Z</time></trkpt><trkpt lat="43.90669623712276" lon="11.2137046371602"><ele>183.66666666666666</ele><time>2026-03-28T10:51:50.001Z</time></trkpt><trkpt lat="43.90666050547123" lon="11.213609933621978"><ele>181.33333333333334</ele><time>2026-03-28T10:51:51.001Z</time></trkpt><trkpt lat="43.90661682083188" lon="11.213518823087679"><ele>179.0</ele><time>2026-03-28T10:51:52.001Z</time></trkpt><trkpt lat="43.90658558197017" lon="11.213427099083043"><ele>176.66666666666669</ele><time>2026-03-28T10:51:53.001Z</time></trkpt><trkpt lat="43.90654718704803" lon="11.213338026578045"><ele>174.33333333333334</ele><time>2026-03-28T10:51:54.001Z</time></trkpt><trkpt lat="43.90650970552106" lon="11.213249005756202"><ele>172.0</ele><time>2026-03-28T10:51:55.001Z</time></trkpt><trkpt lat="43.90647344222398" lon="11.21316350221472"><ele>172.83333333333334</ele><time>2026-03-28T10:51:56.001Z</time></trkpt><trkpt lat="43.906436168368224" lon="11.213081001964715"><ele>173.66666666666669</ele><time>2026-03-28T10:51:57.001Z</time></trkpt><trkpt lat="43.906399759360966" lon="11.212999647066079"><ele>174.5</ele><time>2026-03-28T10:51:58.001Z</time></trkpt><trkpt lat="43.906362423445586" lon="11.212925546400212"><ele>175.33333333333334</ele><time>2026-03-28T10:51:59.001Z</time></trkpt><trkpt lat="43.90629293855993" lon="11.2127941359033"><ele>176.16666666666666</ele><time>2026-03-28T10:52:01.001Z</time></trkpt><trkpt lat="43.90621193409804" lon="11.212685635191363"><ele>177.0</ele><time>2026-03-28T10:52:03Z</time></trkpt><trkpt lat="43.90611013175736" lon="11.212592991618582"><ele>177.0</ele><time>2026-03-28T10:52:05Z</time></trkpt><trkpt lat="43.905999786027614" lon="11.212514662701425"><ele>177.0</ele><time>2026-03-28T10:52:07Z</time></trkpt><trkpt lat="43.90593620382999" lon="11.212485934180567"><ele>177.0</ele><time>2026-03-28T10:52:08Z</time></trkpt><trkpt lat="43.90587243020443" lon="11.212458054040024"><ele>177.0</ele><time>2026-03-28T10:52:09Z</time></trkpt><trkpt lat="43.905806712646" lon="11.21242678845665"><ele>177.0</ele><time>2026-03-28T10:52:10Z</time></trkpt><trkpt lat="43.90573560121077" lon="11.212401825742209"><ele>177.0</ele><time>2026-03-28T10:52:11Z</time></trkpt><trkpt lat="43.905664522664125" lon="11.212378116772449"><ele>175.33333333333334</ele><time>2026-03-28T10:52:12Z</time></trkpt><trkpt lat="43.90559137648534" lon="11.212348768336746"><ele>173.66666666666666</ele><time>2026-03-28T10:52:13Z</time></trkpt><trkpt lat="43.90551748363713" lon="11.212320182069686"><ele>172.0</ele><time>2026-03-28T10:52:14Z</time></trkpt><trkpt lat="43.9054439105347" lon="11.212292351450657"><ele>170.33333333333331</ele><time>2026-03-28T10:52:15Z</time></trkpt><trkpt lat="43.905369811330665" lon="11.212262459194886"><ele>168.66666666666666</ele><time>2026-03-28T10:52:16Z</time></trkpt><trkpt lat="43.90530264882299" lon="11.212222139603245"><ele>167.0</ele><time>2026-03-28T10:52:17Z</time></trkpt><trkpt lat="43.90524959267854" lon="11.212152575974727"><ele>167.0</ele><time>2026-03-28T10:52:18Z</time></trkpt><trkpt lat="43.90521602588626" lon="11.212058664745445"><ele>167.0</ele><time>2026-03-28T10:52:19Z</time></trkpt><trkpt lat="43.90519280216712" lon="11.211960372423055"><ele>167.0</ele><time>2026-03-28T10:52:20Z</time></trkpt><trkpt lat="43.90517094639058" lon="11.211861469933131"><ele>167.0</ele><time>2026-03-28T10:52:21Z</time></trkpt><trkpt lat="43.90515273625077" lon="11.21175691221332"><ele>167.0</ele><time>2026-03-28T10:52:22Z</time></trkpt><trkpt lat="43.90514136686281" lon="11.211657720365707"><ele>167.0</ele><time>2026-03-28T10:52:23Z</time></trkpt><trkpt lat="43.90514035673691" lon="11.211557134458431"><ele>167.0</ele><time>2026-03-28T10:52:24Z</time></trkpt><trkpt lat="43.90514915846466" lon="11.211460300033778"><ele>168.0</ele><time>2026-03-28T10:52:25Z</time></trkpt><trkpt lat="43.9051521933471" lon="11.21136450117641"><ele>169.0</ele><time>2026-03-28T10:52:26Z</time></trkpt><trkpt lat="43.90515315723273" lon="11.211269019644668"><ele>170.0</ele><time>2026-03-28T10:52:27Z</time></trkpt><trkpt lat="43.90516224500802" lon="11.211177045297491"><ele>171.0</ele><time>2026-03-28T10:52:28Z</time></trkpt><trkpt lat="43.90516731885754" lon="11.21108638039027"><ele>172.0</ele><time>2026-03-28T10:52:29Z</time></trkpt><trkpt lat="43.90516911049472" lon="11.210994530444324"><ele>173.0</ele><time>2026-03-28T10:52:30Z</time></trkpt><trkpt lat="43.90517228904969" lon="11.210903513751878"><ele>174.0</ele><time>2026-03-28T10:52:31Z</time></trkpt><trkpt lat="43.905177388910595" lon="11.210815278409003"><ele>174.0</ele><time>2026-03-28T10:52:32Z</time></trkpt><trkpt lat="43.90517990404255" lon="11.210727206199454"><ele>174.0</ele><time>2026-03-28T10:52:33Z</time></trkpt><trkpt lat="43.905179466285915" lon="11.210552819206422"><ele>174.0</ele><time>2026-03-28T10:52:35Z</time></trkpt><trkpt lat="43.905179640331" lon="11.210385098386682"><ele>174.0</ele><time>2026-03-28T10:52:37Z</time></trkpt><trkpt lat="43.905183129568236" lon="11.210229899517746"><ele>174.0</ele><time>2026-03-28T10:52:39Z</time></trkpt><trkpt lat="43.90515225434367" lon="11.210065937167414"><ele>173.0</ele><time>2026-03-28T10:52:41Z</time></trkpt><trkpt lat="43.90510030503332" lon="11.209941978577755"><ele>172.0</ele><time>2026-03-28T10:52:43Z</time></trkpt><trkpt lat="43.90500958871719" lon="11.209865923153691"><ele>171.0</ele><time>2026-03-28T10:52:45Z</time></trkpt><trkpt lat="43.904922496267226" lon="11.209805337483163"><ele>170.0</ele><time>2026-03-28T10:52:47Z</time></trkpt><trkpt lat="43.90481789455031" lon="11.209751695885643"><ele>169.0</ele><time>2026-03-28T10:52:49Z</time></trkpt><trkpt lat="43.90470675006544" lon="11.209699199136166"><ele>169.71428571428572</ele><time>2026-03-28T10:52:51Z</time></trkpt><trkpt lat="43.90464477448962" lon="11.209677897923516"><ele>170.42857142857142</ele><time>2026-03-28T10:52:52Z</time></trkpt><trkpt lat="43.90458157365699" lon="11.209655261774378"><ele>171.14285714285714</ele><time>2026-03-28T10:52:53Z</time></trkpt><trkpt lat="43.904514005275644" lon="11.209627908763172"><ele>171.85714285714286</ele><time>2026-03-28T10:52:54Z</time></trkpt><trkpt lat="43.90443962441781" lon="11.20960329297975"><ele>172.57142857142858</ele><time>2026-03-28T10:52:55Z</time></trkpt><trkpt lat="43.90435798385029" lon="11.209593027919167"><ele>173.28571428571428</ele><time>2026-03-28T10:52:56Z</time></trkpt><trkpt lat="43.904279185561265" lon="11.20957439297004"><ele>174.0</ele><time>2026-03-28T10:52:57Z</time></trkpt><trkpt lat="43.9041989240702" lon="11.209552549054761"><ele>174.0</ele><time>2026-03-28T10:52:58Z</time></trkpt><trkpt lat="43.90411656841381" lon="11.209523699875248"><ele>174.0</ele><time>2026-03-28T10:52:59Z</time></trkpt><trkpt lat="43.90404198682913" lon="11.209490111967089"><ele>174.0</ele><time>2026-03-28T10:53:00Z</time></trkpt><trkpt lat="43.90396523536538" lon="11.209458474445372"><ele>174.0</ele><time>2026-03-28T10:53:01Z</time></trkpt><trkpt lat="43.90387896040102" lon="11.20943697135987"><ele>174.0</ele><time>2026-03-28T10:53:02Z</time></trkpt><trkpt lat="43.903786605254815" lon="11.209408590551023"><ele>174.0</ele><time>2026-03-28T10:53:03Z</time></trkpt><trkpt lat="43.9037130126574" lon="11.209364197336706"><ele>174.0</ele><time>2026-03-28T10:53:04Z</time></trkpt><trkpt lat="43.903637099046485" lon="11.209329244156276"><ele>174.0</ele><time>2026-03-28T10:53:05Z</time></trkpt><trkpt lat="43.903562264136895" lon="11.209297544896478"><ele>174.0</ele><time>2026-03-28T10:53:06Z</time></trkpt><trkpt lat="43.903483269800056" lon="11.209257404884992"><ele>174.0</ele><time>2026-03-28T10:53:07Z</time></trkpt><trkpt lat="43.903406520590785" lon="11.209212250078767"><ele>174.0</ele><time>2026-03-28T10:53:08Z</time></trkpt><trkpt lat="43.903332234610495" lon="11.209176898261767"><ele>174.0</ele><time>2026-03-28T10:53:09Z</time></trkpt><trkpt lat="43.90326555220114" lon="11.209134521553075"><ele>172.85714285714286</ele><time>2026-03-28T10:53:10Z</time></trkpt><trkpt lat="43.90320601927032" lon="11.209068303431993"><ele>171.71428571428572</ele><time>2026-03-28T10:53:11Z</time></trkpt><trkpt lat="43.90315590902108" lon="11.208994465776177"><ele>170.57142857142856</ele><time>2026-03-28T10:53:12Z</time></trkpt><trkpt lat="43.90311752813897" lon="11.208904142561789"><ele>169.42857142857144</ele><time>2026-03-28T10:53:13Z</time></trkpt><trkpt lat="43.90310317099477" lon="11.208810006273344"><ele>168.2857142857143</ele><time>2026-03-28T10:53:14Z</time></trkpt><trkpt lat="43.903092762909964" lon="11.208713622676433"><ele>167.14285714285714</ele><time>2026-03-28T10:53:15Z</time></trkpt><trkpt lat="43.90308460721074" lon="11.208620339314674"><ele>166.0</ele><time>2026-03-28T10:53:16Z</time></trkpt><trkpt lat="43.90307711432013" lon="11.20853139844932"><ele>166.0</ele><time>2026-03-28T10:53:17Z</time></trkpt><trkpt lat="43.90305935909482" lon="11.208442335226987"><ele>166.0</ele><time>2026-03-28T10:53:18Z</time></trkpt><trkpt lat="43.903049358905" lon="11.208353533074543"><ele>166.0</ele><time>2026-03-28T10:53:19Z</time></trkpt><trkpt lat="43.90300765758405" lon="11.2081856575443"><ele>166.0</ele><time>2026-03-28T10:53:21Z</time></trkpt><trkpt lat="43.90298103244846" lon="11.208101279291204"><ele>166.0</ele><time>2026-03-28T10:53:22Z</time></trkpt><trkpt lat="43.902946807242905" lon="11.208013590397403"><ele>166.0</ele><time>2026-03-28T10:53:23Z</time></trkpt><trkpt lat="43.90291184541744" lon="11.207919158123385"><ele>169.28571428571428</ele><time>2026-03-28T10:53:24Z</time></trkpt><trkpt lat="43.90286569205698" lon="11.207824257119118"><ele>172.57142857142858</ele><time>2026-03-28T10:53:25Z</time></trkpt><trkpt lat="43.902825985400945" lon="11.207730658510224"><ele>175.85714285714286</ele><time>2026-03-28T10:53:26Z</time></trkpt><trkpt lat="43.90277767640654" lon="11.207647152934102"><ele>179.14285714285714</ele><time>2026-03-28T10:53:27Z</time></trkpt><trkpt lat="43.90272971515445" lon="11.207568181023882"><ele>182.42857142857144</ele><time>2026-03-28T10:53:28Z</time></trkpt><trkpt lat="43.90268815644551" lon="11.207492254980115"><ele>185.71428571428572</ele><time>2026-03-28T10:53:29Z</time></trkpt><trkpt lat="43.9026480998187" lon="11.20741714171279"><ele>189.0</ele><time>2026-03-28T10:53:30Z</time></trkpt><trkpt lat="43.902588827062324" lon="11.20736413584905"><ele>186.39999999999998</ele><time>2026-03-28T10:53:31Z</time></trkpt><trkpt lat="43.90248827906359" lon="11.207262518168104"><ele>183.8</ele><time>2026-03-28T10:53:33Z</time></trkpt><trkpt lat="43.90243093749062" lon="11.207216706468714"><ele>181.2</ele><time>2026-03-28T10:53:34Z</time></trkpt><trkpt lat="43.90234176071694" lon="11.207137604450239"><ele>178.60000000000002</ele><time>2026-03-28T10:53:36Z</time></trkpt><trkpt lat="43.902281728220956" lon="11.207092306744501"><ele>176.0</ele><time>2026-03-28T10:53:37Z</time></trkpt><trkpt lat="43.9021964736478" lon="11.20700412337552"><ele>176.0</ele><time>2026-03-28T10:53:39Z</time></trkpt><trkpt lat="43.902125480619496" lon="11.206899932196222"><ele>176.0</ele><time>2026-03-28T10:53:41Z</time></trkpt><trkpt lat="43.902062328547935" lon="11.206792524582873"><ele>176.0</ele><time>2026-03-28T10:53:43Z</time></trkpt><trkpt lat="43.90200349812476" lon="11.206694528854927"><ele>176.0</ele><time>2026-03-28T10:53:45Z</time></trkpt><trkpt lat="43.90196142134402" lon="11.20657061589775"><ele>176.0</ele><time>2026-03-28T10:53:47Z</time></trkpt><trkpt lat="43.90191353035638" lon="11.20645554902147"><ele>173.0</ele><time>2026-03-28T10:53:49Z</time></trkpt><trkpt lat="43.90185002714446" lon="11.206326699089718"><ele>170.0</ele><time>2026-03-28T10:53:51Z</time></trkpt><trkpt lat="43.901784913237215" lon="11.206201092119313"><ele>167.0</ele><time>2026-03-28T10:53:53Z</time></trkpt><trkpt lat="43.90171711420582" lon="11.206074869093374"><ele>164.0</ele><time>2026-03-28T10:53:55Z</time></trkpt><trkpt lat="43.90166819358842" lon="11.206012542050924"><ele>161.0</ele><time>2026-03-28T10:53:56Z</time></trkpt><trkpt lat="43.90160431700934" lon="11.205872155231344"><ele>161.0</ele><time>2026-03-28T10:53:58Z</time></trkpt><trkpt lat="43.90154953862036" lon="11.205720085228016"><ele>161.0</ele><time>2026-03-28T10:54:00Z</time></trkpt><trkpt lat="43.90149043463982" lon="11.205567984996716"><ele>161.0</ele><time>2026-03-28T10:54:02Z</time></trkpt><trkpt lat="43.901451172231134" lon="11.205485026240067"><ele>161.0</ele><time>2026-03-28T10:54:03Z</time></trkpt><trkpt lat="43.90140966491457" lon="11.20539881279455"><ele>161.0</ele><time>2026-03-28T10:54:04Z</time></trkpt><trkpt lat="43.901373688902524" lon="11.205309709623167"><ele>162.83333333333331</ele><time>2026-03-28T10:54:05Z</time></trkpt><trkpt lat="43.90134494782615" lon="11.205210886841323"><ele>164.66666666666666</ele><time>2026-03-28T10:54:06Z</time></trkpt><trkpt lat="43.901310241826096" lon="11.20511903706435"><ele>166.5</ele><time>2026-03-28T10:54:07Z</time></trkpt><trkpt lat="43.901284776104255" lon="11.205034824083992"><ele>168.33333333333334</ele><time>2026-03-28T10:54:08Z</time></trkpt><trkpt lat="43.901248854240045" lon="11.204933874721682"><ele>170.16666666666669</ele><time>2026-03-28T10:54:09Z</time></trkpt><trkpt lat="43.90121599101989" lon="11.20484036254907"><ele>172.0</ele><time>2026-03-28T10:54:10Z</time></trkpt><trkpt lat="43.90116939827375" lon="11.204745928539218"><ele>173.71428571428572</ele><time>2026-03-28T10:54:11Z</time></trkpt><trkpt lat="43.90114207155367" lon="11.204652774982879"><ele>175.42857142857144</ele><time>2026-03-28T10:54:12Z</time></trkpt><trkpt lat="43.90111440964168" lon="11.204553862883559"><ele>177.14285714285717</ele><time>2026-03-28T10:54:13Z</time></trkpt><trkpt lat="43.90108772179021" lon="11.204465335718309"><ele>178.85714285714286</ele><time>2026-03-28T10:54:14Z</time></trkpt><trkpt lat="43.90105678540049" lon="11.204380729457764"><ele>180.57142857142856</ele><time>2026-03-28T10:54:15Z</time></trkpt><trkpt lat="43.90100617903554" lon="11.204303006927136"><ele>182.2857142857143</ele><time>2026-03-28T10:54:16Z</time></trkpt><trkpt lat="43.90098188082811" lon="11.204216500320657"><ele>184.0</ele><time>2026-03-28T10:54:17Z</time></trkpt><trkpt lat="43.900935499242784" lon="11.204073458668805"><ele>179.79999999999998</ele><time>2026-03-28T10:54:19Z</time></trkpt><trkpt lat="43.900892122115465" lon="11.20394837153754"><ele>175.6</ele><time>2026-03-28T10:54:21Z</time></trkpt><trkpt lat="43.9008510032718" lon="11.203829215543266"><ele>171.4</ele><time>2026-03-28T10:54:23Z</time></trkpt><trkpt lat="43.90081115559787" lon="11.203723459149597"><ele>167.2</ele><time>2026-03-28T10:54:25Z</time></trkpt><trkpt lat="43.90078590776399" lon="11.203634525058895"><ele>163.0</ele><time>2026-03-28T10:54:27Z</time></trkpt><trkpt lat="43.90071349581303" lon="11.203463910216161"><ele>163.0</ele><time>2026-03-28T10:54:29Z</time></trkpt><trkpt lat="43.90064909345539" lon="11.203348695782982"><ele>163.0</ele><time>2026-03-28T10:54:31Z</time></trkpt><trkpt lat="43.90058831928341" lon="11.203292103264962"><ele>163.0</ele><time>2026-03-28T10:54:32Z</time></trkpt><trkpt lat="43.900507212265005" lon="11.203168496865285"><ele>163.0</ele><time>2026-03-28T10:54:34Z</time></trkpt><trkpt lat="43.900456097519545" lon="11.203113583574668"><ele>163.0</ele><time>2026-03-28T10:54:35Z</time></trkpt><trkpt lat="43.90040111194771" lon="11.203065800594171"><ele>163.0</ele><time>2026-03-28T10:54:36Z</time></trkpt><trkpt lat="43.90029587960824" lon="11.20297108742062"><ele>164.42857142857144</ele><time>2026-03-28T10:54:38Z</time></trkpt><trkpt lat="43.90023896424003" lon="11.20293302342536"><ele>165.85714285714283</ele><time>2026-03-28T10:54:39Z</time></trkpt><trkpt lat="43.90017664474693" lon="11.202903232231694"><ele>167.28571428571428</ele><time>2026-03-28T10:54:40Z</time></trkpt><trkpt lat="43.90010969361307" lon="11.202877501957788"><ele>168.71428571428572</ele><time>2026-03-28T10:54:41Z</time></trkpt><trkpt lat="43.90003621778603" lon="11.20285062376753"><ele>170.14285714285717</ele><time>2026-03-28T10:54:42Z</time></trkpt><trkpt lat="43.89996749307373" lon="11.202857601764489"><ele>171.57142857142856</ele><time>2026-03-28T10:54:43Z</time></trkpt><trkpt lat="43.8999030311659" lon="11.202842022293138"><ele>173.0</ele><time>2026-03-28T10:54:44Z</time></trkpt><trkpt lat="43.89981528262983" lon="11.202833954474691"><ele>173.0</ele><time>2026-03-28T10:54:45Z</time></trkpt><trkpt lat="43.89973655949532" lon="11.202810742716627"><ele>173.0</ele><time>2026-03-28T10:54:46Z</time></trkpt><trkpt lat="43.89965720678388" lon="11.202797656094532"><ele>173.0</ele><time>2026-03-28T10:54:47Z</time></trkpt><trkpt lat="43.89958233502535" lon="11.202780310100119"><ele>173.0</ele><time>2026-03-28T10:54:48Z</time></trkpt><trkpt lat="43.89949787363393" lon="11.202775744901436"><ele>173.0</ele><time>2026-03-28T10:54:49Z</time></trkpt><trkpt lat="43.89940281021072" lon="11.202778467982498"><ele>173.0</ele><time>2026-03-28T10:54:50Z</time></trkpt><trkpt lat="43.89932920523527" lon="11.202759903506045"><ele>170.33333333333331</ele><time>2026-03-28T10:54:51Z</time></trkpt><trkpt lat="43.89923778068574" lon="11.202767797159751"><ele>167.66666666666666</ele><time>2026-03-28T10:54:52Z</time></trkpt><trkpt lat="43.899161852277935" lon="11.202744006863762"><ele>165.0</ele><time>2026-03-28T10:54:53Z</time></trkpt><trkpt lat="43.89909063073019" lon="11.202728129792721"><ele>162.33333333333334</ele><time>2026-03-28T10:54:54Z</time></trkpt><trkpt lat="43.89902140510489" lon="11.202717969811756"><ele>159.66666666666669</ele><time>2026-03-28T10:54:55Z</time></trkpt><trkpt lat="43.89895591675777" lon="11.20269741832961"><ele>157.0</ele><time>2026-03-28T10:54:56Z</time></trkpt><trkpt lat="43.898834815901665" lon="11.20267149564383"><ele>157.0</ele><time>2026-03-28T10:54:58Z</time></trkpt><trkpt lat="43.89877013870858" lon="11.20266365689395"><ele>157.0</ele><time>2026-03-28T10:54:59Z</time></trkpt><trkpt lat="43.89864933943233" lon="11.202647789188187"><ele>157.0</ele><time>2026-03-28T10:55:01Z</time></trkpt><trkpt lat="43.8985286805077" lon="11.202656563443556"><ele>157.0</ele><time>2026-03-28T10:55:03Z</time></trkpt><trkpt lat="43.89843591986371" lon="11.202655734588804"><ele>157.0</ele><time>2026-03-28T10:55:05Z</time></trkpt><trkpt lat="43.89833510322761" lon="11.202637890749624"><ele>156.0</ele><time>2026-03-28T10:55:07Z</time></trkpt><trkpt lat="43.89826024774261" lon="11.202619815014637"><ele>155.0</ele><time>2026-03-28T10:55:09Z</time></trkpt><trkpt lat="43.89817595706335" lon="11.202603256069079"><ele>154.0</ele><time>2026-03-28T10:55:11Z</time></trkpt><trkpt lat="43.8980751450582" lon="11.202580802839588"><ele>153.0</ele><time>2026-03-28T10:55:13Z</time></trkpt><trkpt lat="43.89801185185361" lon="11.202520842373643"><ele>152.0</ele><time>2026-03-28T10:55:15Z</time></trkpt><trkpt lat="43.89791633901636" lon="11.202484627883566"><ele>151.0</ele><time>2026-03-28T10:55:17Z</time></trkpt><trkpt lat="43.897853500134474" lon="11.20244942879758"><ele>151.0</ele><time>2026-03-28T10:55:19Z</time></trkpt><trkpt lat="43.8977914373495" lon="11.20241805593895"><ele>151.0</ele><time>2026-03-28T10:55:21Z</time></trkpt><trkpt lat="43.897729930642015" lon="11.202385227808442"><ele>151.0</ele><time>2026-03-28T10:55:23Z</time></trkpt><trkpt lat="43.89763991971917" lon="11.202355650477559"><ele>151.0</ele><time>2026-03-28T10:55:25Z</time></trkpt><trkpt lat="43.89754418381123" lon="11.202314962407478"><ele>151.0</ele><time>2026-03-28T10:55:27Z</time></trkpt><trkpt lat="43.897422729380466" lon="11.202280468380817"><ele>151.0</ele><time>2026-03-28T10:55:29Z</time></trkpt><trkpt lat="43.897363922801524" lon="11.202242784776391"><ele>154.6</ele><time>2026-03-28T10:55:30Z</time></trkpt><trkpt lat="43.89730172625273" lon="11.202203014517156"><ele>158.2</ele><time>2026-03-28T10:55:31Z</time></trkpt><trkpt lat="43.897173033106554" lon="11.202101574344319"><ele>161.79999999999998</ele><time>2026-03-28T10:55:33Z</time></trkpt><trkpt lat="43.89707311451563" lon="11.201994836139505"><ele>165.39999999999998</ele><time>2026-03-28T10:55:35Z</time></trkpt><trkpt lat="43.897018121867575" lon="11.201945153369957"><ele>169.0</ele><time>2026-03-28T10:55:36Z</time></trkpt><trkpt lat="43.896950109986484" lon="11.201902458897354"><ele>169.0</ele><time>2026-03-28T10:55:37Z</time></trkpt><trkpt lat="43.89688521568483" lon="11.201856042262108"><ele>169.0</ele><time>2026-03-28T10:55:38Z</time></trkpt><trkpt lat="43.89681933389174" lon="11.201810758912426"><ele>169.0</ele><time>2026-03-28T10:55:39Z</time></trkpt><trkpt lat="43.89675534221051" lon="11.201770247158702"><ele>169.0</ele><time>2026-03-28T10:55:40Z</time></trkpt><trkpt lat="43.89669547314262" lon="11.201725360180886"><ele>169.0</ele><time>2026-03-28T10:55:41Z</time></trkpt><trkpt lat="43.89662886398132" lon="11.201685031724143"><ele>169.0</ele><time>2026-03-28T10:55:42Z</time></trkpt><trkpt lat="43.89657127304332" lon="11.2016353700588"><ele>169.0</ele><time>2026-03-28T10:55:43Z</time></trkpt><trkpt lat="43.89651402459458" lon="11.201586838551158"><ele>171.28571428571428</ele><time>2026-03-28T10:55:44Z</time></trkpt><trkpt lat="43.8964564752679" lon="11.201537435928078"><ele>173.57142857142856</ele><time>2026-03-28T10:55:45Z</time></trkpt><trkpt lat="43.896393805202194" lon="11.20148935595539"><ele>175.85714285714283</ele><time>2026-03-28T10:55:46Z</time></trkpt><trkpt lat="43.89633743990401" lon="11.201439077769173"><ele>178.14285714285714</ele><time>2026-03-28T10:55:47Z</time></trkpt><trkpt lat="43.89627384328753" lon="11.201391541902002"><ele>180.42857142857142</ele><time>2026-03-28T10:55:48Z</time></trkpt><trkpt lat="43.89620914576757" lon="11.201338089501764"><ele>182.7142857142857</ele><time>2026-03-28T10:55:49Z</time></trkpt><trkpt lat="43.89614555140988" lon="11.201286911985385"><ele>185.0</ele><time>2026-03-28T10:55:50Z</time></trkpt><trkpt lat="43.89607409600455" lon="11.201232297717779"><ele>185.0</ele><time>2026-03-28T10:55:51Z</time></trkpt><trkpt lat="43.89601633438037" lon="11.201194884107528"><ele>185.0</ele><time>2026-03-28T10:55:52Z</time></trkpt><trkpt lat="43.89594572583225" lon="11.20116941175871"><ele>185.0</ele><time>2026-03-28T10:55:53Z</time></trkpt><trkpt lat="43.895880363105775" lon="11.201149005934337"><ele>185.0</ele><time>2026-03-28T10:55:54Z</time></trkpt><trkpt lat="43.89576639067098" lon="11.201143879034841"><ele>185.0</ele><time>2026-03-28T10:55:56Z</time></trkpt><trkpt lat="43.895672607174916" lon="11.201163635213218"><ele>185.0</ele><time>2026-03-28T10:55:58Z</time></trkpt><trkpt lat="43.89557744120582" lon="11.201141049918204"><ele>180.5</ele><time>2026-03-28T10:56:01Z</time></trkpt><trkpt lat="43.895509983700734" lon="11.201115446319792"><ele>176.0</ele><time>2026-03-28T10:56:03Z</time></trkpt><trkpt lat="43.895437575770956" lon="11.201090726965072"><ele>171.5</ele><time>2026-03-28T10:56:05Z</time></trkpt><trkpt lat="43.89537473171328" lon="11.201016637711573"><ele>167.0</ele><time>2026-03-28T10:56:07Z</time></trkpt><trkpt lat="43.89532135921583" lon="11.200933695323023"><ele>162.5</ele><time>2026-03-28T10:56:09Z</time></trkpt><trkpt lat="43.89525798435088" lon="11.200831925920328"><ele>158.0</ele><time>2026-03-28T10:56:11Z</time></trkpt><trkpt lat="43.895193648648345" lon="11.20071263334174"><ele>160.8</ele><time>2026-03-28T10:56:13Z</time></trkpt><trkpt lat="43.8951345326838" lon="11.20061215132777"><ele>163.60000000000002</ele><time>2026-03-28T10:56:15Z</time></trkpt><trkpt lat="43.89506519413369" lon="11.200530481039975"><ele>166.39999999999998</ele><time>2026-03-28T10:56:17Z</time></trkpt><trkpt lat="43.894980607924595" lon="11.200453497739328"><ele>169.2</ele><time>2026-03-28T10:56:19Z</time></trkpt><trkpt lat="43.89487176524985" lon="11.200374692719388"><ele>172.0</ele><time>2026-03-28T10:56:21Z</time></trkpt><trkpt lat="43.89475234831129" lon="11.200303927474286"><ele>172.0</ele><time>2026-03-28T10:56:23Z</time></trkpt><trkpt lat="43.894681450117766" lon="11.20027472680542"><ele>172.0</ele><time>2026-03-28T10:56:24Z</time></trkpt><trkpt lat="43.894601606187365" lon="11.200246786332528"><ele>172.0</ele><time>2026-03-28T10:56:25Z</time></trkpt><trkpt lat="43.8945209800859" lon="11.200239876997239"><ele>172.0</ele><time>2026-03-28T10:56:26Z</time></trkpt><trkpt lat="43.894432033576706" lon="11.200218640307424"><ele>172.0</ele><time>2026-03-28T10:56:27Z</time></trkpt><trkpt lat="43.89434685009092" lon="11.200190729267609"><ele>172.0</ele><time>2026-03-28T10:56:28Z</time></trkpt><trkpt lat="43.894249676085785" lon="11.200156556629263"><ele>167.2</ele><time>2026-03-28T10:56:29Z</time></trkpt><trkpt lat="43.894153587741975" lon="11.200131137234132"><ele>162.39999999999998</ele><time>2026-03-28T10:56:30Z</time></trkpt><trkpt lat="43.894070816307845" lon="11.20008487979018"><ele>157.60000000000002</ele><time>2026-03-28T10:56:31Z</time></trkpt><trkpt lat="43.8939870569991" lon="11.200068347198771"><ele>152.8</ele><time>2026-03-28T10:56:32Z</time></trkpt><trkpt lat="43.893901432233854" lon="11.20006986871008"><ele>148.0</ele><time>2026-03-28T10:56:33Z</time></trkpt><trkpt lat="43.89380728738857" lon="11.200098906599653"><ele>148.0</ele><time>2026-03-28T10:56:34Z</time></trkpt><trkpt lat="43.893718526307005" lon="11.200126732133185"><ele>148.0</ele><time>2026-03-28T10:56:35Z</time></trkpt><trkpt lat="43.89363940491468" lon="11.20016496029459"><ele>148.0</ele><time>2026-03-28T10:56:36Z</time></trkpt><trkpt lat="43.89356728832329" lon="11.200183217390181"><ele>148.0</ele><time>2026-03-28T10:56:37Z</time></trkpt><trkpt lat="43.893484779676655" lon="11.200177641881657"><ele>148.0</ele><time>2026-03-28T10:56:38Z</time></trkpt><trkpt lat="43.89340923010658" lon="11.200158507067451"><ele>148.0</ele><time>2026-03-28T10:56:39Z</time></trkpt><trkpt lat="43.89333900491349" lon="11.200118985538685"><ele>146.57142857142858</ele><time>2026-03-28T10:56:40Z</time></trkpt><trkpt lat="43.89326045966948" lon="11.200086807963308"><ele>145.14285714285714</ele><time>2026-03-28T10:56:41Z</time></trkpt><trkpt lat="43.893192172849794" lon="11.200058602044423"><ele>143.71428571428572</ele><time>2026-03-28T10:56:42Z</time></trkpt><trkpt lat="43.89312308883243" lon="11.200029006282284"><ele>142.28571428571428</ele><time>2026-03-28T10:56:43Z</time></trkpt><trkpt lat="43.89305784460953" lon="11.199997531077354"><ele>140.85714285714286</ele><time>2026-03-28T10:56:44Z</time></trkpt><trkpt lat="43.89299749601967" lon="11.199952030862224"><ele>139.42857142857144</ele><time>2026-03-28T10:56:45Z</time></trkpt><trkpt lat="43.8929398209448" lon="11.199905951412486"><ele>138.0</ele><time>2026-03-28T10:56:46Z</time></trkpt><trkpt lat="43.892831526646184" lon="11.199829616968568"><ele>138.0</ele><time>2026-03-28T10:56:48Z</time></trkpt><trkpt lat="43.89272750721963" lon="11.199742947990753"><ele>138.0</ele><time>2026-03-28T10:56:50Z</time></trkpt><trkpt lat="43.89262948552554" lon="11.199664131732515"><ele>138.0</ele><time>2026-03-28T10:56:52Z</time></trkpt><trkpt lat="43.89253300443089" lon="11.199565112967493"><ele>138.0</ele><time>2026-03-28T10:56:54Z</time></trkpt><trkpt lat="43.89243941364824" lon="11.199475834151245"><ele>135.20000000000002</ele><time>2026-03-28T10:56:56Z</time></trkpt><trkpt lat="43.892344545651596" lon="11.19937838442426"><ele>132.4</ele><time>2026-03-28T10:56:58Z</time></trkpt><trkpt lat="43.89224852757183" lon="11.199276785218647"><ele>129.60000000000002</ele><time>2026-03-28T10:57:00Z</time></trkpt><trkpt lat="43.89219487552047" lon="11.199225432455552"><ele>126.80000000000001</ele><time>2026-03-28T10:57:01Z</time></trkpt><trkpt lat="43.8921428326635" lon="11.199173194039414"><ele>124.0</ele><time>2026-03-28T10:57:02Z</time></trkpt><trkpt lat="43.89203842605823" lon="11.199070185007118"><ele>124.16666666666667</ele><time>2026-03-28T10:57:04Z</time></trkpt><trkpt lat="43.89194883506638" lon="11.198943205577459"><ele>124.33333333333334</ele><time>2026-03-28T10:57:06Z</time></trkpt><trkpt lat="43.891909723300344" lon="11.198865054257489"><ele>124.5</ele><time>2026-03-28T10:57:07Z</time></trkpt><trkpt lat="43.89186812838123" lon="11.198791448534609"><ele>124.66666666666666</ele><time>2026-03-28T10:57:08Z</time></trkpt><trkpt lat="43.89182763916724" lon="11.198715656672828"><ele>124.83333333333333</ele><time>2026-03-28T10:57:09Z</time></trkpt><trkpt lat="43.89178537716079" lon="11.198645948161856"><ele>125.0</ele><time>2026-03-28T10:57:10Z</time></trkpt><trkpt lat="43.89174923629114" lon="11.198568325291442"><ele>125.0</ele><time>2026-03-28T10:57:11Z</time></trkpt><trkpt lat="43.891710787244065" lon="11.198493850268571"><ele>125.0</ele><time>2026-03-28T10:57:12Z</time></trkpt><trkpt lat="43.891664293982316" lon="11.198426579758952"><ele>125.0</ele><time>2026-03-28T10:57:13Z</time></trkpt><trkpt lat="43.89162179959117" lon="11.198356481086996"><ele>125.0</ele><time>2026-03-28T10:57:14Z</time></trkpt><trkpt lat="43.89158077498585" lon="11.198284025584964"><ele>125.0</ele><time>2026-03-28T10:57:15Z</time></trkpt><trkpt lat="43.89151470295729" lon="11.19814724996494"><ele>125.0</ele><time>2026-03-28T10:57:17Z</time></trkpt><trkpt lat="43.89146381961489" lon="11.198091518345004"><ele>125.0</ele><time>2026-03-28T10:57:18Z</time></trkpt><trkpt lat="43.89136811741501" lon="11.19796215860398"><ele>125.8</ele><time>2026-03-28T10:57:20Z</time></trkpt><trkpt lat="43.89128243070415" lon="11.197865555297952"><ele>126.6</ele><time>2026-03-28T10:57:22Z</time></trkpt><trkpt lat="43.89118891393115" lon="11.197822164242357"><ele>127.4</ele><time>2026-03-28T10:57:24Z</time></trkpt><trkpt lat="43.89110184792803" lon="11.197777751310314"><ele>128.2</ele><time>2026-03-28T10:57:26Z</time></trkpt><trkpt lat="43.891002145574504" lon="11.197765814301318"><ele>129.0</ele><time>2026-03-28T10:57:28Z</time></trkpt><trkpt lat="43.89090088035025" lon="11.19773355077835"><ele>129.0</ele><time>2026-03-28T10:57:30Z</time></trkpt><trkpt lat="43.890806801124405" lon="11.197695488379514"><ele>129.0</ele><time>2026-03-28T10:57:32Z</time></trkpt><trkpt lat="43.89070164259424" lon="11.197636149021795"><ele>129.0</ele><time>2026-03-28T10:57:34Z</time></trkpt><trkpt lat="43.89063411485002" lon="11.197591742311316"><ele>129.0</ele><time>2026-03-28T10:57:35Z</time></trkpt><trkpt lat="43.890571194985135" lon="11.197538118928051"><ele>129.0</ele><time>2026-03-28T10:57:36Z</time></trkpt><trkpt lat="43.890532339359936" lon="11.197460342839815"><ele>129.0</ele><time>2026-03-28T10:57:37Z</time></trkpt><trkpt lat="43.8904845362259" lon="11.197369306985681"><ele>131.42857142857142</ele><time>2026-03-28T10:57:38Z</time></trkpt><trkpt lat="43.890453360063226" lon="11.197287367692235"><ele>133.85714285714286</ele><time>2026-03-28T10:57:39Z</time></trkpt><trkpt lat="43.89042058327631" lon="11.197182567946976"><ele>136.28571428571428</ele><time>2026-03-28T10:57:40Z</time></trkpt><trkpt lat="43.890390014534965" lon="11.197092012637476"><ele>138.71428571428572</ele><time>2026-03-28T10:57:41Z</time></trkpt><trkpt lat="43.890365638076396" lon="11.196999008978423"><ele>141.14285714285714</ele><time>2026-03-28T10:57:42Z</time></trkpt><trkpt lat="43.89034167546754" lon="11.196909747881918"><ele>143.57142857142856</ele><time>2026-03-28T10:57:43Z</time></trkpt><trkpt lat="43.89032627429517" lon="11.196818305830465"><ele>146.0</ele><time>2026-03-28T10:57:44Z</time></trkpt><trkpt lat="43.8903189063925" lon="11.196723852431731"><ele>146.0</ele><time>2026-03-28T10:57:45Z</time></trkpt><trkpt lat="43.89030000110519" lon="11.196633435744925"><ele>146.0</ele><time>2026-03-28T10:57:46Z</time></trkpt><trkpt lat="43.89029702969909" lon="11.19654225167022"><ele>146.0</ele><time>2026-03-28T10:57:47Z</time></trkpt><trkpt lat="43.89026266873593" lon="11.196396818750198"><ele>146.0</ele><time>2026-03-28T10:57:49Z</time></trkpt><trkpt lat="43.890203943554894" lon="11.196222861260093"><ele>146.0</ele><time>2026-03-28T10:57:51Z</time></trkpt><trkpt lat="43.890173335010985" lon="11.196138757378137"><ele>143.8</ele><time>2026-03-28T10:57:52Z</time></trkpt><trkpt lat="43.890168207822" lon="11.196045964269578"><ele>141.6</ele><time>2026-03-28T10:57:53Z</time></trkpt><trkpt lat="43.89013911899593" lon="11.195962534834798"><ele>139.4</ele><time>2026-03-28T10:57:54Z</time></trkpt><trkpt lat="43.89004955217935" lon="11.195855688635762"><ele>137.2</ele><time>2026-03-28T10:57:56Z</time></trkpt><trkpt lat="43.88996705100955" lon="11.195724951011305"><ele>135.0</ele><time>2026-03-28T10:57:58Z</time></trkpt><trkpt lat="43.88989103850791" lon="11.19560218847723"><ele>135.0</ele><time>2026-03-28T10:58:00Z</time></trkpt><trkpt lat="43.88982821533441" lon="11.195466750602083"><ele>135.0</ele><time>2026-03-28T10:58:02Z</time></trkpt><trkpt lat="43.88977771680577" lon="11.195405768402967"><ele>135.0</ele><time>2026-03-28T10:58:03Z</time></trkpt><trkpt lat="43.889716345503274" lon="11.195271538931927"><ele>135.0</ele><time>2026-03-28T10:58:05Z</time></trkpt><trkpt lat="43.889655658452156" lon="11.195208852346912"><ele>135.0</ele><time>2026-03-28T10:58:06Z</time></trkpt><trkpt lat="43.88960921117133" lon="11.195142913236598"><ele>135.0</ele><time>2026-03-28T10:58:07Z</time></trkpt><trkpt lat="43.889566729732735" lon="11.19507446530016"><ele>135.0</ele><time>2026-03-28T10:58:08Z</time></trkpt><trkpt lat="43.88951223413078" lon="11.195022088596867"><ele>135.0</ele><time>2026-03-28T10:58:09Z</time></trkpt><trkpt lat="43.88947132070746" lon="11.194949608740156"><ele>135.0</ele><time>2026-03-28T10:58:10Z</time></trkpt><trkpt lat="43.88938197045607" lon="11.194822303754735"><ele>135.0</ele><time>2026-03-28T10:58:12Z</time></trkpt><trkpt lat="43.88933434303709" lon="11.194757083251682"><ele>135.0</ele><time>2026-03-28T10:58:13Z</time></trkpt><trkpt lat="43.889290791279564" lon="11.194684578698658"><ele>135.0</ele><time>2026-03-28T10:58:14Z</time></trkpt><trkpt lat="43.88924675544574" lon="11.194609581520734"><ele>135.6</ele><time>2026-03-28T10:58:15Z</time></trkpt><trkpt lat="43.889201292567535" lon="11.194537896096902"><ele>136.2</ele><time>2026-03-28T10:58:16Z</time></trkpt><trkpt lat="43.889139883366056" lon="11.194383105985397"><ele>136.8</ele><time>2026-03-28T10:58:18Z</time></trkpt><trkpt lat="43.889079494333814" lon="11.194243234523716"><ele>137.4</ele><time>2026-03-28T10:58:20Z</time></trkpt><trkpt lat="43.889032624372575" lon="11.194123872521173"><ele>138.0</ele><time>2026-03-28T10:58:22Z</time></trkpt><trkpt lat="43.888964336865115" lon="11.194002674956796"><ele>138.0</ele><time>2026-03-28T10:58:24Z</time></trkpt><trkpt lat="43.888909196592905" lon="11.193873234399723"><ele>138.0</ele><time>2026-03-28T10:58:26Z</time></trkpt><trkpt lat="43.888867871102576" lon="11.19374340115764"><ele>138.0</ele><time>2026-03-28T10:58:28Z</time></trkpt><trkpt lat="43.8888057583797" lon="11.19363640971682"><ele>138.0</ele><time>2026-03-28T10:58:30Z</time></trkpt><trkpt lat="43.88874062916323" lon="11.193535392793933"><ele>138.0</ele><time>2026-03-28T10:58:32Z</time></trkpt><trkpt lat="43.88866805033574" lon="11.193421422797387"><ele>138.0</ele><time>2026-03-28T10:58:34Z</time></trkpt><trkpt lat="43.888601530766714" lon="11.193301650395297"><ele>138.0</ele><time>2026-03-28T10:58:36Z</time></trkpt><trkpt lat="43.88853786483203" lon="11.193193844872534"><ele>138.0</ele><time>2026-03-28T10:58:38Z</time></trkpt><trkpt lat="43.888476289653546" lon="11.193089316215483"><ele>138.0</ele><time>2026-03-28T10:58:40Z</time></trkpt><trkpt lat="43.88841381895098" lon="11.192974625064009"><ele>138.0</ele><time>2026-03-28T10:58:42Z</time></trkpt><trkpt lat="43.88835289931059" lon="11.192843502422624"><ele>132.25</ele><time>2026-03-28T10:58:44Z</time></trkpt><trkpt lat="43.88828465814186" lon="11.192696712397996"><ele>126.5</ele><time>2026-03-28T10:58:46Z</time></trkpt><trkpt lat="43.88821805166283" lon="11.192562239191709"><ele>120.75</ele><time>2026-03-28T10:58:48Z</time></trkpt><trkpt lat="43.888164131847155" lon="11.192414057421033"><ele>115.0</ele><time>2026-03-28T10:58:50Z</time></trkpt><trkpt lat="43.88809573036616" lon="11.192278722228219"><ele>114.8</ele><time>2026-03-28T10:58:52Z</time></trkpt><trkpt lat="43.88803777305066" lon="11.192152395043642"><ele>114.6</ele><time>2026-03-28T10:58:54Z</time></trkpt><trkpt lat="43.88797982744354" lon="11.192019811153452"><ele>114.4</ele><time>2026-03-28T10:58:56Z</time></trkpt><trkpt lat="43.88791528128647" lon="11.19191180072551"><ele>114.2</ele><time>2026-03-28T10:58:58Z</time></trkpt><trkpt lat="43.88785588240765" lon="11.191809943651377"><ele>114.0</ele><time>2026-03-28T10:59:00Z</time></trkpt><trkpt lat="43.88781743946355" lon="11.191722577667967"><ele>114.0</ele><time>2026-03-28T10:59:03Z</time></trkpt><trkpt lat="43.88772857061554" lon="11.191637109184642"><ele>114.0</ele><time>2026-03-28T10:59:05Z</time></trkpt><trkpt lat="43.887631802560094" lon="11.19165063304531"><ele>114.0</ele><time>2026-03-28T10:59:07Z</time></trkpt><trkpt lat="43.88755298621283" lon="11.191703326035224"><ele>114.0</ele><time>2026-03-28T10:59:09Z</time></trkpt><trkpt lat="43.88751356641043" lon="11.191790533978828"><ele>114.0</ele><time>2026-03-28T10:59:12Z</time></trkpt><trkpt lat="43.8875397340541" lon="11.191906709146316"><ele>113.42857142857142</ele><time>2026-03-28T10:59:16Z</time></trkpt><trkpt lat="43.887516526853275" lon="11.192026071399813"><ele>112.85714285714285</ele><time>2026-03-28T10:59:19Z</time></trkpt><trkpt lat="43.887481120827225" lon="11.192100717181384"><ele>112.28571428571428</ele><time>2026-03-28T10:59:21Z</time></trkpt><trkpt lat="43.88744700885772" lon="11.192175762824546"><ele>111.71428571428571</ele><time>2026-03-28T10:59:23Z</time></trkpt><trkpt lat="43.887406671602626" lon="11.192254241869382"><ele>111.14285714285714</ele><time>2026-03-28T10:59:25Z</time></trkpt><trkpt lat="43.88735202747907" lon="11.192321286967232"><ele>110.57142857142856</ele><time>2026-03-28T10:59:27Z</time></trkpt><trkpt lat="43.88730576278844" lon="11.192399550368672"><ele>110.0</ele><time>2026-03-28T10:59:29Z</time></trkpt><trkpt lat="43.88725108816486" lon="11.192483163734524"><ele>109.99999999999999</ele><time>2026-03-28T10:59:32Z</time></trkpt><trkpt lat="43.887202581261214" lon="11.192556990946528"><ele>110.0</ele><time>2026-03-28T10:59:37Z</time></trkpt><trkpt lat="43.88720929308843" lon="11.19268284862095"><ele>110.0</ele><time>2026-03-28T10:59:43Z</time></trkpt><trkpt lat="43.887239678149385" lon="11.192763966342882"><ele>110.0</ele><time>2026-03-28T10:59:48Z</time></trkpt><trkpt lat="43.887286471723755" lon="11.192841182219043"><ele>109.99999999999999</ele><time>2026-03-28T10:59:53Z</time></trkpt><trkpt lat="43.887322132902554" lon="11.192935015852362"><ele>110.0</ele><time>2026-03-28T10:59:58Z</time></trkpt><trkpt lat="43.88736069565952" lon="11.193025831502613"><ele>109.99999999999999</ele><time>2026-03-28T11:00:03Z</time></trkpt><trkpt lat="43.88742977682074" lon="11.193152959282298"><ele>110.0</ele><time>2026-03-28T11:00:11Z</time></trkpt><trkpt lat="43.887473918569576" lon="11.193225465856754"><ele>110.0</ele><time>2026-03-28T11:00:14Z</time></trkpt><trkpt lat="43.88751823866493" lon="11.193325001691532"><ele>110.0</ele><time>2026-03-28T11:00:17Z</time></trkpt><trkpt lat="43.88756161684161" lon="11.193389346169948"><ele>109.99999999999999</ele><time>2026-03-28T11:00:20Z</time></trkpt><trkpt lat="43.8876035399071" lon="11.193470737361842"><ele>110.0</ele><time>2026-03-28T11:00:23Z</time></trkpt><trkpt lat="43.88764597103947" lon="11.19356073575943"><ele>110.28571428571428</ele><time>2026-03-28T11:00:26Z</time></trkpt><trkpt lat="43.887697353051394" lon="11.193644705278079"><ele>110.57142857142857</ele><time>2026-03-28T11:00:29Z</time></trkpt><trkpt lat="43.88773443705284" lon="11.193716728069433"><ele>110.85714285714286</ele><time>2026-03-28T11:00:31Z</time></trkpt><trkpt lat="43.887777297619294" lon="11.193815973409286"><ele>111.14285714285714</ele><time>2026-03-28T11:00:34Z</time></trkpt><trkpt lat="43.88782040130536" lon="11.193898425039054"><ele>111.42857142857143</ele><time>2026-03-28T11:00:36Z</time></trkpt><trkpt lat="43.88785206097385" lon="11.193986637026136"><ele>111.71428571428571</ele><time>2026-03-28T11:00:38Z</time></trkpt><trkpt lat="43.887888279547546" lon="11.19407322460135"><ele>112.0</ele><time>2026-03-28T11:00:40Z</time></trkpt><trkpt lat="43.887926962660856" lon="11.194188037717188"><ele>112.28571428571428</ele><time>2026-03-28T11:00:43Z</time></trkpt><trkpt lat="43.88796150873262" lon="11.194278891975303"><ele>112.57142857142857</ele><time>2026-03-28T11:00:45Z</time></trkpt><trkpt lat="43.88799035299067" lon="11.194362068263166"><ele>112.85714285714286</ele><time>2026-03-28T11:00:47Z</time></trkpt><trkpt lat="43.88802064352618" lon="11.194442279307019"><ele>113.14285714285714</ele><time>2026-03-28T11:00:49Z</time></trkpt><trkpt lat="43.888028458931764" lon="11.194537953337848"><ele>113.42857142857142</ele><time>2026-03-28T11:00:51Z</time></trkpt><trkpt lat="43.88807489380683" lon="11.19464248661776"><ele>113.71428571428571</ele><time>2026-03-28T11:00:53Z</time></trkpt><trkpt lat="43.88809837260235" lon="11.194733674732856"><ele>114.0</ele><time>2026-03-28T11:00:55Z</time></trkpt><trkpt lat="43.8881452160931" lon="11.1948578209304"><ele>114.16666666666667</ele><time>2026-03-28T11:00:58Z</time></trkpt><trkpt lat="43.88819841536952" lon="11.194951427387748"><ele>114.33333333333334</ele><time>2026-03-28T11:01:00Z</time></trkpt><trkpt lat="43.88827276981914" lon="11.195020260598726"><ele>114.5</ele><time>2026-03-28T11:01:02Z</time></trkpt><trkpt lat="43.888325639686" lon="11.195072795980643"><ele>114.66666666666667</ele><time>2026-03-28T11:01:04Z</time></trkpt><trkpt lat="43.888401266814896" lon="11.195102424288041"><ele>114.83333333333334</ele><time>2026-03-28T11:01:06Z</time></trkpt><trkpt lat="43.88847868187698" lon="11.195139711810974"><ele>115.0</ele><time>2026-03-28T11:01:08Z</time></trkpt><trkpt lat="43.88854119731286" lon="11.195221210041487"><ele>114.99999999999999</ele><time>2026-03-28T11:01:10Z</time></trkpt><trkpt lat="43.888597022247424" lon="11.195296342262983"><ele>115.0</ele><time>2026-03-28T11:01:12Z</time></trkpt><trkpt lat="43.888617418539056" lon="11.195387763175917"><ele>114.99999999999999</ele><time>2026-03-28T11:01:14Z</time></trkpt><trkpt lat="43.888599266813834" lon="11.19547656363766"><ele>114.99999999999999</ele><time>2026-03-28T11:01:16Z</time></trkpt><trkpt lat="43.888636071808456" lon="11.195548348154118"><ele>115.0</ele><time>2026-03-28T11:01:18Z</time></trkpt><trkpt lat="43.88869783945243" lon="11.195605525361596"><ele>114.99999999999999</ele><time>2026-03-28T11:01:20Z</time></trkpt><trkpt lat="43.88876758896051" lon="11.195667754930026"><ele>114.99999999999999</ele><time>2026-03-28T11:01:23Z</time></trkpt><trkpt lat="43.888810556568735" lon="11.19577027280154"><ele>115.28571428571428</ele><time>2026-03-28T11:01:26Z</time></trkpt><trkpt lat="43.88883549491193" lon="11.195874771933333"><ele>115.57142857142857</ele><time>2026-03-28T11:01:29Z</time></trkpt><trkpt lat="43.8888326227209" lon="11.195975552592062"><ele>115.85714285714286</ele><time>2026-03-28T11:01:32Z</time></trkpt><trkpt lat="43.888812414081606" lon="11.196080249715854"><ele>116.14285714285714</ele><time>2026-03-28T11:01:35Z</time></trkpt><trkpt lat="43.88877678792276" lon="11.196160605146101"><ele>116.42857142857144</ele><time>2026-03-28T11:01:38Z</time></trkpt><trkpt lat="43.88874491944127" lon="11.196240354086349"><ele>116.71428571428572</ele><time>2026-03-28T11:01:41Z</time></trkpt><trkpt lat="43.88872765137768" lon="11.19632495964744"><ele>117.0</ele><time>2026-03-28T11:01:44Z</time></trkpt><trkpt lat="43.88875779896537" lon="11.196414843425254"><ele>117.0</ele><time>2026-03-28T11:01:48Z</time></trkpt><trkpt lat="43.888796365369956" lon="11.19649375747878"><ele>117.00000000000001</ele><time>2026-03-28T11:01:52Z</time></trkpt><trkpt lat="43.88885940743417" lon="11.196525207927317"><ele>117.0</ele><time>2026-03-28T11:01:56Z</time></trkpt><trkpt lat="43.88891367568522" lon="11.19657229171109"><ele>117.0</ele><time>2026-03-28T11:01:59Z</time></trkpt><trkpt lat="43.88896119155486" lon="11.19665348519728"><ele>117.00000000000001</ele><time>2026-03-28T11:02:04Z</time></trkpt><trkpt lat="43.88899941230278" lon="11.196742774403221"><ele>117.0</ele><time>2026-03-28T11:02:10Z</time></trkpt><trkpt lat="43.88904697782915" lon="11.19682578674943"><ele>117.0</ele><time>2026-03-28T11:02:14Z</time></trkpt><trkpt lat="43.88909005523953" lon="11.196895054271993"><ele>118.0</ele><time>2026-03-28T11:02:18Z</time></trkpt><trkpt lat="43.88913474060354" lon="11.196976384558658"><ele>119.00000000000001</ele><time>2026-03-28T11:02:22Z</time></trkpt><trkpt lat="43.88918959709165" lon="11.197043064737363"><ele>120.0</ele><time>2026-03-28T11:02:27Z</time></trkpt><trkpt lat="43.889229373623" lon="11.197133014073707"><ele>121.0</ele><time>2026-03-28T11:02:31Z</time></trkpt><trkpt lat="43.88926284012063" lon="11.197228663588609"><ele>122.00000000000001</ele><time>2026-03-28T11:02:36Z</time></trkpt><trkpt lat="43.88929779229996" lon="11.197311804559343"><ele>123.0</ele><time>2026-03-28T11:02:41Z</time></trkpt><trkpt lat="43.889313328618066" lon="11.197410698122777"><ele>124.0</ele><time>2026-03-28T11:02:47Z</time></trkpt><trkpt lat="43.8893281172601" lon="11.19750556026903"><ele>124.28571428571429</ele><time>2026-03-28T11:02:51Z</time></trkpt><trkpt lat="43.889328875904766" lon="11.197602199805232"><ele>124.57142857142858</ele><time>2026-03-28T11:02:57Z</time></trkpt><trkpt lat="43.889359329109396" lon="11.197688101215624"><ele>124.85714285714286</ele><time>2026-03-28T11:03:02Z</time></trkpt><trkpt lat="43.88940093690402" lon="11.19775869622874"><ele>125.14285714285714</ele><time>2026-03-28T11:03:06Z</time></trkpt><trkpt lat="43.88943866307505" lon="11.197838311694603"><ele>125.42857142857143</ele><time>2026-03-28T11:03:11Z</time></trkpt><trkpt lat="43.8894335385663" lon="11.197744776883166"><ele>125.71428571428572</ele><time>2026-03-28T11:07:18Z</time></trkpt><trkpt lat="43.88941728278372" lon="11.197643527884749"><ele>126.0</ele><time>2026-03-28T11:07:20Z</time></trkpt><trkpt lat="43.88942974933599" lon="11.19749017549717"><ele>126.0</ele><time>2026-03-28T11:07:22Z</time></trkpt><trkpt lat="43.88941745778997" lon="11.197391187787396"><ele>126.0</ele><time>2026-03-28T11:07:23Z</time></trkpt><trkpt lat="43.8893954706939" lon="11.197283291754735"><ele>126.0</ele><time>2026-03-28T11:07:24Z</time></trkpt><trkpt lat="43.88934446890649" lon="11.197181693987812"><ele>126.0</ele><time>2026-03-28T11:07:25Z</time></trkpt><trkpt lat="43.88928430863757" lon="11.197088865303334"><ele>126.0</ele><time>2026-03-28T11:07:26Z</time></trkpt><trkpt lat="43.889221226981626" lon="11.197007281386256"><ele>126.0</ele><time>2026-03-28T11:07:27Z</time></trkpt><trkpt lat="43.889155957329315" lon="11.19692872409339"><ele>126.5</ele><time>2026-03-28T11:07:28Z</time></trkpt><trkpt lat="43.88909913557154" lon="11.196860499752132"><ele>127.0</ele><time>2026-03-28T11:07:29Z</time></trkpt><trkpt lat="43.8890525756301" lon="11.196781520908962"><ele>127.5</ele><time>2026-03-28T11:07:30Z</time></trkpt><trkpt lat="43.88902130690606" lon="11.196689654820663"><ele>128.0</ele><time>2026-03-28T11:07:31Z</time></trkpt><trkpt lat="43.88897944252089" lon="11.196606802669015"><ele>128.5</ele><time>2026-03-28T11:07:32Z</time></trkpt><trkpt lat="43.88887144031126" lon="11.196528047627885"><ele>129.0</ele><time>2026-03-28T11:07:34Z</time></trkpt><trkpt lat="43.88877437976011" lon="11.196457468280258"><ele>127.0</ele><time>2026-03-28T11:07:36Z</time></trkpt><trkpt lat="43.88877916898377" lon="11.196283788079413"><ele>125.0</ele><time>2026-03-28T11:07:38Z</time></trkpt><trkpt lat="43.888826017258" lon="11.196182172375398"><ele>123.0</ele><time>2026-03-28T11:07:39Z</time></trkpt><trkpt lat="43.88886140883319" lon="11.19608853767839"><ele>121.0</ele><time>2026-03-28T11:07:40Z</time></trkpt><trkpt lat="43.88888367995648" lon="11.195996036030092"><ele>119.0</ele><time>2026-03-28T11:07:41Z</time></trkpt><trkpt lat="43.88889384820644" lon="11.195899179946256"><ele>117.0</ele><time>2026-03-28T11:07:42Z</time></trkpt><trkpt lat="43.88886883443271" lon="11.195736747097367"><ele>117.0</ele><time>2026-03-28T11:07:44Z</time></trkpt><trkpt lat="43.888821729669104" lon="11.19567147311219"><ele>116.99999999999999</ele><time>2026-03-28T11:07:45Z</time></trkpt><trkpt lat="43.88872357245552" lon="11.195595676817439"><ele>116.99999999999999</ele><time>2026-03-28T11:07:47Z</time></trkpt><trkpt lat="43.88863783201546" lon="11.195510535291044"><ele>117.0</ele><time>2026-03-28T11:07:49Z</time></trkpt><trkpt lat="43.88864271924545" lon="11.19536070470523"><ele>117.0</ele><time>2026-03-28T11:07:51Z</time></trkpt><trkpt lat="43.88863184983149" lon="11.195238751937621"><ele>116.66666666666667</ele><time>2026-03-28T11:07:53Z</time></trkpt><trkpt lat="43.88857257567966" lon="11.195156577607646"><ele>116.33333333333334</ele><time>2026-03-28T11:07:55Z</time></trkpt><trkpt lat="43.888495845302174" lon="11.195061470827039"><ele>116.0</ele><time>2026-03-28T11:07:58Z</time></trkpt><trkpt lat="43.888426256774025" lon="11.195024626781443"><ele>115.66666666666667</ele><time>2026-03-28T11:08:00Z</time></trkpt><trkpt lat="43.88833966169633" lon="11.195007229130134"><ele>115.33333333333334</ele><time>2026-03-28T11:08:03Z</time></trkpt><trkpt lat="43.888267857071774" lon="11.194951777104208"><ele>115.0</ele><time>2026-03-28T11:08:06Z</time></trkpt><trkpt lat="43.88824198174503" lon="11.194853874720664"><ele>114.83333333333334</ele><time>2026-03-28T11:08:10Z</time></trkpt><trkpt lat="43.88822411864651" lon="11.194717837966486"><ele>114.66666666666667</ele><time>2026-03-28T11:08:12Z</time></trkpt><trkpt lat="43.88817924646528" lon="11.194626951571452"><ele>114.5</ele><time>2026-03-28T11:08:14Z</time></trkpt><trkpt lat="43.888156391708925" lon="11.19452254673328"><ele>114.33333333333334</ele><time>2026-03-28T11:08:17Z</time></trkpt><trkpt lat="43.88813298501407" lon="11.194427063366064"><ele>114.16666666666667</ele><time>2026-03-28T11:08:20Z</time></trkpt><trkpt lat="43.88808181011263" lon="11.194310490617884"><ele>114.0</ele><time>2026-03-28T11:08:22Z</time></trkpt><trkpt lat="43.888025586375726" lon="11.194203019034331"><ele>114.0</ele><time>2026-03-28T11:08:24Z</time></trkpt><trkpt lat="43.88799047600816" lon="11.194094213165137"><ele>114.0</ele><time>2026-03-28T11:08:27Z</time></trkpt><trkpt lat="43.887936500267436" lon="11.193986529670898"><ele>114.0</ele><time>2026-03-28T11:08:30Z</time></trkpt><trkpt lat="43.887888624921324" lon="11.193873920492578"><ele>114.0</ele><time>2026-03-28T11:08:33Z</time></trkpt><trkpt lat="43.88787051055497" lon="11.193788397138901"><ele>114.0</ele><time>2026-03-28T11:08:35Z</time></trkpt><trkpt lat="43.887831135966735" lon="11.193710395945567"><ele>114.0</ele><time>2026-03-28T11:08:37Z</time></trkpt><trkpt lat="43.88778783988545" lon="11.193617666944304"><ele>113.66666666666667</ele><time>2026-03-28T11:08:40Z</time></trkpt><trkpt lat="43.88775759272925" lon="11.193538575280995"><ele>113.33333333333334</ele><time>2026-03-28T11:08:42Z</time></trkpt><trkpt lat="43.88772678453485" lon="11.193442233661848"><ele>113.0</ele><time>2026-03-28T11:08:45Z</time></trkpt><trkpt lat="43.88767713058843" lon="11.193366561168288"><ele>112.66666666666667</ele><time>2026-03-28T11:08:47Z</time></trkpt><trkpt lat="43.887620675310544" lon="11.193281344335817"><ele>112.33333333333334</ele><time>2026-03-28T11:08:50Z</time></trkpt><trkpt lat="43.88756929874025" lon="11.193184421465709"><ele>112.0</ele><time>2026-03-28T11:08:53Z</time></trkpt><trkpt lat="43.88750861866081" lon="11.19310094672389"><ele>111.71428571428571</ele><time>2026-03-28T11:08:56Z</time></trkpt><trkpt lat="43.88745872553916" lon="11.193047460627001"><ele>111.42857142857143</ele><time>2026-03-28T11:09:00Z</time></trkpt><trkpt lat="43.88741407271055" lon="11.193113087566212"><ele>111.14285714285714</ele><time>2026-03-28T11:09:54Z</time></trkpt><trkpt lat="43.8874478491981" lon="11.193198082674625"><ele>110.85714285714286</ele><time>2026-03-28T11:09:58Z</time></trkpt><trkpt lat="43.88747002524021" lon="11.193287304273769"><ele>110.57142857142857</ele><time>2026-03-28T11:10:01Z</time></trkpt><trkpt lat="43.88749230865147" lon="11.193374389291266"><ele>110.28571428571428</ele><time>2026-03-28T11:10:05Z</time></trkpt><trkpt lat="43.88750766345417" lon="11.193487636512131"><ele>110.0</ele><time>2026-03-28T11:10:09Z</time></trkpt><trkpt lat="43.88752340051796" lon="11.193578219680562"><ele>110.33333333333333</ele><time>2026-03-28T11:10:11Z</time></trkpt><trkpt lat="43.88754804673975" lon="11.19367269486107"><ele>110.66666666666666</ele><time>2026-03-28T11:10:14Z</time></trkpt><trkpt lat="43.88757069381665" lon="11.19378624466853"><ele>111.0</ele><time>2026-03-28T11:10:18Z</time></trkpt><trkpt lat="43.88758362504757" lon="11.193872369134844"><ele>111.33333333333334</ele><time>2026-03-28T11:10:22Z</time></trkpt><trkpt lat="43.88760272719032" lon="11.193965100583986"><ele>111.66666666666667</ele><time>2026-03-28T11:10:25Z</time></trkpt><trkpt lat="43.88761682496826" lon="11.194067069190192"><ele>112.0</ele><time>2026-03-28T11:10:30Z</time></trkpt><trkpt lat="43.88764854786537" lon="11.194198948103983"><ele>112.28571428571428</ele><time>2026-03-28T11:10:34Z</time></trkpt><trkpt lat="43.88766703517522" lon="11.194314961434314"><ele>112.57142857142857</ele><time>2026-03-28T11:10:38Z</time></trkpt><trkpt lat="43.887673532335924" lon="11.194404549305212"><ele>112.85714285714286</ele><time>2026-03-28T11:10:42Z</time></trkpt><trkpt lat="43.8876611393218" lon="11.194493384882623"><ele>113.14285714285714</ele><time>2026-03-28T11:10:46Z</time></trkpt><trkpt lat="43.887647000061214" lon="11.19458552192741"><ele>113.42857142857142</ele><time>2026-03-28T11:10:50Z</time></trkpt><trkpt lat="43.887638044588726" lon="11.194693291865244"><ele>113.71428571428571</ele><time>2026-03-28T11:10:55Z</time></trkpt><trkpt lat="43.88761816271123" lon="11.194783901301731"><ele>114.0</ele><time>2026-03-28T11:10:58Z</time></trkpt><trkpt lat="43.88761944510648" lon="11.194896674317327"><ele>115.16666666666667</ele><time>2026-03-28T11:11:02Z</time></trkpt><trkpt lat="43.887631638430086" lon="11.195015376486094"><ele>116.33333333333334</ele><time>2026-03-28T11:11:05Z</time></trkpt><trkpt lat="43.88761676163676" lon="11.195123726618036"><ele>117.5</ele><time>2026-03-28T11:11:09Z</time></trkpt><trkpt lat="43.8876123954516" lon="11.195219802825934"><ele>118.66666666666667</ele><time>2026-03-28T11:11:13Z</time></trkpt><trkpt lat="43.887633166143885" lon="11.195332132365694"><ele>119.83333333333334</ele><time>2026-03-28T11:11:16Z</time></trkpt><trkpt lat="43.88764647664298" lon="11.195430923987555"><ele>121.0</ele><time>2026-03-28T11:11:19Z</time></trkpt><trkpt lat="43.88764239425671" lon="11.195528678811543"><ele>121.0</ele><time>2026-03-28T11:11:23Z</time></trkpt><trkpt lat="43.88762940188785" lon="11.195618280431766"><ele>120.99999999999999</ele><time>2026-03-28T11:11:27Z</time></trkpt><trkpt lat="43.887604843385134" lon="11.195701560423197"><ele>121.0</ele><time>2026-03-28T11:11:32Z</time></trkpt><trkpt lat="43.88759032012519" lon="11.19579789299676"><ele>121.0</ele><time>2026-03-28T11:11:36Z</time></trkpt><trkpt lat="43.88757100827354" lon="11.195897246663305"><ele>120.99999999999999</ele><time>2026-03-28T11:11:40Z</time></trkpt><trkpt lat="43.88751908221112" lon="11.195977295085411"><ele>121.0</ele><time>2026-03-28T11:11:46Z</time></trkpt><trkpt lat="43.887531222340826" lon="11.195881232088439"><ele>121.0</ele><time>2026-03-28T11:11:56Z</time></trkpt><trkpt lat="43.88753988068713" lon="11.195785507629264"><ele>125.85714285714285</ele><time>2026-03-28T11:12:02Z</time></trkpt><trkpt lat="43.88749838954802" lon="11.19569023956662"><ele>130.7142857142857</ele><time>2026-03-28T11:12:08Z</time></trkpt><trkpt lat="43.887483239239394" lon="11.195591190497936"><ele>135.57142857142856</ele><time>2026-03-28T11:12:13Z</time></trkpt><trkpt lat="43.88744051337675" lon="11.195515453966369"><ele>140.42857142857142</ele><time>2026-03-28T11:12:17Z</time></trkpt><trkpt lat="43.887417744417945" lon="11.195422323543344"><ele>145.28571428571428</ele><time>2026-03-28T11:12:22Z</time></trkpt><trkpt lat="43.88739598360431" lon="11.195327345557386"><ele>150.14285714285714</ele><time>2026-03-28T11:12:27Z</time></trkpt><trkpt lat="43.887354235596284" lon="11.195242843370488"><ele>155.0</ele><time>2026-03-28T11:12:32Z</time></trkpt><trkpt lat="43.887325491523285" lon="11.195158450726831"><ele>155.0</ele><time>2026-03-28T11:12:37Z</time></trkpt><trkpt lat="43.887290455302264" lon="11.195082571125914"><ele>155.0</ele><time>2026-03-28T11:12:41Z</time></trkpt><trkpt lat="43.88725729682659" lon="11.195006855850457"><ele>155.0</ele><time>2026-03-28T11:12:45Z</time></trkpt><trkpt lat="43.887221981174456" lon="11.1949189636831"><ele>155.0</ele><time>2026-03-28T11:12:50Z</time></trkpt><trkpt lat="43.887181200771884" lon="11.194849401566973"><ele>155.0</ele><time>2026-03-28T11:12:54Z</time></trkpt><trkpt lat="43.8871473443171" lon="11.19476309206655"><ele>155.0</ele><time>2026-03-28T11:12:59Z</time></trkpt><trkpt lat="43.887097119959165" lon="11.194688982064816"><ele>155.0</ele><time>2026-03-28T11:13:04Z</time></trkpt><trkpt lat="43.887049055118204" lon="11.194603310988265"><ele>153.28571428571428</ele><time>2026-03-28T11:13:09Z</time></trkpt><trkpt lat="43.88699933138753" lon="11.194529267417252"><ele>151.57142857142856</ele><time>2026-03-28T11:13:14Z</time></trkpt><trkpt lat="43.88694011717349" lon="11.194457261092127"><ele>149.85714285714283</ele><time>2026-03-28T11:13:19Z</time></trkpt><trkpt lat="43.886883167943196" lon="11.194406153664131"><ele>148.14285714285714</ele><time>2026-03-28T11:13:23Z</time></trkpt><trkpt lat="43.886830241449374" lon="11.194334127557708"><ele>146.42857142857142</ele><time>2026-03-28T11:13:28Z</time></trkpt><trkpt lat="43.88677074265972" lon="11.194292466438766"><ele>144.7142857142857</ele><time>2026-03-28T11:13:32Z</time></trkpt><trkpt lat="43.886713581348346" lon="11.194244979435428"><ele>143.0</ele><time>2026-03-28T11:13:36Z</time></trkpt><trkpt lat="43.88662599091017" lon="11.194216479035353"><ele>147.28571428571428</ele><time>2026-03-28T11:13:41Z</time></trkpt><trkpt lat="43.88655443085503" lon="11.194183252282908"><ele>151.57142857142856</ele><time>2026-03-28T11:13:46Z</time></trkpt><trkpt lat="43.886490563441654" lon="11.194169041901969"><ele>155.85714285714283</ele><time>2026-03-28T11:13:50Z</time></trkpt><trkpt lat="43.88641751057608" lon="11.19416930153344"><ele>160.14285714285714</ele><time>2026-03-28T11:13:55Z</time></trkpt><trkpt lat="43.88633927955586" lon="11.194150900988365"><ele>164.42857142857144</ele><time>2026-03-28T11:14:00Z</time></trkpt><trkpt lat="43.886271397635156" lon="11.194156867511323"><ele>168.7142857142857</ele><time>2026-03-28T11:14:04Z</time></trkpt><trkpt lat="43.88620073623415" lon="11.194160036786286"><ele>173.0</ele><time>2026-03-28T11:14:08Z</time></trkpt><trkpt lat="43.8861343428234" lon="11.194160089312058"><ele>173.0</ele><time>2026-03-28T11:14:12Z</time></trkpt><trkpt lat="43.886062967664756" lon="11.194180568259583"><ele>173.0</ele><time>2026-03-28T11:14:16Z</time></trkpt><trkpt lat="43.88600140050529" lon="11.194227020684197"><ele>173.0</ele><time>2026-03-28T11:14:20Z</time></trkpt><trkpt lat="43.8859985834909" lon="11.194342733388266"><ele>173.0</ele><time>2026-03-28T11:14:25Z</time></trkpt><trkpt lat="43.886043871128905" lon="11.1944152223033"><ele>173.0</ele><time>2026-03-28T11:14:29Z</time></trkpt><trkpt lat="43.88609521194478" lon="11.194476945130507"><ele>173.0</ele><time>2026-03-28T11:14:34Z</time></trkpt><trkpt lat="43.88615182905197" lon="11.19455470941024"><ele>173.0</ele><time>2026-03-28T11:14:39Z</time></trkpt><trkpt lat="43.88618805983166" lon="11.194626363893537"><ele>173.0</ele><time>2026-03-28T11:14:44Z</time></trkpt><trkpt lat="43.886218946224915" lon="11.194723198343711"><ele>173.0</ele><time>2026-03-28T11:14:50Z</time></trkpt><trkpt lat="43.8862456622822" lon="11.194825186264199"><ele>173.0</ele><time>2026-03-28T11:14:57Z</time></trkpt><trkpt lat="43.88629201975295" lon="11.19491788889967"><ele>173.0</ele><time>2026-03-28T11:15:02Z</time></trkpt><trkpt lat="43.886312477449856" lon="11.195019356651285"><ele>173.0</ele><time>2026-03-28T11:15:07Z</time></trkpt><trkpt lat="43.88633365152098" lon="11.195107344421968"><ele>173.0</ele><time>2026-03-28T11:15:10Z</time></trkpt><trkpt lat="43.886368395147656" lon="11.195192752322084"><ele>173.0</ele><time>2026-03-28T11:15:15Z</time></trkpt><trkpt lat="43.886411278764314" lon="11.19528633650012"><ele>176.33333333333331</ele><time>2026-03-28T11:15:19Z</time></trkpt><trkpt lat="43.88644944569033" lon="11.195359377287552"><ele>179.66666666666666</ele><time>2026-03-28T11:15:22Z</time></trkpt><trkpt lat="43.886480037501556" lon="11.195469213964317"><ele>183.0</ele><time>2026-03-28T11:15:26Z</time></trkpt><trkpt lat="43.886501652000796" lon="11.195572171402732"><ele>186.33333333333331</ele><time>2026-03-28T11:15:29Z</time></trkpt><trkpt lat="43.88652135257927" lon="11.195660451954467"><ele>189.66666666666666</ele><time>2026-03-28T11:15:34Z</time></trkpt><trkpt lat="43.88657933407486" lon="11.195806536344122"><ele>193.0</ele><time>2026-03-28T11:17:05Z</time></trkpt><trkpt lat="43.88651217310048" lon="11.195816459207007"><ele>194.66666666666666</ele><time>2026-03-28T11:17:29Z</time></trkpt><trkpt lat="43.886438781632414" lon="11.195830998987724"><ele>196.33333333333331</ele><time>2026-03-28T11:17:35Z</time></trkpt><trkpt lat="43.886375031741544" lon="11.195850389411664"><ele>198.0</ele><time>2026-03-28T11:17:41Z</time></trkpt><trkpt lat="43.886305709051655" lon="11.195829865692794"><ele>199.66666666666669</ele><time>2026-03-28T11:17:47Z</time></trkpt><trkpt lat="43.88622319099958" lon="11.195826752486944"><ele>201.33333333333334</ele><time>2026-03-28T11:17:52Z</time></trkpt><trkpt lat="43.886141262054736" lon="11.195813777872536"><ele>203.0</ele><time>2026-03-28T11:17:56Z</time></trkpt><trkpt lat="43.886061045049985" lon="11.195792768229586"><ele>203.0</ele><time>2026-03-28T11:18:02Z</time></trkpt><trkpt lat="43.88599333944395" lon="11.195786549991759"><ele>203.0</ele><time>2026-03-28T11:18:06Z</time></trkpt><trkpt lat="43.8859283761147" lon="11.195752396055916"><ele>203.0</ele><time>2026-03-28T11:18:10Z</time></trkpt><trkpt lat="43.88585285089001" lon="11.195718075138702"><ele>203.0</ele><time>2026-03-28T11:18:14Z</time></trkpt><trkpt lat="43.8857893183992" lon="11.195697366669869"><ele>203.0</ele><time>2026-03-28T11:18:18Z</time></trkpt><trkpt lat="43.88571747265109" lon="11.195699952900238"><ele>203.0</ele><time>2026-03-28T11:18:22Z</time></trkpt><trkpt lat="43.885658334620985" lon="11.195734673826971"><ele>203.0</ele><time>2026-03-28T11:18:25Z</time></trkpt><trkpt lat="43.88558876917641" lon="11.195783438011054"><ele>206.42857142857144</ele><time>2026-03-28T11:18:29Z</time></trkpt><trkpt lat="43.88552653984286" lon="11.195822720399653"><ele>209.85714285714286</ele><time>2026-03-28T11:18:33Z</time></trkpt><trkpt lat="43.88546013662032" lon="11.195845610193551"><ele>213.28571428571428</ele><time>2026-03-28T11:18:37Z</time></trkpt><trkpt lat="43.88540401696094" lon="11.195885781858143"><ele>216.71428571428572</ele><time>2026-03-28T11:18:40Z</time></trkpt><trkpt lat="43.885344800482095" lon="11.195944282490641"><ele>220.14285714285717</ele><time>2026-03-28T11:18:44Z</time></trkpt><trkpt lat="43.88527849290231" lon="11.195981948018957"><ele>223.57142857142858</ele><time>2026-03-28T11:18:48Z</time></trkpt><trkpt lat="43.88522364581131" lon="11.19603893503584"><ele>227.0</ele><time>2026-03-28T11:18:52Z</time></trkpt><trkpt lat="43.88515429633399" lon="11.19604748449611"><ele>229.71428571428572</ele><time>2026-03-28T11:18:56Z</time></trkpt><trkpt lat="43.88508794079996" lon="11.196086450144513"><ele>232.42857142857144</ele><time>2026-03-28T11:19:01Z</time></trkpt><trkpt lat="43.885028522477675" lon="11.19614049355395"><ele>235.14285714285717</ele><time>2026-03-28T11:19:05Z</time></trkpt><trkpt lat="43.88495270476016" lon="11.196140690151463"><ele>237.8571428571429</ele><time>2026-03-28T11:19:09Z</time></trkpt><trkpt lat="43.884881814031395" lon="11.196131995586187"><ele>240.57142857142858</ele><time>2026-03-28T11:19:14Z</time></trkpt><trkpt lat="43.88480993203421" lon="11.19612228278317"><ele>243.28571428571433</ele><time>2026-03-28T11:19:18Z</time></trkpt><trkpt lat="43.884731459748274" lon="11.196141128192298"><ele>246.00000000000003</ele><time>2026-03-28T11:19:22Z</time></trkpt><trkpt lat="43.88465912458781" lon="11.196139522056466"><ele>246.00000000000003</ele><time>2026-03-28T11:19:26Z</time></trkpt><trkpt lat="43.88460470610363" lon="11.196184062547573"><ele>246.0</ele><time>2026-03-28T11:19:29Z</time></trkpt><trkpt lat="43.88453367776533" lon="11.196225492011626"><ele>246.00000000000003</ele><time>2026-03-28T11:19:33Z</time></trkpt><trkpt lat="43.884471552975214" lon="11.19626888498115"><ele>246.00000000000003</ele><time>2026-03-28T11:19:37Z</time></trkpt><trkpt lat="43.884418803086746" lon="11.196320839252717"><ele>246.0</ele><time>2026-03-28T11:19:41Z</time></trkpt><trkpt lat="43.88436676909463" lon="11.196371921917859"><ele>246.00000000000003</ele><time>2026-03-28T11:19:45Z</time></trkpt><trkpt lat="43.88430467515692" lon="11.19643176152488"><ele>246.00000000000003</ele><time>2026-03-28T11:19:49Z</time></trkpt><trkpt lat="43.88424886322945" lon="11.196476563886192"><ele>249.14285714285717</ele><time>2026-03-28T11:19:53Z</time></trkpt><trkpt lat="43.88418698014794" lon="11.196513529227587"><ele>252.28571428571428</ele><time>2026-03-28T11:19:57Z</time></trkpt><trkpt lat="43.88412314766706" lon="11.196557445050338"><ele>255.42857142857144</ele><time>2026-03-28T11:20:01Z</time></trkpt><trkpt lat="43.884062789044954" lon="11.196590022729053"><ele>258.57142857142856</ele><time>2026-03-28T11:20:04Z</time></trkpt><trkpt lat="43.88401556229655" lon="11.196657347009296"><ele>261.7142857142857</ele><time>2026-03-28T11:20:07Z</time></trkpt><trkpt lat="43.88396275928916" lon="11.196732985805715"><ele>264.8571428571429</ele><time>2026-03-28T11:20:11Z</time></trkpt><trkpt lat="43.883919041464424" lon="11.196798375125228"><ele>268.0</ele><time>2026-03-28T11:20:14Z</time></trkpt><trkpt lat="43.88384726102774" lon="11.1968434790746"><ele>268.0</ele><time>2026-03-28T11:20:18Z</time></trkpt><trkpt lat="43.88379137619466" lon="11.1969392913595"><ele>268.0</ele><time>2026-03-28T11:20:22Z</time></trkpt><trkpt lat="43.88377484310917" lon="11.197038193739974"><ele>268.0</ele><time>2026-03-28T11:20:26Z</time></trkpt><trkpt lat="43.883794050592535" lon="11.197156453294431"><ele>268.0</ele><time>2026-03-28T11:20:31Z</time></trkpt><trkpt lat="43.88373806504761" lon="11.197227763827286"><ele>268.0</ele><time>2026-03-28T11:20:36Z</time></trkpt><trkpt lat="43.88369923013107" lon="11.197321726057451"><ele>268.0</ele><time>2026-03-28T11:20:40Z</time></trkpt><trkpt lat="43.88372287230296" lon="11.197414357921348"><ele>269.42857142857144</ele><time>2026-03-28T11:20:43Z</time></trkpt><trkpt lat="43.883780539279876" lon="11.197476174627495"><ele>270.85714285714283</ele><time>2026-03-28T11:20:46Z</time></trkpt><trkpt lat="43.88383038822006" lon="11.19755660723533"><ele>272.2857142857143</ele><time>2026-03-28T11:20:50Z</time></trkpt><trkpt lat="43.8838848891674" lon="11.19763116174611"><ele>273.7142857142857</ele><time>2026-03-28T11:20:54Z</time></trkpt><trkpt lat="43.88391412798284" lon="11.197714295218224"><ele>275.14285714285717</ele><time>2026-03-28T11:20:58Z</time></trkpt><trkpt lat="43.88390254242227" lon="11.197803215461677"><ele>276.57142857142856</ele><time>2026-03-28T11:21:02Z</time></trkpt><trkpt lat="43.883920469919566" lon="11.197898004381825"><ele>278.0</ele><time>2026-03-28T11:21:06Z</time></trkpt><trkpt lat="43.8839433414758" lon="11.19799270299055"><ele>278.0</ele><time>2026-03-28T11:21:10Z</time></trkpt><trkpt lat="43.88390640079184" lon="11.198081904418151"><ele>278.0</ele><time>2026-03-28T11:21:15Z</time></trkpt><trkpt lat="43.883919235051266" lon="11.19817176691459"><ele>278.0</ele><time>2026-03-28T11:22:25Z</time></trkpt><trkpt lat="43.88386631418792" lon="11.198226397745117"><ele>278.0</ele><time>2026-03-28T11:22:29Z</time></trkpt><trkpt lat="43.883804066120824" lon="11.198310311831357"><ele>278.0</ele><time>2026-03-28T11:22:33Z</time></trkpt><trkpt lat="43.88376209977378" lon="11.198381951069623"><ele>278.0</ele><time>2026-03-28T11:22:36Z</time></trkpt><trkpt lat="43.88371616001949" lon="11.198449533298989"><ele>278.0</ele><time>2026-03-28T11:22:40Z</time></trkpt><trkpt lat="43.883655375172694" lon="11.198518375560475"><ele>278.85714285714283</ele><time>2026-03-28T11:22:44Z</time></trkpt><trkpt lat="43.88360220326757" lon="11.198588497738672"><ele>279.7142857142857</ele><time>2026-03-28T11:22:48Z</time></trkpt><trkpt lat="43.88357739558789" lon="11.19869199486906"><ele>280.57142857142856</ele><time>2026-03-28T11:22:51Z</time></trkpt><trkpt lat="43.883556670435404" lon="11.198785198293153"><ele>281.42857142857144</ele><time>2026-03-28T11:22:55Z</time></trkpt><trkpt lat="43.883526408730894" lon="11.198894562879353"><ele>282.2857142857143</ele><time>2026-03-28T11:22:59Z</time></trkpt><trkpt lat="43.88350389449443" lon="11.198978037330152"><ele>283.1428571428571</ele><time>2026-03-28T11:23:02Z</time></trkpt><trkpt lat="43.883457179758196" lon="11.19904806761792"><ele>284.0</ele><time>2026-03-28T11:23:06Z</time></trkpt><trkpt lat="43.8834038653964" lon="11.199121071712236"><ele>285.7142857142857</ele><time>2026-03-28T11:23:10Z</time></trkpt><trkpt lat="43.88337090513047" lon="11.199214268046406"><ele>287.4285714285714</ele><time>2026-03-28T11:23:13Z</time></trkpt><trkpt lat="43.88336089453637" lon="11.19932167315805"><ele>289.1428571428571</ele><time>2026-03-28T11:23:16Z</time></trkpt><trkpt lat="43.88338746746033" lon="11.19942336225348"><ele>290.85714285714283</ele><time>2026-03-28T11:23:19Z</time></trkpt><trkpt lat="43.88338443184012" lon="11.199524328098155"><ele>292.57142857142856</ele><time>2026-03-28T11:23:23Z</time></trkpt><trkpt lat="43.88336131008484" lon="11.199609541539173"><ele>294.2857142857143</ele><time>2026-03-28T11:23:26Z</time></trkpt><trkpt lat="43.883321356342755" lon="11.199681536316845"><ele>296.0</ele><time>2026-03-28T11:23:29Z</time></trkpt><trkpt lat="43.88327262255968" lon="11.199755053177109"><ele>296.0</ele><time>2026-03-28T11:23:32Z</time></trkpt><trkpt lat="43.883211354195296" lon="11.199804428405846"><ele>296.0</ele><time>2026-03-28T11:23:36Z</time></trkpt><trkpt lat="43.88317463121485" lon="11.199883317544423"><ele>296.0</ele><time>2026-03-28T11:23:39Z</time></trkpt><trkpt lat="43.88313868257274" lon="11.199983212620873"><ele>296.0</ele><time>2026-03-28T11:23:44Z</time></trkpt><trkpt lat="43.88308825275689" lon="11.200077240588675"><ele>296.0</ele><time>2026-03-28T11:23:48Z</time></trkpt><trkpt lat="43.883035257935504" lon="11.20014944005432"><ele>296.0</ele><time>2026-03-28T11:23:52Z</time></trkpt><trkpt lat="43.8829927108155" lon="11.200229154990707"><ele>296.0</ele><time>2026-03-28T11:23:56Z</time></trkpt><trkpt lat="43.8829516248309" lon="11.200319173419404"><ele>297.0</ele><time>2026-03-28T11:24:00Z</time></trkpt><trkpt lat="43.88288000920301" lon="11.200342516803042"><ele>298.0</ele><time>2026-03-28T11:24:04Z</time></trkpt><trkpt lat="43.88281734586599" lon="11.200377244590966"><ele>299.0</ele><time>2026-03-28T11:24:08Z</time></trkpt><trkpt lat="43.882736801909616" lon="11.20041885319152"><ele>300.0</ele><time>2026-03-28T11:24:12Z</time></trkpt><trkpt lat="43.882664967924846" lon="11.200441577184948"><ele>301.0</ele><time>2026-03-28T11:24:16Z</time></trkpt><trkpt lat="43.88258412288698" lon="11.20046437981006"><ele>302.0</ele><time>2026-03-28T11:24:20Z</time></trkpt><trkpt lat="43.88250480881746" lon="11.200491390986306"><ele>302.8571428571429</ele><time>2026-03-28T11:24:23Z</time></trkpt><trkpt lat="43.88244061209829" lon="11.200533873421262"><ele>303.7142857142857</ele><time>2026-03-28T11:24:26Z</time></trkpt><trkpt lat="43.88237931013449" lon="11.200586849433398"><ele>304.57142857142856</ele><time>2026-03-28T11:24:29Z</time></trkpt><trkpt lat="43.8823138906985" lon="11.200617260201925"><ele>305.42857142857144</ele><time>2026-03-28T11:24:32Z</time></trkpt><trkpt lat="43.882250841936546" lon="11.200655465921008"><ele>306.2857142857143</ele><time>2026-03-28T11:24:35Z</time></trkpt><trkpt lat="43.88219365336374" lon="11.200697372890264"><ele>307.14285714285717</ele><time>2026-03-28T11:24:38Z</time></trkpt><trkpt lat="43.88212794006956" lon="11.200705432656441"><ele>308.0</ele><time>2026-03-28T11:24:41Z</time></trkpt><trkpt lat="43.882046020767675" lon="11.200715894389004"><ele>309.7142857142857</ele><time>2026-03-28T11:24:45Z</time></trkpt><trkpt lat="43.8819747959245" lon="11.200745270639189"><ele>311.42857142857144</ele><time>2026-03-28T11:24:49Z</time></trkpt><trkpt lat="43.881967183354945" lon="11.200846026414485"><ele>313.1428571428571</ele><time>2026-03-28T11:24:54Z</time></trkpt><trkpt lat="43.881971141069066" lon="11.200945074229244"><ele>314.8571428571429</ele><time>2026-03-28T11:24:57Z</time></trkpt><trkpt lat="43.881947462504826" lon="11.201026824347458"><ele>316.57142857142856</ele><time>2026-03-28T11:25:00Z</time></trkpt><trkpt lat="43.881914049153174" lon="11.201102615089784"><ele>318.2857142857143</ele><time>2026-03-28T11:25:03Z</time></trkpt><trkpt lat="43.88186178183724" lon="11.201170575047492"><ele>320.0</ele><time>2026-03-28T11:25:07Z</time></trkpt><trkpt lat="43.88181607795845" lon="11.201234610751552"><ele>320.0</ele><time>2026-03-28T11:25:10Z</time></trkpt><trkpt lat="43.881786712450825" lon="11.201329716542359"><ele>320.0</ele><time>2026-03-28T11:25:14Z</time></trkpt><trkpt lat="43.88173602267942" lon="11.2014292105253"><ele>320.0</ele><time>2026-03-28T11:25:18Z</time></trkpt><trkpt lat="43.881708976535364" lon="11.2015097654687"><ele>320.0</ele><time>2026-03-28T11:25:21Z</time></trkpt><trkpt lat="43.88167752189711" lon="11.201589109702903"><ele>320.0</ele><time>2026-03-28T11:25:23Z</time></trkpt><trkpt lat="43.8816661782941" lon="11.201694012379885"><ele>320.0</ele><time>2026-03-28T11:25:26Z</time></trkpt><trkpt lat="43.88164332030058" lon="11.201788882818354"><ele>320.0</ele><time>2026-03-28T11:25:29Z</time></trkpt><trkpt lat="43.88161502348338" lon="11.201884553441426"><ele>321.42857142857144</ele><time>2026-03-28T11:25:32Z</time></trkpt><trkpt lat="43.88157151015344" lon="11.201955532179198"><ele>322.8571428571429</ele><time>2026-03-28T11:25:35Z</time></trkpt><trkpt lat="43.881520604632435" lon="11.202015194921923"><ele>324.28571428571433</ele><time>2026-03-28T11:25:38Z</time></trkpt><trkpt lat="43.88147818910162" lon="11.202085967940095"><ele>325.7142857142857</ele><time>2026-03-28T11:25:41Z</time></trkpt><trkpt lat="43.8814276502813" lon="11.202141372773232"><ele>327.14285714285717</ele><time>2026-03-28T11:25:44Z</time></trkpt><trkpt lat="43.881370779624206" lon="11.202185600273301"><ele>328.5714285714286</ele><time>2026-03-28T11:25:47Z</time></trkpt><trkpt lat="43.88130196217455" lon="11.202227974283325"><ele>330.0</ele><time>2026-03-28T11:25:51Z</time></trkpt><trkpt lat="43.88125133074354" lon="11.202313420418069"><ele>329.7142857142857</ele><time>2026-03-28T11:25:54Z</time></trkpt><trkpt lat="43.88123565250828" lon="11.202400785365413"><ele>329.42857142857144</ele><time>2026-03-28T11:25:57Z</time></trkpt><trkpt lat="43.881218630005044" lon="11.202485772048915"><ele>329.1428571428571</ele><time>2026-03-28T11:26:00Z</time></trkpt><trkpt lat="43.8811652225546" lon="11.202557740554306"><ele>328.8571428571429</ele><time>2026-03-28T11:26:03Z</time></trkpt><trkpt lat="43.88108740732585" lon="11.202546151579048"><ele>328.57142857142856</ele><time>2026-03-28T11:26:07Z</time></trkpt><trkpt lat="43.88102340164806" lon="11.202542761372126"><ele>328.2857142857143</ele><time>2026-03-28T11:26:10Z</time></trkpt><trkpt lat="43.88094513710319" lon="11.202558913709185"><ele>328.0</ele><time>2026-03-28T11:26:14Z</time></trkpt><trkpt lat="43.88087331980892" lon="11.202592879685607"><ele>329.1428571428571</ele><time>2026-03-28T11:26:18Z</time></trkpt><trkpt lat="43.880799767828286" lon="11.202609632826034"><ele>330.2857142857143</ele><time>2026-03-28T11:26:22Z</time></trkpt><trkpt lat="43.88073198004965" lon="11.20262855982971"><ele>331.42857142857144</ele><time>2026-03-28T11:26:26Z</time></trkpt><trkpt lat="43.8807181019039" lon="11.202539289589756"><ele>332.57142857142856</ele><time>2026-03-28T11:30:50Z</time></trkpt><trkpt lat="43.880645685434715" lon="11.202499450874186"><ele>333.7142857142857</ele><time>2026-03-28T11:30:54Z</time></trkpt><trkpt lat="43.88058351236888" lon="11.202468469528096"><ele>334.85714285714283</ele><time>2026-03-28T11:31:00Z</time></trkpt><trkpt lat="43.880497713661306" lon="11.20241662006723"><ele>336.0</ele><time>2026-03-28T11:31:27Z</time></trkpt><trkpt lat="43.88043681165806" lon="11.202364442977405"><ele>335.0</ele><time>2026-03-28T11:31:41Z</time></trkpt><trkpt lat="43.880395996183275" lon="11.202287408755263"><ele>334.0</ele><time>2026-03-28T11:32:04Z</time></trkpt><trkpt lat="43.880355902227734" lon="11.202203986469446"><ele>333.0</ele><time>2026-03-28T11:32:10Z</time></trkpt><trkpt lat="43.88033239915338" lon="11.202116942853891"><ele>332.0</ele><time>2026-03-28T11:32:14Z</time></trkpt><trkpt lat="43.880284652723006" lon="11.20202088026343"><ele>331.0</ele><time>2026-03-28T11:32:17Z</time></trkpt><trkpt lat="43.88024870531218" lon="11.201941186772077"><ele>330.0</ele><time>2026-03-28T11:32:19Z</time></trkpt><trkpt lat="43.88020325347222" lon="11.201828893450474"><ele>330.0</ele><time>2026-03-28T11:32:23Z</time></trkpt><trkpt lat="43.88015031666367" lon="11.201733355778375"><ele>330.0</ele><time>2026-03-28T11:32:26Z</time></trkpt><trkpt lat="43.8800850088146" lon="11.201790774622104"><ele>330.0</ele><time>2026-03-28T11:32:29Z</time></trkpt><trkpt lat="43.880030763571696" lon="11.201861688816656"><ele>330.0</ele><time>2026-03-28T11:32:33Z</time></trkpt><trkpt lat="43.8799652022391" lon="11.201878325503515"><ele>330.0</ele><time>2026-03-28T11:33:26Z</time></trkpt><trkpt lat="43.87991188118368" lon="11.20194077281199"><ele>330.0</ele><time>2026-03-28T11:33:30Z</time></trkpt><trkpt lat="43.87986292934436" lon="11.202024115575323"><ele>331.5</ele><time>2026-03-28T11:33:34Z</time></trkpt><trkpt lat="43.87982372262869" lon="11.202102657463955"><ele>333.0</ele><time>2026-03-28T11:33:37Z</time></trkpt><trkpt lat="43.87977045881414" lon="11.202158053142963"><ele>334.5</ele><time>2026-03-28T11:33:40Z</time></trkpt><trkpt lat="43.879695394420295" lon="11.202185865646637"><ele>336.0</ele><time>2026-03-28T11:33:44Z</time></trkpt><trkpt lat="43.87964583906658" lon="11.202260733237065"><ele>337.5</ele><time>2026-03-28T11:33:47Z</time></trkpt><trkpt lat="43.87958619611249" lon="11.202326449948194"><ele>339.0</ele><time>2026-03-28T11:33:51Z</time></trkpt><trkpt lat="43.87950202664984" lon="11.202394407022698"><ele>340.1666666666667</ele><time>2026-03-28T11:33:55Z</time></trkpt><trkpt lat="43.879456067375955" lon="11.202486397059271"><ele>341.3333333333333</ele><time>2026-03-28T11:34:00Z</time></trkpt><trkpt lat="43.879445058056326" lon="11.202581296438876"><ele>342.5</ele><time>2026-03-28T11:34:03Z</time></trkpt><trkpt lat="43.879422094726216" lon="11.202686169823613"><ele>343.66666666666663</ele><time>2026-03-28T11:34:06Z</time></trkpt><trkpt lat="43.87938272969191" lon="11.202759178809915"><ele>344.8333333333333</ele><time>2026-03-28T11:34:10Z</time></trkpt><trkpt lat="43.87938623721863" lon="11.202878651295928"><ele>346.0</ele><time>2026-03-28T11:34:14Z</time></trkpt><trkpt lat="43.879405859137044" lon="11.20297779529688"><ele>346.0</ele><time>2026-03-28T11:34:17Z</time></trkpt><trkpt lat="43.879394948521" lon="11.20307355672989"><ele>346.0</ele><time>2026-03-28T11:34:21Z</time></trkpt><trkpt lat="43.8793879365655" lon="11.203167452158157"><ele>346.0</ele><time>2026-03-28T11:34:24Z</time></trkpt><trkpt lat="43.87938604915268" lon="11.203256465592188"><ele>346.0</ele><time>2026-03-28T11:34:27Z</time></trkpt><trkpt lat="43.879415355233064" lon="11.203349757379968"><ele>346.0</ele><time>2026-03-28T11:34:30Z</time></trkpt><trkpt lat="43.8794661114551" lon="11.203447113296894"><ele>346.0</ele><time>2026-03-28T11:34:33Z</time></trkpt><trkpt lat="43.87950043977922" lon="11.20354982395709"><ele>346.0</ele><time>2026-03-28T11:34:36Z</time></trkpt><trkpt lat="43.87952937445551" lon="11.203638708637328"><ele>346.5</ele><time>2026-03-28T11:34:39Z</time></trkpt><trkpt lat="43.879566461482796" lon="11.203746613207885"><ele>347.0</ele><time>2026-03-28T11:34:43Z</time></trkpt><trkpt lat="43.87958467514417" lon="11.20383103720301"><ele>347.5</ele><time>2026-03-28T11:34:47Z</time></trkpt><trkpt lat="43.879594166177256" lon="11.203919751129797"><ele>348.0</ele><time>2026-03-28T11:34:51Z</time></trkpt><trkpt lat="43.879627125639935" lon="11.204029623880794"><ele>348.5</ele><time>2026-03-28T11:34:55Z</time></trkpt><trkpt lat="43.879659811103274" lon="11.204136100452365"><ele>349.0</ele><time>2026-03-28T11:34:59Z</time></trkpt><trkpt lat="43.879672316696556" lon="11.204239027474399"><ele>349.99999999999994</ele><time>2026-03-28T11:35:03Z</time></trkpt><trkpt lat="43.87968617036002" lon="11.204330480624996"><ele>351.0</ele><time>2026-03-28T11:35:08Z</time></trkpt><trkpt lat="43.879698019668105" lon="11.204423118673379"><ele>352.0</ele><time>2026-03-28T11:35:12Z</time></trkpt><trkpt lat="43.879718499753764" lon="11.204519227210728"><ele>353.0</ele><time>2026-03-28T11:35:15Z</time></trkpt><trkpt lat="43.879734151820955" lon="11.204624695506862"><ele>354.0</ele><time>2026-03-28T11:35:19Z</time></trkpt><trkpt lat="43.87974699516791" lon="11.20473184062733"><ele>354.99999999999994</ele><time>2026-03-28T11:35:23Z</time></trkpt><trkpt lat="43.879746237933304" lon="11.204824798150705"><ele>356.0</ele><time>2026-03-28T11:35:27Z</time></trkpt><trkpt lat="43.87975126942383" lon="11.204928370751873"><ele>358.2857142857143</ele><time>2026-03-28T11:35:34Z</time></trkpt><trkpt lat="43.87977519000851" lon="11.205020947035806"><ele>360.57142857142856</ele><time>2026-03-28T11:35:37Z</time></trkpt><trkpt lat="43.87980550252248" lon="11.205109649538706"><ele>362.8571428571429</ele><time>2026-03-28T11:35:42Z</time></trkpt><trkpt lat="43.87983822302856" lon="11.205220152394142"><ele>365.1428571428571</ele><time>2026-03-28T11:35:47Z</time></trkpt><trkpt lat="43.87986195526461" lon="11.205314165255094"><ele>367.42857142857144</ele><time>2026-03-28T11:35:52Z</time></trkpt><trkpt lat="43.87988274848532" lon="11.205398464815826"><ele>369.7142857142857</ele><time>2026-03-28T11:36:54Z</time></trkpt><trkpt lat="43.879848954032894" lon="11.205321318021923"><ele>372.0</ele><time>2026-03-28T11:37:01Z</time></trkpt><trkpt lat="43.87981271949528" lon="11.205243964819731"><ele>372.00000000000006</ele><time>2026-03-28T11:37:04Z</time></trkpt><trkpt lat="43.87975318544628" lon="11.20515143759423"><ele>372.0</ele><time>2026-03-28T11:37:08Z</time></trkpt><trkpt lat="43.8797063759516" lon="11.205085889504868"><ele>372.0</ele><time>2026-03-28T11:37:11Z</time></trkpt><trkpt lat="43.87967097187155" lon="11.2050084133836"><ele>372.0</ele><time>2026-03-28T11:37:15Z</time></trkpt><trkpt lat="43.87963365866761" lon="11.204926837122615"><ele>372.0</ele><time>2026-03-28T11:37:19Z</time></trkpt><trkpt lat="43.87959092902795" lon="11.204835401892382"><ele>372.00000000000006</ele><time>2026-03-28T11:37:23Z</time></trkpt><trkpt lat="43.87955909757813" lon="11.204740612171024"><ele>372.0</ele><time>2026-03-28T11:37:28Z</time></trkpt><trkpt lat="43.87949102674404" lon="11.20466253020902"><ele>369.7142857142857</ele><time>2026-03-28T11:37:32Z</time></trkpt><trkpt lat="43.87944560884616" lon="11.204600344620506"><ele>367.42857142857144</ele><time>2026-03-28T11:37:35Z</time></trkpt><trkpt lat="43.87939681230406" lon="11.204518027833778"><ele>365.1428571428571</ele><time>2026-03-28T11:37:39Z</time></trkpt><trkpt lat="43.87935736262432" lon="11.204440809874912"><ele>362.8571428571429</ele><time>2026-03-28T11:37:43Z</time></trkpt><trkpt lat="43.87930890805442" lon="11.204383255349661"><ele>360.57142857142856</ele><time>2026-03-28T11:37:47Z</time></trkpt><trkpt lat="43.87923460910763" lon="11.204367628351964"><ele>358.2857142857143</ele><time>2026-03-28T11:37:52Z</time></trkpt><trkpt lat="43.879159579164345" lon="11.20432344962334"><ele>356.0</ele><time>2026-03-28T11:37:57Z</time></trkpt><trkpt lat="43.8790911567412" lon="11.204262806659033"><ele>360.57142857142856</ele><time>2026-03-28T11:38:03Z</time></trkpt><trkpt lat="43.87900847397573" lon="11.204248819691765"><ele>365.1428571428571</ele><time>2026-03-28T11:38:09Z</time></trkpt><trkpt lat="43.87894243028897" lon="11.204228466801451"><ele>369.71428571428567</ele><time>2026-03-28T11:38:13Z</time></trkpt><trkpt lat="43.87887094848481" lon="11.20420774743967"><ele>374.2857142857143</ele><time>2026-03-28T11:38:18Z</time></trkpt><trkpt lat="43.878808889916506" lon="11.204179312810966"><ele>378.8571428571429</ele><time>2026-03-28T11:38:22Z</time></trkpt><trkpt lat="43.87874340502369" lon="11.204203393574053"><ele>383.4285714285714</ele><time>2026-03-28T11:38:26Z</time></trkpt><trkpt lat="43.8786750383015" lon="11.204192712346458"><ele>388.0</ele><time>2026-03-28T11:38:30Z</time></trkpt><trkpt lat="43.878610214558485" lon="11.20416879704278"><ele>388.00000000000006</ele><time>2026-03-28T11:38:33Z</time></trkpt><trkpt lat="43.87852829626193" lon="11.20411942281873"><ele>388.0</ele><time>2026-03-28T11:38:37Z</time></trkpt><trkpt lat="43.87846327476242" lon="11.204107360773646"><ele>388.0</ele><time>2026-03-28T11:38:41Z</time></trkpt><trkpt lat="43.87834855862356" lon="11.204068944081522"><ele>388.0</ele><time>2026-03-28T11:39:53Z</time></trkpt><trkpt lat="43.878284181506075" lon="11.204065035956376"><ele>388.00000000000006</ele><time>2026-03-28T11:39:57Z</time></trkpt><trkpt lat="43.87821147311631" lon="11.204074187651345"><ele>388.0</ele><time>2026-03-28T11:40:00Z</time></trkpt><trkpt lat="43.8781337946115" lon="11.204108396256341"><ele>390.00000000000006</ele><time>2026-03-28T11:40:03Z</time></trkpt><trkpt lat="43.878071103813475" lon="11.204175041233745"><ele>392.0</ele><time>2026-03-28T11:40:06Z</time></trkpt><trkpt lat="43.87798441056445" lon="11.204219264968732"><ele>394.0</ele><time>2026-03-28T11:40:09Z</time></trkpt><trkpt lat="43.87791910309632" lon="11.204236311775865"><ele>396.0</ele><time>2026-03-28T11:40:12Z</time></trkpt><trkpt lat="43.87784648296481" lon="11.204239460510125"><ele>398.00000000000006</ele><time>2026-03-28T11:40:15Z</time></trkpt><trkpt lat="43.87774879546971" lon="11.204231110723335"><ele>400.0</ele><time>2026-03-28T11:40:18Z</time></trkpt><trkpt lat="43.87768050138474" lon="11.204261932550788"><ele>398.1666666666667</ele><time>2026-03-28T11:40:21Z</time></trkpt><trkpt lat="43.87758700546736" lon="11.204293008451597"><ele>396.33333333333337</ele><time>2026-03-28T11:40:24Z</time></trkpt><trkpt lat="43.87750773588133" lon="11.204350871365655"><ele>394.5</ele><time>2026-03-28T11:40:27Z</time></trkpt><trkpt lat="43.87743992672782" lon="11.204406604883935"><ele>392.66666666666663</ele><time>2026-03-28T11:40:29Z</time></trkpt><trkpt lat="43.877373839746646" lon="11.204505600980063"><ele>390.8333333333333</ele><time>2026-03-28T11:40:32Z</time></trkpt><trkpt lat="43.87731509541214" lon="11.204539903234487"><ele>389.0</ele><time>2026-03-28T11:40:35Z</time></trkpt><trkpt lat="43.877254817447515" lon="11.20458615006389"><ele>389.0</ele><time>2026-03-28T11:40:38Z</time></trkpt><trkpt lat="43.87719440894131" lon="11.204623297228661"><ele>389.0</ele><time>2026-03-28T11:40:56Z</time></trkpt><trkpt lat="43.87712821767297" lon="11.20465348367164"><ele>389.0</ele><time>2026-03-28T11:41:00Z</time></trkpt><trkpt lat="43.87706573071677" lon="11.204672677876234"><ele>389.0</ele><time>2026-03-28T11:41:05Z</time></trkpt><trkpt lat="43.87699809878723" lon="11.20473679032694"><ele>389.0</ele><time>2026-03-28T11:41:09Z</time></trkpt><trkpt lat="43.87693379735909" lon="11.204804539547341"><ele>389.0</ele><time>2026-03-28T11:41:13Z</time></trkpt><trkpt lat="43.87687442206" lon="11.204864490271333"><ele>389.0</ele><time>2026-03-28T11:41:15Z</time></trkpt><trkpt lat="43.87681538751778" lon="11.204915861915195"><ele>390.7142857142857</ele><time>2026-03-28T11:43:22Z</time></trkpt><trkpt lat="43.87677231627894" lon="11.204984276829164"><ele>392.4285714285714</ele><time>2026-03-28T11:43:26Z</time></trkpt><trkpt lat="43.87673082946668" lon="11.205056861623222"><ele>394.1428571428571</ele><time>2026-03-28T11:43:29Z</time></trkpt><trkpt lat="43.876699417439546" lon="11.205155436536474"><ele>395.8571428571429</ele><time>2026-03-28T11:43:33Z</time></trkpt><trkpt lat="43.87665673642238" lon="11.205226708940577"><ele>397.57142857142856</ele><time>2026-03-28T11:43:36Z</time></trkpt><trkpt lat="43.87662983834432" lon="11.205306932238004"><ele>399.2857142857143</ele><time>2026-03-28T11:43:39Z</time></trkpt><trkpt lat="43.87665181897688" lon="11.205392945725151"><ele>401.0</ele><time>2026-03-28T11:43:42Z</time></trkpt><trkpt lat="43.87669396488165" lon="11.205491438318573"><ele>403.49999999999994</ele><time>2026-03-28T11:43:46Z</time></trkpt><trkpt lat="43.87674036415488" lon="11.205583869422224"><ele>406.0</ele><time>2026-03-28T11:43:50Z</time></trkpt><trkpt lat="43.87677249037026" lon="11.205667761006662"><ele>408.5</ele><time>2026-03-28T11:43:54Z</time></trkpt><trkpt lat="43.87680538828708" lon="11.205744289546184"><ele>411.0</ele><time>2026-03-28T11:43:57Z</time></trkpt><trkpt lat="43.87683361370136" lon="11.205847126320906"><ele>413.49999999999994</ele><time>2026-03-28T11:44:02Z</time></trkpt><trkpt lat="43.87686756361937" lon="11.205964342535745"><ele>416.0</ele><time>2026-03-28T11:44:06Z</time></trkpt><trkpt lat="43.87689240458522" lon="11.206091819838615"><ele>416.0</ele><time>2026-03-28T11:44:11Z</time></trkpt><trkpt lat="43.87689140704494" lon="11.206180495608859"><ele>416.0</ele><time>2026-03-28T11:44:15Z</time></trkpt><trkpt lat="43.87689385050539" lon="11.206283156794479"><ele>416.0</ele><time>2026-03-28T11:44:19Z</time></trkpt><trkpt lat="43.87692542761934" lon="11.206382228571982"><ele>416.0</ele><time>2026-03-28T11:44:23Z</time></trkpt><trkpt lat="43.87696089798181" lon="11.206462242492229"><ele>416.0</ele><time>2026-03-28T11:44:26Z</time></trkpt><trkpt lat="43.87700534123349" lon="11.206542441061911"><ele>416.0</ele><time>2026-03-28T11:44:30Z</time></trkpt><trkpt lat="43.87704596002978" lon="11.206614183037404"><ele>416.0</ele><time>2026-03-28T11:44:33Z</time></trkpt><trkpt lat="43.87708868820455" lon="11.206698855081894"><ele>415.7142857142857</ele><time>2026-03-28T11:44:36Z</time></trkpt><trkpt lat="43.87712995890138" lon="11.206777752712373"><ele>415.42857142857144</ele><time>2026-03-28T11:44:40Z</time></trkpt><trkpt lat="43.87717675031827" lon="11.206856964176675"><ele>415.14285714285717</ele><time>2026-03-28T11:44:43Z</time></trkpt><trkpt lat="43.87721766713007" lon="11.206929335971884"><ele>414.8571428571429</ele><time>2026-03-28T11:44:47Z</time></trkpt><trkpt lat="43.87725156633826" lon="11.207007058576417"><ele>414.57142857142856</ele><time>2026-03-28T11:44:50Z</time></trkpt><trkpt lat="43.87729549459405" lon="11.207092402984523"><ele>414.28571428571433</ele><time>2026-03-28T11:44:53Z</time></trkpt><trkpt lat="43.87734139492599" lon="11.207177118746355"><ele>414.0</ele><time>2026-03-28T11:44:56Z</time></trkpt><trkpt lat="43.87737686549354" lon="11.207256436249514"><ele>414.00000000000006</ele><time>2026-03-28T11:45:00Z</time></trkpt><trkpt lat="43.87741989234478" lon="11.207322414068914"><ele>414.0</ele><time>2026-03-28T11:45:03Z</time></trkpt><trkpt lat="43.877459996901564" lon="11.207402685607505"><ele>414.0</ele><time>2026-03-28T11:45:07Z</time></trkpt><trkpt lat="43.87750700728005" lon="11.207497578885725"><ele>414.0</ele><time>2026-03-28T11:45:11Z</time></trkpt><trkpt lat="43.877538980423004" lon="11.20758335028704"><ele>414.0</ele><time>2026-03-28T11:45:15Z</time></trkpt><trkpt lat="43.87757940534601" lon="11.20765363920632"><ele>414.00000000000006</ele><time>2026-03-28T11:45:18Z</time></trkpt><trkpt lat="43.87761844470967" lon="11.207731718217554"><ele>414.0</ele><time>2026-03-28T11:45:21Z</time></trkpt><trkpt lat="43.87766062386586" lon="11.207817129679025"><ele>413.28571428571433</ele><time>2026-03-28T11:45:25Z</time></trkpt><trkpt lat="43.877695431517566" lon="11.207935247454154"><ele>412.57142857142856</ele><time>2026-03-28T11:45:29Z</time></trkpt><trkpt lat="43.87770616929668" lon="11.208036104238388"><ele>411.8571428571429</ele><time>2026-03-28T11:45:33Z</time></trkpt><trkpt lat="43.8776829602588" lon="11.208120685976104"><ele>411.14285714285717</ele><time>2026-03-28T11:45:36Z</time></trkpt><trkpt lat="43.877662583024645" lon="11.2082077964749"><ele>410.42857142857144</ele><time>2026-03-28T11:45:40Z</time></trkpt><trkpt lat="43.87762108226946" lon="11.208275918762045"><ele>409.7142857142857</ele><time>2026-03-28T11:45:44Z</time></trkpt><trkpt lat="43.87756831436924" lon="11.208356207083398"><ele>409.0</ele><time>2026-03-28T11:45:48Z</time></trkpt><trkpt lat="43.877528166629446" lon="11.208433253845673"><ele>409.00000000000006</ele><time>2026-03-28T11:45:52Z</time></trkpt><trkpt lat="43.87748220825661" lon="11.208518244127756"><ele>409.0</ele><time>2026-03-28T11:45:56Z</time></trkpt><trkpt lat="43.87743020195697" lon="11.208609094892124"><ele>409.0</ele><time>2026-03-28T11:46:00Z</time></trkpt><trkpt lat="43.87737765226182" lon="11.208694466796311"><ele>409.0</ele><time>2026-03-28T11:46:03Z</time></trkpt><trkpt lat="43.877331158029115" lon="11.208767633775073"><ele>409.00000000000006</ele><time>2026-03-28T11:46:07Z</time></trkpt><trkpt lat="43.87728987679617" lon="11.208841194938614"><ele>409.0</ele><time>2026-03-28T11:46:10Z</time></trkpt><trkpt lat="43.8772405489062" lon="11.208920735091663"><ele>412.50000000000006</ele><time>2026-03-28T11:46:13Z</time></trkpt><trkpt lat="43.87719642428799" lon="11.209001777581696"><ele>416.0</ele><time>2026-03-28T11:46:17Z</time></trkpt><trkpt lat="43.87712710681723" lon="11.209082389182795"><ele>419.5</ele><time>2026-03-28T11:46:21Z</time></trkpt><trkpt lat="43.87707751615375" lon="11.20915846372893"><ele>423.0</ele><time>2026-03-28T11:46:25Z</time></trkpt><trkpt lat="43.87702342066857" lon="11.209259163556734"><ele>426.50000000000006</ele><time>2026-03-28T11:46:29Z</time></trkpt><trkpt lat="43.87698069527096" lon="11.20933504696435"><ele>430.0</ele><time>2026-03-28T11:46:33Z</time></trkpt><trkpt lat="43.87692742387596" lon="11.209406504103397"><ele>430.0</ele><time>2026-03-28T11:46:36Z</time></trkpt><trkpt lat="43.876876777146336" lon="11.209465339393338"><ele>430.0</ele><time>2026-03-28T11:46:40Z</time></trkpt><trkpt lat="43.87681732783645" lon="11.209553858974505"><ele>430.0</ele><time>2026-03-28T11:46:44Z</time></trkpt><trkpt lat="43.87676207070125" lon="11.209627255786367"><ele>430.0</ele><time>2026-03-28T11:46:48Z</time></trkpt><trkpt lat="43.87671795477395" lon="11.209702003159578"><ele>430.0</ele><time>2026-03-28T11:46:51Z</time></trkpt><trkpt lat="43.876682931598225" lon="11.209797355018221"><ele>430.0</ele><time>2026-03-28T11:46:55Z</time></trkpt><trkpt lat="43.876635542207964" lon="11.209858778070979"><ele>430.0</ele><time>2026-03-28T11:46:58Z</time></trkpt><trkpt lat="43.87658327834552" lon="11.209945819890471"><ele>430.2857142857143</ele><time>2026-03-28T11:47:02Z</time></trkpt><trkpt lat="43.87653274182655" lon="11.210046247221946"><ele>430.5714285714286</ele><time>2026-03-28T11:47:06Z</time></trkpt><trkpt lat="43.87647036993889" lon="11.21010556776719"><ele>430.8571428571429</ele><time>2026-03-28T11:47:10Z</time></trkpt><trkpt lat="43.876417785850194" lon="11.210170864526447"><ele>431.1428571428571</ele><time>2026-03-28T11:47:13Z</time></trkpt><trkpt lat="43.876365404219406" lon="11.21022386938276"><ele>431.42857142857144</ele><time>2026-03-28T11:47:16Z</time></trkpt><trkpt lat="43.87631650406749" lon="11.210294987498864"><ele>431.7142857142857</ele><time>2026-03-28T11:47:19Z</time></trkpt><trkpt lat="43.87625322010804" lon="11.210335726771062"><ele>432.0</ele><time>2026-03-28T11:47:23Z</time></trkpt><trkpt lat="43.876194910765356" lon="11.210419597221508"><ele>432.0</ele><time>2026-03-28T11:47:26Z</time></trkpt><trkpt lat="43.87613673642631" lon="11.210501802988027"><ele>432.0</ele><time>2026-03-28T11:47:30Z</time></trkpt><trkpt lat="43.87608891818354" lon="11.210567808969053"><ele>432.0</ele><time>2026-03-28T11:47:33Z</time></trkpt><trkpt lat="43.87604702235519" lon="11.21064200623377"><ele>432.0</ele><time>2026-03-28T11:47:36Z</time></trkpt><trkpt lat="43.87598408661899" lon="11.210685857803005"><ele>432.0</ele><time>2026-03-28T11:47:39Z</time></trkpt><trkpt lat="43.8759335341911" lon="11.210743471743644"><ele>432.0</ele><time>2026-03-28T11:47:42Z</time></trkpt><trkpt lat="43.87587496907876" lon="11.21079214879069"><ele>432.0</ele><time>2026-03-28T11:47:45Z</time></trkpt><trkpt lat="43.875817426115404" lon="11.21084269602232"><ele>432.5</ele><time>2026-03-28T11:47:48Z</time></trkpt><trkpt lat="43.875747508091415" lon="11.210918898835589"><ele>433.0</ele><time>2026-03-28T11:47:52Z</time></trkpt><trkpt lat="43.87569940831787" lon="11.211004158431727"><ele>433.5</ele><time>2026-03-28T11:47:55Z</time></trkpt><trkpt lat="43.87565018718979" lon="11.2110981816864"><ele>434.0</ele><time>2026-03-28T11:47:59Z</time></trkpt><trkpt lat="43.87559579390216" lon="11.211179147175079"><ele>434.5</ele><time>2026-03-28T11:48:02Z</time></trkpt><trkpt lat="43.87555543538845" lon="11.211258439200623"><ele>435.0</ele><time>2026-03-28T11:48:05Z</time></trkpt><trkpt lat="43.87550823231908" lon="11.211346595836423"><ele>435.00000000000006</ele><time>2026-03-28T11:48:09Z</time></trkpt><trkpt lat="43.87547010849166" lon="11.211427357399577"><ele>435.0</ele><time>2026-03-28T11:48:12Z</time></trkpt><trkpt lat="43.87543708599661" lon="11.21151563188317"><ele>435.0</ele><time>2026-03-28T11:48:15Z</time></trkpt><trkpt lat="43.87539840955766" lon="11.211595761251603"><ele>435.0</ele><time>2026-03-28T11:48:18Z</time></trkpt><trkpt lat="43.875349474080544" lon="11.211662838315851"><ele>435.0</ele><time>2026-03-28T11:48:21Z</time></trkpt><trkpt lat="43.87529257072596" lon="11.211713694437996"><ele>435.00000000000006</ele><time>2026-03-28T11:48:24Z</time></trkpt><trkpt lat="43.87523350141164" lon="11.211781733357453"><ele>435.0</ele><time>2026-03-28T11:48:27Z</time></trkpt><trkpt lat="43.87517818414192" lon="11.211842989748133"><ele>434.5714285714286</ele><time>2026-03-28T11:48:30Z</time></trkpt><trkpt lat="43.875122758003315" lon="11.211894860951686"><ele>434.14285714285717</ele><time>2026-03-28T11:48:33Z</time></trkpt><trkpt lat="43.87507337993225" lon="11.211972216775644"><ele>433.7142857142857</ele><time>2026-03-28T11:48:36Z</time></trkpt><trkpt lat="43.87504261738787" lon="11.212050076927634"><ele>433.28571428571433</ele><time>2026-03-28T11:48:38Z</time></trkpt><trkpt lat="43.87501554299848" lon="11.212154189939325"><ele>432.85714285714283</ele><time>2026-03-28T11:48:41Z</time></trkpt><trkpt lat="43.87500128126772" lon="11.21224722886793"><ele>432.42857142857144</ele><time>2026-03-28T11:48:44Z</time></trkpt><trkpt lat="43.87499405980758" lon="11.212342909203132"><ele>432.0</ele><time>2026-03-28T11:48:47Z</time></trkpt><trkpt lat="43.8749942906518" lon="11.212439387755966"><ele>434.1428571428571</ele><time>2026-03-28T11:48:50Z</time></trkpt><trkpt lat="43.87500110732586" lon="11.21254206628691"><ele>436.2857142857143</ele><time>2026-03-28T11:48:53Z</time></trkpt><trkpt lat="43.875012780469866" lon="11.212636367601993"><ele>438.42857142857144</ele><time>2026-03-28T11:48:56Z</time></trkpt><trkpt lat="43.87503209895403" lon="11.212725901197965"><ele>440.57142857142856</ele><time>2026-03-28T11:48:59Z</time></trkpt><trkpt lat="43.87504216945352" lon="11.212816723142888"><ele>442.7142857142857</ele><time>2026-03-28T11:49:02Z</time></trkpt><trkpt lat="43.875068855295886" lon="11.212906867533777"><ele>444.85714285714283</ele><time>2026-03-28T11:49:05Z</time></trkpt><trkpt lat="43.875085449506585" lon="11.213026601004861"><ele>447.0</ele><time>2026-03-28T11:49:08Z</time></trkpt><trkpt lat="43.87512019591923" lon="11.213105193992147"><ele>452.85714285714283</ele><time>2026-03-28T11:49:11Z</time></trkpt><trkpt lat="43.875149642690374" lon="11.213183469678393"><ele>458.71428571428567</ele><time>2026-03-28T11:49:13Z</time></trkpt><trkpt lat="43.8751811866659" lon="11.213287300169977"><ele>464.57142857142856</ele><time>2026-03-28T11:49:17Z</time></trkpt><trkpt lat="43.875209851149855" lon="11.213370297712677"><ele>470.4285714285714</ele><time>2026-03-28T11:49:20Z</time></trkpt><trkpt lat="43.87524978780745" lon="11.213452470732543"><ele>476.2857142857143</ele><time>2026-03-28T11:49:23Z</time></trkpt><trkpt lat="43.87527788313395" lon="11.21353448813083"><ele>482.14285714285705</ele><time>2026-03-28T11:49:26Z</time></trkpt><trkpt lat="43.875299288106355" lon="11.213620282283259"><ele>487.99999999999994</ele><time>2026-03-28T11:49:29Z</time></trkpt><trkpt lat="43.87533136464936" lon="11.213695598726906"><ele>487.99999999999994</ele><time>2026-03-28T11:49:32Z</time></trkpt><trkpt lat="43.8753851608253" lon="11.2137715529533"><ele>488.0</ele><time>2026-03-28T11:49:35Z</time></trkpt><trkpt lat="43.87541535218424" lon="11.213861262874444"><ele>488.0</ele><time>2026-03-28T11:49:38Z</time></trkpt><trkpt lat="43.87546166480398" lon="11.213955115314977"><ele>488.0</ele><time>2026-03-28T11:49:41Z</time></trkpt><trkpt lat="43.875492718549026" lon="11.214032759338115"><ele>487.99999999999994</ele><time>2026-03-28T11:49:44Z</time></trkpt><trkpt lat="43.87550332588012" lon="11.214142155780657"><ele>488.0</ele><time>2026-03-28T11:49:48Z</time></trkpt><trkpt lat="43.87553477609863" lon="11.21424171536194"><ele>486.66666666666663</ele><time>2026-03-28T11:49:51Z</time></trkpt><trkpt lat="43.87555007790068" lon="11.214336713875424"><ele>485.3333333333333</ele><time>2026-03-28T11:49:54Z</time></trkpt><trkpt lat="43.87554640574665" lon="11.214439332396761"><ele>484.0</ele><time>2026-03-28T11:49:57Z</time></trkpt><trkpt lat="43.87554756624061" lon="11.214550245121693"><ele>482.66666666666663</ele><time>2026-03-28T11:50:00Z</time></trkpt><trkpt lat="43.875553248225984" lon="11.214652137753175"><ele>481.3333333333333</ele><time>2026-03-28T11:50:03Z</time></trkpt><trkpt lat="43.8755659405595" lon="11.214783632447826"><ele>480.0</ele><time>2026-03-28T11:50:06Z</time></trkpt><trkpt lat="43.875580594014124" lon="11.214869821250566"><ele>479.8571428571429</ele><time>2026-03-28T11:50:09Z</time></trkpt><trkpt lat="43.87559358279646" lon="11.21496996829947"><ele>479.71428571428567</ele><time>2026-03-28T11:50:12Z</time></trkpt><trkpt lat="43.87560633601843" lon="11.215084732254754"><ele>479.57142857142856</ele><time>2026-03-28T11:50:16Z</time></trkpt><trkpt lat="43.875633313018064" lon="11.215183727315644"><ele>479.42857142857144</ele><time>2026-03-28T11:50:19Z</time></trkpt><trkpt lat="43.875614961307726" lon="11.215276616739713"><ele>479.28571428571433</ele><time>2026-03-28T11:50:22Z</time></trkpt><trkpt lat="43.87562717322845" lon="11.21537040713275"><ele>479.1428571428571</ele><time>2026-03-28T11:50:25Z</time></trkpt><trkpt lat="43.87564891511166" lon="11.215464249665558"><ele>479.0</ele><time>2026-03-28T11:50:28Z</time></trkpt><trkpt lat="43.87565082891738" lon="11.215553348372625"><ele>479.71428571428567</ele><time>2026-03-28T11:50:31Z</time></trkpt><trkpt lat="43.8756591800082" lon="11.215666465763727"><ele>480.42857142857144</ele><time>2026-03-28T11:50:34Z</time></trkpt><trkpt lat="43.87564286931302" lon="11.21576247519812"><ele>481.1428571428571</ele><time>2026-03-28T11:50:37Z</time></trkpt><trkpt lat="43.875625460385784" lon="11.21586267070457"><ele>481.85714285714283</ele><time>2026-03-28T11:50:40Z</time></trkpt><trkpt lat="43.8756058444996" lon="11.215950733997401"><ele>482.57142857142856</ele><time>2026-03-28T11:50:43Z</time></trkpt><trkpt lat="43.87558185610577" lon="11.216034582974242"><ele>483.2857142857143</ele><time>2026-03-28T11:50:46Z</time></trkpt><trkpt lat="43.87555183818031" lon="11.216112513557007"><ele>484.0</ele><time>2026-03-28T11:50:49Z</time></trkpt><trkpt lat="43.875510187361826" lon="11.216203483990101"><ele>484.00000000000006</ele><time>2026-03-28T11:50:52Z</time></trkpt><trkpt lat="43.87546337997901" lon="11.216272559777664"><ele>484.0</ele><time>2026-03-28T11:50:55Z</time></trkpt><trkpt lat="43.87540812088563" lon="11.216334903220515"><ele>484.0</ele><time>2026-03-28T11:50:58Z</time></trkpt><trkpt lat="43.87534939654441" lon="11.216396447920923"><ele>484.0</ele><time>2026-03-28T11:51:01Z</time></trkpt><trkpt lat="43.87529424956502" lon="11.21648345971661"><ele>484.00000000000006</ele><time>2026-03-28T11:51:05Z</time></trkpt><trkpt lat="43.87524292385712" lon="11.21653978111227"><ele>484.0</ele><time>2026-03-28T11:51:08Z</time></trkpt><trkpt lat="43.87515860546208" lon="11.216605322389459"><ele>481.83333333333337</ele><time>2026-03-28T11:51:12Z</time></trkpt><trkpt lat="43.87511373238175" lon="11.216696812511515"><ele>479.6666666666667</ele><time>2026-03-28T11:51:15Z</time></trkpt><trkpt lat="43.87505011740958" lon="11.216771254738783"><ele>477.5</ele><time>2026-03-28T11:51:18Z</time></trkpt><trkpt lat="43.874981311818885" lon="11.216868953703605"><ele>475.33333333333337</ele><time>2026-03-28T11:51:21Z</time></trkpt><trkpt lat="43.874946111136296" lon="11.216945719657254"><ele>473.1666666666667</ele><time>2026-03-28T11:51:23Z</time></trkpt><trkpt lat="43.874888624478274" lon="11.21702177414214"><ele>471.0</ele><time>2026-03-28T11:51:26Z</time></trkpt><trkpt lat="43.874841809343486" lon="11.217114098086332"><ele>471.0</ele><time>2026-03-28T11:51:29Z</time></trkpt><trkpt lat="43.874796925725114" lon="11.21720578648219"><ele>471.0</ele><time>2026-03-28T11:51:32Z</time></trkpt><trkpt lat="43.87474328034998" lon="11.217274876748686"><ele>471.0</ele><time>2026-03-28T11:51:35Z</time></trkpt><trkpt lat="43.87468521305869" lon="11.217339527920116"><ele>471.0</ele><time>2026-03-28T11:51:38Z</time></trkpt><trkpt lat="43.87460832783776" lon="11.217377997428335"><ele>471.0</ele><time>2026-03-28T11:51:41Z</time></trkpt><trkpt lat="43.87453966421408" lon="11.217444309597463"><ele>471.0</ele><time>2026-03-28T11:51:44Z</time></trkpt><trkpt lat="43.87447101903844" lon="11.217474013210564"><ele>472.3333333333333</ele><time>2026-03-28T11:51:47Z</time></trkpt><trkpt lat="43.87438831364052" lon="11.217500908572953"><ele>473.66666666666663</ele><time>2026-03-28T11:51:50Z</time></trkpt><trkpt lat="43.874323548793825" lon="11.217513287874343"><ele>475.0</ele><time>2026-03-28T11:51:53Z</time></trkpt><trkpt lat="43.87425372499484" lon="11.217523247538546"><ele>476.3333333333333</ele><time>2026-03-28T11:51:56Z</time></trkpt><trkpt lat="43.87417746661391" lon="11.217552014395356"><ele>477.66666666666663</ele><time>2026-03-28T11:51:59Z</time></trkpt><trkpt lat="43.874098692075336" lon="11.217591974420897"><ele>479.0</ele><time>2026-03-28T11:52:02Z</time></trkpt><trkpt lat="43.874022687337515" lon="11.217642255569963"><ele>478.99999999999994</ele><time>2026-03-28T11:52:05Z</time></trkpt><trkpt lat="43.873947868069436" lon="11.217722911956283"><ele>479.0</ele><time>2026-03-28T11:52:08Z</time></trkpt><trkpt lat="43.87388383669236" lon="11.21778666951675"><ele>479.0</ele><time>2026-03-28T11:52:11Z</time></trkpt><trkpt lat="43.8738153344699" lon="11.217856305842854"><ele>479.0</ele><time>2026-03-28T11:52:14Z</time></trkpt><trkpt lat="43.873768306094384" lon="11.217924609080939"><ele>478.99999999999994</ele><time>2026-03-28T11:52:17Z</time></trkpt><trkpt lat="43.87371536898973" lon="11.218006146899238"><ele>479.0</ele><time>2026-03-28T11:52:20Z</time></trkpt><trkpt lat="43.873673139421655" lon="11.218080986241471"><ele>482.99999999999994</ele><time>2026-03-28T11:52:23Z</time></trkpt><trkpt lat="43.87363473936397" lon="11.218162108158223"><ele>487.0</ele><time>2026-03-28T11:52:26Z</time></trkpt><trkpt lat="43.873573900858005" lon="11.218258645660232"><ele>491.0</ele><time>2026-03-28T11:52:29Z</time></trkpt><trkpt lat="43.87355247419176" lon="11.218367799569394"><ele>495.0</ele><time>2026-03-28T11:52:32Z</time></trkpt><trkpt lat="43.873528173657036" lon="11.218474961925933"><ele>498.99999999999994</ele><time>2026-03-28T11:52:36Z</time></trkpt><trkpt lat="43.873507242697464" lon="11.218606572334712"><ele>503.0</ele><time>2026-03-28T11:52:40Z</time></trkpt><trkpt lat="43.873517700756615" lon="11.218710661179225"><ele>503.0</ele><time>2026-03-28T11:52:43Z</time></trkpt><trkpt lat="43.87354223955153" lon="11.218810100937967"><ele>503.00000000000006</ele><time>2026-03-28T11:52:46Z</time></trkpt><trkpt lat="43.873566019851" lon="11.218908279597601"><ele>503.0</ele><time>2026-03-28T11:52:49Z</time></trkpt><trkpt lat="43.873583299349235" lon="11.219004698338873"><ele>503.0</ele><time>2026-03-28T11:52:52Z</time></trkpt><trkpt lat="43.87361198381408" lon="11.21910129666633"><ele>503.00000000000006</ele><time>2026-03-28T11:52:55Z</time></trkpt><trkpt lat="43.873638802874936" lon="11.219200222137674"><ele>503.0</ele><time>2026-03-28T11:52:58Z</time></trkpt><trkpt lat="43.8736550699995" lon="11.21929511698373"><ele>503.0</ele><time>2026-03-28T11:53:01Z</time></trkpt><trkpt lat="43.87367797988388" lon="11.219394044771551"><ele>505.3333333333333</ele><time>2026-03-28T11:53:04Z</time></trkpt><trkpt lat="43.87370475015284" lon="11.219500663330995"><ele>507.66666666666663</ele><time>2026-03-28T11:53:08Z</time></trkpt><trkpt lat="43.87373075768273" lon="11.219599480033057"><ele>510.0</ele><time>2026-03-28T11:53:11Z</time></trkpt><trkpt lat="43.87375816254244" lon="11.219698638861582"><ele>512.3333333333334</ele><time>2026-03-28T11:53:14Z</time></trkpt><trkpt lat="43.873789823736594" lon="11.219799798384745"><ele>514.6666666666667</ele><time>2026-03-28T11:53:17Z</time></trkpt><trkpt lat="43.87382322202616" lon="11.219919764103699"><ele>517.0</ele><time>2026-03-28T11:53:21Z</time></trkpt><trkpt lat="43.8738637028258" lon="11.220022397011963"><ele>516.5</ele><time>2026-03-28T11:53:24Z</time></trkpt><trkpt lat="43.87387501814699" lon="11.220122185163678"><ele>516.0</ele><time>2026-03-28T11:53:27Z</time></trkpt><trkpt lat="43.873886188846754" lon="11.220245747860906"><ele>515.5</ele><time>2026-03-28T11:53:30Z</time></trkpt><trkpt lat="43.87389751906293" lon="11.220346881558688"><ele>515.0</ele><time>2026-03-28T11:53:33Z</time></trkpt><trkpt lat="43.873906455946596" lon="11.220445280803505"><ele>514.5</ele><time>2026-03-28T11:53:36Z</time></trkpt><trkpt lat="43.8739145575343" lon="11.22056263317049"><ele>514.0</ele><time>2026-03-28T11:53:39Z</time></trkpt><trkpt lat="43.87392401520771" lon="11.220660789732332"><ele>514.0</ele><time>2026-03-28T11:53:41Z</time></trkpt><trkpt lat="43.87393421201477" lon="11.220765433761786"><ele>514.0</ele><time>2026-03-28T11:53:44Z</time></trkpt><trkpt lat="43.873935909801666" lon="11.220877488316676"><ele>514.0</ele><time>2026-03-28T11:53:47Z</time></trkpt><trkpt lat="43.87395522351256" lon="11.220991947911951"><ele>514.0</ele><time>2026-03-28T11:53:51Z</time></trkpt><trkpt lat="43.87397831420657" lon="11.221112581498485"><ele>514.0</ele><time>2026-03-28T11:53:54Z</time></trkpt><trkpt lat="43.8740180657779" lon="11.221222538818953"><ele>514.0</ele><time>2026-03-28T11:53:56Z</time></trkpt><trkpt lat="43.87405105381372" lon="11.22133858644325"><ele>514.0</ele><time>2026-03-28T11:53:58Z</time></trkpt><trkpt lat="43.8740673651578" lon="11.221444822332458"><ele>514.0</ele><time>2026-03-28T11:54:01Z</time></trkpt><trkpt lat="43.87411035119865" lon="11.221539993710588"><ele>514.0</ele><time>2026-03-28T11:54:04Z</time></trkpt><trkpt lat="43.874140509047365" lon="11.221646149888064"><ele>514.0</ele><time>2026-03-28T11:54:07Z</time></trkpt><trkpt lat="43.87418312196266" lon="11.221740010609919"><ele>514.0</ele><time>2026-03-28T11:54:11Z</time></trkpt><trkpt lat="43.874253351586844" lon="11.221853606037852"><ele>514.0</ele><time>2026-03-28T11:54:14Z</time></trkpt><trkpt lat="43.87427033703398" lon="11.221942013753797"><ele>519.0</ele><time>2026-03-28T11:54:17Z</time></trkpt><trkpt lat="43.8742984001861" lon="11.222030494105915"><ele>524.0</ele><time>2026-03-28T11:54:20Z</time></trkpt><trkpt lat="43.87432530928201" lon="11.222120301780409"><ele>529.0</ele><time>2026-03-28T11:54:22Z</time></trkpt><trkpt lat="43.87436070866893" lon="11.222207000071865"><ele>534.0</ele><time>2026-03-28T11:54:24Z</time></trkpt><trkpt lat="43.87438588861869" lon="11.222309800294456"><ele>539.0</ele><time>2026-03-28T11:54:27Z</time></trkpt><trkpt lat="43.87440246663243" lon="11.22240098639919"><ele>544.0</ele><time>2026-03-28T11:54:30Z</time></trkpt><trkpt lat="43.87444941206295" lon="11.222509847916532"><ele>549.0</ele><time>2026-03-28T11:54:33Z</time></trkpt><trkpt lat="43.87450072397527" lon="11.222620568550697"><ele>549.0</ele><time>2026-03-28T11:54:35Z</time></trkpt><trkpt lat="43.87455074955037" lon="11.222711342772225"><ele>549.0</ele><time>2026-03-28T11:54:38Z</time></trkpt><trkpt lat="43.874571075818146" lon="11.22280178255686"><ele>549.0</ele><time>2026-03-28T11:54:40Z</time></trkpt><trkpt lat="43.87463634482324" lon="11.222918724671755"><ele>549.0</ele><time>2026-03-28T11:54:43Z</time></trkpt><trkpt lat="43.874687803010914" lon="11.223049585916486"><ele>549.0</ele><time>2026-03-28T11:54:46Z</time></trkpt><trkpt lat="43.874717139754345" lon="11.22313050245318"><ele>549.0</ele><time>2026-03-28T11:54:48Z</time></trkpt><trkpt lat="43.874750459008794" lon="11.223250793077684"><ele>545.3333333333334</ele><time>2026-03-28T11:54:51Z</time></trkpt><trkpt lat="43.874807251045326" lon="11.223336198868145"><ele>541.6666666666666</ele><time>2026-03-28T11:54:54Z</time></trkpt><trkpt lat="43.87483031738616" lon="11.22342480946745"><ele>538.0</ele><time>2026-03-28T11:54:56Z</time></trkpt><trkpt lat="43.87488032286852" lon="11.22352900541406"><ele>534.3333333333333</ele><time>2026-03-28T11:55:00Z</time></trkpt><trkpt lat="43.874926065623775" lon="11.22362279807891"><ele>530.6666666666666</ele><time>2026-03-28T11:55:03Z</time></trkpt><trkpt lat="43.875006100670355" lon="11.22370467679878"><ele>527.0</ele><time>2026-03-28T11:55:06Z</time></trkpt><trkpt lat="43.8750734116536" lon="11.2237548294942"><ele>529.3333333333333</ele><time>2026-03-28T11:55:09Z</time></trkpt><trkpt lat="43.87512287940331" lon="11.223819207594795"><ele>531.6666666666666</ele><time>2026-03-28T11:55:11Z</time></trkpt><trkpt lat="43.87519586007358" lon="11.223900471021446"><ele>534.0</ele><time>2026-03-28T11:55:14Z</time></trkpt><trkpt lat="43.87526260723785" lon="11.223985468135217"><ele>536.3333333333334</ele><time>2026-03-28T11:55:17Z</time></trkpt><trkpt lat="43.87533826870297" lon="11.22406486500604"><ele>538.6666666666667</ele><time>2026-03-28T11:55:20Z</time></trkpt><trkpt lat="43.875393473760354" lon="11.224135876909276"><ele>541.0</ele><time>2026-03-28T11:55:21Z</time></trkpt><trkpt lat="43.87546577238305" lon="11.224165045154479"><ele>541.0</ele><time>2026-03-28T11:55:22Z</time></trkpt><trkpt lat="43.87554150587839" lon="11.224242623602096"><ele>541.0</ele><time>2026-03-28T11:55:23Z</time></trkpt><trkpt lat="43.875616386031886" lon="11.22434530938499"><ele>541.0</ele><time>2026-03-28T11:55:26Z</time></trkpt><trkpt lat="43.875670826522665" lon="11.224423626755701"><ele>541.0</ele><time>2026-03-28T11:55:28Z</time></trkpt><trkpt lat="43.87573478608773" lon="11.224480145379347"><ele>541.0</ele><time>2026-03-28T11:55:31Z</time></trkpt><trkpt lat="43.87582241971576" lon="11.224546775245475"><ele>541.0</ele><time>2026-03-28T11:55:34Z</time></trkpt><trkpt lat="43.87589225325102" lon="11.224622752589424"><ele>541.0</ele><time>2026-03-28T11:55:37Z</time></trkpt><trkpt lat="43.87594823384549" lon="11.224695300749591"><ele>541.0</ele><time>2026-03-28T11:55:39Z</time></trkpt><trkpt lat="43.875935649429856" lon="11.224804952293658"><ele>541.0</ele><time>2026-03-28T11:55:42Z</time></trkpt><trkpt lat="43.875880398352535" lon="11.224883504487648"><ele>541.0</ele><time>2026-03-28T11:55:44Z</time></trkpt><trkpt lat="43.87583164828328" lon="11.224940325329797"><ele>541.0</ele><time>2026-03-28T11:55:45Z</time></trkpt><trkpt lat="43.87577371491814" lon="11.224977130992762"><ele>539.3333333333334</ele><time>2026-03-28T11:55:47Z</time></trkpt><trkpt lat="43.875715457511504" lon="11.225024557309768"><ele>537.6666666666667</ele><time>2026-03-28T11:55:50Z</time></trkpt><trkpt lat="43.87563106876554" lon="11.2251245413589"><ele>536.0</ele><time>2026-03-28T11:55:53Z</time></trkpt><trkpt lat="43.87555228242533" lon="11.22515718825118"><ele>534.3333333333334</ele><time>2026-03-28T11:55:55Z</time></trkpt><trkpt lat="43.87548475719694" lon="11.22520216525322"><ele>532.6666666666666</ele><time>2026-03-28T11:55:57Z</time></trkpt><trkpt lat="43.8754163566901" lon="11.225257370824547"><ele>531.0</ele><time>2026-03-28T11:55:59Z</time></trkpt><trkpt lat="43.87533933549282" lon="11.225304776632337"><ele>531.0</ele><time>2026-03-28T11:56:01Z</time></trkpt><trkpt lat="43.87526517698031" lon="11.225346928501299"><ele>531.0</ele><time>2026-03-28T11:56:03Z</time></trkpt><trkpt lat="43.875173174824916" lon="11.225359668701698"><ele>531.0</ele><time>2026-03-28T11:56:05Z</time></trkpt><trkpt lat="43.87509078985783" lon="11.225401248751192"><ele>531.0</ele><time>2026-03-28T11:56:07Z</time></trkpt><trkpt lat="43.87500354152134" lon="11.225442533335668"><ele>531.0</ele><time>2026-03-28T11:56:09Z</time></trkpt><trkpt lat="43.874930818503245" lon="11.2255147034504"><ele>531.0</ele><time>2026-03-28T11:56:11Z</time></trkpt><trkpt lat="43.87487163441158" lon="11.225596483028161"><ele>529.8333333333334</ele><time>2026-03-28T11:56:13Z</time></trkpt><trkpt lat="43.87485649442579" lon="11.225714280982483"><ele>528.6666666666666</ele><time>2026-03-28T11:56:15Z</time></trkpt><trkpt lat="43.87485396865395" lon="11.225812057578864"><ele>527.5</ele><time>2026-03-28T11:56:17Z</time></trkpt><trkpt lat="43.8748527688649" lon="11.225919177183606"><ele>526.3333333333333</ele><time>2026-03-28T11:56:19Z</time></trkpt><trkpt lat="43.87483786696219" lon="11.226029716331167"><ele>525.1666666666666</ele><time>2026-03-28T11:56:21Z</time></trkpt><trkpt lat="43.874814911734205" lon="11.226129525984565"><ele>524.0</ele><time>2026-03-28T11:56:23Z</time></trkpt><trkpt lat="43.87479499773729" lon="11.22622109822951"><ele>524.0</ele><time>2026-03-28T11:56:25Z</time></trkpt><trkpt lat="43.87476138378876" lon="11.226345152092474"><ele>524.0</ele><time>2026-03-28T11:56:28Z</time></trkpt><trkpt lat="43.87476019780672" lon="11.226441835799001"><ele>524.0</ele><time>2026-03-28T11:56:30Z</time></trkpt><trkpt lat="43.87477016708362" lon="11.226558171425403"><ele>524.0</ele><time>2026-03-28T11:56:33Z</time></trkpt><trkpt lat="43.87479416763288" lon="11.226654525557546"><ele>524.0</ele><time>2026-03-28T11:56:37Z</time></trkpt><trkpt lat="43.874746083932216" lon="11.226715125828994"><ele>524.0</ele><time>2026-03-28T11:56:39Z</time></trkpt><trkpt lat="43.87469138994665" lon="11.226774341158483"><ele>523.1666666666666</ele><time>2026-03-28T11:56:41Z</time></trkpt><trkpt lat="43.87460463524299" lon="11.226811824839944"><ele>522.3333333333333</ele><time>2026-03-28T11:56:44Z</time></trkpt><trkpt lat="43.874528421694485" lon="11.22681980373763"><ele>521.5</ele><time>2026-03-28T11:56:46Z</time></trkpt><trkpt lat="43.87443452822862" lon="11.226798755752801"><ele>520.6666666666666</ele><time>2026-03-28T11:56:49Z</time></trkpt><trkpt lat="43.87436988131799" lon="11.226794637259237"><ele>519.8333333333334</ele><time>2026-03-28T11:56:52Z</time></trkpt><trkpt lat="43.8742933985092" lon="11.226773406360625"><ele>519.0</ele><time>2026-03-28T11:56:55Z</time></trkpt><trkpt lat="43.87420901473168" lon="11.226762537087023"><ele>519.0</ele><time>2026-03-28T11:56:58Z</time></trkpt><trkpt lat="43.87414101230826" lon="11.226780506564403"><ele>519.0</ele><time>2026-03-28T11:57:00Z</time></trkpt><trkpt lat="43.87405629729019" lon="11.226780381662088"><ele>519.0</ele><time>2026-03-28T11:57:02Z</time></trkpt><trkpt lat="43.87396956604465" lon="11.22681144934907"><ele>519.0</ele><time>2026-03-28T11:57:05Z</time></trkpt><trkpt lat="43.87389092294336" lon="11.226793639138156"><ele>519.0</ele><time>2026-03-28T11:57:07Z</time></trkpt><trkpt lat="43.87383956142176" lon="11.226735111975797"><ele>519.0</ele><time>2026-03-28T11:57:09Z</time></trkpt><trkpt lat="43.87376509521042" lon="11.226746856454449"><ele>519.0</ele><time>2026-03-28T11:57:12Z</time></trkpt><trkpt lat="43.873658591762926" lon="11.226695136388875"><ele>519.0</ele><time>2026-03-28T11:57:15Z</time></trkpt><trkpt lat="43.873577857038136" lon="11.226645299756926"><ele>519.0</ele><time>2026-03-28T11:57:17Z</time></trkpt><trkpt lat="43.873501394436786" lon="11.226612334519906"><ele>519.0</ele><time>2026-03-28T11:57:19Z</time></trkpt><trkpt lat="43.87341057469018" lon="11.226583362730747"><ele>519.0</ele><time>2026-03-28T11:57:21Z</time></trkpt><trkpt lat="43.87333744255392" lon="11.226532737669178"><ele>519.5714285714286</ele><time>2026-03-28T11:57:23Z</time></trkpt><trkpt lat="43.87326920349129" lon="11.22649003430459"><ele>520.1428571428571</ele><time>2026-03-28T11:57:25Z</time></trkpt><trkpt lat="43.87320708464678" lon="11.226444916279712"><ele>520.7142857142857</ele><time>2026-03-28T11:57:27Z</time></trkpt><trkpt lat="43.873136761077554" lon="11.226384810738782"><ele>521.2857142857142</ele><time>2026-03-28T11:57:29Z</time></trkpt><trkpt lat="43.87306787049259" lon="11.22632795042025"><ele>521.8571428571429</ele><time>2026-03-28T11:57:31Z</time></trkpt><trkpt lat="43.87300760779" lon="11.226281324440274"><ele>522.4285714285713</ele><time>2026-03-28T11:57:33Z</time></trkpt><trkpt lat="43.8729421394724" lon="11.226240918862246"><ele>523.0</ele><time>2026-03-28T11:57:35Z</time></trkpt><trkpt lat="43.87287337280877" lon="11.226181209104155"><ele>519.5714285714286</ele><time>2026-03-28T11:57:37Z</time></trkpt><trkpt lat="43.87281049180475" lon="11.22614244095839"><ele>516.1428571428571</ele><time>2026-03-28T11:57:39Z</time></trkpt><trkpt lat="43.872754257186386" lon="11.226103150610928"><ele>512.7142857142858</ele><time>2026-03-28T11:57:41Z</time></trkpt><trkpt lat="43.872681890877814" lon="11.226049093034936"><ele>509.2857142857143</ele><time>2026-03-28T11:57:43Z</time></trkpt><trkpt lat="43.87262123036577" lon="11.226018558988226"><ele>505.8571428571429</ele><time>2026-03-28T11:57:45Z</time></trkpt><trkpt lat="43.87255703051958" lon="11.225983618810334"><ele>502.4285714285715</ele><time>2026-03-28T11:57:47Z</time></trkpt><trkpt lat="43.87249256914167" lon="11.225955110311984"><ele>499.00000000000006</ele><time>2026-03-28T11:57:49Z</time></trkpt><trkpt lat="43.87243276897684" lon="11.22592301393632"><ele>499.00000000000006</ele><time>2026-03-28T11:57:51Z</time></trkpt><trkpt lat="43.87236988316249" lon="11.225897435982432"><ele>499.0</ele><time>2026-03-28T11:57:53Z</time></trkpt><trkpt lat="43.87229724117904" lon="11.225865669391556"><ele>499.00000000000006</ele><time>2026-03-28T11:57:55Z</time></trkpt><trkpt lat="43.872229027758635" lon="11.22585941082108"><ele>499.00000000000006</ele><time>2026-03-28T11:57:57Z</time></trkpt><trkpt lat="43.872152999652485" lon="11.2258709588288"><ele>499.0</ele><time>2026-03-28T11:57:59Z</time></trkpt><trkpt lat="43.872077331455124" lon="11.22589951459468"><ele>499.00000000000006</ele><time>2026-03-28T11:58:01Z</time></trkpt><trkpt lat="43.872019216783364" lon="11.22595406275351"><ele>499.00000000000006</ele><time>2026-03-28T11:58:03Z</time></trkpt><trkpt lat="43.871960815605696" lon="11.225998736438791"><ele>499.00000000000006</ele><time>2026-03-28T11:58:05Z</time></trkpt><trkpt lat="43.871888046508616" lon="11.22603741105942"><ele>499.0</ele><time>2026-03-28T11:58:07Z</time></trkpt><trkpt lat="43.87180899958833" lon="11.226072801023795"><ele>499.0</ele><time>2026-03-28T11:58:09Z</time></trkpt><trkpt lat="43.87173259440386" lon="11.226083016964413"><ele>499.0</ele><time>2026-03-28T11:58:11Z</time></trkpt><trkpt lat="43.87166052998674" lon="11.226065492200442"><ele>499.00000000000006</ele><time>2026-03-28T11:58:13Z</time></trkpt><trkpt lat="43.87158717748194" lon="11.226053881442569"><ele>499.0</ele><time>2026-03-28T11:58:15Z</time></trkpt><trkpt lat="43.871515655822826" lon="11.226037928647617"><ele>499.57142857142867</ele><time>2026-03-28T11:58:17Z</time></trkpt><trkpt lat="43.87146491137974" lon="11.225954247279926"><ele>500.14285714285717</ele><time>2026-03-28T11:58:19Z</time></trkpt><trkpt lat="43.87139884942384" lon="11.225880552018406"><ele>500.7142857142858</ele><time>2026-03-28T11:58:22Z</time></trkpt><trkpt lat="43.87136925139964" lon="11.225789080444914"><ele>501.28571428571433</ele><time>2026-03-28T11:58:24Z</time></trkpt><trkpt lat="43.871321161648545" lon="11.225714451763178"><ele>501.8571428571429</ele><time>2026-03-28T11:58:26Z</time></trkpt><trkpt lat="43.871277822386574" lon="11.225648444753523"><ele>502.42857142857144</ele><time>2026-03-28T11:58:28Z</time></trkpt><trkpt lat="43.87123221550866" lon="11.225586084561204"><ele>503.0</ele><time>2026-03-28T11:58:30Z</time></trkpt><trkpt lat="43.871176977539854" lon="11.225506290811188"><ele>501.59999999999997</ele><time>2026-03-28T11:58:32Z</time></trkpt><trkpt lat="43.87112411266482" lon="11.225448821262443"><ele>500.19999999999993</ele><time>2026-03-28T11:58:34Z</time></trkpt><trkpt lat="43.87105317899296" lon="11.225368879501545"><ele>498.8</ele><time>2026-03-28T11:58:36Z</time></trkpt><trkpt lat="43.87095093519713" lon="11.225272738896"><ele>497.4</ele><time>2026-03-28T11:58:38Z</time></trkpt><trkpt lat="43.87085344475338" lon="11.225229987000414"><ele>496.0</ele><time>2026-03-28T11:58:40Z</time></trkpt><trkpt lat="43.87077295725838" lon="11.225145238971846"><ele>496.00000000000006</ele><time>2026-03-28T11:58:42Z</time></trkpt><trkpt lat="43.870705391709976" lon="11.225070647054213"><ele>496.0</ele><time>2026-03-28T11:58:44Z</time></trkpt><trkpt lat="43.87064403993016" lon="11.224984222450395"><ele>496.0</ele><time>2026-03-28T11:58:46Z</time></trkpt><trkpt lat="43.87059098307316" lon="11.224902575197426"><ele>496.0</ele><time>2026-03-28T11:58:48Z</time></trkpt><trkpt lat="43.87052478814599" lon="11.224828541724557"><ele>496.00000000000006</ele><time>2026-03-28T11:58:50Z</time></trkpt><trkpt lat="43.8704491229752" lon="11.224780166298235"><ele>496.0</ele><time>2026-03-28T11:58:52Z</time></trkpt><trkpt lat="43.870375076675266" lon="11.224741432050735"><ele>492.83333333333337</ele><time>2026-03-28T11:58:54Z</time></trkpt><trkpt lat="43.87030015313738" lon="11.224679877764446"><ele>489.6666666666667</ele><time>2026-03-28T11:58:56Z</time></trkpt><trkpt lat="43.87024015921658" lon="11.224641090877437"><ele>486.5</ele><time>2026-03-28T11:58:58Z</time></trkpt><trkpt lat="43.8701639073842" lon="11.2246042013837"><ele>483.33333333333337</ele><time>2026-03-28T11:59:00Z</time></trkpt><trkpt lat="43.87009967609284" lon="11.224556649275854"><ele>480.1666666666667</ele><time>2026-03-28T11:59:02Z</time></trkpt><trkpt lat="43.870009937694476" lon="11.224502901946064"><ele>477.0</ele><time>2026-03-28T11:59:04Z</time></trkpt><trkpt lat="43.86992524735785" lon="11.224461029798867"><ele>477.0</ele><time>2026-03-28T11:59:06Z</time></trkpt><trkpt lat="43.86984566405281" lon="11.22443318122928"><ele>477.0</ele><time>2026-03-28T11:59:08Z</time></trkpt><trkpt lat="43.869773463094816" lon="11.224398518464138"><ele>477.0</ele><time>2026-03-28T11:59:10Z</time></trkpt><trkpt lat="43.86970206257168" lon="11.224356893088178"><ele>477.0</ele><time>2026-03-28T11:59:12Z</time></trkpt><trkpt lat="43.869627408941845" lon="11.224318732207907"><ele>477.0</ele><time>2026-03-28T11:59:14Z</time></trkpt><trkpt lat="43.869551256054876" lon="11.224267345999527"><ele>477.0</ele><time>2026-03-28T11:59:16Z</time></trkpt><trkpt lat="43.869472760632746" lon="11.224229621372466"><ele>477.0</ele><time>2026-03-28T11:59:18Z</time></trkpt><trkpt lat="43.869394198543795" lon="11.224194415250585"><ele>477.0</ele><time>2026-03-28T11:59:20Z</time></trkpt><trkpt lat="43.869313657367044" lon="11.224172035315815"><ele>477.0</ele><time>2026-03-28T11:59:22Z</time></trkpt><trkpt lat="43.86922399741463" lon="11.224154584954388"><ele>477.0</ele><time>2026-03-28T11:59:24Z</time></trkpt><trkpt lat="43.86913635964356" lon="11.224139486028218"><ele>477.0</ele><time>2026-03-28T11:59:26Z</time></trkpt><trkpt lat="43.86905755199627" lon="11.224125536562731"><ele>477.0</ele><time>2026-03-28T11:59:28Z</time></trkpt><trkpt lat="43.868983276103265" lon="11.22412886111428"><ele>478.57142857142856</ele><time>2026-03-28T11:59:30Z</time></trkpt><trkpt lat="43.868915570119" lon="11.224122633055458"><ele>480.1428571428571</ele><time>2026-03-28T11:59:32Z</time></trkpt><trkpt lat="43.86884439721924" lon="11.224117773639287"><ele>481.71428571428567</ele><time>2026-03-28T11:59:34Z</time></trkpt><trkpt lat="43.8687728892259" lon="11.224120952822664"><ele>483.2857142857142</ele><time>2026-03-28T11:59:36Z</time></trkpt><trkpt lat="43.86870825141257" lon="11.224131668561668"><ele>484.85714285714283</ele><time>2026-03-28T11:59:38Z</time></trkpt><trkpt lat="43.86863173583719" lon="11.224150432950964"><ele>486.42857142857133</ele><time>2026-03-28T11:59:40Z</time></trkpt><trkpt lat="43.86855178952686" lon="11.224164874236504"><ele>487.99999999999994</ele><time>2026-03-28T11:59:42Z</time></trkpt><trkpt lat="43.868474265151136" lon="11.224177844090791"><ele>487.8333333333333</ele><time>2026-03-28T11:59:44Z</time></trkpt><trkpt lat="43.86840583282805" lon="11.224183273582826"><ele>487.66666666666663</ele><time>2026-03-28T11:59:46Z</time></trkpt><trkpt lat="43.86832667686284" lon="11.224198766278702"><ele>487.5</ele><time>2026-03-28T11:59:48Z</time></trkpt><trkpt lat="43.86824122883807" lon="11.224202602734703"><ele>487.33333333333337</ele><time>2026-03-28T11:59:50Z</time></trkpt><trkpt lat="43.868158976276106" lon="11.224205855957466"><ele>487.1666666666667</ele><time>2026-03-28T11:59:52Z</time></trkpt><trkpt lat="43.86805903261764" lon="11.224231019258772"><ele>487.0</ele><time>2026-03-28T11:59:54Z</time></trkpt><trkpt lat="43.867964750313405" lon="11.224250565869948"><ele>487.00000000000006</ele><time>2026-03-28T11:59:56Z</time></trkpt><trkpt lat="43.867879000842365" lon="11.224272941084486"><ele>487.0</ele><time>2026-03-28T11:59:58Z</time></trkpt><trkpt lat="43.867792796994856" lon="11.224301742878174"><ele>487.0</ele><time>2026-03-28T12:00:00Z</time></trkpt><trkpt lat="43.86771515397794" lon="11.224327604207755"><ele>487.0</ele><time>2026-03-28T12:00:02Z</time></trkpt><trkpt lat="43.867629736095004" lon="11.224367717949473"><ele>487.00000000000006</ele><time>2026-03-28T12:00:04Z</time></trkpt><trkpt lat="43.867559184285355" lon="11.22442983333478"><ele>487.0</ele><time>2026-03-28T12:00:06Z</time></trkpt><trkpt lat="43.86749071301226" lon="11.22447413761694"><ele>484.33333333333337</ele><time>2026-03-28T12:00:08Z</time></trkpt><trkpt lat="43.86741811743241" lon="11.224520737418082"><ele>481.6666666666667</ele><time>2026-03-28T12:00:10Z</time></trkpt><trkpt lat="43.86734716045862" lon="11.224564998006885"><ele>479.0</ele><time>2026-03-28T12:00:12Z</time></trkpt><trkpt lat="43.86726936719176" lon="11.224604746515926"><ele>476.33333333333337</ele><time>2026-03-28T12:00:14Z</time></trkpt><trkpt lat="43.867204967184" lon="11.224672497947276"><ele>473.6666666666667</ele><time>2026-03-28T12:00:16Z</time></trkpt><trkpt lat="43.86714253861795" lon="11.224722322848429"><ele>471.0</ele><time>2026-03-28T12:00:18Z</time></trkpt><trkpt lat="43.867077845768954" lon="11.224776210880439"><ele>471.6666666666667</ele><time>2026-03-28T12:00:20Z</time></trkpt><trkpt lat="43.867012646910915" lon="11.224832562139541"><ele>472.33333333333337</ele><time>2026-03-28T12:00:22Z</time></trkpt><trkpt lat="43.86693649795281" lon="11.22487869858535"><ele>473.0</ele><time>2026-03-28T12:00:24Z</time></trkpt><trkpt lat="43.8668755276324" lon="11.224928747487805"><ele>473.6666666666667</ele><time>2026-03-28T12:00:26Z</time></trkpt><trkpt lat="43.86678722210263" lon="11.224947234504242"><ele>474.33333333333337</ele><time>2026-03-28T12:00:28Z</time></trkpt><trkpt lat="43.866705652956526" lon="11.22501086853214"><ele>475.0</ele><time>2026-03-28T12:00:30Z</time></trkpt><trkpt lat="43.86664381686884" lon="11.225081161643288"><ele>475.00000000000006</ele><time>2026-03-28T12:00:32Z</time></trkpt><trkpt lat="43.86659503279969" lon="11.225141119370706"><ele>475.0</ele><time>2026-03-28T12:00:34Z</time></trkpt><trkpt lat="43.86653790353202" lon="11.225200645546341"><ele>475.0</ele><time>2026-03-28T12:00:36Z</time></trkpt><trkpt lat="43.866475452817774" lon="11.225260784878715"><ele>475.0</ele><time>2026-03-28T12:00:38Z</time></trkpt><trkpt lat="43.86640736706219" lon="11.225317974436136"><ele>475.00000000000006</ele><time>2026-03-28T12:00:40Z</time></trkpt><trkpt lat="43.86634071490971" lon="11.22538262693966"><ele>475.0</ele><time>2026-03-28T12:00:42Z</time></trkpt><trkpt lat="43.866264721629044" lon="11.225420944628983"><ele>475.00000000000006</ele><time>2026-03-28T12:00:44Z</time></trkpt><trkpt lat="43.86619182491781" lon="11.22545895667514"><ele>475.0</ele><time>2026-03-28T12:00:46Z</time></trkpt><trkpt lat="43.866123774710125" lon="11.225508545177522"><ele>475.0</ele><time>2026-03-28T12:00:48Z</time></trkpt><trkpt lat="43.86605013696156" lon="11.225555033218509"><ele>475.0</ele><time>2026-03-28T12:00:50Z</time></trkpt><trkpt lat="43.865976193920375" lon="11.225599406343559"><ele>475.00000000000006</ele><time>2026-03-28T12:00:52Z</time></trkpt><trkpt lat="43.865903667098806" lon="11.225640626782866"><ele>475.0</ele><time>2026-03-28T12:00:54Z</time></trkpt><trkpt lat="43.865822397176984" lon="11.225680851553005"><ele>474.6666666666667</ele><time>2026-03-28T12:00:56Z</time></trkpt><trkpt lat="43.865763152519854" lon="11.225737970517251"><ele>474.33333333333337</ele><time>2026-03-28T12:00:58Z</time></trkpt><trkpt lat="43.86570322862311" lon="11.22580121544593"><ele>474.0</ele><time>2026-03-28T12:01:01Z</time></trkpt><trkpt lat="43.8656866137558" lon="11.225913504447972"><ele>473.66666666666663</ele><time>2026-03-28T12:01:05Z</time></trkpt><trkpt lat="43.86566935145709" lon="11.2259981432196"><ele>473.3333333333333</ele><time>2026-03-28T12:01:10Z</time></trkpt><trkpt lat="43.86559992733404" lon="11.225966912529856"><ele>473.0</ele><time>2026-03-28T12:03:21Z</time></trkpt><trkpt lat="43.86553240587055" lon="11.225888314928456"><ele>473.0</ele><time>2026-03-28T12:03:25Z</time></trkpt><trkpt lat="43.86548603475013" lon="11.225828593471125"><ele>473.0</ele><time>2026-03-28T12:03:27Z</time></trkpt><trkpt lat="43.86544893724463" lon="11.225736975516991"><ele>473.0</ele><time>2026-03-28T12:03:30Z</time></trkpt><trkpt lat="43.86542727454267" lon="11.225632496904273"><ele>473.0</ele><time>2026-03-28T12:03:33Z</time></trkpt><trkpt lat="43.86545801525886" lon="11.225547448891554"><ele>473.0</ele><time>2026-03-28T12:03:36Z</time></trkpt><trkpt lat="43.865473916341834" lon="11.225460310427783"><ele>473.0</ele><time>2026-03-28T12:03:40Z</time></trkpt><trkpt lat="43.86548855229483" lon="11.225363215513209"><ele>473.0</ele><time>2026-03-28T12:03:44Z</time></trkpt><trkpt lat="43.8654781135041" lon="11.22526068571958"><ele>470.42857142857144</ele><time>2026-03-28T12:03:48Z</time></trkpt><trkpt lat="43.8655233003265" lon="11.225176493990487"><ele>467.85714285714283</ele><time>2026-03-28T12:03:55Z</time></trkpt><trkpt lat="43.865525934679674" lon="11.225086707379967"><ele>465.2857142857143</ele><time>2026-03-28T12:03:58Z</time></trkpt><trkpt lat="43.86549728571771" lon="11.225005712605046"><ele>462.7142857142857</ele><time>2026-03-28T12:04:27Z</time></trkpt><trkpt lat="43.86542736390801" lon="11.225030635776992"><ele>460.1428571428571</ele><time>2026-03-28T12:04:30Z</time></trkpt><trkpt lat="43.86537812195626" lon="11.224959305174034"><ele>457.57142857142856</ele><time>2026-03-28T12:04:35Z</time></trkpt><trkpt lat="43.86545102245249" lon="11.224882989817857"><ele>455.0</ele><time>2026-03-28T12:04:38Z</time></trkpt><trkpt lat="43.865456927527546" lon="11.224776844960312"><ele>454.99999999999994</ele><time>2026-03-28T12:04:43Z</time></trkpt><trkpt lat="43.86536324259722" lon="11.224770363023303"><ele>455.0</ele><time>2026-03-28T12:04:46Z</time></trkpt><trkpt lat="43.86530690909362" lon="11.22484795360142"><ele>455.0</ele><time>2026-03-28T12:04:48Z</time></trkpt><trkpt lat="43.86525501970639" lon="11.22490958073763"><ele>455.0</ele><time>2026-03-28T12:04:50Z</time></trkpt><trkpt lat="43.86518719980721" lon="11.224970096234088"><ele>454.99999999999994</ele><time>2026-03-28T12:04:52Z</time></trkpt><trkpt lat="43.86512820803599" lon="11.225026675400297"><ele>455.0</ele><time>2026-03-28T12:04:54Z</time></trkpt><trkpt lat="43.86508781843512" lon="11.225116534895946"><ele>451.99999999999994</ele><time>2026-03-28T12:04:56Z</time></trkpt><trkpt lat="43.865042268315705" lon="11.22519830947513"><ele>449.0</ele><time>2026-03-28T12:04:58Z</time></trkpt><trkpt lat="43.86499863289034" lon="11.225306263792252"><ele>446.0</ele><time>2026-03-28T12:05:01Z</time></trkpt><trkpt lat="43.86495287660679" lon="11.225377161598622"><ele>443.0</ele><time>2026-03-28T12:05:07Z</time></trkpt><trkpt lat="43.86496435416326" lon="11.225465644417557"><ele>439.99999999999994</ele><time>2026-03-28T12:13:35Z</time></trkpt><trkpt lat="43.864986745928626" lon="11.225603588610955"><ele>437.0</ele><time>2026-03-28T12:13:38Z</time></trkpt><trkpt lat="43.86501523778462" lon="11.225712795915452"><ele>436.4285714285714</ele><time>2026-03-28T12:13:43.999Z</time></trkpt><trkpt lat="43.86506599801757" lon="11.22578250650209"><ele>435.8571428571429</ele><time>2026-03-28T12:13:46.999Z</time></trkpt><trkpt lat="43.86511869750939" lon="11.225851373794985"><ele>435.2857142857143</ele><time>2026-03-28T12:13:49.999Z</time></trkpt><trkpt lat="43.86517441841978" lon="11.225905131059069"><ele>434.71428571428567</ele><time>2026-03-28T12:13:53.999Z</time></trkpt><trkpt lat="43.86520714131463" lon="11.226009248318672"><ele>434.1428571428571</ele><time>2026-03-28T12:13:57.999Z</time></trkpt><trkpt lat="43.86524076895835" lon="11.226090883148817"><ele>433.57142857142856</ele><time>2026-03-28T12:14:01.999Z</time></trkpt><trkpt lat="43.865272498514095" lon="11.226181308570052"><ele>433.0</ele><time>2026-03-28T12:14:04.999Z</time></trkpt><trkpt lat="43.86530001865984" lon="11.226284242722436"><ele>439.50000000000006</ele><time>2026-03-28T12:14:07.999Z</time></trkpt><trkpt lat="43.86532672564814" lon="11.22638415811695"><ele>446.0</ele><time>2026-03-28T12:14:10.999Z</time></trkpt><trkpt lat="43.86535005996947" lon="11.226467998119299"><ele>452.5</ele><time>2026-03-28T12:14:13.999Z</time></trkpt><trkpt lat="43.8653776403499" lon="11.226558457693876"><ele>459.0</ele><time>2026-03-28T12:14:17Z</time></trkpt><trkpt lat="43.86539954413306" lon="11.226653515446374"><ele>465.50000000000006</ele><time>2026-03-28T12:14:20Z</time></trkpt><trkpt lat="43.865439774585994" lon="11.226756148018195"><ele>472.0</ele><time>2026-03-28T12:14:23Z</time></trkpt><trkpt lat="43.86548154616652" lon="11.226856722558725"><ele>472.00000000000006</ele><time>2026-03-28T12:14:26Z</time></trkpt><trkpt lat="43.86550816975505" lon="11.226966179010427"><ele>472.0</ele><time>2026-03-28T12:14:29Z</time></trkpt><trkpt lat="43.86553800697443" lon="11.227052729381128"><ele>472.0</ele><time>2026-03-28T12:14:32Z</time></trkpt><trkpt lat="43.86554842916813" lon="11.227166796281615"><ele>472.0</ele><time>2026-03-28T12:14:36Z</time></trkpt><trkpt lat="43.86555975181198" lon="11.227269523208415"><ele>472.00000000000006</ele><time>2026-03-28T12:14:39Z</time></trkpt><trkpt lat="43.86557959597941" lon="11.227389124937568"><ele>472.0</ele><time>2026-03-28T12:14:41Z</time></trkpt><trkpt lat="43.86560988159345" lon="11.227485936106456"><ele>470.2857142857143</ele><time>2026-03-28T12:14:44Z</time></trkpt><trkpt lat="43.865635096814216" lon="11.227570586074592"><ele>468.57142857142856</ele><time>2026-03-28T12:14:46Z</time></trkpt><trkpt lat="43.86564413437533" lon="11.227676935388242"><ele>466.85714285714283</ele><time>2026-03-28T12:14:49Z</time></trkpt><trkpt lat="43.86567929350164" lon="11.227766301621557"><ele>465.1428571428571</ele><time>2026-03-28T12:14:51Z</time></trkpt><trkpt lat="43.86569215826063" lon="11.227859714678766"><ele>463.42857142857144</ele><time>2026-03-28T12:14:54Z</time></trkpt><trkpt lat="43.86571754368909" lon="11.227970313129806"><ele>461.71428571428567</ele><time>2026-03-28T12:14:58Z</time></trkpt><trkpt lat="43.86574254110551" lon="11.228068768736838"><ele>459.99999999999994</ele><time>2026-03-28T12:15:01Z</time></trkpt><trkpt lat="43.86576967908075" lon="11.22815472214013"><ele>458.33333333333337</ele><time>2026-03-28T12:15:03Z</time></trkpt><trkpt lat="43.86579223386432" lon="11.228257725876395"><ele>456.6666666666667</ele><time>2026-03-28T12:15:06Z</time></trkpt><trkpt lat="43.86582867842537" lon="11.228355612499023"><ele>455.0</ele><time>2026-03-28T12:15:09Z</time></trkpt><trkpt lat="43.86584761703609" lon="11.228459048426782"><ele>453.33333333333337</ele><time>2026-03-28T12:15:12Z</time></trkpt><trkpt lat="43.86586483747868" lon="11.228558013756519"><ele>451.6666666666667</ele><time>2026-03-28T12:15:15Z</time></trkpt><trkpt lat="43.86587998310932" lon="11.228672107370393"><ele>450.0</ele><time>2026-03-28T12:15:18Z</time></trkpt><trkpt lat="43.86590512798932" lon="11.228764886511374"><ele>450.0</ele><time>2026-03-28T12:15:21Z</time></trkpt><trkpt lat="43.865924060043994" lon="11.228872110808963"><ele>450.0</ele><time>2026-03-28T12:15:24Z</time></trkpt><trkpt lat="43.86594300708055" lon="11.228989851867713"><ele>450.0</ele><time>2026-03-28T12:15:27Z</time></trkpt><trkpt lat="43.865961103101874" lon="11.2291097383943"><ele>450.0</ele><time>2026-03-28T12:15:30Z</time></trkpt><trkpt lat="43.86597636506067" lon="11.229209365544392"><ele>450.0</ele><time>2026-03-28T12:15:33Z</time></trkpt><trkpt lat="43.86599918946213" lon="11.22931464039784"><ele>450.0</ele><time>2026-03-28T12:15:36Z</time></trkpt><trkpt lat="43.86602425755806" lon="11.229400837372214"><ele>456.28571428571433</ele><time>2026-03-28T12:15:38Z</time></trkpt><trkpt lat="43.86604354820805" lon="11.22949021802319"><ele>462.57142857142856</ele><time>2026-03-28T12:15:40Z</time></trkpt><trkpt lat="43.86605932660569" lon="11.22957518651377"><ele>468.8571428571429</ele><time>2026-03-28T12:15:42Z</time></trkpt><trkpt lat="43.86608257136085" lon="11.229684993019625"><ele>475.14285714285717</ele><time>2026-03-28T12:15:45Z</time></trkpt><trkpt lat="43.86608942801402" lon="11.229786038776972"><ele>481.42857142857144</ele><time>2026-03-28T12:15:47.996Z</time></trkpt><trkpt lat="43.86610486380806" lon="11.229885078737304"><ele>487.7142857142857</ele><time>2026-03-28T12:15:50.996Z</time></trkpt><trkpt lat="43.86612276492842" lon="11.229992693593974"><ele>494.0</ele><time>2026-03-28T12:15:53.996Z</time></trkpt><trkpt lat="43.86614515268162" lon="11.230079144665833"><ele>493.99999999999994</ele><time>2026-03-28T12:15:55.996Z</time></trkpt><trkpt lat="43.86615303068794" lon="11.23019002824263"><ele>494.0</ele><time>2026-03-28T12:15:58.996Z</time></trkpt><trkpt lat="43.866160622370494" lon="11.230303562719612"><ele>494.0</ele><time>2026-03-28T12:16:01.997Z</time></trkpt><trkpt lat="43.86616772838739" lon="11.230417288236943"><ele>494.0</ele><time>2026-03-28T12:16:04.997Z</time></trkpt><trkpt lat="43.86617735530776" lon="11.230506914826274"><ele>493.99999999999994</ele><time>2026-03-28T12:16:06.997Z</time></trkpt><trkpt lat="43.866192185361484" lon="11.230619829365313"><ele>494.0</ele><time>2026-03-28T12:16:08.997Z</time></trkpt><trkpt lat="43.86618967248729" lon="11.230735987628469"><ele>494.49999999999994</ele><time>2026-03-28T12:16:10.998Z</time></trkpt><trkpt lat="43.866181151574764" lon="11.23084811979058"><ele>495.0</ele><time>2026-03-28T12:16:13.998Z</time></trkpt><trkpt lat="43.86615865310852" lon="11.230946952665514"><ele>495.5</ele><time>2026-03-28T12:16:16.998Z</time></trkpt><trkpt lat="43.866156490855715" lon="11.231045146975985"><ele>496.0</ele><time>2026-03-28T12:16:19.998Z</time></trkpt><trkpt lat="43.86615784176522" lon="11.231150424167483"><ele>496.49999999999994</ele><time>2026-03-28T12:16:22.998Z</time></trkpt><trkpt lat="43.86616310772081" lon="11.231247937899894"><ele>497.0</ele><time>2026-03-28T12:16:24.998Z</time></trkpt><trkpt lat="43.866190534619456" lon="11.231360930197262"><ele>496.99999999999994</ele><time>2026-03-28T12:16:26.999Z</time></trkpt><trkpt lat="43.866201655090336" lon="11.231491445732289"><ele>497.0</ele><time>2026-03-28T12:16:29.999Z</time></trkpt><trkpt lat="43.86622790595792" lon="11.231631258352573"><ele>497.0</ele><time>2026-03-28T12:16:32.999Z</time></trkpt><trkpt lat="43.866243163144" lon="11.231718495259175"><ele>497.0</ele><time>2026-03-28T12:16:35.999Z</time></trkpt><trkpt lat="43.86627332739425" lon="11.231847848477587"><ele>496.99999999999994</ele><time>2026-03-28T12:16:38.999Z</time></trkpt><trkpt lat="43.8662924923356" lon="11.231945989626752"><ele>497.0</ele><time>2026-03-28T12:16:41.999Z</time></trkpt><trkpt lat="43.86631102323351" lon="11.232039152494298"><ele>496.99999999999994</ele><time>2026-03-28T12:16:43.999Z</time></trkpt><trkpt lat="43.866320675236956" lon="11.23215026190576"><ele>497.0</ele><time>2026-03-28T12:16:47.999Z</time></trkpt><trkpt lat="43.8663620368929" lon="11.232271793319113"><ele>497.0</ele><time>2026-03-28T12:16:50.999Z</time></trkpt><trkpt lat="43.86634493465093" lon="11.232382297083989"><ele>497.0</ele><time>2026-03-28T12:16:53.999Z</time></trkpt><trkpt lat="43.86631465846019" lon="11.232486655420608"><ele>496.99999999999994</ele><time>2026-03-28T12:16:56.999Z</time></trkpt><trkpt lat="43.86628942961932" lon="11.232587427519674"><ele>497.0</ele><time>2026-03-28T12:16:59.999Z</time></trkpt><trkpt lat="43.86625421036523" lon="11.232659948560563"><ele>497.1428571428571</ele><time>2026-03-28T12:17:01.999Z</time></trkpt><trkpt lat="43.86620520091527" lon="11.232747405130448"><ele>497.2857142857143</ele><time>2026-03-28T12:17:04.999Z</time></trkpt><trkpt lat="43.866134658254225" lon="11.232777246771489"><ele>497.42857142857144</ele><time>2026-03-28T12:17:08Z</time></trkpt><trkpt lat="43.86607035037973" lon="11.232864741350882"><ele>497.57142857142856</ele><time>2026-03-28T12:17:11Z</time></trkpt><trkpt lat="43.8660164379337" lon="11.232919947537438"><ele>497.71428571428567</ele><time>2026-03-28T12:17:13Z</time></trkpt><trkpt lat="43.86595084205523" lon="11.232954147968812"><ele>497.85714285714283</ele><time>2026-03-28T12:17:16Z</time></trkpt><trkpt lat="43.86589775666333" lon="11.233005653449451"><ele>498.0</ele><time>2026-03-28T12:17:18Z</time></trkpt><trkpt lat="43.86583179997743" lon="11.233041497219448"><ele>495.6666666666667</ele><time>2026-03-28T12:17:21Z</time></trkpt><trkpt lat="43.865763874402866" lon="11.23308876635047"><ele>493.33333333333337</ele><time>2026-03-28T12:17:23Z</time></trkpt><trkpt lat="43.86568878313741" lon="11.233114766686914"><ele>491.0</ele><time>2026-03-28T12:17:27Z</time></trkpt><trkpt lat="43.86560835988568" lon="11.233158631407221"><ele>488.6666666666667</ele><time>2026-03-28T12:17:30Z</time></trkpt><trkpt lat="43.865520219380336" lon="11.23317947227587"><ele>486.33333333333337</ele><time>2026-03-28T12:17:33Z</time></trkpt><trkpt lat="43.86544411762949" lon="11.233229707839723"><ele>484.0</ele><time>2026-03-28T12:17:36Z</time></trkpt><trkpt lat="43.865371219564345" lon="11.233260047816303"><ele>484.00000000000006</ele><time>2026-03-28T12:17:38Z</time></trkpt><trkpt lat="43.865292436770716" lon="11.233275814925703"><ele>484.0</ele><time>2026-03-28T12:17:40Z</time></trkpt><trkpt lat="43.86522432885674" lon="11.233296076187838"><ele>484.0</ele><time>2026-03-28T12:17:42Z</time></trkpt><trkpt lat="43.86514942680765" lon="11.233307886246832"><ele>484.0</ele><time>2026-03-28T12:17:45Z</time></trkpt><trkpt lat="43.86507249542166" lon="11.233321859176298"><ele>484.00000000000006</ele><time>2026-03-28T12:17:48Z</time></trkpt><trkpt lat="43.86497136046916" lon="11.233326493535783"><ele>484.0</ele><time>2026-03-28T12:17:51Z</time></trkpt><trkpt lat="43.86490235550549" lon="11.233357023308306"><ele>484.00000000000006</ele><time>2026-03-28T12:17:53Z</time></trkpt><trkpt lat="43.86480198295473" lon="11.233376147674718"><ele>484.0</ele><time>2026-03-28T12:17:55.996Z</time></trkpt><trkpt lat="43.864714251182264" lon="11.233386183898771"><ele>484.0</ele><time>2026-03-28T12:17:58.996Z</time></trkpt><trkpt lat="43.864648499678644" lon="11.233395816067073"><ele>484.0</ele><time>2026-03-28T12:18:01.996Z</time></trkpt><trkpt lat="43.86458530585129" lon="11.233396654217291"><ele>484.00000000000006</ele><time>2026-03-28T12:18:03.996Z</time></trkpt><trkpt lat="43.86449547225392" lon="11.233421160658258"><ele>484.0</ele><time>2026-03-28T12:18:06.996Z</time></trkpt><trkpt lat="43.86442026647006" lon="11.233432477848494"><ele>484.00000000000006</ele><time>2026-03-28T12:18:08.997Z</time></trkpt><trkpt lat="43.86435227831421" lon="11.23346555332288"><ele>484.0</ele><time>2026-03-28T12:18:11.997Z</time></trkpt><trkpt lat="43.864281401520174" lon="11.233487459038496"><ele>484.0</ele><time>2026-03-28T12:18:14.997Z</time></trkpt><trkpt lat="43.86422278237796" lon="11.233519659958688"><ele>484.0</ele><time>2026-03-28T12:18:16.998Z</time></trkpt><trkpt lat="43.864153746124835" lon="11.233547758631323"><ele>484.00000000000006</ele><time>2026-03-28T12:18:18.998Z</time></trkpt><trkpt lat="43.86405661668741" lon="11.233600860804328"><ele>484.0</ele><time>2026-03-28T12:18:21.998Z</time></trkpt><trkpt lat="43.863985920486215" lon="11.233651923465656"><ele>484.00000000000006</ele><time>2026-03-28T12:18:24.998Z</time></trkpt><trkpt lat="43.86390478647738" lon="11.23370504824347"><ele>484.0</ele><time>2026-03-28T12:18:26.998Z</time></trkpt><trkpt lat="43.86382921754085" lon="11.23375421975929"><ele>484.0</ele><time>2026-03-28T12:18:29.999Z</time></trkpt><trkpt lat="43.86376657426307" lon="11.233807316193369"><ele>484.0</ele><time>2026-03-28T12:18:32.999Z</time></trkpt><trkpt lat="43.86370267868778" lon="11.233854413593509"><ele>484.00000000000006</ele><time>2026-03-28T12:18:35.999Z</time></trkpt><trkpt lat="43.863643991196675" lon="11.233904656668788"><ele>484.0</ele><time>2026-03-28T12:18:37.999Z</time></trkpt><trkpt lat="43.86356022491918" lon="11.233974276243528"><ele>486.00000000000006</ele><time>2026-03-28T12:18:40.999Z</time></trkpt><trkpt lat="43.863490485166544" lon="11.234022275025138"><ele>488.0</ele><time>2026-03-28T12:18:42.999Z</time></trkpt><trkpt lat="43.86341557754544" lon="11.234098028233525"><ele>490.0</ele><time>2026-03-28T12:18:45.999Z</time></trkpt><trkpt lat="43.86334347060168" lon="11.234143749572947"><ele>492.0</ele><time>2026-03-28T12:18:48.999Z</time></trkpt><trkpt lat="43.863281067960116" lon="11.234195093664589"><ele>494.00000000000006</ele><time>2026-03-28T12:18:50.999Z</time></trkpt><trkpt lat="43.863212078599574" lon="11.234244437320882"><ele>496.0</ele><time>2026-03-28T12:18:54Z</time></trkpt><trkpt lat="43.86314677936942" lon="11.234286241755061"><ele>496.0</ele><time>2026-03-28T12:18:56Z</time></trkpt><trkpt lat="43.86308749887672" lon="11.234342676464266"><ele>496.00000000000006</ele><time>2026-03-28T12:18:59Z</time></trkpt><trkpt lat="43.86301601594659" lon="11.234385259326952"><ele>496.0</ele><time>2026-03-28T12:19:01Z</time></trkpt><trkpt lat="43.86294443076496" lon="11.234416191008485"><ele>496.0</ele><time>2026-03-28T12:19:04Z</time></trkpt><trkpt lat="43.86288171865034" lon="11.234458750890527"><ele>496.00000000000006</ele><time>2026-03-28T12:19:07Z</time></trkpt><trkpt lat="43.86281394839026" lon="11.234494859533259"><ele>496.0</ele><time>2026-03-28T12:19:09Z</time></trkpt><trkpt lat="43.862738184279344" lon="11.234535678741633"><ele>496.0</ele><time>2026-03-28T12:19:12Z</time></trkpt><trkpt lat="43.86266246448305" lon="11.234573027783757"><ele>496.50000000000006</ele><time>2026-03-28T12:19:15Z</time></trkpt><trkpt lat="43.862582406983826" lon="11.23460422920057"><ele>497.0</ele><time>2026-03-28T12:19:18Z</time></trkpt><trkpt lat="43.862515907011954" lon="11.234641597247595"><ele>497.5</ele><time>2026-03-28T12:19:20Z</time></trkpt><trkpt lat="43.86243922904233" lon="11.234684438625449"><ele>498.0</ele><time>2026-03-28T12:19:23Z</time></trkpt><trkpt lat="43.86236993914225" lon="11.234719697801365"><ele>498.50000000000006</ele><time>2026-03-28T12:19:25.001Z</time></trkpt><trkpt lat="43.86231341495023" lon="11.234767398297262"><ele>499.0</ele><time>2026-03-28T12:19:28.001Z</time></trkpt><trkpt lat="43.86219845981464" lon="11.23478926978304"><ele>499.00000000000006</ele><time>2026-03-28T12:19:32.001Z</time></trkpt><trkpt lat="43.86212721339429" lon="11.234792545141152"><ele>499.0</ele><time>2026-03-28T12:19:35.001Z</time></trkpt><trkpt lat="43.86206268888907" lon="11.23478707685939"><ele>499.0</ele><time>2026-03-28T12:19:37.001Z</time></trkpt><trkpt lat="43.86197060962063" lon="11.234767260366306"><ele>499.0</ele><time>2026-03-28T12:19:41.001Z</time></trkpt><trkpt lat="43.8618936979191" lon="11.234737572962471"><ele>499.00000000000006</ele><time>2026-03-28T12:19:44.001Z</time></trkpt><trkpt lat="43.86182294954425" lon="11.234721540712416"><ele>499.0</ele><time>2026-03-28T12:19:46.001Z</time></trkpt><trkpt lat="43.86172871793898" lon="11.23467028538035"><ele>501.1666666666667</ele><time>2026-03-28T12:19:49.001Z</time></trkpt><trkpt lat="43.861669575160015" lon="11.234613254122062"><ele>503.33333333333337</ele><time>2026-03-28T12:19:52.001Z</time></trkpt><trkpt lat="43.861607949497056" lon="11.234538729207053"><ele>505.5</ele><time>2026-03-28T12:19:55.001Z</time></trkpt><trkpt lat="43.861561042891395" lon="11.234479148538762"><ele>507.66666666666663</ele><time>2026-03-28T12:19:57.002Z</time></trkpt><trkpt lat="43.861509954937084" lon="11.234419804365748"><ele>509.8333333333333</ele><time>2026-03-28T12:19:59.002Z</time></trkpt><trkpt lat="43.86145516466896" lon="11.234341395991011"><ele>512.0</ele><time>2026-03-28T12:20:01.996Z</time></trkpt><trkpt lat="43.86138429683958" lon="11.23425917976362"><ele>511.99999999999994</ele><time>2026-03-28T12:20:03.996Z</time></trkpt><trkpt lat="43.86132799856531" lon="11.234216626363843"><ele>512.0</ele><time>2026-03-28T12:20:05.997Z</time></trkpt><trkpt lat="43.86127982305475" lon="11.234153896744692"><ele>512.0</ele><time>2026-03-28T12:20:07.997Z</time></trkpt><trkpt lat="43.86121868628495" lon="11.234081372849023"><ele>512.0</ele><time>2026-03-28T12:20:09.997Z</time></trkpt><trkpt lat="43.86114313952161" lon="11.234009408214684"><ele>511.99999999999994</ele><time>2026-03-28T12:20:12.997Z</time></trkpt><trkpt lat="43.861082110316076" lon="11.233965294409016"><ele>512.0</ele><time>2026-03-28T12:20:14.997Z</time></trkpt><trkpt lat="43.86100727504331" lon="11.233904799696884"><ele>512.1666666666666</ele><time>2026-03-28T12:20:16.997Z</time></trkpt><trkpt lat="43.860950472194446" lon="11.233855753523999"><ele>512.3333333333333</ele><time>2026-03-28T12:20:18.998Z</time></trkpt><trkpt lat="43.86085739282387" lon="11.23377933489702"><ele>512.5</ele><time>2026-03-28T12:20:21.998Z</time></trkpt><trkpt lat="43.860787674043166" lon="11.233742947913449"><ele>512.6666666666666</ele><time>2026-03-28T12:20:24.998Z</time></trkpt><trkpt lat="43.86069751152043" lon="11.233710859234682"><ele>512.8333333333334</ele><time>2026-03-28T12:20:28.999Z</time></trkpt><trkpt lat="43.8606199776163" lon="11.23370638410504"><ele>513.0</ele><time>2026-03-28T12:20:30.999Z</time></trkpt><trkpt lat="43.86053257656867" lon="11.233687708340593"><ele>513.0</ele><time>2026-03-28T12:20:33.999Z</time></trkpt><trkpt lat="43.860433896949324" lon="11.233684138185389"><ele>513.0</ele><time>2026-03-28T12:20:35.999Z</time></trkpt><trkpt lat="43.86035221990781" lon="11.233692715129868"><ele>513.0</ele><time>2026-03-28T12:20:37.999Z</time></trkpt><trkpt lat="43.86028211869334" lon="11.233666170721941"><ele>513.0</ele><time>2026-03-28T12:20:39.999Z</time></trkpt><trkpt lat="43.860181109597924" lon="11.23364822486807"><ele>513.0</ele><time>2026-03-28T12:20:42.999Z</time></trkpt><trkpt lat="43.860117157773594" lon="11.233632805948483"><ele>513.0</ele><time>2026-03-28T12:20:44.999Z</time></trkpt><trkpt lat="43.860055361493224" lon="11.233607877175547"><ele>514.2857142857143</ele><time>2026-03-28T12:20:47.999Z</time></trkpt><trkpt lat="43.859983821046356" lon="11.233588109235875"><ele>515.5714285714286</ele><time>2026-03-28T12:20:50Z</time></trkpt><trkpt lat="43.85990904184562" lon="11.2335850917035"><ele>516.8571428571429</ele><time>2026-03-28T12:20:52Z</time></trkpt><trkpt lat="43.85982480510806" lon="11.233566095008749"><ele>518.1428571428571</ele><time>2026-03-28T12:20:54Z</time></trkpt><trkpt lat="43.859747550694614" lon="11.233569822519508"><ele>519.4285714285714</ele><time>2026-03-28T12:20:56Z</time></trkpt><trkpt lat="43.85967924247623" lon="11.233555596961668"><ele>520.7142857142858</ele><time>2026-03-28T12:20:58Z</time></trkpt><trkpt lat="43.85961369334016" lon="11.233544053230103"><ele>522.0</ele><time>2026-03-28T12:21:00Z</time></trkpt><trkpt lat="43.85954611456211" lon="11.233552271491648"><ele>522.0</ele><time>2026-03-28T12:21:02Z</time></trkpt><trkpt lat="43.859467927093874" lon="11.23355545120849"><ele>522.0</ele><time>2026-03-28T12:21:04Z</time></trkpt><trkpt lat="43.859382594548656" lon="11.233551815850737"><ele>522.0</ele><time>2026-03-28T12:21:06Z</time></trkpt><trkpt lat="43.85931869057457" lon="11.23355760607467"><ele>522.0</ele><time>2026-03-28T12:21:08Z</time></trkpt><trkpt lat="43.85923913855149" lon="11.233568635592995"><ele>522.0</ele><time>2026-03-28T12:21:10Z</time></trkpt><trkpt lat="43.85917617021419" lon="11.233569917934748"><ele>522.0</ele><time>2026-03-28T12:21:12Z</time></trkpt><trkpt lat="43.85910778827241" lon="11.233582651099507"><ele>522.0</ele><time>2026-03-28T12:21:14Z</time></trkpt><trkpt lat="43.85903721330574" lon="11.233576804331284"><ele>523.0</ele><time>2026-03-28T12:21:16Z</time></trkpt><trkpt lat="43.85897173178063" lon="11.233579767532662"><ele>524.0</ele><time>2026-03-28T12:21:18.001Z</time></trkpt><trkpt lat="43.85890399808529" lon="11.233640934695165"><ele>525.0</ele><time>2026-03-28T12:21:20.001Z</time></trkpt><trkpt lat="43.85881550158086" lon="11.233682190599009"><ele>526.0</ele><time>2026-03-28T12:21:23.001Z</time></trkpt><trkpt lat="43.85873509635202" lon="11.233693920761096"><ele>527.0</ele><time>2026-03-28T12:21:25.001Z</time></trkpt><trkpt lat="43.858640169037386" lon="11.233729253199709"><ele>528.0</ele><time>2026-03-28T12:21:28.001Z</time></trkpt><trkpt lat="43.85857168738424" lon="11.23375275090249"><ele>528.0</ele><time>2026-03-28T12:21:30.001Z</time></trkpt><trkpt lat="43.858484074981824" lon="11.23380389287955"><ele>528.0</ele><time>2026-03-28T12:21:33.001Z</time></trkpt><trkpt lat="43.85841826103968" lon="11.233848762301324"><ele>528.0</ele><time>2026-03-28T12:21:35.001Z</time></trkpt><trkpt lat="43.85836354412288" lon="11.23390903282063"><ele>528.0</ele><time>2026-03-28T12:21:37.001Z</time></trkpt><trkpt lat="43.8583066860717" lon="11.23395664690225"><ele>528.0</ele><time>2026-03-28T12:21:39.001Z</time></trkpt><trkpt lat="43.85824577934344" lon="11.234016061497568"><ele>528.0</ele><time>2026-03-28T12:21:41.001Z</time></trkpt><trkpt lat="43.858164880824404" lon="11.234079399560756"><ele>530.8</ele><time>2026-03-28T12:21:44.001Z</time></trkpt><trkpt lat="43.85809534538153" lon="11.2341470407631"><ele>533.5999999999999</ele><time>2026-03-28T12:21:47.001Z</time></trkpt><trkpt lat="43.858027843072925" lon="11.234226188467469"><ele>536.4000000000001</ele><time>2026-03-28T12:21:49.001Z</time></trkpt><trkpt lat="43.85794665360899" lon="11.234306115086934"><ele>539.2</ele><time>2026-03-28T12:21:51.002Z</time></trkpt><trkpt lat="43.85788103288052" lon="11.234397654624626"><ele>542.0</ele><time>2026-03-28T12:21:53.002Z</time></trkpt><trkpt lat="43.85779624427496" lon="11.234485359004934"><ele>542.0</ele><time>2026-03-28T12:21:55.002Z</time></trkpt><trkpt lat="43.85770720296418" lon="11.234605067110845"><ele>542.0</ele><time>2026-03-28T12:21:57.002Z</time></trkpt><trkpt lat="43.85761524566704" lon="11.234692586270434"><ele>542.0</ele><time>2026-03-28T12:21:59.002Z</time></trkpt><trkpt lat="43.857542640296415" lon="11.234726257382707"><ele>542.0</ele><time>2026-03-28T12:22:01.002Z</time></trkpt><trkpt lat="43.85747681895487" lon="11.234786767924676"><ele>542.0</ele><time>2026-03-28T12:22:02.002Z</time></trkpt><trkpt lat="43.85742209509059" lon="11.234836380058294"><ele>542.25</ele><time>2026-03-28T12:22:04.002Z</time></trkpt><trkpt lat="43.85734310633153" lon="11.234844742994417"><ele>542.5</ele><time>2026-03-28T12:22:06.995Z</time></trkpt><trkpt lat="43.85720240245045" lon="11.235029884902843"><ele>542.75</ele><time>2026-03-28T12:22:08.996Z</time></trkpt><trkpt lat="43.85711831177486" lon="11.235082090870385"><ele>543.0</ele><time>2026-03-28T12:22:10.996Z</time></trkpt><trkpt lat="43.857032912128815" lon="11.235133988231235"><ele>543.0</ele><time>2026-03-28T12:22:12.997Z</time></trkpt><trkpt lat="43.856954568538335" lon="11.2351734258273"><ele>543.0</ele><time>2026-03-28T12:22:14.997Z</time></trkpt><trkpt lat="43.85687498757936" lon="11.235217491266898"><ele>543.0</ele><time>2026-03-28T12:22:16.997Z</time></trkpt><trkpt lat="43.85679612361921" lon="11.235266360935897"><ele>543.0</ele><time>2026-03-28T12:22:18.998Z</time></trkpt><trkpt lat="43.856717729032056" lon="11.235321747634796"><ele>543.0</ele><time>2026-03-28T12:22:20.998Z</time></trkpt><trkpt lat="43.85663855195215" lon="11.23536456494094"><ele>543.0</ele><time>2026-03-28T12:22:22.998Z</time></trkpt><trkpt lat="43.8565546184098" lon="11.23541766380778"><ele>540.0</ele><time>2026-03-28T12:22:24.998Z</time></trkpt><trkpt lat="43.85645999798895" lon="11.235409106032192"><ele>537.0</ele><time>2026-03-28T12:22:26.999Z</time></trkpt><trkpt lat="43.85639221076463" lon="11.235516912223327"><ele>534.0</ele><time>2026-03-28T12:22:28.999Z</time></trkpt><trkpt lat="43.856315890388316" lon="11.23555276216017"><ele>531.0</ele><time>2026-03-28T12:22:30.999Z</time></trkpt><trkpt lat="43.85623000048235" lon="11.235598361790187"><ele>528.0</ele><time>2026-03-28T12:22:32.999Z</time></trkpt><trkpt lat="43.8561501978315" lon="11.235634892062679"><ele>530.6666666666666</ele><time>2026-03-28T12:22:35Z</time></trkpt><trkpt lat="43.856064731655216" lon="11.235659001306331"><ele>533.3333333333334</ele><time>2026-03-28T12:22:37Z</time></trkpt><trkpt lat="43.85598327190429" lon="11.235685682791335"><ele>536.0</ele><time>2026-03-28T12:22:39Z</time></trkpt><trkpt lat="43.85590314826328" lon="11.235710655957764"><ele>538.6666666666667</ele><time>2026-03-28T12:22:41Z</time></trkpt><trkpt lat="43.855820187130746" lon="11.23573053628416"><ele>541.3333333333334</ele><time>2026-03-28T12:22:43Z</time></trkpt><trkpt lat="43.85573810080732" lon="11.235744872025423"><ele>544.0</ele><time>2026-03-28T12:22:45Z</time></trkpt><trkpt lat="43.85564715681882" lon="11.235758561896741"><ele>544.0</ele><time>2026-03-28T12:22:47Z</time></trkpt><trkpt lat="43.85556053688466" lon="11.235742689583345"><ele>544.0</ele><time>2026-03-28T12:22:49Z</time></trkpt><trkpt lat="43.85547707396659" lon="11.235747379208947"><ele>544.0</ele><time>2026-03-28T12:22:52.001Z</time></trkpt><trkpt lat="43.85540817922033" lon="11.235749502849774"><ele>544.0</ele><time>2026-03-28T12:22:54.001Z</time></trkpt><trkpt lat="43.85533976436178" lon="11.235770096909723"><ele>544.0</ele><time>2026-03-28T12:22:56.001Z</time></trkpt><trkpt lat="43.85515301704989" lon="11.235843572069157"><ele>544.0</ele><time>2026-03-28T12:22:59.001Z</time></trkpt><trkpt lat="43.855063106444646" lon="11.23586454957383"><ele>544.0</ele><time>2026-03-28T12:23:01.001Z</time></trkpt><trkpt lat="43.85497224264065" lon="11.235886701821311"><ele>544.0</ele><time>2026-03-28T12:23:03.001Z</time></trkpt><trkpt lat="43.854884024878295" lon="11.235903350583953"><ele>544.0</ele><time>2026-03-28T12:23:05.001Z</time></trkpt><trkpt lat="43.85479442579432" lon="11.235921004560007"><ele>544.0</ele><time>2026-03-28T12:23:07.001Z</time></trkpt><trkpt lat="43.854702749538646" lon="11.235923236141337"><ele>544.0</ele><time>2026-03-28T12:23:09.001Z</time></trkpt><trkpt lat="43.85461119649346" lon="11.235898484039584"><ele>544.0</ele><time>2026-03-28T12:23:11.001Z</time></trkpt><trkpt lat="43.85452537533339" lon="11.235853809876406"><ele>544.0</ele><time>2026-03-28T12:23:13.001Z</time></trkpt><trkpt lat="43.854444742987795" lon="11.235789455219225"><ele>544.0</ele><time>2026-03-28T12:23:15.001Z</time></trkpt><trkpt lat="43.85437929572682" lon="11.235766481313096"><ele>544.0</ele><time>2026-03-28T12:23:17.002Z</time></trkpt><trkpt lat="43.85429449132992" lon="11.235716112708058"><ele>544.0</ele><time>2026-03-28T12:23:20.002Z</time></trkpt><trkpt lat="43.8542232142208" lon="11.235692174211263"><ele>545.1666666666667</ele><time>2026-03-28T12:23:24.002Z</time></trkpt><trkpt lat="43.85415677379713" lon="11.23569916513475"><ele>546.3333333333334</ele><time>2026-03-28T12:23:26.002Z</time></trkpt><trkpt lat="43.854078675033556" lon="11.235708086023857"><ele>547.5</ele><time>2026-03-28T12:23:28.002Z</time></trkpt><trkpt lat="43.85398921780285" lon="11.235728523303221"><ele>548.6666666666666</ele><time>2026-03-28T12:23:30.002Z</time></trkpt><trkpt lat="43.853907692495014" lon="11.235734739587654"><ele>549.8333333333333</ele><time>2026-03-28T12:23:33.002Z</time></trkpt><trkpt lat="43.85383057758181" lon="11.235754025810492"><ele>551.0</ele><time>2026-03-28T12:23:35.002Z</time></trkpt><trkpt lat="43.85364843347584" lon="11.23585386570961"><ele>551.0</ele><time>2026-03-28T12:23:37.002Z</time></trkpt><trkpt lat="43.853565544771975" lon="11.23587734262451"><ele>551.0</ele><time>2026-03-28T12:23:39.002Z</time></trkpt><trkpt lat="43.853480345985" lon="11.23589814774722"><ele>551.0</ele><time>2026-03-28T12:23:41.002Z</time></trkpt><trkpt lat="43.853382747151926" lon="11.235922127650749"><ele>551.0</ele><time>2026-03-28T12:23:43.002Z</time></trkpt><trkpt lat="43.85329834195613" lon="11.235947831135398"><ele>551.0</ele><time>2026-03-28T12:23:45.002Z</time></trkpt><trkpt lat="43.8532154277292" lon="11.235954644021264"><ele>551.0</ele><time>2026-03-28T12:23:47.002Z</time></trkpt><trkpt lat="43.85313888059172" lon="11.235942379918859"><ele>550.1666666666666</ele><time>2026-03-28T12:23:50.003Z</time></trkpt><trkpt lat="43.85307043875107" lon="11.235962736642282"><ele>549.3333333333333</ele><time>2026-03-28T12:23:53.003Z</time></trkpt><trkpt lat="43.852978660732475" lon="11.236007523681396"><ele>548.5</ele><time>2026-03-28T12:23:56.003Z</time></trkpt><trkpt lat="43.85289450713859" lon="11.236058018132207"><ele>547.6666666666666</ele><time>2026-03-28T12:23:59.003Z</time></trkpt><trkpt lat="43.85282369268524" lon="11.236069441917444"><ele>546.8333333333334</ele><time>2026-03-28T12:24:02.003Z</time></trkpt><trkpt lat="43.85276000716728" lon="11.236095543690753"><ele>546.0</ele><time>2026-03-28T12:24:05.003Z</time></trkpt><trkpt lat="43.85268287227232" lon="11.236117898273982"><ele>544.8333333333334</ele><time>2026-03-28T12:24:08.003Z</time></trkpt><trkpt lat="43.852619812142294" lon="11.236158865026352"><ele>543.6666666666666</ele><time>2026-03-28T12:24:10.003Z</time></trkpt><trkpt lat="43.85253623984412" lon="11.236186497211715"><ele>542.5</ele><time>2026-03-28T12:24:12.997Z</time></trkpt><trkpt lat="43.85244189408827" lon="11.236250089323207"><ele>541.3333333333333</ele><time>2026-03-28T12:24:15.997Z</time></trkpt><trkpt lat="43.852359205078415" lon="11.236320747845326"><ele>540.1666666666666</ele><time>2026-03-28T12:24:18.998Z</time></trkpt><trkpt lat="43.852286697074426" lon="11.23637929812696"><ele>539.0</ele><time>2026-03-28T12:24:21.998Z</time></trkpt><trkpt lat="43.85221929874068" lon="11.236426722948062"><ele>544.3333333333333</ele><time>2026-03-28T12:24:23.998Z</time></trkpt><trkpt lat="43.85215156859271" lon="11.236479326905894"><ele>549.6666666666666</ele><time>2026-03-28T12:24:26.999Z</time></trkpt><trkpt lat="43.852078199033436" lon="11.236552665406943"><ele>555.0</ele><time>2026-03-28T12:24:29.999Z</time></trkpt><trkpt lat="43.852005184638564" lon="11.236617648852201"><ele>560.3333333333334</ele><time>2026-03-28T12:24:32.999Z</time></trkpt><trkpt lat="43.85193435954254" lon="11.236666494174596"><ele>565.6666666666667</ele><time>2026-03-28T12:24:35.999Z</time></trkpt><trkpt lat="43.85187296302968" lon="11.23673350534578"><ele>571.0</ele><time>2026-03-28T12:24:38Z</time></trkpt><trkpt lat="43.85180336159657" lon="11.236810841742193"><ele>569.5</ele><time>2026-03-28T12:24:41Z</time></trkpt><trkpt lat="43.851717412763406" lon="11.23689351699676"><ele>568.0</ele><time>2026-03-28T12:24:43Z</time></trkpt><trkpt lat="43.85165678181006" lon="11.23693777315033"><ele>566.5</ele><time>2026-03-28T12:24:46Z</time></trkpt><trkpt lat="43.8515749715166" lon="11.236959350713523"><ele>565.0</ele><time>2026-03-28T12:24:49Z</time></trkpt><trkpt lat="43.85149356537026" lon="11.236962011376544"><ele>563.5</ele><time>2026-03-28T12:24:52Z</time></trkpt><trkpt lat="43.85144014186654" lon="11.236913507088111"><ele>562.0</ele><time>2026-03-28T12:24:55.001Z</time></trkpt><trkpt lat="43.851389498311015" lon="11.236843585136178"><ele>562.0000000000001</ele><time>2026-03-28T12:24:59.001Z</time></trkpt><trkpt lat="43.851343147637145" lon="11.236776936479679"><ele>562.0</ele><time>2026-03-28T12:25:02.001Z</time></trkpt><trkpt lat="43.85129356254889" lon="11.236689888417295"><ele>562.0</ele><time>2026-03-28T12:25:05.001Z</time></trkpt><trkpt lat="43.85125196012252" lon="11.236594340664128"><ele>562.0</ele><time>2026-03-28T12:25:08.001Z</time></trkpt><trkpt lat="43.85122609680969" lon="11.236508052925481"><ele>562.0</ele><time>2026-03-28T12:25:11.001Z</time></trkpt><trkpt lat="43.85120611279757" lon="11.236417601280428"><ele>562.0000000000001</ele><time>2026-03-28T12:25:13.001Z</time></trkpt><trkpt lat="43.85118979148711" lon="11.23633237884976"><ele>562.0</ele><time>2026-03-28T12:25:16.001Z</time></trkpt><trkpt lat="43.851171021290504" lon="11.23623437009838"><ele>560.1428571428572</ele><time>2026-03-28T12:25:18.001Z</time></trkpt><trkpt lat="43.85115421378067" lon="11.236146609544122"><ele>558.2857142857143</ele><time>2026-03-28T12:25:21.002Z</time></trkpt><trkpt lat="43.85113588753432" lon="11.236055446253088"><ele>556.4285714285714</ele><time>2026-03-28T12:25:23.002Z</time></trkpt><trkpt lat="43.85111443858019" lon="11.235948473525543"><ele>554.5714285714287</ele><time>2026-03-28T12:25:26.002Z</time></trkpt><trkpt lat="43.851095107660235" lon="11.235852064287728"><ele>552.7142857142858</ele><time>2026-03-28T12:25:29.002Z</time></trkpt><trkpt lat="43.85106837228736" lon="11.235754989552296"><ele>550.8571428571429</ele><time>2026-03-28T12:25:31.002Z</time></trkpt><trkpt lat="43.85103125043281" lon="11.235673514707232"><ele>549.0</ele><time>2026-03-28T12:25:33.002Z</time></trkpt><trkpt lat="43.85100187194899" lon="11.23558688440976"><ele>548.0</ele><time>2026-03-28T12:25:35.002Z</time></trkpt><trkpt lat="43.85097738527459" lon="11.235496078672181"><ele>547.0</ele><time>2026-03-28T12:25:37.002Z</time></trkpt><trkpt lat="43.850959022418714" lon="11.235389596214898"><ele>546.0</ele><time>2026-03-28T12:25:39.002Z</time></trkpt><trkpt lat="43.85094543387046" lon="11.235276915637078"><ele>545.0</ele><time>2026-03-28T12:25:41.002Z</time></trkpt><trkpt lat="43.85092709620645" lon="11.235153716643142"><ele>544.0</ele><time>2026-03-28T12:25:43.002Z</time></trkpt><trkpt lat="43.85090199636628" lon="11.235067610001066"><ele>543.0</ele><time>2026-03-28T12:25:45.002Z</time></trkpt><trkpt lat="43.85087742379052" lon="11.234933120291023"><ele>548.0</ele><time>2026-03-28T12:25:48.002Z</time></trkpt><trkpt lat="43.85084475088928" lon="11.234778735432359"><ele>553.0</ele><time>2026-03-28T12:25:51.002Z</time></trkpt><trkpt lat="43.85082481929516" lon="11.234691952273021"><ele>558.0</ele><time>2026-03-28T12:25:52.002Z</time></trkpt><trkpt lat="43.85078946935873" lon="11.23457356502869"><ele>563.0</ele><time>2026-03-28T12:25:54.003Z</time></trkpt><trkpt lat="43.850769094720754" lon="11.234455566164185"><ele>568.0</ele><time>2026-03-28T12:25:57.003Z</time></trkpt><trkpt lat="43.85074625333876" lon="11.23430401039413"><ele>568.0</ele><time>2026-03-28T12:25:59.003Z</time></trkpt><trkpt lat="43.85073539735409" lon="11.23420970049634"><ele>568.0</ele><time>2026-03-28T12:26:01.003Z</time></trkpt><trkpt lat="43.85070534768282" lon="11.234085065775515"><ele>568.0</ele><time>2026-03-28T12:26:04.003Z</time></trkpt><trkpt lat="43.85066897223739" lon="11.233939778593827"><ele>568.0</ele><time>2026-03-28T12:26:06.003Z</time></trkpt><trkpt lat="43.850639945027694" lon="11.233838981856943"><ele>568.0</ele><time>2026-03-28T12:26:08.003Z</time></trkpt><trkpt lat="43.850624783751" lon="11.233730152581618"><ele>568.0</ele><time>2026-03-28T12:26:11.003Z</time></trkpt><trkpt lat="43.85059579257198" lon="11.233628434451555"><ele>566.4285714285714</ele><time>2026-03-28T12:26:13.003Z</time></trkpt><trkpt lat="43.850574966900794" lon="11.233545643785368"><ele>564.8571428571428</ele><time>2026-03-28T12:26:15.003Z</time></trkpt><trkpt lat="43.85053882545651" lon="11.233462578479593"><ele>563.2857142857142</ele><time>2026-03-28T12:26:17.003Z</time></trkpt><trkpt lat="43.8505128207817" lon="11.233373128877243"><ele>561.7142857142857</ele><time>2026-03-28T12:26:18.997Z</time></trkpt><trkpt lat="43.850456780161096" lon="11.233255239074563"><ele>560.1428571428571</ele><time>2026-03-28T12:26:20.997Z</time></trkpt><trkpt lat="43.85041685532041" lon="11.233168476595482"><ele>558.5714285714286</ele><time>2026-03-28T12:26:21.997Z</time></trkpt><trkpt lat="43.850380601134546" lon="11.233091072169932"><ele>557.0</ele><time>2026-03-28T12:26:23.998Z</time></trkpt><trkpt lat="43.85033581842098" lon="11.232977650657036"><ele>555.8333333333333</ele><time>2026-03-28T12:26:26.998Z</time></trkpt><trkpt lat="43.85028817839783" lon="11.23286772049345"><ele>554.6666666666666</ele><time>2026-03-28T12:26:28.998Z</time></trkpt><trkpt lat="43.85023643485755" lon="11.232772062913057"><ele>553.5</ele><time>2026-03-28T12:26:30.998Z</time></trkpt><trkpt lat="43.85019575255758" lon="11.23267873696973"><ele>552.3333333333334</ele><time>2026-03-28T12:26:33.999Z</time></trkpt><trkpt lat="43.8501460597412" lon="11.232560350258318"><ele>551.1666666666667</ele><time>2026-03-28T12:26:35.999Z</time></trkpt><trkpt lat="43.85010062145726" lon="11.232466011820138"><ele>550.0</ele><time>2026-03-28T12:26:37.999Z</time></trkpt><trkpt lat="43.850053145005774" lon="11.232381517971053"><ele>553.3333333333334</ele><time>2026-03-28T12:26:39.999Z</time></trkpt><trkpt lat="43.85001678397157" lon="11.232289106356767"><ele>556.6666666666667</ele><time>2026-03-28T12:26:41.999Z</time></trkpt><trkpt lat="43.84994460772194" lon="11.232203059097701"><ele>560.0</ele><time>2026-03-28T12:26:44Z</time></trkpt><trkpt lat="43.8498810671911" lon="11.232083995691433"><ele>563.3333333333334</ele><time>2026-03-28T12:26:46Z</time></trkpt><trkpt lat="43.8498209197437" lon="11.231998855220096"><ele>566.6666666666666</ele><time>2026-03-28T12:26:48Z</time></trkpt><trkpt lat="43.84977549789404" lon="11.23191147088387"><ele>570.0</ele><time>2026-03-28T12:26:50Z</time></trkpt><trkpt lat="43.84975389838508" lon="11.231818599713652"><ele>570.0</ele><time>2026-03-28T12:26:53Z</time></trkpt><trkpt lat="43.8497075686169" lon="11.23171068011337"><ele>570.0</ele><time>2026-03-28T12:26:55Z</time></trkpt><trkpt lat="43.849668754152866" lon="11.231621867447735"><ele>570.0</ele><time>2026-03-28T12:26:57Z</time></trkpt><trkpt lat="43.849518748799774" lon="11.231495831610701"><ele>570.0</ele><time>2026-03-28T12:26:59Z</time></trkpt><trkpt lat="43.84947318231564" lon="11.231406998748483"><ele>570.0</ele><time>2026-03-28T12:27:01.001Z</time></trkpt><trkpt lat="43.84940437976721" lon="11.23129749238933"><ele>570.5</ele><time>2026-03-28T12:27:04.001Z</time></trkpt><trkpt lat="43.84934728828609" lon="11.231233274150785"><ele>571.0</ele><time>2026-03-28T12:27:06.001Z</time></trkpt><trkpt lat="43.84928146675401" lon="11.231170123735893"><ele>571.5</ele><time>2026-03-28T12:27:08.001Z</time></trkpt><trkpt lat="43.84919950089825" lon="11.23111885053641"><ele>572.0</ele><time>2026-03-28T12:27:10.001Z</time></trkpt><trkpt lat="43.849124005090495" lon="11.231085060823627"><ele>572.5</ele><time>2026-03-28T12:27:12.001Z</time></trkpt><trkpt lat="43.849037533113346" lon="11.231063472439013"><ele>573.0</ele><time>2026-03-28T12:27:14.001Z</time></trkpt><trkpt lat="43.84895294513865" lon="11.231058832242912"><ele>573.0</ele><time>2026-03-28T12:27:16.001Z</time></trkpt><trkpt lat="43.84886458709533" lon="11.231037450597082"><ele>573.0</ele><time>2026-03-28T12:27:18.001Z</time></trkpt><trkpt lat="43.84878604692554" lon="11.231046291998643"><ele>573.0</ele><time>2026-03-28T12:27:20.001Z</time></trkpt><trkpt lat="43.84870255449675" lon="11.231066264271751"><ele>573.0</ele><time>2026-03-28T12:27:24.001Z</time></trkpt><trkpt lat="43.84860994881967" lon="11.231075895872314"><ele>573.0</ele><time>2026-03-28T12:27:27.002Z</time></trkpt><trkpt lat="43.84852588864677" lon="11.23108061604191"><ele>573.0</ele><time>2026-03-28T12:27:29.002Z</time></trkpt><trkpt lat="43.848442912372214" lon="11.231106948228465"><ele>573.1666666666666</ele><time>2026-03-28T12:27:32.002Z</time></trkpt><trkpt lat="43.848359117100934" lon="11.231146826234319"><ele>573.3333333333334</ele><time>2026-03-28T12:27:35.002Z</time></trkpt><trkpt lat="43.84828946688269" lon="11.23119244545878"><ele>573.5</ele><time>2026-03-28T12:27:36.002Z</time></trkpt><trkpt lat="43.848212181553876" lon="11.23124132502038"><ele>573.6666666666667</ele><time>2026-03-28T12:27:39.002Z</time></trkpt><trkpt lat="43.84814727785118" lon="11.231296454555958"><ele>573.8333333333334</ele><time>2026-03-28T12:27:40.002Z</time></trkpt><trkpt lat="43.84804108465705" lon="11.231368386897671"><ele>574.0</ele><time>2026-03-28T12:27:41.002Z</time></trkpt><trkpt lat="43.84798232299995" lon="11.231447188648424"><ele>576.5</ele><time>2026-03-28T12:27:43.002Z</time></trkpt><trkpt lat="43.84792725822763" lon="11.231526119149644"><ele>579.0</ele><time>2026-03-28T12:27:45.002Z</time></trkpt><trkpt lat="43.847873738011884" lon="11.231633325901791"><ele>581.5</ele><time>2026-03-28T12:27:47.002Z</time></trkpt><trkpt lat="43.84784832898826" lon="11.231732738167876"><ele>584.0</ele><time>2026-03-28T12:27:49.002Z</time></trkpt><trkpt lat="43.847824291652266" lon="11.231837538650941"><ele>586.5</ele><time>2026-03-28T12:27:51.002Z</time></trkpt><trkpt lat="43.847816557799916" lon="11.2319544416507"><ele>589.0</ele><time>2026-03-28T12:27:53.002Z</time></trkpt><trkpt lat="43.84784120216585" lon="11.23207442141019"><ele>589.0</ele><time>2026-03-28T12:27:55.002Z</time></trkpt><trkpt lat="43.84785051985806" lon="11.232188006633914"><ele>589.0</ele><time>2026-03-28T12:27:57.002Z</time></trkpt><trkpt lat="43.84787076889275" lon="11.232297791023907"><ele>589.0</ele><time>2026-03-28T12:27:59.003Z</time></trkpt><trkpt lat="43.84787264307488" lon="11.232392314151912"><ele>589.0</ele><time>2026-03-28T12:28:02.003Z</time></trkpt><trkpt lat="43.847953317440975" lon="11.23254710663595"><ele>589.0</ele><time>2026-03-28T12:28:04.003Z</time></trkpt><trkpt lat="43.84799655132825" lon="11.232639032242588"><ele>589.0</ele><time>2026-03-28T12:28:06.003Z</time></trkpt><trkpt lat="43.848045279701886" lon="11.232756075654681"><ele>589.5</ele><time>2026-03-28T12:28:08.003Z</time></trkpt><trkpt lat="43.84809225524863" lon="11.23284707469253"><ele>590.0</ele><time>2026-03-28T12:28:10.003Z</time></trkpt><trkpt lat="43.84813728186278" lon="11.232953056643604"><ele>590.5</ele><time>2026-03-28T12:28:12.003Z</time></trkpt><trkpt lat="43.848187096472024" lon="11.233051715781906"><ele>591.0</ele><time>2026-03-28T12:28:14.003Z</time></trkpt><trkpt lat="43.84823353855452" lon="11.233160916441935"><ele>591.5</ele><time>2026-03-28T12:28:16.003Z</time></trkpt><trkpt lat="43.84829271126944" lon="11.233259665576671"><ele>592.0</ele><time>2026-03-28T12:28:18.003Z</time></trkpt><trkpt lat="43.84835033866072" lon="11.233378298922377"><ele>590.4</ele><time>2026-03-28T12:28:20.003Z</time></trkpt><trkpt lat="43.848407030321745" lon="11.233491450249682"><ele>588.8000000000001</ele><time>2026-03-28T12:28:22.003Z</time></trkpt><trkpt lat="43.84842713300887" lon="11.23359858258159"><ele>587.2</ele><time>2026-03-28T12:28:23.997Z</time></trkpt><trkpt lat="43.84850639366752" lon="11.233712589260595"><ele>585.6</ele><time>2026-03-28T12:28:25.997Z</time></trkpt><trkpt lat="43.848580215153234" lon="11.233832304073358"><ele>584.0</ele><time>2026-03-28T12:28:27.997Z</time></trkpt><trkpt lat="43.84862513675546" lon="11.233930119021963"><ele>586.8</ele><time>2026-03-28T12:28:29.998Z</time></trkpt><trkpt lat="43.84867300004654" lon="11.234049691567598"><ele>589.5999999999999</ele><time>2026-03-28T12:28:31.998Z</time></trkpt><trkpt lat="43.84871467086825" lon="11.234160316992735"><ele>592.4</ele><time>2026-03-28T12:28:33.998Z</time></trkpt><trkpt lat="43.84872554797153" lon="11.234248551503553"><ele>595.1999999999999</ele><time>2026-03-28T12:28:35.998Z</time></trkpt><trkpt lat="43.848777731065105" lon="11.234388238011066"><ele>598.0</ele><time>2026-03-28T12:28:38.999Z</time></trkpt><trkpt lat="43.84882599224561" lon="11.234490684201019"><ele>598.0</ele><time>2026-03-28T12:28:40.999Z</time></trkpt><trkpt lat="43.84885764813044" lon="11.234599281169812"><ele>598.0</ele><time>2026-03-28T12:28:42.999Z</time></trkpt><trkpt lat="43.84889463854029" lon="11.234731802031245"><ele>598.0</ele><time>2026-03-28T12:28:45.999Z</time></trkpt><trkpt lat="43.84893725375872" lon="11.234856587882726"><ele>598.0</ele><time>2026-03-28T12:28:47.999Z</time></trkpt><trkpt lat="43.8490018393502" lon="11.234964466493139"><ele>598.0</ele><time>2026-03-28T12:28:48.999Z</time></trkpt><trkpt lat="43.84905536349177" lon="11.235079919106154"><ele>596.4</ele><time>2026-03-28T12:28:51Z</time></trkpt><trkpt lat="43.8491153663516" lon="11.235214796621639"><ele>594.8</ele><time>2026-03-28T12:28:53Z</time></trkpt><trkpt lat="43.849169243909074" lon="11.235357446011609"><ele>593.2</ele><time>2026-03-28T12:28:56Z</time></trkpt><trkpt lat="43.849217972159046" lon="11.235471238405015"><ele>591.6</ele><time>2026-03-28T12:28:58Z</time></trkpt><trkpt lat="43.84925637922071" lon="11.23556836529279"><ele>590.0</ele><time>2026-03-28T12:29:00Z</time></trkpt><trkpt lat="43.84928687576688" lon="11.235662976126566"><ele>591.6666666666666</ele><time>2026-03-28T12:29:02Z</time></trkpt><trkpt lat="43.849321070592254" lon="11.235768019609214"><ele>593.3333333333333</ele><time>2026-03-28T12:29:04Z</time></trkpt><trkpt lat="43.84934386672348" lon="11.235857144155942"><ele>595.0</ele><time>2026-03-28T12:29:07.001Z</time></trkpt><trkpt lat="43.849398055832935" lon="11.235966816474317"><ele>596.6666666666666</ele><time>2026-03-28T12:29:09.001Z</time></trkpt><trkpt lat="43.84944329014102" lon="11.23612136107759"><ele>598.3333333333334</ele><time>2026-03-28T12:29:11.001Z</time></trkpt><trkpt lat="43.849473638190524" lon="11.236205440638784"><ele>600.0</ele><time>2026-03-28T12:29:13.001Z</time></trkpt><trkpt lat="43.849517365736126" lon="11.236303314777253"><ele>600.0</ele><time>2026-03-28T12:29:16.001Z</time></trkpt><trkpt lat="43.84956467174195" lon="11.23642881459794"><ele>600.0</ele><time>2026-03-28T12:29:18.001Z</time></trkpt><trkpt lat="43.849616713514514" lon="11.236502833251357"><ele>600.0</ele><time>2026-03-28T12:29:19.001Z</time></trkpt><trkpt lat="43.8496731107066" lon="11.236618165194248"><ele>600.0</ele><time>2026-03-28T12:29:20.001Z</time></trkpt><trkpt lat="43.84972041372642" lon="11.236722147091971"><ele>600.0</ele><time>2026-03-28T12:29:22.001Z</time></trkpt><trkpt lat="43.84977579616048" lon="11.236871051167885"><ele>598.8333333333334</ele><time>2026-03-28T12:29:25.001Z</time></trkpt><trkpt lat="43.849828627952235" lon="11.236984416995462"><ele>597.6666666666666</ele><time>2026-03-28T12:29:27.001Z</time></trkpt><trkpt lat="43.84989822780137" lon="11.237079056179187"><ele>596.5</ele><time>2026-03-28T12:29:29.001Z</time></trkpt><trkpt lat="43.84996321202742" lon="11.2371757069183"><ele>595.3333333333333</ele><time>2026-03-28T12:29:30.001Z</time></trkpt><trkpt lat="43.85001743930877" lon="11.237226282773788"><ele>594.1666666666666</ele><time>2026-03-28T12:29:31.001Z</time></trkpt><trkpt lat="43.850055895310085" lon="11.237298615246406"><ele>593.0</ele><time>2026-03-28T12:29:32.001Z</time></trkpt><trkpt lat="43.85010893637884" lon="11.237353570092269"><ele>592.1999999999999</ele><time>2026-03-28T12:29:33.002Z</time></trkpt><trkpt lat="43.85016660509765" lon="11.237407801931733"><ele>591.4</ele><time>2026-03-28T12:29:34.002Z</time></trkpt><trkpt lat="43.850274134042905" lon="11.23750517561925"><ele>590.5999999999999</ele><time>2026-03-28T12:29:36.002Z</time></trkpt><trkpt lat="43.850336978519756" lon="11.23753138154611"><ele>589.8</ele><time>2026-03-28T12:29:37.002Z</time></trkpt><trkpt lat="43.85044133511454" lon="11.237618861831827"><ele>589.0</ele><time>2026-03-28T12:29:39.002Z</time></trkpt><trkpt lat="43.850537904211635" lon="11.23770809575875"><ele>589.0</ele><time>2026-03-28T12:29:41.002Z</time></trkpt><trkpt lat="43.8505897235141" lon="11.237757727437215"><ele>589.0</ele><time>2026-03-28T12:29:42.002Z</time></trkpt><trkpt lat="43.850685600239444" lon="11.237833174830742"><ele>589.0</ele><time>2026-03-28T12:29:44.002Z</time></trkpt><trkpt lat="43.850780414921445" lon="11.237917546508891"><ele>589.0</ele><time>2026-03-28T12:29:46.002Z</time></trkpt><trkpt lat="43.85084046159029" lon="11.237986568301253"><ele>589.0</ele><time>2026-03-28T12:29:49.002Z</time></trkpt><trkpt lat="43.85097964245017" lon="11.238153259916754"><ele>589.5714285714286</ele><time>2026-03-28T12:29:50.002Z</time></trkpt><trkpt lat="43.85101897905075" lon="11.238235138892295"><ele>590.1428571428571</ele><time>2026-03-28T12:29:52.002Z</time></trkpt><trkpt lat="43.8510426094843" lon="11.238343182263517"><ele>590.7142857142857</ele><time>2026-03-28T12:29:54.002Z</time></trkpt><trkpt lat="43.85107286919565" lon="11.238424134336112"><ele>591.2857142857142</ele><time>2026-03-28T12:29:56.002Z</time></trkpt><trkpt lat="43.851082775849285" lon="11.238512764647668"><ele>591.8571428571429</ele><time>2026-03-28T12:29:58.002Z</time></trkpt><trkpt lat="43.85109110245945" lon="11.238621102900126"><ele>592.4285714285713</ele><time>2026-03-28T12:30:00.002Z</time></trkpt><trkpt lat="43.8510612819553" lon="11.238728368500269"><ele>593.0</ele><time>2026-03-28T12:30:03.002Z</time></trkpt><trkpt lat="43.85105638272731" lon="11.238841796554215"><ele>593.0</ele><time>2026-03-28T12:30:06.003Z</time></trkpt><trkpt lat="43.85101032410982" lon="11.238941531895884"><ele>593.0</ele><time>2026-03-28T12:30:10.003Z</time></trkpt><trkpt lat="43.850991303743264" lon="11.239026003808071"><ele>593.0</ele><time>2026-03-28T12:30:14.003Z</time></trkpt><trkpt lat="43.85095355786814" lon="11.239146336767195"><ele>593.0</ele><time>2026-03-28T12:30:17.003Z</time></trkpt><trkpt lat="43.850946334145625" lon="11.239263261221252"><ele>593.0</ele><time>2026-03-28T12:30:19.003Z</time></trkpt><trkpt lat="43.85092038040804" lon="11.23939926436835"><ele>593.0</ele><time>2026-03-28T12:30:22.003Z</time></trkpt><trkpt lat="43.850895976552806" lon="11.239499123555209"><ele>592.8333333333333</ele><time>2026-03-28T12:30:26.003Z</time></trkpt><trkpt lat="43.85088908351832" lon="11.23962130381448"><ele>592.6666666666666</ele><time>2026-03-28T12:30:29.003Z</time></trkpt><trkpt lat="43.850851249822135" lon="11.239720976456063"><ele>592.5</ele><time>2026-03-28T12:30:30.997Z</time></trkpt><trkpt lat="43.85084203588273" lon="11.239848203542603"><ele>592.3333333333334</ele><time>2026-03-28T12:30:33.997Z</time></trkpt><trkpt lat="43.85082772952387" lon="11.239945804044886"><ele>592.1666666666667</ele><time>2026-03-28T12:30:35.998Z</time></trkpt><trkpt lat="43.850815037141714" lon="11.240046299689519"><ele>592.0</ele><time>2026-03-28T12:30:38.998Z</time></trkpt><trkpt lat="43.85079929140332" lon="11.240137836087683"><ele>592.8571428571429</ele><time>2026-03-28T12:30:41.998Z</time></trkpt><trkpt lat="43.850788461943736" lon="11.240241780745828"><ele>593.7142857142857</ele><time>2026-03-28T12:30:44.999Z</time></trkpt><trkpt lat="43.850780163406675" lon="11.24033990022666"><ele>594.5714285714286</ele><time>2026-03-28T12:30:47.999Z</time></trkpt><trkpt lat="43.85077157581138" lon="11.240454303111676"><ele>595.4285714285714</ele><time>2026-03-28T12:30:50.999Z</time></trkpt><trkpt lat="43.850778892233514" lon="11.240552415088688"><ele>596.2857142857143</ele><time>2026-03-28T12:30:53.999Z</time></trkpt><trkpt lat="43.85077501905201" lon="11.240643560271682"><ele>597.1428571428571</ele><time>2026-03-28T12:30:56Z</time></trkpt><trkpt lat="43.85078010730738" lon="11.240745161072178"><ele>598.0</ele><time>2026-03-28T12:30:59Z</time></trkpt><trkpt lat="43.850784142421446" lon="11.24083924614456"><ele>598.5</ele><time>2026-03-28T12:31:01Z</time></trkpt><trkpt lat="43.85079968614155" lon="11.240955576172698"><ele>599.0</ele><time>2026-03-28T12:31:04Z</time></trkpt><trkpt lat="43.850819356960315" lon="11.241092611439324"><ele>599.5</ele><time>2026-03-28T12:31:07Z</time></trkpt><trkpt lat="43.85082256004887" lon="11.241201188317582"><ele>600.0</ele><time>2026-03-28T12:31:09Z</time></trkpt><trkpt lat="43.85082978573723" lon="11.24131461511143"><ele>600.5</ele><time>2026-03-28T12:31:12.001Z</time></trkpt><trkpt lat="43.85083582599359" lon="11.241443861176059"><ele>601.0</ele><time>2026-03-28T12:31:15.001Z</time></trkpt><trkpt lat="43.850826827207314" lon="11.241570827070781"><ele>601.5</ele><time>2026-03-28T12:31:18.001Z</time></trkpt><trkpt lat="43.85081508419945" lon="11.241682574962734"><ele>602.0</ele><time>2026-03-28T12:31:21.001Z</time></trkpt><trkpt lat="43.850799595704835" lon="11.241800705547954"><ele>602.5</ele><time>2026-03-28T12:31:24.001Z</time></trkpt><trkpt lat="43.8507913638486" lon="11.241922503310532"><ele>603.0</ele><time>2026-03-28T12:31:27.001Z</time></trkpt><trkpt lat="43.85078100120835" lon="11.242038689732167"><ele>603.5</ele><time>2026-03-28T12:31:30.001Z</time></trkpt><trkpt lat="43.850772240732546" lon="11.24216093981573"><ele>604.0</ele><time>2026-03-28T12:31:33.001Z</time></trkpt><trkpt lat="43.85075921266144" lon="11.242276335374484"><ele>605.3333333333334</ele><time>2026-03-28T12:31:36.001Z</time></trkpt><trkpt lat="43.85074749461132" lon="11.242364748900359"><ele>606.6666666666667</ele><time>2026-03-28T12:31:38.002Z</time></trkpt><trkpt lat="43.85072490681398" lon="11.242479657041656"><ele>608.0</ele><time>2026-03-28T12:31:42.002Z</time></trkpt><trkpt lat="43.85070311207467" lon="11.242579605364764"><ele>609.3333333333334</ele><time>2026-03-28T12:31:45.002Z</time></trkpt><trkpt lat="43.85068615161244" lon="11.242686333214866"><ele>610.6666666666666</ele><time>2026-03-28T12:31:48.002Z</time></trkpt><trkpt lat="43.850664880682295" lon="11.242800368590247"><ele>612.0</ele><time>2026-03-28T12:31:51.002Z</time></trkpt><trkpt lat="43.85064285408239" lon="11.24292284879735"><ele>612.0</ele><time>2026-03-28T12:31:54.002Z</time></trkpt><trkpt lat="43.85063145069267" lon="11.243016350021543"><ele>612.0</ele><time>2026-03-28T12:31:56.002Z</time></trkpt><trkpt lat="43.85061947410642" lon="11.243109690594505"><ele>612.0</ele><time>2026-03-28T12:31:59.002Z</time></trkpt><trkpt lat="43.8506088928434" lon="11.243218012608494"><ele>612.0</ele><time>2026-03-28T12:32:02.002Z</time></trkpt><trkpt lat="43.85059566681739" lon="11.243326341755889"><ele>612.0</ele><time>2026-03-28T12:32:05.002Z</time></trkpt><trkpt lat="43.8505766488467" lon="11.243419016093066"><ele>612.0</ele><time>2026-03-28T12:32:07.002Z</time></trkpt><trkpt lat="43.85056530545226" lon="11.243528500571507"><ele>612.0</ele><time>2026-03-28T12:32:10.003Z</time></trkpt><trkpt lat="43.85055626138376" lon="11.243647179239474"><ele>612.6666666666666</ele><time>2026-03-28T12:32:12.003Z</time></trkpt><trkpt lat="43.85053946865837" lon="11.243761279355361"><ele>613.3333333333334</ele><time>2026-03-28T12:32:15.003Z</time></trkpt><trkpt lat="43.850514058950495" lon="11.243858385610196"><ele>614.0</ele><time>2026-03-28T12:32:18.003Z</time></trkpt><trkpt lat="43.85049056495534" lon="11.243967763354906"><ele>614.6666666666667</ele><time>2026-03-28T12:32:20.003Z</time></trkpt><trkpt lat="43.85046663712372" lon="11.244069799184118"><ele>615.3333333333334</ele><time>2026-03-28T12:32:23.003Z</time></trkpt><trkpt lat="43.85043786666071" lon="11.244181304890162"><ele>616.0</ele><time>2026-03-28T12:32:26.003Z</time></trkpt><trkpt lat="43.85041902039618" lon="11.244283388255598"><ele>616.6666666666667</ele><time>2026-03-28T12:32:28.003Z</time></trkpt><trkpt lat="43.85039291047343" lon="11.244397535461212"><ele>617.3333333333334</ele><time>2026-03-28T12:32:30.003Z</time></trkpt><trkpt lat="43.85038678040295" lon="11.244490913540734"><ele>618.0</ele><time>2026-03-28T12:32:32.003Z</time></trkpt><trkpt lat="43.85039931663244" lon="11.244581961045206"><ele>618.6666666666666</ele><time>2026-03-28T12:32:34.003Z</time></trkpt><trkpt lat="43.85040288108159" lon="11.244706612545048"><ele>619.3333333333333</ele><time>2026-03-28T12:32:36.997Z</time></trkpt><trkpt lat="43.8503980159927" lon="11.244807485083502"><ele>620.0</ele><time>2026-03-28T12:32:39.997Z</time></trkpt><trkpt lat="43.85038415451393" lon="11.244917935904079"><ele>621.1666666666666</ele><time>2026-03-28T12:32:42.998Z</time></trkpt><trkpt lat="43.85035756875311" lon="11.24502952544223"><ele>622.3333333333333</ele><time>2026-03-28T12:32:45.998Z</time></trkpt><trkpt lat="43.85032909507305" lon="11.245143502425982"><ele>623.5</ele><time>2026-03-28T12:32:48.998Z</time></trkpt><trkpt lat="43.850285307358675" lon="11.245296720956633"><ele>624.6666666666666</ele><time>2026-03-28T12:32:51.999Z</time></trkpt><trkpt lat="43.85025144115104" lon="11.245383139597804"><ele>625.8333333333334</ele><time>2026-03-28T12:32:52.999Z</time></trkpt><trkpt lat="43.850205646958294" lon="11.245485769583134"><ele>627.0</ele><time>2026-03-28T12:32:54.999Z</time></trkpt><trkpt lat="43.850176390247746" lon="11.245664178316538"><ele>628.8000000000001</ele><time>2026-03-28T12:32:56.999Z</time></trkpt><trkpt lat="43.85014794266237" lon="11.245791895385882"><ele>630.6</ele><time>2026-03-28T12:32:58.999Z</time></trkpt><trkpt lat="43.85008848269223" lon="11.245901305742782"><ele>632.4000000000001</ele><time>2026-03-28T12:33:01Z</time></trkpt><trkpt lat="43.850038501689035" lon="11.246014937690987"><ele>634.2</ele><time>2026-03-28T12:33:03Z</time></trkpt><trkpt lat="43.84996853218284" lon="11.246097902591876"><ele>636.0</ele><time>2026-03-28T12:33:05Z</time></trkpt><trkpt lat="43.84989697847854" lon="11.246183270997365"><ele>634.0</ele><time>2026-03-28T12:33:07Z</time></trkpt><trkpt lat="43.8498319966931" lon="11.246273085170541"><ele>632.0</ele><time>2026-03-28T12:33:09Z</time></trkpt><trkpt lat="43.8497657948284" lon="11.246356810176955"><ele>630.0</ele><time>2026-03-28T12:33:11Z</time></trkpt><trkpt lat="43.8497000456677" lon="11.246426698687937"><ele>628.0</ele><time>2026-03-28T12:33:13Z</time></trkpt><trkpt lat="43.84965014811541" lon="11.246517100908122"><ele>626.0</ele><time>2026-03-28T12:33:15Z</time></trkpt><trkpt lat="43.849557926760255" lon="11.246562899752428"><ele>624.0</ele><time>2026-03-28T12:33:17Z</time></trkpt><trkpt lat="43.84948362586804" lon="11.246656160221825"><ele>624.0</ele><time>2026-03-28T12:33:19.001Z</time></trkpt><trkpt lat="43.849401143931374" lon="11.24674822858277"><ele>624.0</ele><time>2026-03-28T12:33:21.001Z</time></trkpt><trkpt lat="43.84929981140983" lon="11.24683562843136"><ele>624.0</ele><time>2026-03-28T12:33:23.001Z</time></trkpt><trkpt lat="43.849237093979006" lon="11.246847364357242"><ele>624.0</ele><time>2026-03-28T12:33:24.001Z</time></trkpt><trkpt lat="43.84917236891438" lon="11.246855871620113"><ele>624.0</ele><time>2026-03-28T12:33:25.001Z</time></trkpt><trkpt lat="43.84905215334679" lon="11.246856899314885"><ele>620.6</ele><time>2026-03-28T12:33:27.001Z</time></trkpt><trkpt lat="43.848932681764914" lon="11.246847969957145"><ele>617.2</ele><time>2026-03-28T12:33:29.001Z</time></trkpt><trkpt lat="43.84881785536703" lon="11.246831612556228"><ele>613.8000000000001</ele><time>2026-03-28T12:33:31.001Z</time></trkpt><trkpt lat="43.84872090925106" lon="11.246797911080037"><ele>610.4</ele><time>2026-03-28T12:33:33.001Z</time></trkpt><trkpt lat="43.84860944540549" lon="11.24677127864066"><ele>607.0</ele><time>2026-03-28T12:33:35.001Z</time></trkpt><trkpt lat="43.84850594327968" lon="11.246748838941153"><ele>606.2</ele><time>2026-03-28T12:33:37.001Z</time></trkpt><trkpt lat="43.84841050199138" lon="11.24673522030818"><ele>605.4000000000001</ele><time>2026-03-28T12:33:39.001Z</time></trkpt><trkpt lat="43.848310213225396" lon="11.24671807251109"><ele>604.5999999999999</ele><time>2026-03-28T12:33:41.001Z</time></trkpt><trkpt lat="43.84820727388639" lon="11.246730286477629"><ele>603.8</ele><time>2026-03-28T12:33:43.001Z</time></trkpt><trkpt lat="43.84810447791737" lon="11.246769299865655"><ele>603.0</ele><time>2026-03-28T12:33:45.002Z</time></trkpt><trkpt lat="43.84800049774936" lon="11.246847414895678"><ele>603.0</ele><time>2026-03-28T12:33:47.002Z</time></trkpt><trkpt lat="43.847901316411516" lon="11.246919345915465"><ele>603.0</ele><time>2026-03-28T12:33:49.002Z</time></trkpt><trkpt lat="43.847796258992425" lon="11.246983837578373"><ele>603.0</ele><time>2026-03-28T12:33:51.002Z</time></trkpt><trkpt lat="43.84768472066873" lon="11.247031856373887"><ele>603.0</ele><time>2026-03-28T12:33:53.002Z</time></trkpt><trkpt lat="43.84756835552465" lon="11.247055033178347"><ele>602.0</ele><time>2026-03-28T12:33:55.002Z</time></trkpt><trkpt lat="43.84745134238361" lon="11.247050898781655"><ele>601.0</ele><time>2026-03-28T12:33:57.002Z</time></trkpt><trkpt lat="43.84734354961632" lon="11.246990444230931"><ele>600.0</ele><time>2026-03-28T12:33:59.002Z</time></trkpt><trkpt lat="43.84723387987852" lon="11.24692025685146"><ele>599.0</ele><time>2026-03-28T12:34:01.002Z</time></trkpt><trkpt lat="43.84712806835159" lon="11.246868174982113"><ele>599.0</ele><time>2026-03-28T12:34:03.002Z</time></trkpt><trkpt lat="43.84702473598304" lon="11.246815603274442"><ele>599.0</ele><time>2026-03-28T12:34:05.002Z</time></trkpt><trkpt lat="43.846919556734015" lon="11.246741864111778"><ele>599.0</ele><time>2026-03-28T12:34:07.002Z</time></trkpt><trkpt lat="43.8468151269698" lon="11.246688390952947"><ele>599.0</ele><time>2026-03-28T12:34:09.002Z</time></trkpt><trkpt lat="43.84671585059775" lon="11.246610600079403"><ele>601.2</ele><time>2026-03-28T12:34:11.002Z</time></trkpt><trkpt lat="43.846619131528044" lon="11.246524567139323"><ele>603.4</ele><time>2026-03-28T12:34:13.002Z</time></trkpt><trkpt lat="43.84653124225036" lon="11.246438302499863"><ele>605.6</ele><time>2026-03-28T12:34:15.002Z</time></trkpt><trkpt lat="43.846455145718515" lon="11.246348350775454"><ele>607.8</ele><time>2026-03-28T12:34:17.003Z</time></trkpt><trkpt lat="43.846385301341115" lon="11.246266751559682"><ele>610.0</ele><time>2026-03-28T12:34:19.003Z</time></trkpt><trkpt lat="43.84631277932606" lon="11.24618799215818"><ele>606.0</ele><time>2026-03-28T12:34:21.003Z</time></trkpt><trkpt lat="43.84624000901411" lon="11.246127441468536"><ele>602.0</ele><time>2026-03-28T12:34:23.003Z</time></trkpt><trkpt lat="43.84615578775853" lon="11.246069171615297"><ele>598.0</ele><time>2026-03-28T12:34:25.003Z</time></trkpt><trkpt lat="43.846057684278236" lon="11.2460199724422"><ele>594.0</ele><time>2026-03-28T12:34:27.003Z</time></trkpt><trkpt lat="43.84595457857596" lon="11.245980594731087"><ele>590.0</ele><time>2026-03-28T12:34:29.003Z</time></trkpt><trkpt lat="43.84584070619816" lon="11.24597013866014"><ele>590.0</ele><time>2026-03-28T12:34:31.003Z</time></trkpt><trkpt lat="43.84571936246502" lon="11.245980607382846"><ele>590.0</ele><time>2026-03-28T12:34:33.003Z</time></trkpt><trkpt lat="43.845656494683986" lon="11.245997471095714"><ele>590.0</ele><time>2026-03-28T12:34:34.003Z</time></trkpt><trkpt lat="43.84559402588528" lon="11.246011869453042"><ele>590.0</ele><time>2026-03-28T12:34:35.003Z</time></trkpt><trkpt lat="43.84553155578776" lon="11.246030716029924"><ele>590.0</ele><time>2026-03-28T12:34:36.003Z</time></trkpt><trkpt lat="43.845411728451474" lon="11.246074145420796"><ele>590.0</ele><time>2026-03-28T12:34:38.003Z</time></trkpt><trkpt lat="43.84535024210153" lon="11.246094665115073"><ele>590.0</ele><time>2026-03-28T12:34:39.003Z</time></trkpt><trkpt lat="43.845236874272835" lon="11.246142718966764"><ele>590.0</ele><time>2026-03-28T12:34:41.003Z</time></trkpt><trkpt lat="43.845113364211144" lon="11.246178420693612"><ele>590.0</ele><time>2026-03-28T12:34:43Z</time></trkpt><trkpt lat="43.84499902463908" lon="11.246209959760899"><ele>590.0</ele><time>2026-03-28T12:34:45Z</time></trkpt><trkpt lat="43.844888620984754" lon="11.246219625596115"><ele>590.5</ele><time>2026-03-28T12:34:47Z</time></trkpt><trkpt lat="43.8447732420533" lon="11.246234604232129"><ele>591.0</ele><time>2026-03-28T12:34:49Z</time></trkpt><trkpt lat="43.84465596032905" lon="11.24622516503806"><ele>591.5</ele><time>2026-03-28T12:34:51Z</time></trkpt><trkpt lat="43.84454057373852" lon="11.246216789188887"><ele>592.0</ele><time>2026-03-28T12:34:53Z</time></trkpt><trkpt lat="43.84442664597471" lon="11.246215136436694"><ele>592.0</ele><time>2026-03-28T12:34:55Z</time></trkpt><trkpt lat="43.84431260610786" lon="11.246208252957809"><ele>592.0</ele><time>2026-03-28T12:34:57Z</time></trkpt><trkpt lat="43.84419690390915" lon="11.246203399776691"><ele>592.0</ele><time>2026-03-28T12:34:59Z</time></trkpt><trkpt lat="43.84408140444652" lon="11.246198840933854"><ele>592.0</ele><time>2026-03-28T12:35:01Z</time></trkpt><trkpt lat="43.843961680702634" lon="11.24620403114438"><ele>591.0</ele><time>2026-03-28T12:35:03Z</time></trkpt><trkpt lat="43.8438456217279" lon="11.246192846148622"><ele>590.0</ele><time>2026-03-28T12:35:05Z</time></trkpt><trkpt lat="43.84378217704336" lon="11.246190656652344"><ele>589.0</ele><time>2026-03-28T12:35:06Z</time></trkpt><trkpt lat="43.84367025386985" lon="11.246178370342452"><ele>588.0</ele><time>2026-03-28T12:35:08.001Z</time></trkpt><trkpt lat="43.84354879242716" lon="11.246168548597248"><ele>587.0</ele><time>2026-03-28T12:35:10.001Z</time></trkpt><trkpt lat="43.84343628007231" lon="11.246159690827977"><ele>586.4</ele><time>2026-03-28T12:35:12.001Z</time></trkpt><trkpt lat="43.84332850806356" lon="11.246144158038764"><ele>585.8000000000001</ele><time>2026-03-28T12:35:14.001Z</time></trkpt><trkpt lat="43.843216942510644" lon="11.246143046416375"><ele>585.2</ele><time>2026-03-28T12:35:16.001Z</time></trkpt><trkpt lat="43.843105326871864" lon="11.246159327631519"><ele>584.6</ele><time>2026-03-28T12:35:18.001Z</time></trkpt><trkpt lat="43.842995474412746" lon="11.246194810570087"><ele>584.0</ele><time>2026-03-28T12:35:20.001Z</time></trkpt><trkpt lat="43.842891333665534" lon="11.246252860089154"><ele>584.0</ele><time>2026-03-28T12:35:22.001Z</time></trkpt><trkpt lat="43.84279269447696" lon="11.246326699923973"><ele>584.0</ele><time>2026-03-28T12:35:24.001Z</time></trkpt><trkpt lat="43.84270912770727" lon="11.24641929182963"><ele>584.0</ele><time>2026-03-28T12:35:26.001Z</time></trkpt><trkpt lat="43.842639404450416" lon="11.246517992637397"><ele>584.0</ele><time>2026-03-28T12:35:28.001Z</time></trkpt><trkpt lat="43.842578102638534" lon="11.246609298449728"><ele>584.0</ele><time>2026-03-28T12:35:30.001Z</time></trkpt><trkpt lat="43.842532076897925" lon="11.246718395081123"><ele>585.2</ele><time>2026-03-28T12:35:32.001Z</time></trkpt><trkpt lat="43.84248135454646" lon="11.246858051388584"><ele>586.4</ele><time>2026-03-28T12:35:34.001Z</time></trkpt><trkpt lat="43.84244492221317" lon="11.246986748798118"><ele>587.6</ele><time>2026-03-28T12:35:36.001Z</time></trkpt><trkpt lat="43.84242282361603" lon="11.247136998480283"><ele>588.8</ele><time>2026-03-28T12:35:38.001Z</time></trkpt><trkpt lat="43.84243243527747" lon="11.247299193890816"><ele>590.0</ele><time>2026-03-28T12:35:40.001Z</time></trkpt><trkpt lat="43.84244528708064" lon="11.247443226546496"><ele>592.25</ele><time>2026-03-28T12:35:42.001Z</time></trkpt><trkpt lat="43.842479378441695" lon="11.247575194843332"><ele>594.5</ele><time>2026-03-28T12:35:44.001Z</time></trkpt><trkpt lat="43.84250715880361" lon="11.247722989763988"><ele>596.75</ele><time>2026-03-28T12:35:46.002Z</time></trkpt><trkpt lat="43.84253619306399" lon="11.24786896363703"><ele>599.0</ele><time>2026-03-28T12:35:48.002Z</time></trkpt><trkpt lat="43.84259770504363" lon="11.248027853384158"><ele>604.0</ele><time>2026-03-28T12:35:50.002Z</time></trkpt><trkpt lat="43.84263991191048" lon="11.248196735049829"><ele>609.0</ele><time>2026-03-28T12:35:52.002Z</time></trkpt><trkpt lat="43.84269940191528" lon="11.2483173071255"><ele>614.0</ele><time>2026-03-28T12:35:54.002Z</time></trkpt><trkpt lat="43.84273163832266" lon="11.248394495312207"><ele>619.0</ele><time>2026-03-28T12:35:55.002Z</time></trkpt><trkpt lat="43.84277352172802" lon="11.248465154776163"><ele>624.0</ele><time>2026-03-28T12:35:56.002Z</time></trkpt><trkpt lat="43.84280969082534" lon="11.24857405758543"><ele>624.0</ele><time>2026-03-28T12:35:58.002Z</time></trkpt><trkpt lat="43.842868098666926" lon="11.248650719809643"><ele>624.0</ele><time>2026-03-28T12:35:59.002Z</time></trkpt><trkpt lat="43.84291048506087" lon="11.248793500946643"><ele>624.0</ele><time>2026-03-28T12:36:01.002Z</time></trkpt><trkpt lat="43.84296958553512" lon="11.248838358637958"><ele>624.0</ele><time>2026-03-28T12:36:02.002Z</time></trkpt><trkpt lat="43.84303460515299" lon="11.24896487149771"><ele>624.0</ele><time>2026-03-28T12:36:04.002Z</time></trkpt><trkpt lat="43.84311357517346" lon="11.249083672869977"><ele>621.2</ele><time>2026-03-28T12:36:06.002Z</time></trkpt><trkpt lat="43.84319970432717" lon="11.249208591843574"><ele>618.4</ele><time>2026-03-28T12:36:08.002Z</time></trkpt><trkpt lat="43.84327090197728" lon="11.249317767198642"><ele>615.6</ele><time>2026-03-28T12:36:10.002Z</time></trkpt><trkpt lat="43.843325017222575" lon="11.249413864969673"><ele>612.8</ele><time>2026-03-28T12:36:12.002Z</time></trkpt><trkpt lat="43.843347105081506" lon="11.249496601470996"><ele>610.0</ele><time>2026-03-28T12:36:15.002Z</time></trkpt><trkpt lat="43.8434142553298" lon="11.24957016807768"><ele>610.75</ele><time>2026-03-28T12:36:17.002Z</time></trkpt><trkpt lat="43.84347417729956" lon="11.24965633111616"><ele>611.5</ele><time>2026-03-28T12:36:20.003Z</time></trkpt><trkpt lat="43.84352009568723" lon="11.249729881709165"><ele>612.25</ele><time>2026-03-28T12:36:21.003Z</time></trkpt><trkpt lat="43.84359258866147" lon="11.24980082306925"><ele>613.0</ele><time>2026-03-28T12:36:23.003Z</time></trkpt><trkpt lat="43.84385771005603" lon="11.250063949527057"><ele>613.0</ele><time>2026-03-28T12:36:25.003Z</time></trkpt><trkpt lat="43.84394633532238" lon="11.250148418491088"><ele>613.0</ele><time>2026-03-28T12:36:27.003Z</time></trkpt><trkpt lat="43.844021285400224" lon="11.250213094581795"><ele>613.0</ele><time>2026-03-28T12:36:29.003Z</time></trkpt><trkpt lat="43.84412609738989" lon="11.250301881495908"><ele>613.0</ele><time>2026-03-28T12:36:31.003Z</time></trkpt><trkpt lat="43.84422345321249" lon="11.250387796082101"><ele>613.0</ele><time>2026-03-28T12:36:33.003Z</time></trkpt><trkpt lat="43.84431856289358" lon="11.250470773291852"><ele>614.0</ele><time>2026-03-28T12:36:35.003Z</time></trkpt><trkpt lat="43.844420435592845" lon="11.250524011540563"><ele>615.0</ele><time>2026-03-28T12:36:37.003Z</time></trkpt><trkpt lat="43.844537648606064" lon="11.250541008303781"><ele>616.0</ele><time>2026-03-28T12:36:39.003Z</time></trkpt><trkpt lat="43.84465139934065" lon="11.250515457197531"><ele>617.0</ele><time>2026-03-28T12:36:41.003Z</time></trkpt><trkpt lat="43.84474865589759" lon="11.250458581031465"><ele>618.0</ele><time>2026-03-28T12:36:43.003Z</time></trkpt><trkpt lat="43.84480903754181" lon="11.250408538829793"><ele>618.0</ele><time>2026-03-28T12:36:44.003Z</time></trkpt><trkpt lat="43.84488662972556" lon="11.25026008392197"><ele>618.0</ele><time>2026-03-28T12:36:46.003Z</time></trkpt><trkpt lat="43.84497950220122" lon="11.250140460960484"><ele>618.0</ele><time>2026-03-28T12:36:48.002Z</time></trkpt><trkpt lat="43.84510195983936" lon="11.250132140857076"><ele>618.0</ele><time>2026-03-28T12:36:50.001Z</time></trkpt><trkpt lat="43.84522792223519" lon="11.250164934492034"><ele>618.4</ele><time>2026-03-28T12:36:52.001Z</time></trkpt><trkpt lat="43.84529921064218" lon="11.25017987179323"><ele>618.8</ele><time>2026-03-28T12:36:53.001Z</time></trkpt><trkpt lat="43.84542276783532" lon="11.250200582021396"><ele>619.2</ele><time>2026-03-28T12:36:55.001Z</time></trkpt><trkpt lat="43.845539031500586" lon="11.250222355092525"><ele>619.6</ele><time>2026-03-28T12:36:57.001Z</time></trkpt><trkpt lat="43.84564567339274" lon="11.250278456451746"><ele>620.0</ele><time>2026-03-28T12:36:59.001Z</time></trkpt><trkpt lat="43.84573887193573" lon="11.250324348277616"><ele>620.0</ele><time>2026-03-28T12:37:01.001Z</time></trkpt><trkpt lat="43.84585048187765" lon="11.250412409395699"><ele>620.0</ele><time>2026-03-28T12:37:03.001Z</time></trkpt><trkpt lat="43.845939513686226" lon="11.250505718545229"><ele>620.0</ele><time>2026-03-28T12:37:05.001Z</time></trkpt><trkpt lat="43.84603443678762" lon="11.25060096640618"><ele>620.0</ele><time>2026-03-28T12:37:07.001Z</time></trkpt><trkpt lat="43.846096925652844" lon="11.250722789930643"><ele>619.0</ele><time>2026-03-28T12:37:09.001Z</time></trkpt><trkpt lat="43.846139648960765" lon="11.250838270166774"><ele>618.0</ele><time>2026-03-28T12:37:11.001Z</time></trkpt><trkpt lat="43.84618850896949" lon="11.250947704084059"><ele>617.0</ele><time>2026-03-28T12:37:13.001Z</time></trkpt><trkpt lat="43.84624732897281" lon="11.25105626365975"><ele>616.0</ele><time>2026-03-28T12:37:15.001Z</time></trkpt><trkpt lat="43.84630000178585" lon="11.251115620732634"><ele>615.0</ele><time>2026-03-28T12:37:16Z</time></trkpt><trkpt lat="43.8463961562034" lon="11.251230948483869"><ele>615.0</ele><time>2026-03-28T12:37:19.001Z</time></trkpt><trkpt lat="43.84643793153905" lon="11.251301385250235"><ele>615.0</ele><time>2026-03-28T12:37:22.001Z</time></trkpt><trkpt lat="43.84648721844859" lon="11.251389679423637"><ele>615.0</ele><time>2026-03-28T12:37:25.001Z</time></trkpt><trkpt lat="43.84651711762142" lon="11.251475407755377"><ele>615.0</ele><time>2026-03-28T12:37:27.001Z</time></trkpt><trkpt lat="43.84651427755756" lon="11.251591102637377"><ele>615.0</ele><time>2026-03-28T12:37:30.001Z</time></trkpt><trkpt lat="43.84652992447271" lon="11.251680830520169"><ele>615.0</ele><time>2026-03-28T12:37:32.001Z</time></trkpt><trkpt lat="43.84655825258927" lon="11.25179512770174"><ele>613.5</ele><time>2026-03-28T12:37:34.001Z</time></trkpt><trkpt lat="43.8465953596692" lon="11.251897618337464"><ele>612.0</ele><time>2026-03-28T12:37:36.001Z</time></trkpt><trkpt lat="43.84687450592817" lon="11.252491267579973"><ele>612.0</ele><time>2026-03-28T12:37:38.001Z</time></trkpt><trkpt lat="43.84697148800986" lon="11.25260770104665"><ele>612.0</ele><time>2026-03-28T12:37:40.001Z</time></trkpt><trkpt lat="43.84704441676917" lon="11.252700039564932"><ele>612.0</ele><time>2026-03-28T12:37:42.001Z</time></trkpt><trkpt lat="43.84713189085307" lon="11.252786355129858"><ele>612.0</ele><time>2026-03-28T12:37:44.001Z</time></trkpt><trkpt lat="43.84720128282916" lon="11.252872737527884"><ele>612.0</ele><time>2026-03-28T12:37:46.001Z</time></trkpt><trkpt lat="43.847260247825496" lon="11.252965702566533"><ele>612.0</ele><time>2026-03-28T12:37:48.001Z</time></trkpt><trkpt lat="43.847337825610246" lon="11.253054017270154"><ele>612.0</ele><time>2026-03-28T12:37:50.001Z</time></trkpt><trkpt lat="43.84739932158582" lon="11.253152743999504"><ele>612.0</ele><time>2026-03-28T12:37:52.001Z</time></trkpt><trkpt lat="43.84735966799805" lon="11.253067973701954"><ele>612.0</ele><time>2026-03-28T12:37:53.001Z</time></trkpt><trkpt lat="43.84739316849409" lon="11.253157854591601"><ele>612.0</ele><time>2026-03-28T12:37:56.001Z</time></trkpt><trkpt lat="43.84744171053736" lon="11.253217510433801"><ele>612.0</ele><time>2026-03-28T12:37:58.001Z</time></trkpt><trkpt lat="43.84750963444602" lon="11.25325834003355"><ele>609.0</ele><time>2026-03-28T12:37:59.001Z</time></trkpt><trkpt lat="43.84771337442977" lon="11.253456452468608"><ele>606.0</ele><time>2026-03-28T12:38:03.001Z</time></trkpt><trkpt lat="43.84794874056809" lon="11.253574799501582"><ele>606.0</ele><time>2026-03-28T12:38:04.001Z</time></trkpt><trkpt lat="43.84804062471874" lon="11.253601211311683"><ele>606.0</ele><time>2026-03-28T12:38:06.001Z</time></trkpt><trkpt lat="43.848137524807" lon="11.253610431774275"><ele>606.0</ele><time>2026-03-28T12:38:08.001Z</time></trkpt><trkpt lat="43.848240400789216" lon="11.253635937092895"><ele>606.0</ele><time>2026-03-28T12:38:10.001Z</time></trkpt><trkpt lat="43.84848135768508" lon="11.253626267102991"><ele>606.8</ele><time>2026-03-28T12:38:15.001Z</time></trkpt><trkpt lat="43.84859030343249" lon="11.253647623615993"><ele>607.6</ele><time>2026-03-28T12:38:17.001Z</time></trkpt><trkpt lat="43.84868786638454" lon="11.253685326487878"><ele>608.4</ele><time>2026-03-28T12:38:19.001Z</time></trkpt><trkpt lat="43.848780274535216" lon="11.253686799002182"><ele>609.2</ele><time>2026-03-28T12:38:21.001Z</time></trkpt><trkpt lat="43.848914481170254" lon="11.25369533497847"><ele>610.0</ele><time>2026-03-28T12:38:24.001Z</time></trkpt><trkpt lat="43.84899948564302" lon="11.253716837849684"><ele>610.0</ele><time>2026-03-28T12:38:28.001Z</time></trkpt><trkpt lat="43.84907852921023" lon="11.25371291971193"><ele>610.0</ele><time>2026-03-28T12:38:29.001Z</time></trkpt><trkpt lat="43.8491642883771" lon="11.253673910377543"><ele>610.0</ele><time>2026-03-28T12:38:31.001Z</time></trkpt><trkpt lat="43.849245874716175" lon="11.25365068785589"><ele>610.0</ele><time>2026-03-28T12:38:33.001Z</time></trkpt><trkpt lat="43.84935721535356" lon="11.253609245693925"><ele>610.0</ele><time>2026-03-28T12:38:35.002Z</time></trkpt><trkpt lat="43.84944267671176" lon="11.253587239646626"><ele>609.6</ele><time>2026-03-28T12:38:37.002Z</time></trkpt><trkpt lat="43.84955388608279" lon="11.253567571180959"><ele>609.2</ele><time>2026-03-28T12:38:40.002Z</time></trkpt><trkpt lat="43.84966917715886" lon="11.253555265889515"><ele>608.8</ele><time>2026-03-28T12:38:42.002Z</time></trkpt><trkpt lat="43.84979498566733" lon="11.253555215604337"><ele>608.4</ele><time>2026-03-28T12:38:43.002Z</time></trkpt><trkpt lat="43.84987215816682" lon="11.253563568662704"><ele>608.0</ele><time>2026-03-28T12:38:44.002Z</time></trkpt><trkpt lat="43.8499596500829" lon="11.253575162971774"><ele>608.0</ele><time>2026-03-28T12:38:45.002Z</time></trkpt><trkpt lat="43.85004445015028" lon="11.25358899191641"><ele>608.0</ele><time>2026-03-28T12:38:46.002Z</time></trkpt><trkpt lat="43.85012737734341" lon="11.253607140993196"><ele>608.0</ele><time>2026-03-28T12:38:47.002Z</time></trkpt><trkpt lat="43.850201290793734" lon="11.253630168575363"><ele>608.0</ele><time>2026-03-28T12:38:48.002Z</time></trkpt><trkpt lat="43.850268444184415" lon="11.253655022875408"><ele>608.0</ele><time>2026-03-28T12:38:49.002Z</time></trkpt><trkpt lat="43.850340312261956" lon="11.253714575788544"><ele>608.0</ele><time>2026-03-28T12:38:50.002Z</time></trkpt><trkpt lat="43.850406170296914" lon="11.253767234869539"><ele>607.7142857142857</ele><time>2026-03-28T12:38:51.002Z</time></trkpt><trkpt lat="43.850470844270916" lon="11.253819852453924"><ele>607.4285714285714</ele><time>2026-03-28T12:38:52.002Z</time></trkpt><trkpt lat="43.8505348668238" lon="11.253873458495228"><ele>607.1428571428571</ele><time>2026-03-28T12:38:53.002Z</time></trkpt><trkpt lat="43.850595990410795" lon="11.25392468314471"><ele>606.8571428571429</ele><time>2026-03-28T12:38:53.998Z</time></trkpt><trkpt lat="43.850650566884134" lon="11.253996645308534"><ele>606.5714285714286</ele><time>2026-03-28T12:38:54.998Z</time></trkpt><trkpt lat="43.850715074720945" lon="11.254044056999973"><ele>606.2857142857143</ele><time>2026-03-28T12:38:55.998Z</time></trkpt><trkpt lat="43.85076913597649" lon="11.254090240113657"><ele>606.0</ele><time>2026-03-28T12:38:56.998Z</time></trkpt><trkpt lat="43.850834630404144" lon="11.254122531346994"><ele>602.8333333333334</ele><time>2026-03-28T12:38:57.998Z</time></trkpt><trkpt lat="43.85089763401708" lon="11.254151280188045"><ele>599.6666666666666</ele><time>2026-03-28T12:38:58.998Z</time></trkpt><trkpt lat="43.851018560744535" lon="11.254215267973434"><ele>596.5</ele><time>2026-03-28T12:39:00.998Z</time></trkpt><trkpt lat="43.85108425759282" lon="11.254242529135288"><ele>593.3333333333333</ele><time>2026-03-28T12:39:01.998Z</time></trkpt><trkpt lat="43.85114665232192" lon="11.254266099755192"><ele>590.1666666666666</ele><time>2026-03-28T12:39:02.998Z</time></trkpt><trkpt lat="43.8512127841575" lon="11.254294797583096"><ele>587.0</ele><time>2026-03-28T12:39:03.998Z</time></trkpt><trkpt lat="43.851275283851336" lon="11.254326726193113"><ele>587.0</ele><time>2026-03-28T12:39:04.999Z</time></trkpt><trkpt lat="43.85133695909596" lon="11.254358504785634"><ele>587.0</ele><time>2026-03-28T12:39:05.999Z</time></trkpt><trkpt lat="43.85140205504181" lon="11.254381116813953"><ele>587.0</ele><time>2026-03-28T12:39:06.999Z</time></trkpt><trkpt lat="43.85146505193071" lon="11.254400591764787"><ele>587.0</ele><time>2026-03-28T12:39:07.999Z</time></trkpt><trkpt lat="43.85157317006753" lon="11.254474505512144"><ele>587.0</ele><time>2026-03-28T12:39:09.999Z</time></trkpt><trkpt lat="43.85167777913583" lon="11.25454829947765"><ele>587.0</ele><time>2026-03-28T12:39:11.999Z</time></trkpt><trkpt lat="43.85177222552374" lon="11.254615508313398"><ele>587.0</ele><time>2026-03-28T12:39:13.999Z</time></trkpt><trkpt lat="43.8518573561259" lon="11.254687825486588"><ele>587.0</ele><time>2026-03-28T12:39:15.999Z</time></trkpt><trkpt lat="43.851953922070386" lon="11.254755111196058"><ele>587.0</ele><time>2026-03-28T12:39:17.999Z</time></trkpt><trkpt lat="43.85204758053826" lon="11.254829975286254"><ele>587.0</ele><time>2026-03-28T12:39:20Z</time></trkpt><trkpt lat="43.852152364148175" lon="11.254894463494796"><ele>587.0</ele><time>2026-03-28T12:39:22Z</time></trkpt><trkpt lat="43.85225236973015" lon="11.25499459086433"><ele>587.0</ele><time>2026-03-28T12:39:24Z</time></trkpt><trkpt lat="43.852358711779395" lon="11.255075800745773"><ele>587.0</ele><time>2026-03-28T12:39:26Z</time></trkpt><trkpt lat="43.8524621357826" lon="11.255153650890126"><ele>587.0</ele><time>2026-03-28T12:39:28Z</time></trkpt><trkpt lat="43.852564132598744" lon="11.255221443860068"><ele>587.0</ele><time>2026-03-28T12:39:30Z</time></trkpt><trkpt lat="43.85267036083309" lon="11.25530053128567"><ele>595.75</ele><time>2026-03-28T12:39:32Z</time></trkpt><trkpt lat="43.85277606052305" lon="11.255395106616408"><ele>604.5</ele><time>2026-03-28T12:39:34Z</time></trkpt><trkpt lat="43.85288484090305" lon="11.255480478917864"><ele>613.25</ele><time>2026-03-28T12:39:36Z</time></trkpt><trkpt lat="43.85298583947798" lon="11.255549318346349"><ele>622.0</ele><time>2026-03-28T12:39:38Z</time></trkpt><trkpt lat="43.85308286213596" lon="11.255603801929135"><ele>619.6666666666667</ele><time>2026-03-28T12:39:40Z</time></trkpt><trkpt lat="43.85318635821773" lon="11.255676878812157"><ele>617.3333333333334</ele><time>2026-03-28T12:39:42.001Z</time></trkpt><trkpt lat="43.85324412032696" lon="11.255747127536619"><ele>615.0</ele><time>2026-03-28T12:39:45.001Z</time></trkpt><trkpt lat="43.85329984014796" lon="11.255813514117305"><ele>612.6666666666666</ele><time>2026-03-28T12:39:48.001Z</time></trkpt><trkpt lat="43.85335545844508" lon="11.255889925796371"><ele>610.3333333333333</ele><time>2026-03-28T12:39:50.001Z</time></trkpt><trkpt lat="43.853430499004986" lon="11.255970204683909"><ele>608.0</ele><time>2026-03-28T12:39:52.001Z</time></trkpt><trkpt lat="43.85346211476701" lon="11.25604817569962"><ele>608.0</ele><time>2026-03-28T12:39:54.001Z</time></trkpt><trkpt lat="43.853928737639556" lon="11.256382612184474"><ele>608.0</ele><time>2026-03-28T12:39:57.001Z</time></trkpt><trkpt lat="43.85403822488493" lon="11.256397133412142"><ele>608.0</ele><time>2026-03-28T12:39:59.001Z</time></trkpt><trkpt lat="43.854153134043415" lon="11.256401563381953"><ele>608.0</ele><time>2026-03-28T12:40:01.001Z</time></trkpt><trkpt lat="43.85422547891925" lon="11.256396570987098"><ele>608.0</ele><time>2026-03-28T12:40:02.001Z</time></trkpt><trkpt lat="43.85430819335938" lon="11.256425203429357"><ele>608.0</ele><time>2026-03-28T12:40:03.001Z</time></trkpt><trkpt lat="43.854389096566855" lon="11.256468249683266"><ele>605.3333333333333</ele><time>2026-03-28T12:40:04.001Z</time></trkpt><trkpt lat="43.85445515222133" lon="11.256479228810372"><ele>602.6666666666666</ele><time>2026-03-28T12:40:05.001Z</time></trkpt><trkpt lat="43.854521710704404" lon="11.256552237917958"><ele>600.0</ele><time>2026-03-28T12:40:06.001Z</time></trkpt><trkpt lat="43.8545717043461" lon="11.256635213358662"><ele>597.3333333333334</ele><time>2026-03-28T12:40:07.001Z</time></trkpt><trkpt lat="43.854638814525785" lon="11.256691553409334"><ele>594.6666666666667</ele><time>2026-03-28T12:40:08.001Z</time></trkpt><trkpt lat="43.85467778058529" lon="11.256763818274534"><ele>592.0</ele><time>2026-03-28T12:40:09.001Z</time></trkpt><trkpt lat="43.85478466670615" lon="11.256863776811123"><ele>592.0</ele><time>2026-03-28T12:40:11.001Z</time></trkpt><trkpt lat="43.854837954089" lon="11.256911986508179"><ele>592.0</ele><time>2026-03-28T12:40:12.001Z</time></trkpt><trkpt lat="43.854888447212105" lon="11.256977965567614"><ele>592.0</ele><time>2026-03-28T12:40:13.001Z</time></trkpt><trkpt lat="43.85494215845751" lon="11.25702506701348"><ele>592.0</ele><time>2026-03-28T12:40:14.001Z</time></trkpt><trkpt lat="43.85499645950365" lon="11.257078460928257"><ele>592.0</ele><time>2026-03-28T12:40:15.001Z</time></trkpt><trkpt lat="43.85507677700703" lon="11.25718723915486"><ele>592.0</ele><time>2026-03-28T12:40:17.002Z</time></trkpt><trkpt lat="43.85511493936781" lon="11.257260233750722"><ele>592.0</ele><time>2026-03-28T12:40:18.002Z</time></trkpt><trkpt lat="43.855136825281974" lon="11.257381615903146"><ele>596.2</ele><time>2026-03-28T12:40:20.002Z</time></trkpt><trkpt lat="43.85515677757676" lon="11.257470323635351"><ele>600.4000000000001</ele><time>2026-03-28T12:40:21.002Z</time></trkpt><trkpt lat="43.85516729607605" lon="11.257633535783114"><ele>604.5999999999999</ele><time>2026-03-28T12:40:23.002Z</time></trkpt><trkpt lat="43.855169828856965" lon="11.257795577540021"><ele>608.8</ele><time>2026-03-28T12:40:25.002Z</time></trkpt><trkpt lat="43.85519210792196" lon="11.257939039540693"><ele>613.0</ele><time>2026-03-28T12:40:27.002Z</time></trkpt><trkpt lat="43.855244954690605" lon="11.25804364759952"><ele>611.1666666666667</ele><time>2026-03-28T12:40:29.002Z</time></trkpt><trkpt lat="43.85528814332529" lon="11.258120822993298"><ele>609.3333333333334</ele><time>2026-03-28T12:40:30.002Z</time></trkpt><trkpt lat="43.855339550385004" lon="11.258193674043607"><ele>607.5</ele><time>2026-03-28T12:40:31.002Z</time></trkpt><trkpt lat="43.85542093303648" lon="11.258312234342304"><ele>605.6666666666666</ele><time>2026-03-28T12:40:33.002Z</time></trkpt><trkpt lat="43.85546914220075" lon="11.25838129205016"><ele>603.8333333333333</ele><time>2026-03-28T12:40:34.002Z</time></trkpt><trkpt lat="43.85549893317409" lon="11.25846064933026"><ele>602.0</ele><time>2026-03-28T12:40:35.002Z</time></trkpt><trkpt lat="43.85552633852896" lon="11.258550734773507"><ele>602.0</ele><time>2026-03-28T12:40:36.002Z</time></trkpt><trkpt lat="43.85555157671981" lon="11.25864838088367"><ele>602.0</ele><time>2026-03-28T12:40:37.002Z</time></trkpt><trkpt lat="43.85560935166797" lon="11.25880256940081"><ele>602.0</ele><time>2026-03-28T12:40:39.002Z</time></trkpt><trkpt lat="43.85568268118295" lon="11.258957620366717"><ele>602.0</ele><time>2026-03-28T12:40:41.002Z</time></trkpt><trkpt lat="43.8557704826777" lon="11.259084577456132"><ele>599.5714285714286</ele><time>2026-03-28T12:40:43.002Z</time></trkpt><trkpt lat="43.85580711437691" lon="11.259155628840425"><ele>597.1428571428571</ele><time>2026-03-28T12:40:44.002Z</time></trkpt><trkpt lat="43.85584242364625" lon="11.25924308952076"><ele>594.7142857142858</ele><time>2026-03-28T12:40:45.002Z</time></trkpt><trkpt lat="43.855845503654095" lon="11.259348020202129"><ele>592.2857142857142</ele><time>2026-03-28T12:40:46.002Z</time></trkpt><trkpt lat="43.855840798827835" lon="11.259436214033608"><ele>589.8571428571429</ele><time>2026-03-28T12:40:47.002Z</time></trkpt><trkpt lat="43.855868341553936" lon="11.25954295114628"><ele>587.4285714285714</ele><time>2026-03-28T12:40:48.002Z</time></trkpt><trkpt lat="43.85588290286211" lon="11.259656388828297"><ele>585.0</ele><time>2026-03-28T12:40:49.002Z</time></trkpt><trkpt lat="43.85590528289192" lon="11.259739953325143"><ele>583.0</ele><time>2026-03-28T12:40:50.002Z</time></trkpt><trkpt lat="43.85592593884363" lon="11.259829042865984"><ele>581.0</ele><time>2026-03-28T12:40:51.002Z</time></trkpt><trkpt lat="43.85593972288592" lon="11.259930086870938"><ele>579.0</ele><time>2026-03-28T12:40:52.002Z</time></trkpt><trkpt lat="43.85596840855537" lon="11.260030571769981"><ele>577.0</ele><time>2026-03-28T12:40:53.002Z</time></trkpt><trkpt lat="43.85599773783889" lon="11.260110239847588"><ele>575.0</ele><time>2026-03-28T12:40:54.002Z</time></trkpt><trkpt lat="43.85601329220322" lon="11.260195495128642"><ele>573.0</ele><time>2026-03-28T12:40:55.002Z</time></trkpt><trkpt lat="43.85605588144221" lon="11.260378149216931"><ele>576.1666666666666</ele><time>2026-03-28T12:40:57.003Z</time></trkpt><trkpt lat="43.85611643425596" lon="11.260481188452243"><ele>579.3333333333334</ele><time>2026-03-28T12:40:59.003Z</time></trkpt><trkpt lat="43.85615869042954" lon="11.260548166726823"><ele>582.5</ele><time>2026-03-28T12:41:00.001Z</time></trkpt><trkpt lat="43.856236693039996" lon="11.260674307023892"><ele>585.6666666666667</ele><time>2026-03-28T12:41:02.001Z</time></trkpt><trkpt lat="43.8562845275669" lon="11.260733123984743"><ele>588.8333333333334</ele><time>2026-03-28T12:41:03.001Z</time></trkpt><trkpt lat="43.85632936259037" lon="11.260802553170983"><ele>592.0</ele><time>2026-03-28T12:41:04.001Z</time></trkpt><trkpt lat="43.85638278137246" lon="11.260870144218133"><ele>592.0</ele><time>2026-03-28T12:41:05.001Z</time></trkpt><trkpt lat="43.856432120677596" lon="11.260932500048071"><ele>592.0</ele><time>2026-03-28T12:41:06.001Z</time></trkpt><trkpt lat="43.856484671968204" lon="11.260982366423455"><ele>592.0</ele><time>2026-03-28T12:41:07.001Z</time></trkpt><trkpt lat="43.85653729617434" lon="11.26105469455675"><ele>592.0</ele><time>2026-03-28T12:41:08.001Z</time></trkpt><trkpt lat="43.85659870539195" lon="11.26111450751787"><ele>592.0</ele><time>2026-03-28T12:41:09.001Z</time></trkpt><trkpt lat="43.85664674983798" lon="11.26117568367788"><ele>592.0</ele><time>2026-03-28T12:41:10.001Z</time></trkpt><trkpt lat="43.85669497951937" lon="11.261245043001331"><ele>592.0</ele><time>2026-03-28T12:41:11.001Z</time></trkpt><trkpt lat="43.85673426938515" lon="11.261313330184935"><ele>593.2</ele><time>2026-03-28T12:41:12.001Z</time></trkpt><trkpt lat="43.85679566375806" lon="11.261444635377453"><ele>594.4000000000001</ele><time>2026-03-28T12:41:14.001Z</time></trkpt><trkpt lat="43.856822608643526" lon="11.261524540569258"><ele>595.5999999999999</ele><time>2026-03-28T12:41:15.001Z</time></trkpt><trkpt lat="43.85690720417633" lon="11.261632617797291"><ele>596.8</ele><time>2026-03-28T12:41:17.001Z</time></trkpt><trkpt lat="43.856982002624825" lon="11.261760999253914"><ele>598.0</ele><time>2026-03-28T12:41:19.001Z</time></trkpt><trkpt lat="43.857045622875184" lon="11.26188091980585"><ele>598.0</ele><time>2026-03-28T12:41:21.001Z</time></trkpt><trkpt lat="43.85711314527893" lon="11.2619949168306"><ele>598.0</ele><time>2026-03-28T12:41:23.001Z</time></trkpt><trkpt lat="43.857164826177225" lon="11.26213763557476"><ele>598.0</ele><time>2026-03-28T12:41:25.001Z</time></trkpt><trkpt lat="43.85719205189541" lon="11.262286195717238"><ele>598.0</ele><time>2026-03-28T12:41:27.001Z</time></trkpt><trkpt lat="43.85720701483251" lon="11.262428278254351"><ele>598.0</ele><time>2026-03-28T12:41:29.001Z</time></trkpt><trkpt lat="43.857224500403625" lon="11.2625134081407"><ele>594.0</ele><time>2026-03-28T12:41:30.001Z</time></trkpt><trkpt lat="43.857267747517234" lon="11.262636115583243"><ele>590.0</ele><time>2026-03-28T12:41:32.001Z</time></trkpt><trkpt lat="43.857351119089884" lon="11.262746899422307"><ele>586.0</ele><time>2026-03-28T12:41:34.001Z</time></trkpt><trkpt lat="43.85743286199565" lon="11.262827889012042"><ele>582.0</ele><time>2026-03-28T12:41:36.001Z</time></trkpt><trkpt lat="43.85755256713016" lon="11.262902590988759"><ele>578.0</ele><time>2026-03-28T12:41:38.001Z</time></trkpt><trkpt lat="43.857618476373275" lon="11.262938233765302"><ele>578.1666666666666</ele><time>2026-03-28T12:41:39.001Z</time></trkpt><trkpt lat="43.85769161586144" lon="11.26294787432841"><ele>578.3333333333333</ele><time>2026-03-28T12:41:40.001Z</time></trkpt><trkpt lat="43.85777309849125" lon="11.262947087483694"><ele>578.5</ele><time>2026-03-28T12:41:41.001Z</time></trkpt><trkpt lat="43.857839926887856" lon="11.262947307296926"><ele>578.6666666666666</ele><time>2026-03-28T12:41:42.001Z</time></trkpt><trkpt lat="43.85790791154178" lon="11.26293602113796"><ele>578.8333333333334</ele><time>2026-03-28T12:41:43.001Z</time></trkpt><trkpt lat="43.8579862328442" lon="11.262910000210995"><ele>579.0</ele><time>2026-03-28T12:41:44.001Z</time></trkpt><trkpt lat="43.85810859982571" lon="11.262835487125658"><ele>579.0</ele><time>2026-03-28T12:41:46.001Z</time></trkpt><trkpt lat="43.85817884081139" lon="11.262788050505028"><ele>579.0</ele><time>2026-03-28T12:41:47.001Z</time></trkpt><trkpt lat="43.85823633610066" lon="11.262745910172365"><ele>579.0</ele><time>2026-03-28T12:41:48.001Z</time></trkpt><trkpt lat="43.85830863303357" lon="11.262711037720576"><ele>579.0</ele><time>2026-03-28T12:41:49.001Z</time></trkpt><trkpt lat="43.85837972091829" lon="11.262670778337432"><ele>579.0</ele><time>2026-03-28T12:41:50.001Z</time></trkpt><trkpt lat="43.858453155114326" lon="11.26263110003196"><ele>579.0</ele><time>2026-03-28T12:41:51.001Z</time></trkpt><trkpt lat="43.85852394210687" lon="11.262594022346734"><ele>575.5</ele><time>2026-03-28T12:41:52.001Z</time></trkpt><trkpt lat="43.85860284341012" lon="11.262594807372803"><ele>572.0</ele><time>2026-03-28T12:41:53.001Z</time></trkpt><trkpt lat="43.858679429767946" lon="11.262632387231823"><ele>568.5</ele><time>2026-03-28T12:41:54.001Z</time></trkpt><trkpt lat="43.85874753989035" lon="11.262706784355313"><ele>565.0</ele><time>2026-03-28T12:41:55.001Z</time></trkpt><trkpt lat="43.85879633049411" lon="11.262813404536638"><ele>561.5</ele><time>2026-03-28T12:41:56.001Z</time></trkpt><trkpt lat="43.85881775828297" lon="11.262932010104906"><ele>558.0</ele><time>2026-03-28T12:41:57.001Z</time></trkpt><trkpt lat="43.858815983440614" lon="11.263038179412494"><ele>559.0</ele><time>2026-03-28T12:41:58.001Z</time></trkpt><trkpt lat="43.85879340484054" lon="11.263123533004492"><ele>560.0</ele><time>2026-03-28T12:41:59.001Z</time></trkpt><trkpt lat="43.85873260864735" lon="11.263252224129008"><ele>561.0</ele><time>2026-03-28T12:42:01.001Z</time></trkpt><trkpt lat="43.858717668291135" lon="11.26339015893318"><ele>562.0</ele><time>2026-03-28T12:42:03.001Z</time></trkpt><trkpt lat="43.85871553485904" lon="11.263543542791494"><ele>563.0</ele><time>2026-03-28T12:42:05.001Z</time></trkpt><trkpt lat="43.85875220678719" lon="11.263722509751492"><ele>563.0</ele><time>2026-03-28T12:42:07.002Z</time></trkpt><trkpt lat="43.858763249607584" lon="11.263873045446639"><ele>563.0</ele><time>2026-03-28T12:42:09.002Z</time></trkpt><trkpt lat="43.85881483447257" lon="11.26403930631582"><ele>563.0</ele><time>2026-03-28T12:42:11.002Z</time></trkpt><trkpt lat="43.858846337932135" lon="11.264131890018817"><ele>563.0</ele><time>2026-03-28T12:42:12.002Z</time></trkpt><trkpt lat="43.858864027355935" lon="11.26421625671525"><ele>563.0</ele><time>2026-03-28T12:42:13.002Z</time></trkpt><trkpt lat="43.85887834407045" lon="11.264317205410576"><ele>562.6</ele><time>2026-03-28T12:42:14.002Z</time></trkpt><trkpt lat="43.85891586348358" lon="11.264488255350797"><ele>562.1999999999999</ele><time>2026-03-28T12:42:16.002Z</time></trkpt><trkpt lat="43.85894247035568" lon="11.26457236015476"><ele>561.8</ele><time>2026-03-28T12:42:17.002Z</time></trkpt><trkpt lat="43.858980849951664" lon="11.264702863849513"><ele>561.4</ele><time>2026-03-28T12:42:19.002Z</time></trkpt><trkpt lat="43.85902697729142" lon="11.264818125107968"><ele>561.0</ele><time>2026-03-28T12:42:21.002Z</time></trkpt><trkpt lat="43.85907457600075" lon="11.264882573535216"><ele>561.0</ele><time>2026-03-28T12:42:22.002Z</time></trkpt><trkpt lat="43.859135266314325" lon="11.264978415510505"><ele>561.0</ele><time>2026-03-28T12:42:24.002Z</time></trkpt><trkpt lat="43.85916334318377" lon="11.265075501213786"><ele>561.0</ele><time>2026-03-28T12:42:26.002Z</time></trkpt><trkpt lat="43.85923081450841" lon="11.265176396343158"><ele>561.0</ele><time>2026-03-28T12:42:28.002Z</time></trkpt><trkpt lat="43.85930838324147" lon="11.265292770275552"><ele>561.0</ele><time>2026-03-28T12:42:30.002Z</time></trkpt><trkpt lat="43.85938944930477" lon="11.265419579092052"><ele>564.3333333333334</ele><time>2026-03-28T12:42:32.002Z</time></trkpt><trkpt lat="43.85943572449623" lon="11.265555262088887"><ele>567.6666666666667</ele><time>2026-03-28T12:42:36.002Z</time></trkpt><trkpt lat="43.85946173218114" lon="11.26567200581983"><ele>571.0</ele><time>2026-03-28T12:42:38.002Z</time></trkpt><trkpt lat="43.85977834867792" lon="11.266033317899305"><ele>571.0</ele><time>2026-03-28T12:42:41.002Z</time></trkpt><trkpt lat="43.85982310017001" lon="11.266106851823357"><ele>571.0</ele><time>2026-03-28T12:42:42.002Z</time></trkpt><trkpt lat="43.859883131823615" lon="11.266244005449723"><ele>571.0</ele><time>2026-03-28T12:42:44.002Z</time></trkpt><trkpt lat="43.85994827711928" lon="11.266368266789565"><ele>571.0</ele><time>2026-03-28T12:42:46.002Z</time></trkpt><trkpt lat="43.860005320201005" lon="11.266496203366303"><ele>571.0</ele><time>2026-03-28T12:42:48.002Z</time></trkpt><trkpt lat="43.86000167079285" lon="11.266593941572262"><ele>568.5</ele><time>2026-03-28T12:42:49.003Z</time></trkpt><trkpt lat="43.85997376156152" lon="11.266758927884528"><ele>566.0</ele><time>2026-03-28T12:42:51.003Z</time></trkpt><trkpt lat="43.85997917584425" lon="11.266925246394209"><ele>563.5</ele><time>2026-03-28T12:42:53.003Z</time></trkpt><trkpt lat="43.85996971088131" lon="11.267067197436933"><ele>561.0</ele><time>2026-03-28T12:42:55.003Z</time></trkpt><trkpt lat="43.85997153226149" lon="11.267212349594537"><ele>561.75</ele><time>2026-03-28T12:42:57.003Z</time></trkpt><trkpt lat="43.85993230311818" lon="11.26736547150924"><ele>562.5</ele><time>2026-03-28T12:42:59.003Z</time></trkpt><trkpt lat="43.85989691029073" lon="11.267475976389159"><ele>563.25</ele><time>2026-03-28T12:43:02.003Z</time></trkpt><trkpt lat="43.85984773388965" lon="11.267602481250666"><ele>564.0</ele><time>2026-03-28T12:43:05.003Z</time></trkpt><trkpt lat="43.859792263703824" lon="11.267848055574495"><ele>564.0</ele><time>2026-03-28T12:43:07.002Z</time></trkpt><trkpt lat="43.859728663792865" lon="11.267932258656797"><ele>564.0</ele><time>2026-03-28T12:45:15.002Z</time></trkpt><trkpt lat="43.859656860894134" lon="11.267799705911258"><ele>564.0</ele><time>2026-03-28T12:45:18.002Z</time></trkpt><trkpt lat="43.85969360681456" lon="11.267725481279395"><ele>564.0</ele><time>2026-03-28T12:45:19.002Z</time></trkpt><trkpt lat="43.85971218729929" lon="11.267632813061029"><ele>564.0</ele><time>2026-03-28T12:45:20.002Z</time></trkpt><trkpt lat="43.85972633578222" lon="11.267531860392689"><ele>564.0</ele><time>2026-03-28T12:45:21.002Z</time></trkpt><trkpt lat="43.85970787124504" lon="11.267377377114965"><ele>563.5</ele><time>2026-03-28T12:45:23.002Z</time></trkpt><trkpt lat="43.85970045540119" lon="11.26727211260828"><ele>563.0</ele><time>2026-03-28T12:45:24.002Z</time></trkpt><trkpt lat="43.85966732108774" lon="11.26717415794407"><ele>562.5</ele><time>2026-03-28T12:45:25.002Z</time></trkpt><trkpt lat="43.85960964884448" lon="11.26700763015435"><ele>562.0</ele><time>2026-03-28T12:45:27.002Z</time></trkpt><trkpt lat="43.859578235833986" lon="11.266904460954422"><ele>561.5</ele><time>2026-03-28T12:45:28.002Z</time></trkpt><trkpt lat="43.859537788921855" lon="11.266809721839552"><ele>561.0</ele><time>2026-03-28T12:45:29.002Z</time></trkpt><trkpt lat="43.85947823954341" lon="11.266707376701484"><ele>561.0</ele><time>2026-03-28T12:45:30.002Z</time></trkpt><trkpt lat="43.85943643799872" lon="11.266617234313852"><ele>561.0</ele><time>2026-03-28T12:45:31.002Z</time></trkpt><trkpt lat="43.859383715946606" lon="11.266518411775385"><ele>561.0</ele><time>2026-03-28T12:45:32.002Z</time></trkpt><trkpt lat="43.859336087094505" lon="11.26642492309019"><ele>561.0</ele><time>2026-03-28T12:45:33.002Z</time></trkpt><trkpt lat="43.85928484664102" lon="11.26633361920399"><ele>561.0</ele><time>2026-03-28T12:45:34.002Z</time></trkpt><trkpt lat="43.85923555684836" lon="11.266254183453478"><ele>561.0</ele><time>2026-03-28T12:45:35.001Z</time></trkpt><trkpt lat="43.85918553009783" lon="11.26618395227617"><ele>558.6</ele><time>2026-03-28T12:45:36.001Z</time></trkpt><trkpt lat="43.85913538881635" lon="11.266096111682026"><ele>556.2</ele><time>2026-03-28T12:45:37.001Z</time></trkpt><trkpt lat="43.85906315053271" lon="11.266036630691838"><ele>553.8</ele><time>2026-03-28T12:45:38.001Z</time></trkpt><trkpt lat="43.858980331609146" lon="11.265990210229585"><ele>551.4</ele><time>2026-03-28T12:45:39.001Z</time></trkpt><trkpt lat="43.85887730462823" lon="11.265955802588149"><ele>549.0</ele><time>2026-03-28T12:45:40.001Z</time></trkpt><trkpt lat="43.85877722018809" lon="11.265943945904224"><ele>549.0</ele><time>2026-03-28T12:45:41.001Z</time></trkpt><trkpt lat="43.858691740456266" lon="11.265916012840362"><ele>549.0</ele><time>2026-03-28T12:45:42.001Z</time></trkpt><trkpt lat="43.858609422737366" lon="11.265881863406292"><ele>549.0</ele><time>2026-03-28T12:45:43.001Z</time></trkpt><trkpt lat="43.858521924347826" lon="11.265854558448"><ele>549.0</ele><time>2026-03-28T12:45:44.001Z</time></trkpt><trkpt lat="43.8584311614824" lon="11.265820437814325"><ele>549.0</ele><time>2026-03-28T12:45:45.001Z</time></trkpt><trkpt lat="43.858363935909274" lon="11.265794052099908"><ele>549.0</ele><time>2026-03-28T12:45:46.001Z</time></trkpt><trkpt lat="43.85829498458746" lon="11.265791152916098"><ele>544.1666666666666</ele><time>2026-03-28T12:45:47.001Z</time></trkpt><trkpt lat="43.85822585711098" lon="11.265777325520249"><ele>539.3333333333334</ele><time>2026-03-28T12:45:48.001Z</time></trkpt><trkpt lat="43.858150020729845" lon="11.265747156890814"><ele>534.5</ele><time>2026-03-28T12:45:49.001Z</time></trkpt><trkpt lat="43.85806387129209" lon="11.265717996208757"><ele>529.6666666666667</ele><time>2026-03-28T12:45:50.001Z</time></trkpt><trkpt lat="43.857978012593705" lon="11.26569100160935"><ele>524.8333333333334</ele><time>2026-03-28T12:45:51.001Z</time></trkpt><trkpt lat="43.857888140801855" lon="11.265662449542907"><ele>520.0</ele><time>2026-03-28T12:45:52.001Z</time></trkpt><trkpt lat="43.85781366271209" lon="11.265644212918584"><ele>520.0000000000001</ele><time>2026-03-28T12:45:53.001Z</time></trkpt><trkpt lat="43.857746388330746" lon="11.265619547913925"><ele>520.0</ele><time>2026-03-28T12:45:54.001Z</time></trkpt><trkpt lat="43.85768027160132" lon="11.265596505757152"><ele>520.0</ele><time>2026-03-28T12:45:55.001Z</time></trkpt><trkpt lat="43.857617571319274" lon="11.26558207619442"><ele>520.0</ele><time>2026-03-28T12:45:56.001Z</time></trkpt><trkpt lat="43.857547401238605" lon="11.265629609294681"><ele>520.0</ele><time>2026-03-28T12:45:57.001Z</time></trkpt><trkpt lat="43.857507853973296" lon="11.265721299941248"><ele>520.0000000000001</ele><time>2026-03-28T12:45:58.001Z</time></trkpt><trkpt lat="43.857440596248466" lon="11.265784704285466"><ele>520.0</ele><time>2026-03-28T12:46:00.001Z</time></trkpt><trkpt lat="43.8573294531846" lon="11.265647216383423"><ele>517.4</ele><time>2026-03-28T12:46:03.001Z</time></trkpt><trkpt lat="43.8572889255439" lon="11.265579644442267"><ele>514.8</ele><time>2026-03-28T12:46:04.002Z</time></trkpt><trkpt lat="43.857217362014204" lon="11.265522007473853"><ele>512.2</ele><time>2026-03-28T12:46:05.002Z</time></trkpt><trkpt lat="43.85714471384592" lon="11.26543345732514"><ele>509.6</ele><time>2026-03-28T12:46:06.002Z</time></trkpt><trkpt lat="43.85705181826507" lon="11.265351545356616"><ele>507.0</ele><time>2026-03-28T12:46:07.002Z</time></trkpt><trkpt lat="43.85696672946297" lon="11.265268941561654"><ele>507.0</ele><time>2026-03-28T12:46:08.002Z</time></trkpt><trkpt lat="43.85687456131325" lon="11.265192020770249"><ele>507.0</ele><time>2026-03-28T12:46:09.002Z</time></trkpt><trkpt lat="43.85680533212288" lon="11.265115852886622"><ele>507.0</ele><time>2026-03-28T12:46:10.002Z</time></trkpt><trkpt lat="43.85674299270215" lon="11.265068074884047"><ele>507.0</ele><time>2026-03-28T12:46:11.002Z</time></trkpt><trkpt lat="43.85667174180245" lon="11.264989549209796"><ele>507.0</ele><time>2026-03-28T12:46:12.002Z</time></trkpt><trkpt lat="43.85659496805147" lon="11.264927174172117"><ele>507.0</ele><time>2026-03-28T12:46:13.002Z</time></trkpt><trkpt lat="43.85650341176099" lon="11.264889496850996"><ele>505.8333333333333</ele><time>2026-03-28T12:46:14.002Z</time></trkpt><trkpt lat="43.85641010160683" lon="11.264854616460308"><ele>504.66666666666663</ele><time>2026-03-28T12:46:15.002Z</time></trkpt><trkpt lat="43.85632225228414" lon="11.264845663562374"><ele>503.5</ele><time>2026-03-28T12:46:16.002Z</time></trkpt><trkpt lat="43.85623200962508" lon="11.26481197267463"><ele>502.3333333333333</ele><time>2026-03-28T12:46:17.002Z</time></trkpt><trkpt lat="43.85614233563792" lon="11.264791624273796"><ele>501.16666666666663</ele><time>2026-03-28T12:46:18.002Z</time></trkpt><trkpt lat="43.85606254126117" lon="11.264793226103519"><ele>500.0</ele><time>2026-03-28T12:46:19.002Z</time></trkpt><trkpt lat="43.855992067568295" lon="11.264761939001028"><ele>496.8333333333333</ele><time>2026-03-28T12:46:20.002Z</time></trkpt><trkpt lat="43.85593758988807" lon="11.264689076516301"><ele>493.66666666666663</ele><time>2026-03-28T12:46:21.002Z</time></trkpt><trkpt lat="43.85586911991245" lon="11.264651429961125"><ele>490.5</ele><time>2026-03-28T12:46:22.002Z</time></trkpt><trkpt lat="43.855804971113095" lon="11.264589873844287"><ele>487.33333333333337</ele><time>2026-03-28T12:46:23.002Z</time></trkpt><trkpt lat="43.855728925795255" lon="11.264540451552493"><ele>484.1666666666667</ele><time>2026-03-28T12:46:24.002Z</time></trkpt><trkpt lat="43.85564562161671" lon="11.26449123075347"><ele>481.0</ele><time>2026-03-28T12:46:25.002Z</time></trkpt><trkpt lat="43.85555398498509" lon="11.264456039982656"><ele>481.00000000000006</ele><time>2026-03-28T12:46:26.002Z</time></trkpt><trkpt lat="43.85547375186795" lon="11.264436933934874"><ele>481.0</ele><time>2026-03-28T12:46:27.002Z</time></trkpt><trkpt lat="43.855394211888445" lon="11.264439995986503"><ele>481.0</ele><time>2026-03-28T12:46:28.002Z</time></trkpt><trkpt lat="43.85531172547211" lon="11.264452980181854"><ele>481.0</ele><time>2026-03-28T12:46:29.002Z</time></trkpt><trkpt lat="43.85522628483602" lon="11.264467846324626"><ele>481.00000000000006</ele><time>2026-03-28T12:46:30.002Z</time></trkpt><trkpt lat="43.85515146831359" lon="11.264483003524424"><ele>481.0</ele><time>2026-03-28T12:46:31.002Z</time></trkpt><trkpt lat="43.855076737183246" lon="11.264512745608588"><ele>478.83333333333337</ele><time>2026-03-28T12:46:32.002Z</time></trkpt><trkpt lat="43.85500170768453" lon="11.264497126832925"><ele>476.6666666666667</ele><time>2026-03-28T12:46:33.002Z</time></trkpt><trkpt lat="43.85493269240303" lon="11.264490779432798"><ele>474.5</ele><time>2026-03-28T12:46:34.002Z</time></trkpt><trkpt lat="43.85486557079603" lon="11.264473332481996"><ele>472.33333333333337</ele><time>2026-03-28T12:46:35.002Z</time></trkpt><trkpt lat="43.8548016066625" lon="11.264413018551041"><ele>470.1666666666667</ele><time>2026-03-28T12:46:36.002Z</time></trkpt><trkpt lat="43.85474644985145" lon="11.26431230690214"><ele>468.0</ele><time>2026-03-28T12:46:37.002Z</time></trkpt><trkpt lat="43.854685208373255" lon="11.264212592941488"><ele>468.0</ele><time>2026-03-28T12:46:38.002Z</time></trkpt><trkpt lat="43.85461714072454" lon="11.264132572809805"><ele>468.0</ele><time>2026-03-28T12:46:39.002Z</time></trkpt><trkpt lat="43.85456510412783" lon="11.264035628829959"><ele>468.0</ele><time>2026-03-28T12:46:40.002Z</time></trkpt><trkpt lat="43.854502382120906" lon="11.263955158224507"><ele>468.0</ele><time>2026-03-28T12:46:41.002Z</time></trkpt><trkpt lat="43.85442125323132" lon="11.263899115061871"><ele>468.0</ele><time>2026-03-28T12:46:42.002Z</time></trkpt><trkpt lat="43.85435959330832" lon="11.263851514492282"><ele>468.0</ele><time>2026-03-28T12:46:43.002Z</time></trkpt><trkpt lat="43.85429723203395" lon="11.263815017600793"><ele>466.1666666666667</ele><time>2026-03-28T12:46:44.002Z</time></trkpt><trkpt lat="43.85422654774823" lon="11.263800787924447"><ele>464.33333333333337</ele><time>2026-03-28T12:46:45.002Z</time></trkpt><trkpt lat="43.85414715647348" lon="11.263806861058768"><ele>462.5</ele><time>2026-03-28T12:46:46.002Z</time></trkpt><trkpt lat="43.85405431505072" lon="11.26379614459445"><ele>460.6666666666667</ele><time>2026-03-28T12:46:47.002Z</time></trkpt><trkpt lat="43.85396783234771" lon="11.263788754545995"><ele>458.83333333333337</ele><time>2026-03-28T12:46:48.002Z</time></trkpt><trkpt lat="43.85387866026549" lon="11.263775128619084"><ele>457.0</ele><time>2026-03-28T12:46:49.002Z</time></trkpt><trkpt lat="43.853789547819794" lon="11.263764689830968"><ele>457.0</ele><time>2026-03-28T12:46:50.002Z</time></trkpt><trkpt lat="43.85369678649812" lon="11.263758095063137"><ele>457.00000000000006</ele><time>2026-03-28T12:46:51.002Z</time></trkpt><trkpt lat="43.8535941040062" lon="11.263742277504061"><ele>457.00000000000006</ele><time>2026-03-28T12:46:52.002Z</time></trkpt><trkpt lat="43.85348900601828" lon="11.263741218660698"><ele>457.0</ele><time>2026-03-28T12:46:53.002Z</time></trkpt><trkpt lat="43.85338589046532" lon="11.263735014598895"><ele>457.0</ele><time>2026-03-28T12:46:54.002Z</time></trkpt><trkpt lat="43.85328457492592" lon="11.263730245222904"><ele>453.6</ele><time>2026-03-28T12:46:55.002Z</time></trkpt><trkpt lat="43.85318269803511" lon="11.263720468095832"><ele>450.20000000000005</ele><time>2026-03-28T12:46:56.002Z</time></trkpt><trkpt lat="43.853080584590664" lon="11.263716346209556"><ele>446.8</ele><time>2026-03-28T12:46:57.002Z</time></trkpt><trkpt lat="43.85298487348269" lon="11.263698629617759"><ele>443.4</ele><time>2026-03-28T12:46:58.002Z</time></trkpt><trkpt lat="43.8528803679126" lon="11.263681991742509"><ele>440.0</ele><time>2026-03-28T12:46:59.002Z</time></trkpt><trkpt lat="43.852771681485976" lon="11.263677289902612"><ele>440.0</ele><time>2026-03-28T12:47:00.002Z</time></trkpt><trkpt lat="43.85266273128206" lon="11.263671134420544"><ele>440.0</ele><time>2026-03-28T12:47:01.002Z</time></trkpt><trkpt lat="43.852545174247844" lon="11.263664834260188"><ele>440.0</ele><time>2026-03-28T12:47:02.002Z</time></trkpt><trkpt lat="43.85243095669249" lon="11.263662444514837"><ele>440.0</ele><time>2026-03-28T12:47:03.002Z</time></trkpt><trkpt lat="43.852320644664495" lon="11.263669897745782"><ele>438.8333333333333</ele><time>2026-03-28T12:47:04.002Z</time></trkpt><trkpt lat="43.85222246928549" lon="11.263699843389908"><ele>437.66666666666663</ele><time>2026-03-28T12:47:05.002Z</time></trkpt><trkpt lat="43.852141307901135" lon="11.263735064507017"><ele>436.5</ele><time>2026-03-28T12:47:06.002Z</time></trkpt><trkpt lat="43.85207436781503" lon="11.263728569889928"><ele>435.33333333333337</ele><time>2026-03-28T12:47:07.002Z</time></trkpt><trkpt lat="43.85199755409925" lon="11.263666579699022"><ele>434.1666666666667</ele><time>2026-03-28T12:47:09.002Z</time></trkpt><trkpt lat="43.85194462198908" lon="11.263603124312375"><ele>433.0</ele><time>2026-03-28T12:47:11.002Z</time></trkpt><trkpt lat="43.851876958923526" lon="11.263578319298118"><ele>433.00000000000006</ele><time>2026-03-28T12:47:15.002Z</time></trkpt><trkpt lat="43.85179629266215" lon="11.263570214018566"><ele>433.0</ele><time>2026-03-28T12:47:18.002Z</time></trkpt><trkpt lat="43.851728753035914" lon="11.263561020735752"><ele>433.0</ele><time>2026-03-28T12:47:20.002Z</time></trkpt><trkpt lat="43.85165357960321" lon="11.263553364308876"><ele>433.0</ele><time>2026-03-28T12:47:22.002Z</time></trkpt><trkpt lat="43.851558372593104" lon="11.263519736765852"><ele>433.00000000000006</ele><time>2026-03-28T12:47:24.002Z</time></trkpt><trkpt lat="43.85146432370838" lon="11.263482944721742"><ele>433.0</ele><time>2026-03-28T12:47:26.002Z</time></trkpt><trkpt lat="43.85133474784302" lon="11.263448603613892"><ele>433.83333333333337</ele><time>2026-03-28T12:47:28.001Z</time></trkpt><trkpt lat="43.85126521452679" lon="11.263425738568376"><ele>434.6666666666667</ele><time>2026-03-28T12:47:29.001Z</time></trkpt><trkpt lat="43.851186246100355" lon="11.263414906986625"><ele>435.5</ele><time>2026-03-28T12:47:30.001Z</time></trkpt><trkpt lat="43.85111202947943" lon="11.263392039428805"><ele>436.33333333333337</ele><time>2026-03-28T12:47:31.001Z</time></trkpt><trkpt lat="43.85104014593902" lon="11.263374144882242"><ele>437.1666666666667</ele><time>2026-03-28T12:47:32.001Z</time></trkpt><trkpt lat="43.8509646176165" lon="11.26335754348695"><ele>438.0</ele><time>2026-03-28T12:47:33.001Z</time></trkpt><trkpt lat="43.85088930053786" lon="11.263337954919022"><ele>436.1666666666667</ele><time>2026-03-28T12:47:34.001Z</time></trkpt><trkpt lat="43.850813595231806" lon="11.263321464053076"><ele>434.33333333333337</ele><time>2026-03-28T12:47:35.001Z</time></trkpt><trkpt lat="43.8507359618506" lon="11.263325818699533"><ele>432.5</ele><time>2026-03-28T12:47:36.001Z</time></trkpt><trkpt lat="43.850669999176425" lon="11.263321560123082"><ele>430.6666666666667</ele><time>2026-03-28T12:47:37.001Z</time></trkpt><trkpt lat="43.85060523839158" lon="11.2633134592019"><ele>428.83333333333337</ele><time>2026-03-28T12:47:38.001Z</time></trkpt><trkpt lat="43.850538191275874" lon="11.26328895654984"><ele>427.0</ele><time>2026-03-28T12:47:39.001Z</time></trkpt><trkpt lat="43.85044063804299" lon="11.263247880462572"><ele>428.8</ele><time>2026-03-28T12:47:41.001Z</time></trkpt><trkpt lat="43.85039809223079" lon="11.263107388887462"><ele>430.6</ele><time>2026-03-28T12:47:43.001Z</time></trkpt><trkpt lat="43.85039529597778" lon="11.263019596679657"><ele>432.40000000000003</ele><time>2026-03-28T12:47:44.001Z</time></trkpt><trkpt lat="43.85034383061194" lon="11.2628658171212"><ele>434.20000000000005</ele><time>2026-03-28T12:47:46.001Z</time></trkpt><trkpt lat="43.85033333721489" lon="11.262775123010863"><ele>436.0</ele><time>2026-03-28T12:47:47.001Z</time></trkpt><trkpt lat="43.850285234063726" lon="11.262656814319795"><ele>436.0</ele><time>2026-03-28T12:47:49.001Z</time></trkpt><trkpt lat="43.85022262132083" lon="11.26253634802826"><ele>436.0</ele><time>2026-03-28T12:47:51.001Z</time></trkpt><trkpt lat="43.850159463629566" lon="11.262438849666125"><ele>436.0</ele><time>2026-03-28T12:47:53.001Z</time></trkpt><trkpt lat="43.850065301020265" lon="11.26228989704626"><ele>436.0</ele><time>2026-03-28T12:47:55.001Z</time></trkpt><trkpt lat="43.84999852199632" lon="11.262238272954606"><ele>436.0</ele><time>2026-03-28T12:47:56.001Z</time></trkpt><trkpt lat="43.849965045271226" lon="11.262150747109915"><ele>432.83333333333337</ele><time>2026-03-28T12:47:57.001Z</time></trkpt><trkpt lat="43.84991022601358" lon="11.26200843880555"><ele>429.6666666666667</ele><time>2026-03-28T12:47:58.001Z</time></trkpt><trkpt lat="43.849880082235295" lon="11.261901661994349"><ele>426.5</ele><time>2026-03-28T12:47:59.001Z</time></trkpt><trkpt lat="43.84983297717195" lon="11.261820930655364"><ele>423.33333333333337</ele><time>2026-03-28T12:48:00.001Z</time></trkpt><trkpt lat="43.849776581240256" lon="11.261744745212559"><ele>420.1666666666667</ele><time>2026-03-28T12:48:01.001Z</time></trkpt><trkpt lat="43.84973060134227" lon="11.261654548985698"><ele>417.0</ele><time>2026-03-28T12:48:02.001Z</time></trkpt><trkpt lat="43.84969646292873" lon="11.261556284675569"><ele>417.1666666666667</ele><time>2026-03-28T12:48:03.001Z</time></trkpt><trkpt lat="43.84966693745761" lon="11.26144855121852"><ele>417.33333333333337</ele><time>2026-03-28T12:48:04.001Z</time></trkpt><trkpt lat="43.84964286311652" lon="11.26133906256021"><ele>417.5</ele><time>2026-03-28T12:48:05.001Z</time></trkpt><trkpt lat="43.84962548755445" lon="11.261228436878188"><ele>417.6666666666667</ele><time>2026-03-28T12:48:06.001Z</time></trkpt><trkpt lat="43.84962787822803" lon="11.261134770269527"><ele>417.83333333333337</ele><time>2026-03-28T12:48:07.001Z</time></trkpt><trkpt lat="43.84962264038848" lon="11.261028685210112"><ele>418.0</ele><time>2026-03-28T12:48:08.001Z</time></trkpt><trkpt lat="43.849631125500814" lon="11.260928760047893"><ele>418.00000000000006</ele><time>2026-03-28T12:48:09.001Z</time></trkpt><trkpt lat="43.8496385642255" lon="11.260833345430813"><ele>418.0</ele><time>2026-03-28T12:48:10.001Z</time></trkpt><trkpt lat="43.849649133623764" lon="11.26074640783897"><ele>418.0</ele><time>2026-03-28T12:48:11.001Z</time></trkpt><trkpt lat="43.84961743169311" lon="11.260607604707587"><ele>418.0</ele><time>2026-03-28T12:48:13.001Z</time></trkpt><trkpt lat="43.84955573668306" lon="11.260568037978356"><ele>418.00000000000006</ele><time>2026-03-28T12:48:14.001Z</time></trkpt><trkpt lat="43.849473744974254" lon="11.260530079455748"><ele>418.0</ele><time>2026-03-28T12:48:16.001Z</time></trkpt><trkpt lat="43.849399816776156" lon="11.26048612244974"><ele>416.2</ele><time>2026-03-28T12:48:18.001Z</time></trkpt><trkpt lat="43.8493362479983" lon="11.26039876942647"><ele>414.4</ele><time>2026-03-28T12:48:20.001Z</time></trkpt><trkpt lat="43.849239586610764" lon="11.260340657136728"><ele>412.59999999999997</ele><time>2026-03-28T12:48:22.001Z</time></trkpt><trkpt lat="43.849137782346965" lon="11.260264761201556"><ele>410.79999999999995</ele><time>2026-03-28T12:48:24.001Z</time></trkpt><trkpt lat="43.84902960119451" lon="11.260218726837788"><ele>409.0</ele><time>2026-03-28T12:48:26.001Z</time></trkpt><trkpt lat="43.848969456479644" lon="11.260191744329212"><ele>409.00000000000006</ele><time>2026-03-28T12:48:27.001Z</time></trkpt><trkpt lat="43.84889910252706" lon="11.260173105768336"><ele>409.0</ele><time>2026-03-28T12:48:28.001Z</time></trkpt><trkpt lat="43.848836897630335" lon="11.260158699020417"><ele>409.0</ele><time>2026-03-28T12:48:29.001Z</time></trkpt><trkpt lat="43.84876826744388" lon="11.260146044509309"><ele>409.0</ele><time>2026-03-28T12:48:30.001Z</time></trkpt><trkpt lat="43.8486661988119" lon="11.26015423152633"><ele>409.00000000000006</ele><time>2026-03-28T12:48:32.001Z</time></trkpt><trkpt lat="43.84853894472121" lon="11.260163495052218"><ele>409.0</ele><time>2026-03-28T12:48:34.001Z</time></trkpt><trkpt lat="43.84839638946996" lon="11.260169658927206"><ele>407.4285714285714</ele><time>2026-03-28T12:48:36.001Z</time></trkpt><trkpt lat="43.84832991019309" lon="11.260173359848984"><ele>405.8571428571429</ele><time>2026-03-28T12:48:37.001Z</time></trkpt><trkpt lat="43.848262192704055" lon="11.260146560230899"><ele>404.2857142857143</ele><time>2026-03-28T12:48:38.001Z</time></trkpt><trkpt lat="43.8482024538659" lon="11.260105972614149"><ele>402.71428571428567</ele><time>2026-03-28T12:48:39.001Z</time></trkpt><trkpt lat="43.848143168937554" lon="11.260054357416955"><ele>401.1428571428571</ele><time>2026-03-28T12:48:40.001Z</time></trkpt><trkpt lat="43.848090507614195" lon="11.259998044546533"><ele>399.57142857142856</ele><time>2026-03-28T12:48:41.001Z</time></trkpt><trkpt lat="43.84803901929847" lon="11.259934838887627"><ele>398.0</ele><time>2026-03-28T12:48:42.001Z</time></trkpt><trkpt lat="43.84799043795095" lon="11.259858037119617"><ele>399.49999999999994</ele><time>2026-03-28T12:48:43.001Z</time></trkpt><trkpt lat="43.84793640235936" lon="11.259767391017796"><ele>401.0</ele><time>2026-03-28T12:48:44.001Z</time></trkpt><trkpt lat="43.84788903372404" lon="11.259693919753254"><ele>402.5</ele><time>2026-03-28T12:48:45.001Z</time></trkpt><trkpt lat="43.84783238963383" lon="11.259612993977543"><ele>404.0</ele><time>2026-03-28T12:48:46.001Z</time></trkpt><trkpt lat="43.84777415230699" lon="11.259530846188989"><ele>405.49999999999994</ele><time>2026-03-28T12:48:47.001Z</time></trkpt><trkpt lat="43.847716442876816" lon="11.259443110650885"><ele>407.0</ele><time>2026-03-28T12:48:48.001Z</time></trkpt><trkpt lat="43.84765420128145" lon="11.259364756481368"><ele>404.3333333333333</ele><time>2026-03-28T12:48:49.001Z</time></trkpt><trkpt lat="43.84759301565322" lon="11.259299939604869"><ele>401.66666666666663</ele><time>2026-03-28T12:48:50.001Z</time></trkpt><trkpt lat="43.847516757968926" lon="11.259247819387927"><ele>399.0</ele><time>2026-03-28T12:48:51.001Z</time></trkpt><trkpt lat="43.847443676826636" lon="11.25919972177755"><ele>396.33333333333337</ele><time>2026-03-28T12:48:52.001Z</time></trkpt><trkpt lat="43.84737103096371" lon="11.259159191123347"><ele>393.6666666666667</ele><time>2026-03-28T12:48:53.001Z</time></trkpt><trkpt lat="43.84729574802438" lon="11.259117942552871"><ele>391.0</ele><time>2026-03-28T12:48:54.001Z</time></trkpt><trkpt lat="43.84720902401697" lon="11.259092677753165"><ele>391.00000000000006</ele><time>2026-03-28T12:48:55.001Z</time></trkpt><trkpt lat="43.84712841046702" lon="11.259063252516778"><ele>391.0</ele><time>2026-03-28T12:48:56.001Z</time></trkpt><trkpt lat="43.847050224878465" lon="11.259042599936796"><ele>391.0</ele><time>2026-03-28T12:48:57.001Z</time></trkpt><trkpt lat="43.84696296455362" lon="11.25903221482001"><ele>391.0</ele><time>2026-03-28T12:48:58.001Z</time></trkpt><trkpt lat="43.84688048503103" lon="11.259041959403106"><ele>391.00000000000006</ele><time>2026-03-28T12:48:59.001Z</time></trkpt><trkpt lat="43.84680056609312" lon="11.259049473290377"><ele>391.0</ele><time>2026-03-28T12:49:00.001Z</time></trkpt><trkpt lat="43.84672267924893" lon="11.259056223167967"><ele>389.57142857142856</ele><time>2026-03-28T12:49:01.001Z</time></trkpt><trkpt lat="43.84664945151229" lon="11.259086952675355"><ele>388.1428571428571</ele><time>2026-03-28T12:49:02.001Z</time></trkpt><trkpt lat="43.84658286869451" lon="11.25913392842257"><ele>386.71428571428567</ele><time>2026-03-28T12:49:03.001Z</time></trkpt><trkpt lat="43.84652990514899" lon="11.259197165024066"><ele>385.2857142857143</ele><time>2026-03-28T12:49:04.001Z</time></trkpt><trkpt lat="43.846485319226076" lon="11.259290460805591"><ele>383.8571428571429</ele><time>2026-03-28T12:49:05.001Z</time></trkpt><trkpt lat="43.84642540051214" lon="11.259347283691852"><ele>382.4285714285714</ele><time>2026-03-28T12:49:06.001Z</time></trkpt><trkpt lat="43.84636264600731" lon="11.259397574207124"><ele>381.0</ele><time>2026-03-28T12:49:07.001Z</time></trkpt><trkpt lat="43.846259395307754" lon="11.259478988832639"><ele>381.0</ele><time>2026-03-28T12:49:09.001Z</time></trkpt><trkpt lat="43.84615668797312" lon="11.259560038032214"><ele>381.0</ele><time>2026-03-28T12:49:11.001Z</time></trkpt><trkpt lat="43.846092476978725" lon="11.25958171927306"><ele>381.0</ele><time>2026-03-28T12:49:12.001Z</time></trkpt><trkpt lat="43.8460306595215" lon="11.25961178503421"><ele>381.0</ele><time>2026-03-28T12:49:13.001Z</time></trkpt><trkpt lat="43.84596864491405" lon="11.259641203996422"><ele>381.0</ele><time>2026-03-28T12:49:14.001Z</time></trkpt><trkpt lat="43.8458812505793" lon="11.259705229670539"><ele>381.0</ele><time>2026-03-28T12:49:16.001Z</time></trkpt><trkpt lat="43.84586393078444" lon="11.259798674721015"><ele>379.1666666666667</ele><time>2026-03-28T12:49:17.001Z</time></trkpt><trkpt lat="43.845856692043284" lon="11.25990069853262"><ele>377.3333333333333</ele><time>2026-03-28T12:49:18.001Z</time></trkpt><trkpt lat="43.84583966512532" lon="11.260008340740901"><ele>375.5</ele><time>2026-03-28T12:49:19.001Z</time></trkpt><trkpt lat="43.84583292404225" lon="11.26012005952799"><ele>373.66666666666663</ele><time>2026-03-28T12:49:20.001Z</time></trkpt><trkpt lat="43.84581551579687" lon="11.26023527826846"><ele>371.8333333333333</ele><time>2026-03-28T12:49:21.001Z</time></trkpt><trkpt lat="43.84580856163532" lon="11.260337539274024"><ele>370.0</ele><time>2026-03-28T12:49:22.001Z</time></trkpt><trkpt lat="43.84579037773201" lon="11.260427510981428"><ele>370.0</ele><time>2026-03-28T12:49:23.002Z</time></trkpt><trkpt lat="43.84577210535897" lon="11.260525693060526"><ele>370.0</ele><time>2026-03-28T12:49:24.001Z</time></trkpt><trkpt lat="43.84575203467885" lon="11.260643224390277"><ele>370.0</ele><time>2026-03-28T12:49:25.001Z</time></trkpt><trkpt lat="43.84572634137589" lon="11.260758734710528"><ele>370.0</ele><time>2026-03-28T12:49:26.001Z</time></trkpt><trkpt lat="43.8457066208232" lon="11.260870872294378"><ele>370.0</ele><time>2026-03-28T12:49:27.001Z</time></trkpt><trkpt lat="43.845690782122425" lon="11.260996469741857"><ele>370.0</ele><time>2026-03-28T12:49:28.001Z</time></trkpt><trkpt lat="43.84567784028786" lon="11.26111203540105"><ele>368.8333333333333</ele><time>2026-03-28T12:49:29.001Z</time></trkpt><trkpt lat="43.84566838866774" lon="11.261221709994642"><ele>367.66666666666663</ele><time>2026-03-28T12:49:30.001Z</time></trkpt><trkpt lat="43.84566099860981" lon="11.261324533242194"><ele>366.5</ele><time>2026-03-28T12:49:31.001Z</time></trkpt><trkpt lat="43.84565165610027" lon="11.261430117424268"><ele>365.3333333333333</ele><time>2026-03-28T12:49:32.001Z</time></trkpt><trkpt lat="43.845640653878654" lon="11.261535892116335"><ele>364.1666666666667</ele><time>2026-03-28T12:49:33.001Z</time></trkpt><trkpt lat="43.84562246701019" lon="11.261644856051984"><ele>363.0</ele><time>2026-03-28T12:49:34.001Z</time></trkpt><trkpt lat="43.84561112446992" lon="11.261763312400781"><ele>361.59999999999997</ele><time>2026-03-28T12:49:35.001Z</time></trkpt><trkpt lat="43.845603733352405" lon="11.261882144620856"><ele>360.2</ele><time>2026-03-28T12:49:36.001Z</time></trkpt><trkpt lat="43.845577482538964" lon="11.261991099100438"><ele>358.8</ele><time>2026-03-28T12:49:37.001Z</time></trkpt><trkpt lat="43.845566464652734" lon="11.262090304765296"><ele>357.4</ele><time>2026-03-28T12:49:38.001Z</time></trkpt><trkpt lat="43.845555336423985" lon="11.262208530277679"><ele>356.0</ele><time>2026-03-28T12:49:40.001Z</time></trkpt><trkpt lat="43.84567258449892" lon="11.262293273857672"><ele>356.0</ele><time>2026-03-28T12:49:44.001Z</time></trkpt><trkpt lat="43.84581501225862" lon="11.262266198876162"><ele>356.0</ele><time>2026-03-28T12:49:47.001Z</time></trkpt><trkpt lat="43.84592188370701" lon="11.262254410468003"><ele>356.0</ele><time>2026-03-28T12:49:49Z</time></trkpt><trkpt lat="43.84604818058897" lon="11.26221668906877"><ele>356.0</ele><time>2026-03-28T12:49:51.001Z</time></trkpt><trkpt lat="43.84611301078545" lon="11.262183506894962"><ele>356.0</ele><time>2026-03-28T12:49:52.001Z</time></trkpt><trkpt lat="43.84617734954672" lon="11.26216379335581"><ele>355.99999999999994</ele><time>2026-03-28T12:49:53.001Z</time></trkpt><trkpt lat="43.84624502962062" lon="11.262136782937157"><ele>356.0</ele><time>2026-03-28T12:49:54.001Z</time></trkpt><trkpt lat="43.84631491856397" lon="11.26209857695181"><ele>356.0</ele><time>2026-03-28T12:49:55.001Z</time></trkpt><trkpt lat="43.846389942373875" lon="11.262082749613276"><ele>356.0</ele><time>2026-03-28T12:49:56.001Z</time></trkpt><trkpt lat="43.84645841484778" lon="11.262059270013564"><ele>356.0</ele><time>2026-03-28T12:49:57.001Z</time></trkpt><trkpt lat="43.84652991189867" lon="11.262093636205028"><ele>355.99999999999994</ele><time>2026-03-28T12:49:58.001Z</time></trkpt><trkpt lat="43.84658384490488" lon="11.262169545992514"><ele>356.0</ele><time>2026-03-28T12:49:59.001Z</time></trkpt><trkpt lat="43.84662565090147" lon="11.262249404482937"><ele>356.0</ele><time>2026-03-28T12:50:00.001Z</time></trkpt><trkpt lat="43.84665706637766" lon="11.262326533827999"><ele>356.0</ele><time>2026-03-28T12:50:01.001Z</time></trkpt><trkpt lat="43.84670106429044" lon="11.262402978458988"><ele>356.0</ele><time>2026-03-28T12:50:02.001Z</time></trkpt><trkpt lat="43.846783626843305" lon="11.262531177021064"><ele>356.0</ele><time>2026-03-28T12:50:04.001Z</time></trkpt><trkpt lat="43.84684068207126" lon="11.262583596790822"><ele>356.0</ele><time>2026-03-28T12:50:05.001Z</time></trkpt><trkpt lat="43.84689976117451" lon="11.26263517381407"><ele>356.0</ele><time>2026-03-28T12:50:06.001Z</time></trkpt><trkpt lat="43.84696104980833" lon="11.262684603364173"><ele>356.0</ele><time>2026-03-28T12:50:07.001Z</time></trkpt><trkpt lat="43.84702059884624" lon="11.262730972770129"><ele>356.0</ele><time>2026-03-28T12:50:08.001Z</time></trkpt><trkpt lat="43.84707429907664" lon="11.262859495631158"><ele>356.0</ele><time>2026-03-28T12:50:10.001Z</time></trkpt><trkpt lat="43.847040585775694" lon="11.262941483802"><ele>356.0</ele><time>2026-03-28T12:50:11.001Z</time></trkpt><trkpt lat="43.846983859497" lon="11.263009017918895"><ele>356.0</ele><time>2026-03-28T12:50:12.001Z</time></trkpt><trkpt lat="43.846925902061066" lon="11.263069529076287"><ele>356.0</ele><time>2026-03-28T12:50:13.001Z</time></trkpt><trkpt lat="43.84687461115575" lon="11.263147228136445"><ele>355.1666666666667</ele><time>2026-03-28T12:50:14.001Z</time></trkpt><trkpt lat="43.846821520017436" lon="11.263223503517729"><ele>354.33333333333337</ele><time>2026-03-28T12:50:15.001Z</time></trkpt><trkpt lat="43.84676239662442" lon="11.263302303233958"><ele>353.5</ele><time>2026-03-28T12:50:16.001Z</time></trkpt><trkpt lat="43.84670764722951" lon="11.26339079870203"><ele>352.6666666666667</ele><time>2026-03-28T12:50:17.001Z</time></trkpt><trkpt lat="43.84666457841622" lon="11.263494215439914"><ele>351.8333333333333</ele><time>2026-03-28T12:50:18.001Z</time></trkpt><trkpt lat="43.84663828453779" lon="11.263600793877192"><ele>351.0</ele><time>2026-03-28T12:50:19.001Z</time></trkpt><trkpt lat="43.846642720608514" lon="11.263739094478673"><ele>348.8333333333333</ele><time>2026-03-28T12:50:20.001Z</time></trkpt><trkpt lat="43.846644817968986" lon="11.263865452966174"><ele>346.6666666666667</ele><time>2026-03-28T12:50:21.001Z</time></trkpt><trkpt lat="43.84664270729827" lon="11.263987754059748"><ele>344.5</ele><time>2026-03-28T12:50:22.001Z</time></trkpt><trkpt lat="43.846648734700544" lon="11.264107270427537"><ele>342.33333333333337</ele><time>2026-03-28T12:50:23.001Z</time></trkpt><trkpt lat="43.8466582434583" lon="11.264221320966797"><ele>340.1666666666667</ele><time>2026-03-28T12:50:24.001Z</time></trkpt><trkpt lat="43.846669450323326" lon="11.264332647831"><ele>338.0</ele><time>2026-03-28T12:50:25.001Z</time></trkpt><trkpt lat="43.846685837081935" lon="11.264441943523337"><ele>337.42857142857144</ele><time>2026-03-28T12:50:26.001Z</time></trkpt><trkpt lat="43.846702291143885" lon="11.264540450848742"><ele>336.85714285714283</ele><time>2026-03-28T12:50:27.001Z</time></trkpt><trkpt lat="43.846712437529376" lon="11.264640740403328"><ele>336.2857142857143</ele><time>2026-03-28T12:50:28.001Z</time></trkpt><trkpt lat="43.846706921412206" lon="11.264750154507476"><ele>335.7142857142857</ele><time>2026-03-28T12:50:29.001Z</time></trkpt><trkpt lat="43.84670379446068" lon="11.264855405455727"><ele>335.14285714285717</ele><time>2026-03-28T12:50:30.001Z</time></trkpt><trkpt lat="43.846690162604126" lon="11.264950871659567"><ele>334.57142857142856</ele><time>2026-03-28T12:50:31.001Z</time></trkpt><trkpt lat="43.84668214833303" lon="11.26504867101662"><ele>334.0</ele><time>2026-03-28T12:50:32.001Z</time></trkpt><trkpt lat="43.846680681051964" lon="11.265143752770777"><ele>333.6</ele><time>2026-03-28T12:50:33.001Z</time></trkpt><trkpt lat="43.84669049723216" lon="11.265236908564503"><ele>333.2</ele><time>2026-03-28T12:50:34.001Z</time></trkpt><trkpt lat="43.84675867631268" lon="11.26537250325212"><ele>332.8</ele><time>2026-03-28T12:50:36.001Z</time></trkpt><trkpt lat="43.846876757991254" lon="11.26539756619647"><ele>332.40000000000003</ele><time>2026-03-28T12:50:38.001Z</time></trkpt><trkpt lat="43.84698112475523" lon="11.265409994451597"><ele>332.0</ele><time>2026-03-28T12:50:40.001Z</time></trkpt><trkpt lat="43.847035887199496" lon="11.265515916420549"><ele>335.20000000000005</ele><time>2026-03-28T12:50:42.001Z</time></trkpt><trkpt lat="43.84702038371678" lon="11.265660647322632"><ele>338.4</ele><time>2026-03-28T12:50:44.001Z</time></trkpt><trkpt lat="43.84701199225862" lon="11.265780794399303"><ele>341.6</ele><time>2026-03-28T12:50:46.001Z</time></trkpt><trkpt lat="43.847011849295896" lon="11.265908547029388"><ele>344.79999999999995</ele><time>2026-03-28T12:50:48.001Z</time></trkpt><trkpt lat="43.847006012247064" lon="11.266024293605474"><ele>348.0</ele><time>2026-03-28T12:50:50.001Z</time></trkpt><trkpt lat="43.847010261354015" lon="11.266167576073377"><ele>348.0</ele><time>2026-03-28T12:50:52.001Z</time></trkpt><trkpt lat="43.84701690131893" lon="11.266313054283302"><ele>348.0</ele><time>2026-03-28T12:50:54.001Z</time></trkpt><trkpt lat="43.84702561339712" lon="11.26643450983896"><ele>348.0</ele><time>2026-03-28T12:50:56.001Z</time></trkpt><trkpt lat="43.847033909623875" lon="11.266563562413065"><ele>348.0</ele><time>2026-03-28T12:50:58.001Z</time></trkpt><trkpt lat="43.847052747477115" lon="11.266681611378585"><ele>348.0</ele><time>2026-03-28T12:51:00.001Z</time></trkpt><trkpt lat="43.84700903025889" lon="11.26675000643096"><ele>348.0</ele><time>2026-03-28T12:51:03.001Z</time></trkpt><trkpt lat="43.84705357618925" lon="11.266825559377391"><ele>347.6666666666667</ele><time>2026-03-28T12:51:05.001Z</time></trkpt><trkpt lat="43.84708578122101" lon="11.266918887839159"><ele>347.3333333333333</ele><time>2026-03-28T12:51:07.001Z</time></trkpt><trkpt lat="43.84710340518792" lon="11.26700915818604"><ele>347.0</ele><time>2026-03-28T12:51:09.001Z</time></trkpt><trkpt lat="43.84710459546649" lon="11.267098479503385"><ele>346.66666666666663</ele><time>2026-03-28T12:51:11.001Z</time></trkpt><trkpt lat="43.847127528421005" lon="11.267197122831154"><ele>346.3333333333333</ele><time>2026-03-28T12:51:13.001Z</time></trkpt><trkpt lat="43.84716300076727" lon="11.267358095009605"><ele>346.0</ele><time>2026-03-28T12:51:15.001Z</time></trkpt><trkpt lat="43.84718674136218" lon="11.267496247783717"><ele>346.0</ele><time>2026-03-28T12:51:17.001Z</time></trkpt><trkpt lat="43.84718389147748" lon="11.26761414649777"><ele>346.0</ele><time>2026-03-28T12:51:19.001Z</time></trkpt><trkpt lat="43.84717902801865" lon="11.267723191226924"><ele>346.0</ele><time>2026-03-28T12:51:21.001Z</time></trkpt><trkpt lat="43.847173155753104" lon="11.26785364029063"><ele>346.0</ele><time>2026-03-28T12:51:23.001Z</time></trkpt><trkpt lat="43.84718353355926" lon="11.267952221169242"><ele>346.0</ele><time>2026-03-28T12:51:25.001Z</time></trkpt><trkpt lat="43.84719708448005" lon="11.268053261504427"><ele>346.0</ele><time>2026-03-28T12:51:27.001Z</time></trkpt><trkpt lat="43.84723211838441" lon="11.268199801947281"><ele>345.16666666666663</ele><time>2026-03-28T12:51:29.001Z</time></trkpt><trkpt lat="43.847268538355976" lon="11.268321563248476"><ele>344.3333333333333</ele><time>2026-03-28T12:51:31Z</time></trkpt><trkpt lat="43.847298297899336" lon="11.268410240402726"><ele>343.5</ele><time>2026-03-28T12:51:32Z</time></trkpt><trkpt lat="43.84731258153539" lon="11.268505274883884"><ele>342.6666666666667</ele><time>2026-03-28T12:51:33Z</time></trkpt><trkpt lat="43.847327247977496" lon="11.268597802449861"><ele>341.83333333333337</ele><time>2026-03-28T12:51:34Z</time></trkpt><trkpt lat="43.84734428806865" lon="11.268695705990401"><ele>341.0</ele><time>2026-03-28T12:51:35Z</time></trkpt><trkpt lat="43.84736560044877" lon="11.268801333839713"><ele>341.0</ele><time>2026-03-28T12:51:36Z</time></trkpt><trkpt lat="43.84737954942386" lon="11.268902904695752"><ele>341.0</ele><time>2026-03-28T12:51:37Z</time></trkpt><trkpt lat="43.84738463459146" lon="11.268998544645147"><ele>341.0</ele><time>2026-03-28T12:51:38Z</time></trkpt><trkpt lat="43.84741146135763" lon="11.269108732326256"><ele>341.0</ele><time>2026-03-28T12:51:39Z</time></trkpt><trkpt lat="43.84744714235436" lon="11.269213385182281"><ele>341.0</ele><time>2026-03-28T12:51:40Z</time></trkpt><trkpt lat="43.84748918761581" lon="11.269314388551036"><ele>341.0</ele><time>2026-03-28T12:51:41Z</time></trkpt><trkpt lat="43.847537972492816" lon="11.269413551225215"><ele>340.6666666666667</ele><time>2026-03-28T12:51:42Z</time></trkpt><trkpt lat="43.847583918893626" lon="11.269512406716816"><ele>340.33333333333337</ele><time>2026-03-28T12:51:43Z</time></trkpt><trkpt lat="43.8476345447762" lon="11.269615017824261"><ele>340.0</ele><time>2026-03-28T12:51:44Z</time></trkpt><trkpt lat="43.84768070043693" lon="11.269716006205782"><ele>339.6666666666667</ele><time>2026-03-28T12:51:45Z</time></trkpt><trkpt lat="43.847729883821" lon="11.269825326066307"><ele>339.3333333333333</ele><time>2026-03-28T12:51:46Z</time></trkpt><trkpt lat="43.84775418057693" lon="11.269944814144674"><ele>339.0</ele><time>2026-03-28T12:51:47Z</time></trkpt><trkpt lat="43.84781026079662" lon="11.270040354335737"><ele>339.0</ele><time>2026-03-28T12:51:48Z</time></trkpt><trkpt lat="43.84786338767266" lon="11.270142712886306"><ele>339.0</ele><time>2026-03-28T12:51:49Z</time></trkpt><trkpt lat="43.84792620574712" lon="11.27024737651488"><ele>339.0</ele><time>2026-03-28T12:51:50Z</time></trkpt><trkpt lat="43.847997058333014" lon="11.270312718545714"><ele>339.0</ele><time>2026-03-28T12:51:51Z</time></trkpt><trkpt lat="43.84806788836001" lon="11.270395934431285"><ele>339.0</ele><time>2026-03-28T12:51:52Z</time></trkpt><trkpt lat="43.84812457791803" lon="11.270464162916156"><ele>339.0</ele><time>2026-03-28T12:51:53Z</time></trkpt><trkpt lat="43.84817895367007" lon="11.270525917515455"><ele>339.0</ele><time>2026-03-28T12:51:54Z</time></trkpt><trkpt lat="43.84822702117123" lon="11.270606534260514"><ele>339.0</ele><time>2026-03-28T12:51:55Z</time></trkpt><trkpt lat="43.84829631792666" lon="11.270646091390637"><ele>339.0</ele><time>2026-03-28T12:51:56Z</time></trkpt><trkpt lat="43.84836746431397" lon="11.27063851643889"><ele>339.0</ele><time>2026-03-28T12:51:57Z</time></trkpt><trkpt lat="43.84844462132332" lon="11.270614094761006"><ele>339.0</ele><time>2026-03-28T12:51:58Z</time></trkpt><trkpt lat="43.848515836284754" lon="11.270567295408698"><ele>339.0</ele><time>2026-03-28T12:51:59Z</time></trkpt><trkpt lat="43.84858409814667" lon="11.270491631273469"><ele>338.1666666666667</ele><time>2026-03-28T12:52:00Z</time></trkpt><trkpt lat="43.848660362908596" lon="11.270455774538583"><ele>337.3333333333333</ele><time>2026-03-28T12:52:01Z</time></trkpt><trkpt lat="43.84873417255705" lon="11.270424654352183"><ele>336.5</ele><time>2026-03-28T12:52:02Z</time></trkpt><trkpt lat="43.84881677648506" lon="11.270373545090834"><ele>335.66666666666663</ele><time>2026-03-28T12:52:03Z</time></trkpt><trkpt lat="43.84890576623291" lon="11.27037375759246"><ele>334.8333333333333</ele><time>2026-03-28T12:52:04Z</time></trkpt><trkpt lat="43.8489832344861" lon="11.270341352696981"><ele>334.0</ele><time>2026-03-28T12:52:05Z</time></trkpt><trkpt lat="43.84906653818183" lon="11.270358709047592"><ele>334.0</ele><time>2026-03-28T12:52:06Z</time></trkpt><trkpt lat="43.84916211527233" lon="11.270404450814098"><ele>334.0</ele><time>2026-03-28T12:52:07Z</time></trkpt><trkpt lat="43.84924454605421" lon="11.270484759206456"><ele>334.0</ele><time>2026-03-28T12:52:08Z</time></trkpt><trkpt lat="43.84933733010696" lon="11.270557719650679"><ele>334.0</ele><time>2026-03-28T12:52:09Z</time></trkpt><trkpt lat="43.84942719556568" lon="11.270612487740152"><ele>334.0</ele><time>2026-03-28T12:52:10Z</time></trkpt><trkpt lat="43.849513372657995" lon="11.270664522281244"><ele>330.8333333333333</ele><time>2026-03-28T12:52:11Z</time></trkpt><trkpt lat="43.849591279451374" lon="11.270712807336997"><ele>327.66666666666663</ele><time>2026-03-28T12:52:12Z</time></trkpt><trkpt lat="43.84965970328182" lon="11.2707800743434"><ele>324.5</ele><time>2026-03-28T12:52:13Z</time></trkpt><trkpt lat="43.84973062549861" lon="11.270832075514488"><ele>321.3333333333333</ele><time>2026-03-28T12:52:14Z</time></trkpt><trkpt lat="43.849806869158336" lon="11.270874666822017"><ele>318.1666666666667</ele><time>2026-03-28T12:52:15Z</time></trkpt><trkpt lat="43.84986596360945" lon="11.270937234966038"><ele>315.0</ele><time>2026-03-28T12:52:16Z</time></trkpt><trkpt lat="43.84992073034619" lon="11.270997319784367"><ele>315.0</ele><time>2026-03-28T12:52:17Z</time></trkpt><trkpt lat="43.849949693130256" lon="11.271085985783754"><ele>315.0</ele><time>2026-03-28T12:52:18Z</time></trkpt><trkpt lat="43.84997182129495" lon="11.271183859969863"><ele>315.0</ele><time>2026-03-28T12:52:19Z</time></trkpt><trkpt lat="43.85000486373764" lon="11.271266328219388"><ele>315.0</ele><time>2026-03-28T12:52:20Z</time></trkpt><trkpt lat="43.8500357792063" lon="11.271351769652966"><ele>315.0</ele><time>2026-03-28T12:52:21Z</time></trkpt><trkpt lat="43.850072982679364" lon="11.271430115657688"><ele>315.0</ele><time>2026-03-28T12:52:22Z</time></trkpt><trkpt lat="43.85012354573275" lon="11.271497892072714"><ele>315.0</ele><time>2026-03-28T12:52:23Z</time></trkpt><trkpt lat="43.850209710144625" lon="11.271520640628292"><ele>314.4</ele><time>2026-03-28T12:52:24Z</time></trkpt><trkpt lat="43.850284751030145" lon="11.271537937944982"><ele>313.8</ele><time>2026-03-28T12:52:25Z</time></trkpt><trkpt lat="43.85037107584059" lon="11.271533113522567"><ele>313.2</ele><time>2026-03-28T12:52:26Z</time></trkpt><trkpt lat="43.850437532947275" lon="11.271527729958867"><ele>312.6</ele><time>2026-03-28T12:52:27Z</time></trkpt><trkpt lat="43.85053808343874" lon="11.271450210873443"><ele>312.0</ele><time>2026-03-28T12:52:29Z</time></trkpt><trkpt lat="43.85063166422794" lon="11.271367618722103"><ele>312.0</ele><time>2026-03-28T12:52:31Z</time></trkpt><trkpt lat="43.85069381904787" lon="11.271323480539076"><ele>312.0</ele><time>2026-03-28T12:52:32Z</time></trkpt><trkpt lat="43.85076108827405" lon="11.27128423690434"><ele>312.0</ele><time>2026-03-28T12:52:33Z</time></trkpt><trkpt lat="43.85085564872138" lon="11.271371248657898"><ele>312.0</ele><time>2026-03-28T12:52:35Z</time></trkpt><trkpt lat="43.85090009723436" lon="11.271433120455617"><ele>312.0</ele><time>2026-03-28T12:52:36Z</time></trkpt><trkpt lat="43.85093918798947" lon="11.27150579185359"><ele>312.0</ele><time>2026-03-28T12:52:37Z</time></trkpt><trkpt lat="43.85095493140148" lon="11.27159285761236"><ele>312.0</ele><time>2026-03-28T12:52:38Z</time></trkpt><trkpt lat="43.85091627245266" lon="11.271729566760007"><ele>312.0</ele><time>2026-03-28T12:52:40Z</time></trkpt><trkpt lat="43.85086339663862" lon="11.271883182646652"><ele>312.0</ele><time>2026-03-28T12:52:42Z</time></trkpt><trkpt lat="43.85080599679125" lon="11.272031554252775"><ele>312.0</ele><time>2026-03-28T12:52:44.001Z</time></trkpt><trkpt lat="43.85077536492339" lon="11.272114249347416"><ele>312.0</ele><time>2026-03-28T12:52:45.001Z</time></trkpt><trkpt lat="43.85074278903392" lon="11.272218021243077"><ele>312.0</ele><time>2026-03-28T12:52:46.001Z</time></trkpt><trkpt lat="43.85069634369064" lon="11.272298207458956"><ele>311.5</ele><time>2026-03-28T12:52:47.001Z</time></trkpt><trkpt lat="43.85066212855736" lon="11.272387962606246"><ele>311.0</ele><time>2026-03-28T12:52:48.001Z</time></trkpt><trkpt lat="43.85062652078028" lon="11.27247783606714"><ele>310.5</ele><time>2026-03-28T12:52:49.001Z</time></trkpt><trkpt lat="43.85060567527179" lon="11.272579320969083"><ele>310.0</ele><time>2026-03-28T12:52:50.001Z</time></trkpt><trkpt lat="43.85056262032947" lon="11.272670181101889"><ele>309.5</ele><time>2026-03-28T12:52:51.001Z</time></trkpt><trkpt lat="43.85052021123427" lon="11.272767904485734"><ele>309.0</ele><time>2026-03-28T12:52:52.001Z</time></trkpt><trkpt lat="43.85047910718967" lon="11.272862840366749"><ele>309.0</ele><time>2026-03-28T12:52:53.001Z</time></trkpt><trkpt lat="43.85045044189319" lon="11.272961258907628"><ele>309.0</ele><time>2026-03-28T12:52:54.001Z</time></trkpt><trkpt lat="43.85042599828397" lon="11.273056242562616"><ele>309.0</ele><time>2026-03-28T12:52:55.001Z</time></trkpt><trkpt lat="43.8504343219729" lon="11.273167447726735"><ele>309.0</ele><time>2026-03-28T12:52:56.001Z</time></trkpt><trkpt lat="43.85047763554761" lon="11.273259785676794"><ele>309.0</ele><time>2026-03-28T12:52:57.001Z</time></trkpt><trkpt lat="43.850545809415216" lon="11.273333702232932"><ele>309.0</ele><time>2026-03-28T12:52:58.001Z</time></trkpt><trkpt lat="43.850617245211005" lon="11.27339353322666"><ele>308.1666666666667</ele><time>2026-03-28T12:52:59.001Z</time></trkpt><trkpt lat="43.85068381062952" lon="11.27346154829124"><ele>307.3333333333333</ele><time>2026-03-28T12:53:00.001Z</time></trkpt><trkpt lat="43.85075245711088" lon="11.27352594981484"><ele>306.5</ele><time>2026-03-28T12:53:01.001Z</time></trkpt><trkpt lat="43.850815766436746" lon="11.273592860505953"><ele>305.66666666666663</ele><time>2026-03-28T12:53:02.001Z</time></trkpt><trkpt lat="43.850849448560254" lon="11.27369153241695"><ele>304.8333333333333</ele><time>2026-03-28T12:53:03.001Z</time></trkpt><trkpt lat="43.850908584945195" lon="11.2737530955647"><ele>304.0</ele><time>2026-03-28T12:53:04.001Z</time></trkpt><trkpt lat="43.850902893535654" lon="11.27386408395477"><ele>304.16666666666663</ele><time>2026-03-28T12:53:05.001Z</time></trkpt><trkpt lat="43.85089258493085" lon="11.273957753922451"><ele>304.3333333333333</ele><time>2026-03-28T12:53:06.001Z</time></trkpt><trkpt lat="43.850834998783334" lon="11.274025893287504"><ele>304.5</ele><time>2026-03-28T12:53:07.001Z</time></trkpt><trkpt lat="43.85075628901644" lon="11.27403527850655"><ele>304.6666666666667</ele><time>2026-03-28T12:53:08.001Z</time></trkpt><trkpt lat="43.850652178399635" lon="11.274060138497301"><ele>304.83333333333337</ele><time>2026-03-28T12:53:10.001Z</time></trkpt><trkpt lat="43.8505671353876" lon="11.274060976709134"><ele>305.0</ele><time>2026-03-28T12:53:12.001Z</time></trkpt><trkpt lat="43.85050676789645" lon="11.27411994664591"><ele>305.0</ele><time>2026-03-28T12:53:14.001Z</time></trkpt><trkpt lat="43.85043891540547" lon="11.274196453692305"><ele>305.0</ele><time>2026-03-28T12:53:17.001Z</time></trkpt><trkpt lat="43.85042400324361" lon="11.27428652821439"><ele>305.0</ele><time>2026-03-28T12:53:19.001Z</time></trkpt><trkpt lat="43.85043766194269" lon="11.27437450448664"><ele>305.0</ele><time>2026-03-28T12:53:21.001Z</time></trkpt><trkpt lat="43.85044959861236" lon="11.274499280781805"><ele>305.0</ele><time>2026-03-28T12:53:24.001Z</time></trkpt><trkpt lat="43.85045069766495" lon="11.274606326103433"><ele>305.0</ele><time>2026-03-28T12:53:27.001Z</time></trkpt><trkpt lat="43.85046792768544" lon="11.27469351953658"><ele>307.33333333333337</ele><time>2026-03-28T12:53:29.001Z</time></trkpt><trkpt lat="43.850472027323285" lon="11.274807827511372"><ele>309.6666666666667</ele><time>2026-03-28T12:53:32.001Z</time></trkpt><trkpt lat="43.850474546400214" lon="11.274907090777635"><ele>312.0</ele><time>2026-03-28T12:53:35.001Z</time></trkpt><trkpt lat="43.85048426801367" lon="11.275018225203581"><ele>314.3333333333333</ele><time>2026-03-28T12:53:38Z</time></trkpt><trkpt lat="43.850495473427685" lon="11.275132980496132"><ele>316.66666666666663</ele><time>2026-03-28T12:53:41Z</time></trkpt><trkpt lat="43.85048340908768" lon="11.275240769737183"><ele>319.0</ele><time>2026-03-28T12:53:45Z</time></trkpt><trkpt lat="43.85045396252624" lon="11.275337872153552"><ele>319.0</ele><time>2026-03-28T12:53:48Z</time></trkpt><trkpt lat="43.85044578612196" lon="11.275474846336778"><ele>319.0</ele><time>2026-03-28T12:53:51Z</time></trkpt><trkpt lat="43.85039268653842" lon="11.275616501342178"><ele>319.0</ele><time>2026-03-28T12:53:54Z</time></trkpt><trkpt lat="43.850340138891845" lon="11.27570182177357"><ele>319.0</ele><time>2026-03-28T12:53:57Z</time></trkpt><trkpt lat="43.85026971354054" lon="11.275758694568575"><ele>319.0</ele><time>2026-03-28T12:54:00Z</time></trkpt><trkpt lat="43.8501942564323" lon="11.275746453529447"><ele>318.8333333333333</ele><time>2026-03-28T12:54:02Z</time></trkpt><trkpt lat="43.8501036003479" lon="11.275711868876412"><ele>318.66666666666663</ele><time>2026-03-28T12:54:06Z</time></trkpt><trkpt lat="43.85003610906777" lon="11.275680545562462"><ele>318.5</ele><time>2026-03-28T12:54:10Z</time></trkpt><trkpt lat="43.84996277264238" lon="11.275652322866256"><ele>318.3333333333333</ele><time>2026-03-28T12:54:12Z</time></trkpt><trkpt lat="43.849884420225806" lon="11.275652028934056"><ele>318.1666666666667</ele><time>2026-03-28T12:54:14Z</time></trkpt><trkpt lat="43.84981701562715" lon="11.275668589407372"><ele>318.0</ele><time>2026-03-28T12:54:16Z</time></trkpt><trkpt lat="43.849735507315984" lon="11.275669852477236"><ele>318.0</ele><time>2026-03-28T12:54:17Z</time></trkpt><trkpt lat="43.849663312993854" lon="11.275646183603941"><ele>318.0</ele><time>2026-03-28T12:54:19Z</time></trkpt><trkpt lat="43.849607173266065" lon="11.275600517339468"><ele>318.0</ele><time>2026-03-28T12:54:20Z</time></trkpt><trkpt lat="43.84951779056951" lon="11.27555837667952"><ele>318.0</ele><time>2026-03-28T12:54:22Z</time></trkpt><trkpt lat="43.84944031177725" lon="11.275526086980948"><ele>318.0</ele><time>2026-03-28T12:54:24Z</time></trkpt><trkpt lat="43.849362756483735" lon="11.275497808979983"><ele>318.0</ele><time>2026-03-28T12:54:26Z</time></trkpt><trkpt lat="43.849277740541005" lon="11.275477267654413"><ele>315.0</ele><time>2026-03-28T12:54:28Z</time></trkpt><trkpt lat="43.849202236798774" lon="11.275464372963828"><ele>312.0</ele><time>2026-03-28T12:54:30Z</time></trkpt><trkpt lat="43.84911989473939" lon="11.275473962088467"><ele>309.0</ele><time>2026-03-28T12:54:32Z</time></trkpt><trkpt lat="43.84904095135145" lon="11.27546881938532"><ele>306.0</ele><time>2026-03-28T12:54:34Z</time></trkpt><trkpt lat="43.848956480355426" lon="11.275465302349142"><ele>303.0</ele><time>2026-03-28T12:54:37Z</time></trkpt><trkpt lat="43.84888957189115" lon="11.275463138967037"><ele>300.0</ele><time>2026-03-28T12:54:39Z</time></trkpt><trkpt lat="43.848817746021425" lon="11.275499708637188"><ele>300.0</ele><time>2026-03-28T12:54:42Z</time></trkpt><trkpt lat="43.84875695332071" lon="11.275549370234614"><ele>300.0</ele><time>2026-03-28T12:54:45Z</time></trkpt><trkpt lat="43.84869164348982" lon="11.275624341790099"><ele>300.0</ele><time>2026-03-28T12:54:46Z</time></trkpt><trkpt lat="43.848646195894176" lon="11.27571551321379"><ele>300.0</ele><time>2026-03-28T12:54:48Z</time></trkpt><trkpt lat="43.848607165840406" lon="11.275834190812025"><ele>300.0</ele><time>2026-03-28T12:54:50Z</time></trkpt><trkpt lat="43.84856345467943" lon="11.275949521242"><ele>300.0</ele><time>2026-03-28T12:54:52Z</time></trkpt><trkpt lat="43.84852248516213" lon="11.276097406105993"><ele>302.6</ele><time>2026-03-28T12:54:54Z</time></trkpt><trkpt lat="43.8484961784699" lon="11.276214120348913"><ele>305.2</ele><time>2026-03-28T12:54:56Z</time></trkpt><trkpt lat="43.84849195577825" lon="11.276343639886026"><ele>307.8</ele><time>2026-03-28T12:54:58Z</time></trkpt><trkpt lat="43.8485206743679" lon="11.276493490669496"><ele>310.4</ele><time>2026-03-28T12:55:00Z</time></trkpt><trkpt lat="43.84855010275967" lon="11.27664186618343"><ele>313.0</ele><time>2026-03-28T12:55:02Z</time></trkpt><trkpt lat="43.84853072220679" lon="11.27673088499973"><ele>315.4</ele><time>2026-03-28T12:55:03Z</time></trkpt><trkpt lat="43.84855984200407" lon="11.276868321175604"><ele>317.8</ele><time>2026-03-28T12:55:05Z</time></trkpt><trkpt lat="43.84858959660879" lon="11.277016826778972"><ele>320.2</ele><time>2026-03-28T12:55:07Z</time></trkpt><trkpt lat="43.84861244882984" lon="11.277152624306106"><ele>322.6</ele><time>2026-03-28T12:55:09Z</time></trkpt><trkpt lat="43.8486338259845" lon="11.277316541500026"><ele>325.0</ele><time>2026-03-28T12:55:12.001Z</time></trkpt><trkpt lat="43.84865692245478" lon="11.277402560695522"><ele>325.66666666666663</ele><time>2026-03-28T12:55:15.001Z</time></trkpt><trkpt lat="43.84864922419333" lon="11.277507416768321"><ele>326.3333333333333</ele><time>2026-03-28T12:55:18.001Z</time></trkpt><trkpt lat="43.84864045870522" lon="11.27765933252833"><ele>327.0</ele><time>2026-03-28T12:55:21.001Z</time></trkpt><trkpt lat="43.848642950266274" lon="11.277778573185692"><ele>327.6666666666667</ele><time>2026-03-28T12:55:22.001Z</time></trkpt><trkpt lat="43.848643709216304" lon="11.27786971080732"><ele>328.33333333333337</ele><time>2026-03-28T12:55:23.001Z</time></trkpt><trkpt lat="43.84864251810465" lon="11.277959671557367"><ele>329.0</ele><time>2026-03-28T12:55:25.001Z</time></trkpt><trkpt lat="43.84864025446538" lon="11.278059758960566"><ele>329.5</ele><time>2026-03-28T12:55:27.001Z</time></trkpt><trkpt lat="43.848636406956125" lon="11.278163840659213"><ele>330.0</ele><time>2026-03-28T12:55:29.001Z</time></trkpt><trkpt lat="43.84863211491362" lon="11.278263701425123"><ele>330.5</ele><time>2026-03-28T12:55:30.001Z</time></trkpt><trkpt lat="43.848589611442094" lon="11.2783590927962"><ele>331.0</ele><time>2026-03-28T12:55:32.001Z</time></trkpt><trkpt lat="43.84860716778357" lon="11.27871658232047"><ele>331.0</ele><time>2026-03-28T12:55:33.001Z</time></trkpt><trkpt lat="43.84850131906834" lon="11.278774924458668"><ele>331.0</ele><time>2026-03-28T12:55:35.001Z</time></trkpt><trkpt lat="43.84840780231201" lon="11.278743428973595"><ele>331.0</ele><time>2026-03-28T12:55:37.001Z</time></trkpt><trkpt lat="43.84830422610909" lon="11.27876472811839"><ele>331.0</ele><time>2026-03-28T12:55:39.001Z</time></trkpt><trkpt lat="43.84822389749506" lon="11.278732080531697"><ele>331.0</ele><time>2026-03-28T12:55:41.001Z</time></trkpt><trkpt lat="43.84814162695128" lon="11.278718248583537"><ele>327.0</ele><time>2026-03-28T12:55:42.999Z</time></trkpt><trkpt lat="43.84805242949286" lon="11.278731235689591"><ele>323.0</ele><time>2026-03-28T12:55:44.999Z</time></trkpt><trkpt lat="43.84798315844785" lon="11.278746787982014"><ele>319.0</ele><time>2026-03-28T12:55:46.999Z</time></trkpt><trkpt lat="43.847911700818045" lon="11.278748701378875"><ele>315.0</ele><time>2026-03-28T12:55:48.999Z</time></trkpt><trkpt lat="43.84784137037169" lon="11.278753219322175"><ele>311.0</ele><time>2026-03-28T12:55:50.999Z</time></trkpt><trkpt lat="43.847757514169395" lon="11.278783110387183"><ele>307.0</ele><time>2026-03-28T12:55:52.999Z</time></trkpt><trkpt lat="43.84767840208537" lon="11.278773769413835"><ele>306.8333333333333</ele><time>2026-03-28T12:55:57.999Z</time></trkpt><trkpt lat="43.84760056407266" lon="11.278775099235858"><ele>306.66666666666663</ele><time>2026-03-28T12:55:59.999Z</time></trkpt><trkpt lat="43.84750203218385" lon="11.27881030471931"><ele>306.5</ele><time>2026-03-28T12:56:03.999Z</time></trkpt><trkpt lat="43.847423715661776" lon="11.278838035184712"><ele>306.3333333333333</ele><time>2026-03-28T12:56:06.999Z</time></trkpt><trkpt lat="43.84733204354254" lon="11.278879430319458"><ele>306.1666666666667</ele><time>2026-03-28T12:56:10.999Z</time></trkpt><trkpt lat="43.84726967759728" lon="11.278896948671322"><ele>306.0</ele><time>2026-03-28T12:56:13.999Z</time></trkpt><trkpt lat="43.847205484123215" lon="11.27890791081929"><ele>306.0</ele><time>2026-03-28T12:56:16.999Z</time></trkpt><trkpt lat="43.84713814716826" lon="11.278926868004028"><ele>306.0</ele><time>2026-03-28T12:56:19.999Z</time></trkpt><trkpt lat="43.84705164249446" lon="11.278953287572817"><ele>306.0</ele><time>2026-03-28T12:56:24Z</time></trkpt><trkpt lat="43.84698621923046" lon="11.278971927898436"><ele>306.0</ele><time>2026-03-28T12:56:27Z</time></trkpt><trkpt lat="43.846918472760315" lon="11.278984532900969"><ele>306.0</ele><time>2026-03-28T12:56:30Z</time></trkpt><trkpt lat="43.8468557472607" lon="11.279013230723724"><ele>306.0</ele><time>2026-03-28T12:56:33Z</time></trkpt><trkpt lat="43.846783785186474" lon="11.279026193130699"><ele>306.0</ele><time>2026-03-28T12:56:37Z</time></trkpt><trkpt lat="43.84669965420713" lon="11.279005701105763"><ele>306.40000000000003</ele><time>2026-03-28T12:56:41Z</time></trkpt><trkpt lat="43.846612395212766" lon="11.278984694721716"><ele>306.8</ele><time>2026-03-28T12:56:44Z</time></trkpt><trkpt lat="43.84652369675612" lon="11.27895246409325"><ele>307.20000000000005</ele><time>2026-03-28T12:56:47Z</time></trkpt><trkpt lat="43.84644187256692" lon="11.278929104724826"><ele>307.6</ele><time>2026-03-28T12:56:48Z</time></trkpt><trkpt lat="43.84631495443728" lon="11.278931983854276"><ele>308.0</ele><time>2026-03-28T12:56:49Z</time></trkpt><trkpt lat="43.84622822545225" lon="11.278929240642224"><ele>308.0</ele><time>2026-03-28T12:56:50Z</time></trkpt><trkpt lat="43.84615872419282" lon="11.278905843503336"><ele>308.0</ele><time>2026-03-28T12:56:51Z</time></trkpt><trkpt lat="43.8460731035319" lon="11.278987259298328"><ele>308.0</ele><time>2026-03-28T12:56:52Z</time></trkpt><trkpt lat="43.84598327839862" lon="11.278965230607898"><ele>308.0</ele><time>2026-03-28T12:56:53Z</time></trkpt><trkpt lat="43.845889357659466" lon="11.278904180387398"><ele>308.0</ele><time>2026-03-28T12:56:54Z</time></trkpt><trkpt lat="43.84582955264339" lon="11.278823398147228"><ele>308.2</ele><time>2026-03-28T12:56:55Z</time></trkpt><trkpt lat="43.8457823492545" lon="11.278734876605732"><ele>308.4</ele><time>2026-03-28T12:56:56Z</time></trkpt><trkpt lat="43.84571211655357" lon="11.278602639258452"><ele>308.59999999999997</ele><time>2026-03-28T12:56:58Z</time></trkpt><trkpt lat="43.845676560171505" lon="11.278529158412278"><ele>308.8</ele><time>2026-03-28T12:56:59Z</time></trkpt><trkpt lat="43.84560525097679" lon="11.278381581182302"><ele>309.0</ele><time>2026-03-28T12:57:01Z</time></trkpt><trkpt lat="43.8455658346555" lon="11.278301163260066"><ele>309.0</ele><time>2026-03-28T12:57:02Z</time></trkpt><trkpt lat="43.84552532824712" lon="11.278223910724158"><ele>309.0</ele><time>2026-03-28T12:57:03Z</time></trkpt><trkpt lat="43.84548379222776" lon="11.278144694608356"><ele>309.0</ele><time>2026-03-28T12:57:04Z</time></trkpt><trkpt lat="43.8454392704729" lon="11.278080831558585"><ele>309.0</ele><time>2026-03-28T12:57:05Z</time></trkpt><trkpt lat="43.845390274421" lon="11.278025608585628"><ele>309.0</ele><time>2026-03-28T12:57:06Z</time></trkpt><trkpt lat="43.84526801278226" lon="11.277949060805879"><ele>309.0</ele><time>2026-03-28T12:57:08Z</time></trkpt><trkpt lat="43.845182003163124" lon="11.277953361444462"><ele>308.1666666666667</ele><time>2026-03-28T12:57:09Z</time></trkpt><trkpt lat="43.845106393141066" lon="11.27798608660489"><ele>307.3333333333333</ele><time>2026-03-28T12:57:10Z</time></trkpt><trkpt lat="43.84501624880022" lon="11.278001818418302"><ele>306.5</ele><time>2026-03-28T12:57:11Z</time></trkpt><trkpt lat="43.84493666213763" lon="11.278067866665188"><ele>305.66666666666663</ele><time>2026-03-28T12:57:12Z</time></trkpt><trkpt lat="43.84486653062346" lon="11.27813412799049"><ele>304.8333333333333</ele><time>2026-03-28T12:57:13Z</time></trkpt><trkpt lat="43.84479425757351" lon="11.278198102192912"><ele>304.0</ele><time>2026-03-28T12:57:14Z</time></trkpt><trkpt lat="43.84473148667117" lon="11.278276942236909"><ele>303.8333333333333</ele><time>2026-03-28T12:57:15Z</time></trkpt><trkpt lat="43.84465920467327" lon="11.278335940201995"><ele>303.66666666666663</ele><time>2026-03-28T12:57:16Z</time></trkpt><trkpt lat="43.84458679891159" lon="11.278391106347446"><ele>303.5</ele><time>2026-03-28T12:57:17Z</time></trkpt><trkpt lat="43.84451248945067" lon="11.278436626741195"><ele>303.3333333333333</ele><time>2026-03-28T12:57:18Z</time></trkpt><trkpt lat="43.84443471257595" lon="11.27847133383609"><ele>303.1666666666667</ele><time>2026-03-28T12:57:19Z</time></trkpt><trkpt lat="43.8443581463604" lon="11.2785036589392"><ele>303.0</ele><time>2026-03-28T12:57:20Z</time></trkpt><trkpt lat="43.84427909802645" lon="11.278521859985569"><ele>303.0</ele><time>2026-03-28T12:57:21Z</time></trkpt><trkpt lat="43.84419855534207" lon="11.278528605337495"><ele>303.0</ele><time>2026-03-28T12:57:22Z</time></trkpt><trkpt lat="43.84411426651578" lon="11.278522534532609"><ele>303.0</ele><time>2026-03-28T12:57:23Z</time></trkpt><trkpt lat="43.84403307075282" lon="11.278521384886695"><ele>303.0</ele><time>2026-03-28T12:57:24Z</time></trkpt><trkpt lat="43.843954527036175" lon="11.278534216896132"><ele>303.0</ele><time>2026-03-28T12:57:25Z</time></trkpt><trkpt lat="43.84387706033493" lon="11.278536040125612"><ele>303.0</ele><time>2026-03-28T12:57:26Z</time></trkpt><trkpt lat="43.84380730322269" lon="11.278545253121639"><ele>303.0</ele><time>2026-03-28T12:57:27Z</time></trkpt><trkpt lat="43.84373933726449" lon="11.278563707546507"><ele>303.0</ele><time>2026-03-28T12:57:28Z</time></trkpt><trkpt lat="43.84367087733263" lon="11.278581195025374"><ele>303.0</ele><time>2026-03-28T12:57:29Z</time></trkpt><trkpt lat="43.84359718281156" lon="11.27860490975825"><ele>303.0</ele><time>2026-03-28T12:57:30Z</time></trkpt><trkpt lat="43.84347567307784" lon="11.278655579718166"><ele>303.0</ele><time>2026-03-28T12:57:32Z</time></trkpt><trkpt lat="43.84340596145797" lon="11.278675015951313"><ele>303.0</ele><time>2026-03-28T12:57:33Z</time></trkpt><trkpt lat="43.84333420679146" lon="11.278691432716014"><ele>302.57142857142856</ele><time>2026-03-28T12:57:34Z</time></trkpt><trkpt lat="43.843255616257736" lon="11.278664855715434"><ele>302.1428571428571</ele><time>2026-03-28T12:57:35Z</time></trkpt><trkpt lat="43.84318644951775" lon="11.27863673943331"><ele>301.71428571428567</ele><time>2026-03-28T12:57:36Z</time></trkpt><trkpt lat="43.84313216351345" lon="11.27858697285709"><ele>301.2857142857143</ele><time>2026-03-28T12:57:37Z</time></trkpt><trkpt lat="43.8430717536594" lon="11.278550840625531"><ele>300.85714285714283</ele><time>2026-03-28T12:57:38Z</time></trkpt><trkpt lat="43.84299550286646" lon="11.278521096213918"><ele>300.4285714285714</ele><time>2026-03-28T12:57:39Z</time></trkpt><trkpt lat="43.842942318920805" lon="11.278472480149384"><ele>300.0</ele><time>2026-03-28T12:57:40Z</time></trkpt><trkpt lat="43.842885295267166" lon="11.278425261116213"><ele>299.99999999999994</ele><time>2026-03-28T12:57:41Z</time></trkpt><trkpt lat="43.84282422231654" lon="11.278382339101068"><ele>300.0</ele><time>2026-03-28T12:57:42Z</time></trkpt><trkpt lat="43.8427619208964" lon="11.278351394266421"><ele>300.0</ele><time>2026-03-28T12:57:43Z</time></trkpt><trkpt lat="43.84269422741528" lon="11.278343740876087"><ele>300.0</ele><time>2026-03-28T12:57:44Z</time></trkpt><trkpt lat="43.84262334839146" lon="11.278350433122108"><ele>300.0</ele><time>2026-03-28T12:57:45Z</time></trkpt><trkpt lat="43.842552617887904" lon="11.278381244325104"><ele>299.99999999999994</ele><time>2026-03-28T12:57:46Z</time></trkpt><trkpt lat="43.84248750649231" lon="11.2784330762431"><ele>300.0</ele><time>2026-03-28T12:57:47Z</time></trkpt><trkpt lat="43.842426495528024" lon="11.278499358794939"><ele>299.5</ele><time>2026-03-28T12:57:47.997Z</time></trkpt><trkpt lat="43.842358030404654" lon="11.278544959178413"><ele>299.0</ele><time>2026-03-28T12:57:48.997Z</time></trkpt><trkpt lat="43.84229407213685" lon="11.278609214577695"><ele>298.5</ele><time>2026-03-28T12:57:49.997Z</time></trkpt><trkpt lat="43.84222417969369" lon="11.278679431727541"><ele>298.0</ele><time>2026-03-28T12:57:50.998Z</time></trkpt><trkpt lat="43.842158667769574" lon="11.278743004842111"><ele>297.5</ele><time>2026-03-28T12:57:51.998Z</time></trkpt><trkpt lat="43.84209516382139" lon="11.278800806119813"><ele>297.0</ele><time>2026-03-28T12:57:52.998Z</time></trkpt><trkpt lat="43.842034740251385" lon="11.278852385664596"><ele>297.0</ele><time>2026-03-28T12:57:53.998Z</time></trkpt><trkpt lat="43.84197936863651" lon="11.278918662957995"><ele>297.0</ele><time>2026-03-28T12:57:54.998Z</time></trkpt><trkpt lat="43.841912223211246" lon="11.278956260055457"><ele>297.0</ele><time>2026-03-28T12:57:55.998Z</time></trkpt><trkpt lat="43.84184782916785" lon="11.278990644635526"><ele>297.0</ele><time>2026-03-28T12:57:56.998Z</time></trkpt><trkpt lat="43.841782152913794" lon="11.279006595491975"><ele>297.0</ele><time>2026-03-28T12:57:57.998Z</time></trkpt><trkpt lat="43.84173025609464" lon="11.279058976195966"><ele>297.0</ele><time>2026-03-28T12:57:58.998Z</time></trkpt><trkpt lat="43.84166923699429" lon="11.279086267924194"><ele>297.0</ele><time>2026-03-28T12:57:59.998Z</time></trkpt><trkpt lat="43.84156001531836" lon="11.279155519563421"><ele>297.57142857142856</ele><time>2026-03-28T12:58:01.998Z</time></trkpt><trkpt lat="43.84150441936547" lon="11.279196777300706"><ele>298.14285714285717</ele><time>2026-03-28T12:58:02.998Z</time></trkpt><trkpt lat="43.841442001344056" lon="11.279228442736192"><ele>298.7142857142857</ele><time>2026-03-28T12:58:03.998Z</time></trkpt><trkpt lat="43.84137757917423" lon="11.279263473147113"><ele>299.2857142857143</ele><time>2026-03-28T12:58:04.998Z</time></trkpt><trkpt lat="43.84131775808953" lon="11.279303842235041"><ele>299.8571428571429</ele><time>2026-03-28T12:58:05.998Z</time></trkpt><trkpt lat="43.841250531932445" lon="11.279336729204763"><ele>300.42857142857144</ele><time>2026-03-28T12:58:06.999Z</time></trkpt><trkpt lat="43.84119273768554" lon="11.279377359099099"><ele>301.0</ele><time>2026-03-28T12:58:07.999Z</time></trkpt><trkpt lat="43.84113030222368" lon="11.27940050335206"><ele>301.0</ele><time>2026-03-28T12:58:08.999Z</time></trkpt><trkpt lat="43.84102318664739" lon="11.27945062856931"><ele>301.0</ele><time>2026-03-28T12:58:10.999Z</time></trkpt><trkpt lat="43.84092373196444" lon="11.279492137350811"><ele>301.0</ele><time>2026-03-28T12:58:12.999Z</time></trkpt><trkpt lat="43.840833047583246" lon="11.279545301891712"><ele>301.0</ele><time>2026-03-28T12:58:14.999Z</time></trkpt><trkpt lat="43.84075321563663" lon="11.279578442872715"><ele>301.0</ele><time>2026-03-28T12:58:16.999Z</time></trkpt><trkpt lat="43.84068758450044" lon="11.279606463604107"><ele>299.8333333333333</ele><time>2026-03-28T12:58:18.999Z</time></trkpt><trkpt lat="43.84060975653011" lon="11.27963699959254"><ele>298.66666666666663</ele><time>2026-03-28T12:58:20.999Z</time></trkpt><trkpt lat="43.84054646408981" lon="11.279662023318894"><ele>297.5</ele><time>2026-03-28T12:58:22.999Z</time></trkpt><trkpt lat="43.84044414093564" lon="11.279684474404396"><ele>296.3333333333333</ele><time>2026-03-28T12:58:25.999Z</time></trkpt><trkpt lat="43.84036596513664" lon="11.279696508210744"><ele>295.1666666666667</ele><time>2026-03-28T12:58:27.999Z</time></trkpt><trkpt lat="43.84027562800933" lon="11.27971851727515"><ele>294.0</ele><time>2026-03-28T12:58:29.999Z</time></trkpt><trkpt lat="43.840212080661004" lon="11.279730090868961"><ele>294.0</ele><time>2026-03-28T12:58:30.999Z</time></trkpt><trkpt lat="43.840105211404975" lon="11.27972730630164"><ele>294.0</ele><time>2026-03-28T12:58:32.999Z</time></trkpt><trkpt lat="43.840008319452664" lon="11.2797267993048"><ele>294.0</ele><time>2026-03-28T12:58:35Z</time></trkpt><trkpt lat="43.83990519454218" lon="11.279742790967346"><ele>294.0</ele><time>2026-03-28T12:58:37Z</time></trkpt><trkpt lat="43.83979721528241" lon="11.279754693997797"><ele>294.0</ele><time>2026-03-28T12:58:39Z</time></trkpt><trkpt lat="43.83968334497012" lon="11.279772934850092"><ele>294.0</ele><time>2026-03-28T12:58:41Z</time></trkpt><trkpt lat="43.83961618300654" lon="11.27985293813759"><ele>294.0</ele><time>2026-03-28T12:58:43Z</time></trkpt><trkpt lat="43.83967874813207" lon="11.280010062919954"><ele>294.0</ele><time>2026-03-28T12:58:45Z</time></trkpt><trkpt lat="43.839749602188895" lon="11.280043946631443"><ele>294.0</ele><time>2026-03-28T12:58:46Z</time></trkpt><trkpt lat="43.83981687201541" lon="11.280079736603438"><ele>294.0</ele><time>2026-03-28T12:58:47Z</time></trkpt><trkpt lat="43.839881818399554" lon="11.28012855178671"><ele>294.0</ele><time>2026-03-28T12:58:48Z</time></trkpt><trkpt lat="43.83995189538566" lon="11.280172481029862"><ele>294.0</ele><time>2026-03-28T12:58:49Z</time></trkpt><trkpt lat="43.84001959699884" lon="11.280220708019266"><ele>294.0</ele><time>2026-03-28T12:58:50Z</time></trkpt><trkpt lat="43.84009699926056" lon="11.280267168969749"><ele>294.0</ele><time>2026-03-28T12:58:51Z</time></trkpt><trkpt lat="43.84017231314344" lon="11.280316194936093"><ele>294.0</ele><time>2026-03-28T12:58:52Z</time></trkpt><trkpt lat="43.840243476637" lon="11.28037231866501"><ele>294.0</ele><time>2026-03-28T12:58:53Z</time></trkpt><trkpt lat="43.8403230727103" lon="11.280421587375242"><ele>294.0</ele><time>2026-03-28T12:58:54Z</time></trkpt><trkpt lat="43.84040931794216" lon="11.280467488513528"><ele>295.1666666666667</ele><time>2026-03-28T12:58:55Z</time></trkpt><trkpt lat="43.840489215434886" lon="11.280515111815898"><ele>296.3333333333333</ele><time>2026-03-28T12:58:56Z</time></trkpt><trkpt lat="43.84056866799354" lon="11.280570649769823"><ele>297.5</ele><time>2026-03-28T12:58:57Z</time></trkpt><trkpt lat="43.8406544191513" lon="11.28061044564793"><ele>298.66666666666663</ele><time>2026-03-28T12:58:58Z</time></trkpt><trkpt lat="43.84073246239887" lon="11.280661458721893"><ele>299.8333333333333</ele><time>2026-03-28T12:58:59Z</time></trkpt><trkpt lat="43.84081375256084" lon="11.280711766391704"><ele>301.0</ele><time>2026-03-28T12:59:00Z</time></trkpt><trkpt lat="43.840900215240744" lon="11.280765182550478"><ele>300.40000000000003</ele><time>2026-03-28T12:59:01Z</time></trkpt><trkpt lat="43.840987863254504" lon="11.280819435424945"><ele>299.8</ele><time>2026-03-28T12:59:02Z</time></trkpt><trkpt lat="43.84107450442271" lon="11.280876877734597"><ele>299.20000000000005</ele><time>2026-03-28T12:59:03Z</time></trkpt><trkpt lat="43.84116581050414" lon="11.280935375057037"><ele>298.6</ele><time>2026-03-28T12:59:04Z</time></trkpt><trkpt lat="43.84124337995583" lon="11.281004867643633"><ele>298.0</ele><time>2026-03-28T12:59:05Z</time></trkpt><trkpt lat="43.84131166201957" lon="11.28109405208855"><ele>298.0</ele><time>2026-03-28T12:59:06Z</time></trkpt><trkpt lat="43.84136999501668" lon="11.281187096679398"><ele>298.0</ele><time>2026-03-28T12:59:07Z</time></trkpt><trkpt lat="43.84141479407652" lon="11.281288265587051"><ele>298.0</ele><time>2026-03-28T12:59:08Z</time></trkpt><trkpt lat="43.84142236504152" lon="11.281412948842537"><ele>298.0</ele><time>2026-03-28T12:59:09Z</time></trkpt><trkpt lat="43.84146061417335" lon="11.281526222334058"><ele>298.0</ele><time>2026-03-28T12:59:10Z</time></trkpt><trkpt lat="43.8413459407988" lon="11.281617313071855"><ele>295.8333333333333</ele><time>2026-03-28T12:59:11Z</time></trkpt><trkpt lat="43.84128167901665" lon="11.281679436621422"><ele>293.66666666666663</ele><time>2026-03-28T12:59:12Z</time></trkpt><trkpt lat="43.84121617367093" lon="11.281695679903788"><ele>291.5</ele><time>2026-03-28T12:59:13Z</time></trkpt><trkpt lat="43.84114653594181" lon="11.281698968708087"><ele>289.3333333333333</ele><time>2026-03-28T12:59:14Z</time></trkpt><trkpt lat="43.84108142438724" lon="11.281671913862795"><ele>287.1666666666667</ele><time>2026-03-28T12:59:15Z</time></trkpt><trkpt lat="43.84095701616137" lon="11.281626926736879"><ele>285.0</ele><time>2026-03-28T12:59:17Z</time></trkpt><trkpt lat="43.84089366108077" lon="11.2816231479075"><ele>284.0</ele><time>2026-03-28T12:59:18Z</time></trkpt><trkpt lat="43.840769811025396" lon="11.281635230755992"><ele>283.0</ele><time>2026-03-28T12:59:20Z</time></trkpt><trkpt lat="43.84070599410247" lon="11.281640816229682"><ele>282.0</ele><time>2026-03-28T12:59:21Z</time></trkpt><trkpt lat="43.84063994192828" lon="11.281648226030187"><ele>281.0</ele><time>2026-03-28T12:59:22Z</time></trkpt><trkpt lat="43.840572359394784" lon="11.281648240712084"><ele>280.0</ele><time>2026-03-28T12:59:23Z</time></trkpt><trkpt lat="43.84050864501209" lon="11.281656303082716"><ele>279.0</ele><time>2026-03-28T12:59:24Z</time></trkpt><trkpt lat="43.84044477451254" lon="11.281672851565325"><ele>279.0</ele><time>2026-03-28T12:59:25Z</time></trkpt><trkpt lat="43.84037919249282" lon="11.281683325110508"><ele>279.0</ele><time>2026-03-28T12:59:26Z</time></trkpt><trkpt lat="43.84031210627001" lon="11.28169712944599"><ele>279.0</ele><time>2026-03-28T12:59:27Z</time></trkpt><trkpt lat="43.84024628948725" lon="11.281708510316172"><ele>279.0</ele><time>2026-03-28T12:59:28Z</time></trkpt><trkpt lat="43.840181326012996" lon="11.281726216365524"><ele>279.0</ele><time>2026-03-28T12:59:29.001Z</time></trkpt><trkpt lat="43.84005944770859" lon="11.281753619441522"><ele>279.0</ele><time>2026-03-28T12:59:31.001Z</time></trkpt><trkpt lat="43.83993983335454" lon="11.281778633052575"><ele>277.4</ele><time>2026-03-28T12:59:33.001Z</time></trkpt><trkpt lat="43.83981727552745" lon="11.281813252504776"><ele>275.79999999999995</ele><time>2026-03-28T12:59:35.001Z</time></trkpt><trkpt lat="43.83975200856875" lon="11.28182092730128"><ele>274.20000000000005</ele><time>2026-03-28T12:59:36.001Z</time></trkpt><trkpt lat="43.83962574679136" lon="11.281823322620443"><ele>272.6</ele><time>2026-03-28T12:59:38.001Z</time></trkpt><trkpt lat="43.8395078414139" lon="11.281819902311575"><ele>271.0</ele><time>2026-03-28T12:59:40.001Z</time></trkpt><trkpt lat="43.83938545281089" lon="11.281842786229202"><ele>269.25</ele><time>2026-03-28T12:59:42.001Z</time></trkpt><trkpt lat="43.83926644569051" lon="11.281868789077953"><ele>267.5</ele><time>2026-03-28T12:59:44.001Z</time></trkpt><trkpt lat="43.83915612533715" lon="11.281916651859996"><ele>265.75</ele><time>2026-03-28T12:59:46.001Z</time></trkpt><trkpt lat="43.839051165792185" lon="11.281969718609938"><ele>264.0</ele><time>2026-03-28T12:59:48.001Z</time></trkpt><trkpt lat="43.83894410833845" lon="11.282010626192896"><ele>264.0</ele><time>2026-03-28T12:59:50.001Z</time></trkpt><trkpt lat="43.83883320393696" lon="11.282064491171262"><ele>264.0</ele><time>2026-03-28T12:59:52.001Z</time></trkpt><trkpt lat="43.83877433694388" lon="11.282096281087792"><ele>264.0</ele><time>2026-03-28T12:59:53.001Z</time></trkpt><trkpt lat="43.83866490828511" lon="11.282145835277415"><ele>264.0</ele><time>2026-03-28T12:59:55Z</time></trkpt><trkpt lat="43.838559482110135" lon="11.282198353334035"><ele>264.0</ele><time>2026-03-28T12:59:57Z</time></trkpt><trkpt lat="43.83845631268061" lon="11.282283958571279"><ele>266.0</ele><time>2026-03-28T12:59:59Z</time></trkpt><trkpt lat="43.83836499004014" lon="11.282370982173918"><ele>268.0</ele><time>2026-03-28T13:00:01Z</time></trkpt><trkpt lat="43.83826573720284" lon="11.282410187698552"><ele>270.0</ele><time>2026-03-28T13:00:03Z</time></trkpt><trkpt lat="43.838213483470724" lon="11.28247564172704"><ele>272.0</ele><time>2026-03-28T13:00:04Z</time></trkpt><trkpt lat="43.838109348842266" lon="11.28255440833547"><ele>274.0</ele><time>2026-03-28T13:00:06Z</time></trkpt><trkpt lat="43.838003454194094" lon="11.28260481355687"><ele>274.0</ele><time>2026-03-28T13:00:08Z</time></trkpt><trkpt lat="43.83789433949629" lon="11.28267022562609"><ele>274.0</ele><time>2026-03-28T13:00:10Z</time></trkpt><trkpt lat="43.83778670505726" lon="11.282712528309446"><ele>274.0</ele><time>2026-03-28T13:00:12Z</time></trkpt><trkpt lat="43.837676210449715" lon="11.282747691267378"><ele>274.0</ele><time>2026-03-28T13:00:14Z</time></trkpt><trkpt lat="43.83756491036523" lon="11.282806889214658"><ele>272.8</ele><time>2026-03-28T13:00:16Z</time></trkpt><trkpt lat="43.83746014256864" lon="11.28285905851254"><ele>271.59999999999997</ele><time>2026-03-28T13:00:18Z</time></trkpt><trkpt lat="43.83735959236781" lon="11.28289179125807"><ele>270.4</ele><time>2026-03-28T13:00:20Z</time></trkpt><trkpt lat="43.83726123874805" lon="11.282897423784101"><ele>269.2</ele><time>2026-03-28T13:00:22Z</time></trkpt><trkpt lat="43.83715694239538" lon="11.282870455478234"><ele>268.0</ele><time>2026-03-28T13:00:24Z</time></trkpt><trkpt lat="43.83708467405561" lon="11.282864870110373"><ele>268.0</ele><time>2026-03-28T13:00:26.001Z</time></trkpt><trkpt lat="43.83699814445575" lon="11.282902877365716"><ele>268.0</ele><time>2026-03-28T13:00:30.001Z</time></trkpt><trkpt lat="43.836945439547385" lon="11.282964914453684"><ele>268.0</ele><time>2026-03-28T13:00:31.001Z</time></trkpt><trkpt lat="43.83681166217787" lon="11.283119870951449"><ele>268.0</ele><time>2026-03-28T13:00:33.001Z</time></trkpt><trkpt lat="43.836805615049684" lon="11.283288733753517"><ele>271.6</ele><time>2026-03-28T13:00:35.001Z</time></trkpt><trkpt lat="43.83680975875704" lon="11.283439710376634"><ele>275.20000000000005</ele><time>2026-03-28T13:00:37.001Z</time></trkpt><trkpt lat="43.83680888537567" lon="11.283589500971557"><ele>278.8</ele><time>2026-03-28T13:00:39.001Z</time></trkpt><trkpt lat="43.83682302485899" lon="11.28373794635236"><ele>282.40000000000003</ele><time>2026-03-28T13:00:41.001Z</time></trkpt><trkpt lat="43.836844982161274" lon="11.28387924661316"><ele>286.0</ele><time>2026-03-28T13:00:43.001Z</time></trkpt><trkpt lat="43.83686467611901" lon="11.284017431366802"><ele>287.6</ele><time>2026-03-28T13:00:45.001Z</time></trkpt><trkpt lat="43.83688149841608" lon="11.284149308895978"><ele>289.20000000000005</ele><time>2026-03-28T13:00:47.001Z</time></trkpt><trkpt lat="43.83690447291038" lon="11.284283940968946"><ele>290.79999999999995</ele><time>2026-03-28T13:00:49.001Z</time></trkpt><trkpt lat="43.83691364166172" lon="11.284412349513987"><ele>292.4</ele><time>2026-03-28T13:00:51.001Z</time></trkpt><trkpt lat="43.836899139821504" lon="11.284533178801285"><ele>294.0</ele><time>2026-03-28T13:00:53.001Z</time></trkpt><trkpt lat="43.83684526496858" lon="11.284658919338948"><ele>291.59999999999997</ele><time>2026-03-28T13:00:55.001Z</time></trkpt><trkpt lat="43.83675948693812" lon="11.284684061760954"><ele>289.2</ele><time>2026-03-28T13:00:56.001Z</time></trkpt><trkpt lat="43.83670452272462" lon="11.284731641468388"><ele>286.79999999999995</ele><time>2026-03-28T13:00:59.001Z</time></trkpt><trkpt lat="43.83664813752566" lon="11.284792825352946"><ele>284.4</ele><time>2026-03-28T13:01:01.001Z</time></trkpt><trkpt lat="43.83657325112974" lon="11.284855711912735"><ele>282.0</ele><time>2026-03-28T13:01:02.001Z</time></trkpt><trkpt lat="43.836554725640426" lon="11.28507820430487"><ele>282.0</ele><time>2026-03-28T13:01:03.001Z</time></trkpt><trkpt lat="43.83645431019377" lon="11.285140998350322"><ele>282.0</ele><time>2026-03-28T13:01:05.001Z</time></trkpt><trkpt lat="43.83633022671225" lon="11.285086472845949"><ele>282.0</ele><time>2026-03-28T13:01:07.001Z</time></trkpt><trkpt lat="43.83623831953484" lon="11.284985400628566"><ele>282.0</ele><time>2026-03-28T13:01:09.001Z</time></trkpt><trkpt lat="43.83614325982477" lon="11.284796985646349"><ele>280.0</ele><time>2026-03-28T13:01:11.001Z</time></trkpt><trkpt lat="43.83605011338906" lon="11.284698203484004"><ele>278.0</ele><time>2026-03-28T13:01:13.001Z</time></trkpt><trkpt lat="43.8359616932582" lon="11.284594250026156"><ele>276.0</ele><time>2026-03-28T13:01:15.001Z</time></trkpt><trkpt lat="43.83584986300181" lon="11.28456293936304"><ele>274.0</ele><time>2026-03-28T13:01:17.001Z</time></trkpt><trkpt lat="43.83573273234346" lon="11.284605536749487"><ele>274.66666666666663</ele><time>2026-03-28T13:01:19.001Z</time></trkpt><trkpt lat="43.83568883321126" lon="11.284690640256224"><ele>275.3333333333333</ele><time>2026-03-28T13:01:20.001Z</time></trkpt><trkpt lat="43.835663548501316" lon="11.284771123840004"><ele>276.0</ele><time>2026-03-28T13:01:21.001Z</time></trkpt><trkpt lat="43.83562388940854" lon="11.284894059716562"><ele>276.6666666666667</ele><time>2026-03-28T13:01:23.001Z</time></trkpt><trkpt lat="43.83562617709399" lon="11.284989197062044"><ele>277.33333333333337</ele><time>2026-03-28T13:01:24.001Z</time></trkpt><trkpt lat="43.83563619768814" lon="11.2851379183606"><ele>278.0</ele><time>2026-03-28T13:01:26.001Z</time></trkpt><trkpt lat="43.83566050734949" lon="11.285301658207862"><ele>278.0</ele><time>2026-03-28T13:01:28.001Z</time></trkpt><trkpt lat="43.83568436376324" lon="11.285460816908659"><ele>278.0</ele><time>2026-03-28T13:01:30.001Z</time></trkpt><trkpt lat="43.83571225289719" lon="11.28560404939544"><ele>278.0</ele><time>2026-03-28T13:01:32.001Z</time></trkpt><trkpt lat="43.83564858221831" lon="11.285732596005062"><ele>278.0</ele><time>2026-03-28T13:01:34.002Z</time></trkpt><trkpt lat="43.83560076452813" lon="11.28585942106297"><ele>278.0</ele><time>2026-03-28T13:01:36.002Z</time></trkpt><trkpt lat="43.83556931677255" lon="11.285942921643567"><ele>279.1666666666667</ele><time>2026-03-28T13:01:39.002Z</time></trkpt><trkpt lat="43.8355393137619" lon="11.286035485343138"><ele>280.33333333333337</ele><time>2026-03-28T13:01:40.002Z</time></trkpt><trkpt lat="43.835544344132416" lon="11.286139314919335"><ele>281.5</ele><time>2026-03-28T13:01:41.002Z</time></trkpt><trkpt lat="43.835547051466065" lon="11.286230378453656"><ele>282.6666666666667</ele><time>2026-03-28T13:01:43.002Z</time></trkpt><trkpt lat="43.83553344319744" lon="11.286359039266296"><ele>283.8333333333333</ele><time>2026-03-28T13:01:46.002Z</time></trkpt><trkpt lat="43.835529302905876" lon="11.28650735680035"><ele>285.0</ele><time>2026-03-28T13:01:48.002Z</time></trkpt><trkpt lat="43.83557684377968" lon="11.286569285852828"><ele>286.2</ele><time>2026-03-28T13:01:49.002Z</time></trkpt><trkpt lat="43.835359685513936" lon="11.286709227646842"><ele>287.4</ele><time>2026-03-28T13:01:53.002Z</time></trkpt><trkpt lat="43.83529939736953" lon="11.286669350502528"><ele>288.6</ele><time>2026-03-28T13:01:54.002Z</time></trkpt><trkpt lat="43.83524443730936" lon="11.286624152584046"><ele>289.8</ele><time>2026-03-28T13:01:57.002Z</time></trkpt><trkpt lat="43.835178635113245" lon="11.286566933188057"><ele>291.0</ele><time>2026-03-28T13:01:59.002Z</time></trkpt><trkpt lat="43.83511094589025" lon="11.286509737282419"><ele>291.0</ele><time>2026-03-28T13:02:00.999Z</time></trkpt><trkpt lat="43.835041313070036" lon="11.286453457692788"><ele>291.0</ele><time>2026-03-28T13:02:04.999Z</time></trkpt><trkpt lat="43.834981810307305" lon="11.286409922516592"><ele>291.0</ele><time>2026-03-28T13:02:06.999Z</time></trkpt><trkpt lat="43.83490199435334" lon="11.286359629257664"><ele>291.0</ele><time>2026-03-28T13:02:08.999Z</time></trkpt><trkpt lat="43.83483276720248" lon="11.286320662139369"><ele>291.0</ele><time>2026-03-28T13:02:10.999Z</time></trkpt><trkpt lat="43.834794093242735" lon="11.286242470651294"><ele>291.0</ele><time>2026-03-28T13:02:11.999Z</time></trkpt><trkpt lat="43.8346988192793" lon="11.286196199449966"><ele>289.5</ele><time>2026-03-28T13:02:15.999Z</time></trkpt><trkpt lat="43.83464146731792" lon="11.286152157378382"><ele>288.0</ele><time>2026-03-28T13:02:18Z</time></trkpt><trkpt lat="43.834571664170774" lon="11.28614270739516"><ele>286.5</ele><time>2026-03-28T13:02:20Z</time></trkpt><trkpt lat="43.834485289231836" lon="11.286140795688127"><ele>285.0</ele><time>2026-03-28T13:02:22Z</time></trkpt><trkpt lat="43.83440194251409" lon="11.286164207747097"><ele>283.5</ele><time>2026-03-28T13:02:24Z</time></trkpt><trkpt lat="43.83434202834065" lon="11.286199017730038"><ele>282.0</ele><time>2026-03-28T13:02:27Z</time></trkpt><trkpt lat="43.834256640354695" lon="11.286215785726789"><ele>282.0</ele><time>2026-03-28T13:02:30Z</time></trkpt><trkpt lat="43.834185130730226" lon="11.286242257402956"><ele>282.0</ele><time>2026-03-28T13:02:32Z</time></trkpt><trkpt lat="43.83390088361608" lon="11.286330820254289"><ele>282.0</ele><time>2026-03-28T13:02:34Z</time></trkpt><trkpt lat="43.83380311219508" lon="11.286393438328515"><ele>284.6</ele><time>2026-03-28T13:02:35Z</time></trkpt><trkpt lat="43.833596352645586" lon="11.286499359216835"><ele>287.2</ele><time>2026-03-28T13:02:36Z</time></trkpt><trkpt lat="43.833523206055844" lon="11.286501143543177"><ele>289.8</ele><time>2026-03-28T13:02:38Z</time></trkpt><trkpt lat="43.8334837996406" lon="11.28658539640041"><ele>292.4</ele><time>2026-03-28T13:02:40Z</time></trkpt><trkpt lat="43.83341610028928" lon="11.286591073552987"><ele>295.0</ele><time>2026-03-28T13:02:41Z</time></trkpt><trkpt lat="43.83332986275693" lon="11.286644062809994"><ele>295.0</ele><time>2026-03-28T13:02:43Z</time></trkpt><trkpt lat="43.83322096577896" lon="11.286707417805333"><ele>295.0</ele><time>2026-03-28T13:02:45Z</time></trkpt><trkpt lat="43.83315904095098" lon="11.286744489034913"><ele>295.0</ele><time>2026-03-28T13:02:46Z</time></trkpt><trkpt lat="43.83307911394157" lon="11.286811197320503"><ele>295.0</ele><time>2026-03-28T13:02:48Z</time></trkpt><trkpt lat="43.832989719547626" lon="11.286864136073453"><ele>295.0</ele><time>2026-03-28T13:02:50Z</time></trkpt><trkpt lat="43.832899684038836" lon="11.28692408141655"><ele>295.0</ele><time>2026-03-28T13:02:52Z</time></trkpt><trkpt lat="43.83283043412708" lon="11.286988358459867"><ele>295.0</ele><time>2026-03-28T13:02:54Z</time></trkpt><trkpt lat="43.832767393862824" lon="11.287040930470571"><ele>295.0</ele><time>2026-03-28T13:02:58Z</time></trkpt><trkpt lat="43.83266163659851" lon="11.287117741298571"><ele>295.0</ele><time>2026-03-28T13:03:00Z</time></trkpt><trkpt lat="43.83259375672114" lon="11.287158882701595"><ele>295.0</ele><time>2026-03-28T13:03:02Z</time></trkpt><trkpt lat="43.83252571116002" lon="11.28722495842703"><ele>295.0</ele><time>2026-03-28T13:03:04.001Z</time></trkpt><trkpt lat="43.83244088910962" lon="11.287275723283884"><ele>295.0</ele><time>2026-03-28T13:03:06.001Z</time></trkpt><trkpt lat="43.8323612760421" lon="11.287318746172522"><ele>295.0</ele><time>2026-03-28T13:03:08.001Z</time></trkpt><trkpt lat="43.832300769541526" lon="11.287359272927437"><ele>295.0</ele><time>2026-03-28T13:03:11.001Z</time></trkpt><trkpt lat="43.83222151747717" lon="11.287412488598527"><ele>295.0</ele><time>2026-03-28T13:03:13.001Z</time></trkpt><trkpt lat="43.8321218564554" lon="11.287452715214766"><ele>295.0</ele><time>2026-03-28T13:03:15.001Z</time></trkpt><trkpt lat="43.83203265917425" lon="11.287458800665071"><ele>295.0</ele><time>2026-03-28T13:03:17.001Z</time></trkpt><trkpt lat="43.83192734937067" lon="11.287490968943102"><ele>295.0</ele><time>2026-03-28T13:03:19.001Z</time></trkpt><trkpt lat="43.83181463595226" lon="11.287535550147416"><ele>295.0</ele><time>2026-03-28T13:03:21.001Z</time></trkpt><trkpt lat="43.83169221611041" lon="11.287563368223529"><ele>295.0</ele><time>2026-03-28T13:03:23.001Z</time></trkpt><trkpt lat="43.831582840621785" lon="11.287583364988045"><ele>295.0</ele><time>2026-03-28T13:03:25.001Z</time></trkpt><trkpt lat="43.83147538335327" lon="11.28759183267777"><ele>294.5714285714286</ele><time>2026-03-28T13:03:27.001Z</time></trkpt><trkpt lat="43.83139407502304" lon="11.287596648688695"><ele>294.14285714285717</ele><time>2026-03-28T13:03:29.001Z</time></trkpt><trkpt lat="43.831330554622724" lon="11.287592822795208"><ele>293.7142857142857</ele><time>2026-03-28T13:03:31.001Z</time></trkpt><trkpt lat="43.83126362985196" lon="11.287611928843633"><ele>293.28571428571433</ele><time>2026-03-28T13:03:33.001Z</time></trkpt><trkpt lat="43.83118903194849" lon="11.287605556177862"><ele>292.8571428571429</ele><time>2026-03-28T13:03:36.001Z</time></trkpt><trkpt lat="43.83110600358115" lon="11.287597571551252"><ele>292.42857142857144</ele><time>2026-03-28T13:03:39.001Z</time></trkpt><trkpt lat="43.83103148240986" lon="11.28761771158127"><ele>292.0</ele><time>2026-03-28T13:03:50.001Z</time></trkpt><trkpt lat="43.83103064391313" lon="11.287706785295699"><ele>292.0</ele><time>2026-03-28T13:03:53.001Z</time></trkpt><trkpt lat="43.83104220193103" lon="11.287835911551115"><ele>292.0</ele><time>2026-03-28T13:03:56.001Z</time></trkpt><trkpt lat="43.831092817148274" lon="11.287959791422148"><ele>292.0</ele><time>2026-03-28T13:03:58.001Z</time></trkpt><trkpt lat="43.8311784032814" lon="11.288049467717595"><ele>292.0</ele><time>2026-03-28T13:04:00.001Z</time></trkpt><trkpt lat="43.83128438882379" lon="11.288088379508826"><ele>292.0</ele><time>2026-03-28T13:04:02.002Z</time></trkpt><trkpt lat="43.83138544675187" lon="11.288146022702623"><ele>291.2</ele><time>2026-03-28T13:04:04.002Z</time></trkpt><trkpt lat="43.83148533154187" lon="11.28822542922287"><ele>290.4</ele><time>2026-03-28T13:04:05.997Z</time></trkpt><trkpt lat="43.83158256469523" lon="11.288337245502262"><ele>289.6</ele><time>2026-03-28T13:04:07.997Z</time></trkpt><trkpt lat="43.831646967532656" lon="11.288368384830827"><ele>288.8</ele><time>2026-03-28T13:04:08.997Z</time></trkpt><trkpt lat="43.831713018319306" lon="11.288406522100829"><ele>288.0</ele><time>2026-03-28T13:04:09.997Z</time></trkpt><trkpt lat="43.83178375654395" lon="11.288433479711019"><ele>288.0</ele><time>2026-03-28T13:04:10.997Z</time></trkpt><trkpt lat="43.83186003289926" lon="11.288446799450416"><ele>288.0</ele><time>2026-03-28T13:04:11.997Z</time></trkpt><trkpt lat="43.831937004641325" lon="11.28844963524664"><ele>288.0</ele><time>2026-03-28T13:04:12.997Z</time></trkpt><trkpt lat="43.83202459452117" lon="11.28844668585223"><ele>288.0</ele><time>2026-03-28T13:04:13.997Z</time></trkpt><trkpt lat="43.83210692946411" lon="11.288454537435173"><ele>288.0</ele><time>2026-03-28T13:04:14.997Z</time></trkpt><trkpt lat="43.83219579243442" lon="11.288451648251415"><ele>288.0</ele><time>2026-03-28T13:04:15.997Z</time></trkpt><trkpt lat="43.83228023611629" lon="11.288456628722415"><ele>288.0</ele><time>2026-03-28T13:04:16.998Z</time></trkpt><trkpt lat="43.832360295717415" lon="11.288490612266425"><ele>288.0</ele><time>2026-03-28T13:04:17.998Z</time></trkpt><trkpt lat="43.83243056794787" lon="11.288561084954106"><ele>288.0</ele><time>2026-03-28T13:04:18.998Z</time></trkpt><trkpt lat="43.83249858391736" lon="11.288639565803768"><ele>288.0</ele><time>2026-03-28T13:04:19.998Z</time></trkpt><trkpt lat="43.83255381143042" lon="11.288732704508533"><ele>288.0</ele><time>2026-03-28T13:04:20.998Z</time></trkpt><trkpt lat="43.83259336302534" lon="11.288824979852814"><ele>288.0</ele><time>2026-03-28T13:04:21.998Z</time></trkpt><trkpt lat="43.83260802411145" lon="11.288922873583093"><ele>288.5</ele><time>2026-03-28T13:04:22.998Z</time></trkpt><trkpt lat="43.83258284220524" lon="11.289014275332182"><ele>289.0</ele><time>2026-03-28T13:04:23.998Z</time></trkpt><trkpt lat="43.83258879601691" lon="11.28911861228042"><ele>289.5</ele><time>2026-03-28T13:04:24.998Z</time></trkpt><trkpt lat="43.83258100087638" lon="11.289218288496746"><ele>290.0</ele><time>2026-03-28T13:04:25.998Z</time></trkpt><trkpt lat="43.83259443458882" lon="11.289312578588602"><ele>290.5</ele><time>2026-03-28T13:04:26.998Z</time></trkpt><trkpt lat="43.83261047038946" lon="11.289410380683991"><ele>291.0</ele><time>2026-03-28T13:04:27.998Z</time></trkpt><trkpt lat="43.83269770939285" lon="11.289487805208985"><ele>291.0</ele><time>2026-03-28T13:04:28.999Z</time></trkpt><trkpt lat="43.83277407646531" lon="11.289566014798467"><ele>291.0</ele><time>2026-03-28T13:04:29.999Z</time></trkpt><trkpt lat="43.83283109908235" lon="11.289668621884072"><ele>291.0</ele><time>2026-03-28T13:04:30.999Z</time></trkpt><trkpt lat="43.83287976838455" lon="11.289770201557806"><ele>291.0</ele><time>2026-03-28T13:04:31.999Z</time></trkpt><trkpt lat="43.83292098050988" lon="11.289888021094622"><ele>291.0</ele><time>2026-03-28T13:04:32.999Z</time></trkpt><trkpt lat="43.83295989335698" lon="11.290006840071646"><ele>289.8333333333333</ele><time>2026-03-28T13:04:33.999Z</time></trkpt><trkpt lat="43.832991690184095" lon="11.29012097825352"><ele>288.6666666666667</ele><time>2026-03-28T13:04:34.999Z</time></trkpt><trkpt lat="43.833020462419036" lon="11.29022207898189"><ele>287.5</ele><time>2026-03-28T13:04:35.999Z</time></trkpt><trkpt lat="43.83304668640005" lon="11.290318050483165"><ele>286.33333333333337</ele><time>2026-03-28T13:04:36.999Z</time></trkpt><trkpt lat="43.83308234495676" lon="11.290406519660763"><ele>285.1666666666667</ele><time>2026-03-28T13:04:37.999Z</time></trkpt><trkpt lat="43.83310488477981" lon="11.290505411213037"><ele>284.0</ele><time>2026-03-28T13:04:38.999Z</time></trkpt><trkpt lat="43.833127125245404" lon="11.290610793196542"><ele>281.8</ele><time>2026-03-28T13:04:39.999Z</time></trkpt><trkpt lat="43.83314520641158" lon="11.290703448470598"><ele>279.59999999999997</ele><time>2026-03-28T13:04:40.999Z</time></trkpt><trkpt lat="43.83314865893809" lon="11.290796902495122"><ele>277.4</ele><time>2026-03-28T13:04:41.999Z</time></trkpt><trkpt lat="43.83314030830833" lon="11.290967165266299"><ele>275.2</ele><time>2026-03-28T13:04:43.999Z</time></trkpt><trkpt lat="43.833122548513636" lon="11.291151910307269"><ele>273.0</ele><time>2026-03-28T13:04:45.999Z</time></trkpt><trkpt lat="43.83312307745658" lon="11.291267047138414"><ele>273.0</ele><time>2026-03-28T13:04:46.999Z</time></trkpt><trkpt lat="43.83313226380275" lon="11.291371126509562"><ele>273.0</ele><time>2026-03-28T13:04:47.999Z</time></trkpt><trkpt lat="43.83314993449886" lon="11.29146305764531"><ele>273.0</ele><time>2026-03-28T13:04:48.999Z</time></trkpt><trkpt lat="43.83322140978891" lon="11.291516064341247"><ele>273.0</ele><time>2026-03-28T13:04:50Z</time></trkpt><trkpt lat="43.833288797901545" lon="11.291552599334377"><ele>273.0</ele><time>2026-03-28T13:04:51Z</time></trkpt><trkpt lat="43.83337861021368" lon="11.29158821408183"><ele>273.0</ele><time>2026-03-28T13:04:52Z</time></trkpt><trkpt lat="43.83346199898368" lon="11.291623189979774"><ele>273.8333333333333</ele><time>2026-03-28T13:04:53Z</time></trkpt><trkpt lat="43.83355043502035" lon="11.291642879447563"><ele>274.6666666666667</ele><time>2026-03-28T13:04:54Z</time></trkpt><trkpt lat="43.83360932912569" lon="11.291706677283454"><ele>275.5</ele><time>2026-03-28T13:04:55Z</time></trkpt><trkpt lat="43.83366612602483" lon="11.291834502961976"><ele>276.33333333333337</ele><time>2026-03-28T13:04:57Z</time></trkpt><trkpt lat="43.83363645035225" lon="11.291946291392517"><ele>277.1666666666667</ele><time>2026-03-28T13:04:58Z</time></trkpt><trkpt lat="43.83363508348964" lon="11.292063580604387"><ele>278.0</ele><time>2026-03-28T13:04:59Z</time></trkpt><trkpt lat="43.8336080575261" lon="11.29215393728835"><ele>278.0</ele><time>2026-03-28T13:05:00Z</time></trkpt><trkpt lat="43.833543685878695" lon="11.292238699481144"><ele>278.0</ele><time>2026-03-28T13:05:01Z</time></trkpt><trkpt lat="43.833492490053324" lon="11.29232027284435"><ele>278.0</ele><time>2026-03-28T13:05:02Z</time></trkpt><trkpt lat="43.833429692816786" lon="11.292433872636659"><ele>278.0</ele><time>2026-03-28T13:05:03Z</time></trkpt><trkpt lat="43.83336628687653" lon="11.292539642709734"><ele>278.0</ele><time>2026-03-28T13:05:04Z</time></trkpt><trkpt lat="43.83330296962777" lon="11.292649839808492"><ele>272.4</ele><time>2026-03-28T13:05:05Z</time></trkpt><trkpt lat="43.83325903185215" lon="11.292761478853075"><ele>266.8</ele><time>2026-03-28T13:05:06Z</time></trkpt><trkpt lat="43.8332154248075" lon="11.29287088708706"><ele>261.2</ele><time>2026-03-28T13:05:07Z</time></trkpt><trkpt lat="43.833166480809155" lon="11.292977114478752"><ele>255.6</ele><time>2026-03-28T13:05:08Z</time></trkpt><trkpt lat="43.83312083245387" lon="11.293087911128708"><ele>250.0</ele><time>2026-03-28T13:05:09Z</time></trkpt><trkpt lat="43.83308397615033" lon="11.293206093579412"><ele>248.99999999999997</ele><time>2026-03-28T13:05:10Z</time></trkpt><trkpt lat="43.833056635355995" lon="11.293338325213355"><ele>248.0</ele><time>2026-03-28T13:05:11Z</time></trkpt><trkpt lat="43.833040530861304" lon="11.293459623551453"><ele>247.0</ele><time>2026-03-28T13:05:12Z</time></trkpt><trkpt lat="43.83303161336359" lon="11.293583012230034"><ele>246.0</ele><time>2026-03-28T13:05:13Z</time></trkpt><trkpt lat="43.833037762651095" lon="11.293700295332933"><ele>244.99999999999997</ele><time>2026-03-28T13:05:14Z</time></trkpt><trkpt lat="43.8330417548438" lon="11.293806172871983"><ele>244.0</ele><time>2026-03-28T13:05:15Z</time></trkpt><trkpt lat="43.83307417448336" lon="11.293923620586732"><ele>242.6</ele><time>2026-03-28T13:05:16Z</time></trkpt><trkpt lat="43.83311062313412" lon="11.294012704077806"><ele>241.2</ele><time>2026-03-28T13:05:17Z</time></trkpt><trkpt lat="43.83316866970307" lon="11.294117152648306"><ele>239.79999999999998</ele><time>2026-03-28T13:05:18Z</time></trkpt><trkpt lat="43.8332356546697" lon="11.294221667487788"><ele>238.39999999999998</ele><time>2026-03-28T13:05:19Z</time></trkpt><trkpt lat="43.83332612360772" lon="11.294282808325665"><ele>237.0</ele><time>2026-03-28T13:05:20Z</time></trkpt><trkpt lat="43.83339861587673" lon="11.294347997661529"><ele>237.0</ele><time>2026-03-28T13:05:21Z</time></trkpt><trkpt lat="43.83345732373104" lon="11.294422623727883"><ele>237.0</ele><time>2026-03-28T13:05:22Z</time></trkpt><trkpt lat="43.833522006210174" lon="11.294495154979515"><ele>237.0</ele><time>2026-03-28T13:05:23Z</time></trkpt><trkpt lat="43.833604775840854" lon="11.294553442555838"><ele>237.0</ele><time>2026-03-28T13:05:24.001Z</time></trkpt><trkpt lat="43.83370898560363" lon="11.294604943867512"><ele>237.0</ele><time>2026-03-28T13:05:25.001Z</time></trkpt><trkpt lat="43.833804147262704" lon="11.294645977972895"><ele>237.39999999999998</ele><time>2026-03-28T13:05:26.001Z</time></trkpt><trkpt lat="43.833894404786086" lon="11.294707602325312"><ele>237.79999999999998</ele><time>2026-03-28T13:05:27.001Z</time></trkpt><trkpt lat="43.83399334859806" lon="11.294728481227489"><ele>238.2</ele><time>2026-03-28T13:05:28.001Z</time></trkpt><trkpt lat="43.834097069243185" lon="11.294745649695063"><ele>238.6</ele><time>2026-03-28T13:05:29.001Z</time></trkpt><trkpt lat="43.83420665809813" lon="11.294787353650337"><ele>239.0</ele><time>2026-03-28T13:05:30.001Z</time></trkpt><trkpt lat="43.83429002366205" lon="11.294821919672977"><ele>237.2</ele><time>2026-03-28T13:05:31.001Z</time></trkpt><trkpt lat="43.83435530089321" lon="11.294881260062953"><ele>235.39999999999998</ele><time>2026-03-28T13:05:32.001Z</time></trkpt><trkpt lat="43.834444761659434" lon="11.29502606203747"><ele>233.6</ele><time>2026-03-28T13:05:34.001Z</time></trkpt><trkpt lat="43.83447186921169" lon="11.29512725963779"><ele>231.8</ele><time>2026-03-28T13:05:35.001Z</time></trkpt><trkpt lat="43.83454906398174" lon="11.2952584895131"><ele>230.0</ele><time>2026-03-28T13:05:37.001Z</time></trkpt><trkpt lat="43.83461289458539" lon="11.295288567299648"><ele>230.0</ele><time>2026-03-28T13:05:38.001Z</time></trkpt><trkpt lat="43.834719891231295" lon="11.29534274359983"><ele>230.0</ele><time>2026-03-28T13:05:40.001Z</time></trkpt><trkpt lat="43.834816417346865" lon="11.295285220923144"><ele>230.0</ele><time>2026-03-28T13:05:42.001Z</time></trkpt><trkpt lat="43.834855954191404" lon="11.295215616333698"><ele>230.0</ele><time>2026-03-28T13:05:43.001Z</time></trkpt><trkpt lat="43.834931931770186" lon="11.295140351895235"><ele>230.0</ele><time>2026-03-28T13:05:45.001Z</time></trkpt><trkpt lat="43.83501918602097" lon="11.29514640468971"><ele>230.0</ele><time>2026-03-28T13:05:47.001Z</time></trkpt><trkpt lat="43.83513008857904" lon="11.295140903841437"><ele>230.0</ele><time>2026-03-28T13:05:49.001Z</time></trkpt><trkpt lat="43.83524167590018" lon="11.295106760532494"><ele>230.0</ele><time>2026-03-28T13:05:51.001Z</time></trkpt><trkpt lat="43.83536043516608" lon="11.29509198177621"><ele>230.0</ele><time>2026-03-28T13:05:53.001Z</time></trkpt><trkpt lat="43.8354612936942" lon="11.295157036966817"><ele>230.00000000000003</ele><time>2026-03-28T13:05:55.001Z</time></trkpt><trkpt lat="43.83541822499978" lon="11.295284578166141"><ele>230.0</ele><time>2026-03-28T13:05:57.001Z</time></trkpt><trkpt lat="43.83535422451515" lon="11.295338891870582"><ele>230.0</ele><time>2026-03-28T13:05:59.001Z</time></trkpt><trkpt lat="43.835321978838806" lon="11.295420327939405"><ele>230.0</ele><time>2026-03-28T13:06:01.001Z</time></trkpt><trkpt lat="43.835294907305496" lon="11.295503504162168"><ele>230.00000000000003</ele><time>2026-03-28T13:06:04.002Z</time></trkpt><trkpt lat="43.83526089958106" lon="11.295635355844947"><ele>230.0</ele><time>2026-03-28T13:06:08.002Z</time></trkpt><trkpt lat="43.835227984915775" lon="11.295710323352312"><ele>230.00000000000003</ele><time>2026-03-28T13:06:11.002Z</time></trkpt><trkpt lat="43.835193363460455" lon="11.295793657627911"><ele>230.0</ele><time>2026-03-28T13:06:13Z</time></trkpt><trkpt lat="43.8351985290241" lon="11.295931486904278"><ele>230.0</ele><time>2026-03-28T13:06:15Z</time></trkpt><trkpt lat="43.835212677700234" lon="11.296035062901579"><ele>230.0</ele><time>2026-03-28T13:06:16Z</time></trkpt><trkpt lat="43.835241846353846" lon="11.296161829071691"><ele>230.00000000000003</ele><time>2026-03-28T13:06:18Z</time></trkpt><trkpt lat="43.83526374237368" lon="11.296266607726182"><ele>230.0</ele><time>2026-03-28T13:06:20Z</time></trkpt><trkpt lat="43.83527614811138" lon="11.29638292338117"><ele>230.16666666666669</ele><time>2026-03-28T13:06:22Z</time></trkpt><trkpt lat="43.83528889569462" lon="11.296516200179912"><ele>230.33333333333334</ele><time>2026-03-28T13:06:24Z</time></trkpt><trkpt lat="43.835307379982716" lon="11.296641448136143"><ele>230.5</ele><time>2026-03-28T13:06:26Z</time></trkpt><trkpt lat="43.835318594008896" lon="11.296759665060529"><ele>230.66666666666669</ele><time>2026-03-28T13:06:28Z</time></trkpt><trkpt lat="43.83533865925065" lon="11.296867964032476"><ele>230.83333333333334</ele><time>2026-03-28T13:06:30Z</time></trkpt><trkpt lat="43.83534793821181" lon="11.296960875539186"><ele>231.0</ele><time>2026-03-28T13:06:32.001Z</time></trkpt><trkpt lat="43.835333800102994" lon="11.297051488787023"><ele>231.0</ele><time>2026-03-28T13:06:34.001Z</time></trkpt><trkpt lat="43.835267359409656" lon="11.297128736878127"><ele>231.00000000000003</ele><time>2026-03-28T13:06:36.001Z</time></trkpt><trkpt lat="43.83516719452372" lon="11.297137438787203"><ele>231.00000000000003</ele><time>2026-03-28T13:06:38.001Z</time></trkpt><trkpt lat="43.835096748477994" lon="11.297138680329583"><ele>231.0</ele><time>2026-03-28T13:06:43.001Z</time></trkpt><trkpt lat="43.834964617833464" lon="11.297277018669364"><ele>231.0</ele><time>2026-03-28T13:06:44.001Z</time></trkpt><trkpt lat="43.83493916571555" lon="11.297360669086311"><ele>230.5</ele><time>2026-03-28T13:06:45.001Z</time></trkpt><trkpt lat="43.834869050268956" lon="11.297419195594623"><ele>230.0</ele><time>2026-03-28T13:06:46.001Z</time></trkpt><trkpt lat="43.83488340612338" lon="11.297547685133953"><ele>229.5</ele><time>2026-03-28T13:06:48.001Z</time></trkpt><trkpt lat="43.834878650516366" lon="11.297664748670948"><ele>229.0</ele><time>2026-03-28T13:06:50.001Z</time></trkpt><trkpt lat="43.834858062808216" lon="11.297769991008188"><ele>228.5</ele><time>2026-03-28T13:06:52.001Z</time></trkpt><trkpt lat="43.834782782406045" lon="11.29784211605333"><ele>228.0</ele><time>2026-03-28T13:06:54.001Z</time></trkpt><trkpt lat="43.83466000477135" lon="11.297842923281735"><ele>228.0</ele><time>2026-03-28T13:06:56.001Z</time></trkpt><trkpt lat="43.83455768425811" lon="11.29784559829818"><ele>228.0</ele><time>2026-03-28T13:06:58.001Z</time></trkpt><trkpt lat="43.83448270056934" lon="11.297874205960024"><ele>228.0</ele><time>2026-03-28T13:06:59.001Z</time></trkpt><trkpt lat="43.834432360535004" lon="11.29793260513563"><ele>228.0</ele><time>2026-03-28T13:07:00.001Z</time></trkpt><trkpt lat="43.83438205240134" lon="11.298003162100278"><ele>228.0</ele><time>2026-03-28T13:07:01.001Z</time></trkpt><trkpt lat="43.834365480953934" lon="11.298092667689417"><ele>228.0</ele><time>2026-03-28T13:07:02.001Z</time></trkpt><trkpt lat="43.83434170849106" lon="11.29823907613527"><ele>227.66666666666666</ele><time>2026-03-28T13:07:04.001Z</time></trkpt><trkpt lat="43.834319835078006" lon="11.298326360141553"><ele>227.33333333333331</ele><time>2026-03-28T13:07:05.001Z</time></trkpt><trkpt lat="43.834285384484005" lon="11.298410935189986"><ele>227.0</ele><time>2026-03-28T13:07:06.001Z</time></trkpt><trkpt lat="43.83421988993604" lon="11.298463100406202"><ele>226.66666666666666</ele><time>2026-03-28T13:07:07.001Z</time></trkpt><trkpt lat="43.83414317708578" lon="11.298599226451056"><ele>226.33333333333331</ele><time>2026-03-28T13:07:09.001Z</time></trkpt><trkpt lat="43.83406346895025" lon="11.298693668905129"><ele>226.0</ele><time>2026-03-28T13:07:11.001Z</time></trkpt><trkpt lat="43.83397551199908" lon="11.298824848563312"><ele>226.0</ele><time>2026-03-28T13:07:13.001Z</time></trkpt><trkpt lat="43.83391605232253" lon="11.298882359929614"><ele>226.0</ele><time>2026-03-28T13:07:14.001Z</time></trkpt><trkpt lat="43.83386652858207" lon="11.298957433031097"><ele>226.0</ele><time>2026-03-28T13:07:15.001Z</time></trkpt><trkpt lat="43.83381592323785" lon="11.299033325348752"><ele>226.0</ele><time>2026-03-28T13:07:16.001Z</time></trkpt><trkpt lat="43.83376188621176" lon="11.299119500739858"><ele>226.0</ele><time>2026-03-28T13:07:17.002Z</time></trkpt><trkpt lat="43.833708893039145" lon="11.299178586207047"><ele>226.0</ele><time>2026-03-28T13:07:18.002Z</time></trkpt><trkpt lat="43.83365599463877" lon="11.299235572615428"><ele>226.0</ele><time>2026-03-28T13:07:19.002Z</time></trkpt><trkpt lat="43.83360381291195" lon="11.299309259242735"><ele>227.0</ele><time>2026-03-28T13:07:20.002Z</time></trkpt><trkpt lat="43.83355734183379" lon="11.299388148845798"><ele>228.00000000000003</ele><time>2026-03-28T13:07:21.002Z</time></trkpt><trkpt lat="43.83348663653454" lon="11.29951250796819"><ele>229.00000000000003</ele><time>2026-03-28T13:07:23.002Z</time></trkpt><trkpt lat="43.83343509594899" lon="11.299645745598179"><ele>230.0</ele><time>2026-03-28T13:07:25.002Z</time></trkpt><trkpt lat="43.83338076009945" lon="11.299772662799375"><ele>231.0</ele><time>2026-03-28T13:07:27.002Z</time></trkpt><trkpt lat="43.83333086119137" lon="11.299875169361133"><ele>231.28571428571428</ele><time>2026-03-28T13:07:29.002Z</time></trkpt><trkpt lat="43.83327819437454" lon="11.299936742959211"><ele>231.57142857142856</ele><time>2026-03-28T13:07:33.002Z</time></trkpt><trkpt lat="43.83325143532612" lon="11.300022600596323"><ele>231.85714285714286</ele><time>2026-03-28T13:07:35.002Z</time></trkpt><trkpt lat="43.8332295695563" lon="11.30015295702314"><ele>232.14285714285714</ele><time>2026-03-28T13:07:38.002Z</time></trkpt><trkpt lat="43.833264732053365" lon="11.300230989864383"><ele>232.42857142857142</ele><time>2026-03-28T13:07:40.002Z</time></trkpt><trkpt lat="43.83329853590958" lon="11.30031062768939"><ele>232.71428571428572</ele><time>2026-03-28T13:07:43.002Z</time></trkpt><trkpt lat="43.83324225817968" lon="11.300391011249127"><ele>233.0</ele><time>2026-03-28T13:07:46.002Z</time></trkpt><trkpt lat="43.83317004960032" lon="11.300436851709717"><ele>233.00000000000003</ele><time>2026-03-28T13:07:49.002Z</time></trkpt><trkpt lat="43.833106293998796" lon="11.300507569834032"><ele>233.0</ele><time>2026-03-28T13:07:52.002Z</time></trkpt><trkpt lat="43.833028060181704" lon="11.30057059354984"><ele>233.0</ele><time>2026-03-28T13:07:55.002Z</time></trkpt><trkpt lat="43.83296360818911" lon="11.300661982958937"><ele>233.0</ele><time>2026-03-28T13:07:58.002Z</time></trkpt><trkpt lat="43.832927038943346" lon="11.300736015049345"><ele>233.00000000000003</ele><time>2026-03-28T13:08:01.003Z</time></trkpt><trkpt lat="43.832866476621184" lon="11.300779381166251"><ele>233.0</ele><time>2026-03-28T13:08:04.003Z</time></trkpt><trkpt lat="43.83280571289781" lon="11.300888588912368"><ele>235.66666666666669</ele><time>2026-03-28T13:08:07.003Z</time></trkpt><trkpt lat="43.83276713834025" lon="11.30105166261553"><ele>238.33333333333334</ele><time>2026-03-28T13:08:10.003Z</time></trkpt><trkpt lat="43.83276555391365" lon="11.301153186610437"><ele>241.0</ele><time>2026-03-28T13:08:11.003Z</time></trkpt><trkpt lat="43.832778606862725" lon="11.301266704329173"><ele>243.66666666666669</ele><time>2026-03-28T13:08:12.003Z</time></trkpt><trkpt lat="43.832815949019455" lon="11.301358578681093"><ele>246.33333333333334</ele><time>2026-03-28T13:08:13.003Z</time></trkpt><trkpt lat="43.83287311636818" lon="11.301435965097896"><ele>249.0</ele><time>2026-03-28T13:08:14.003Z</time></trkpt><trkpt lat="43.83293006898335" lon="11.301542279491658"><ele>249.2</ele><time>2026-03-28T13:08:15.003Z</time></trkpt><trkpt lat="43.83300341602929" lon="11.30165472720813"><ele>249.39999999999998</ele><time>2026-03-28T13:08:16.003Z</time></trkpt><trkpt lat="43.83307845036842" lon="11.301775517439847"><ele>249.6</ele><time>2026-03-28T13:08:17.003Z</time></trkpt><trkpt lat="43.83312587495204" lon="11.301894743913092"><ele>249.8</ele><time>2026-03-28T13:08:18.002Z</time></trkpt><trkpt lat="43.83314673817056" lon="11.302020594306827"><ele>250.0</ele><time>2026-03-28T13:08:19.002Z</time></trkpt><trkpt lat="43.83319141082601" lon="11.302092500167436"><ele>250.0</ele><time>2026-03-28T13:08:20.002Z</time></trkpt><trkpt lat="43.83321756753329" lon="11.302209103550691"><ele>250.0</ele><time>2026-03-28T13:08:21.002Z</time></trkpt><trkpt lat="43.83328272006906" lon="11.302292569668726"><ele>250.0</ele><time>2026-03-28T13:08:22.001Z</time></trkpt><trkpt lat="43.83332336816855" lon="11.302378977432511"><ele>250.0</ele><time>2026-03-28T13:08:23.001Z</time></trkpt><trkpt lat="43.83341174340904" lon="11.30248934770798"><ele>250.0</ele><time>2026-03-28T13:08:25.001Z</time></trkpt><trkpt lat="43.833500196299404" lon="11.302553424542484"><ele>246.6</ele><time>2026-03-28T13:08:27.001Z</time></trkpt><trkpt lat="43.83345543610492" lon="11.302696190184818"><ele>243.2</ele><time>2026-03-28T13:08:30.001Z</time></trkpt><trkpt lat="43.833366365215284" lon="11.302617692258957"><ele>239.8</ele><time>2026-03-28T13:08:33.001Z</time></trkpt><trkpt lat="43.833292854984755" lon="11.302570091692552"><ele>236.4</ele><time>2026-03-28T13:08:34.001Z</time></trkpt><trkpt lat="43.83321944556961" lon="11.302531733965587"><ele>233.0</ele><time>2026-03-28T13:08:35.001Z</time></trkpt><trkpt lat="43.833064794894284" lon="11.30260335307477"><ele>233.00000000000003</ele><time>2026-03-28T13:08:36.001Z</time></trkpt><trkpt lat="43.83299356155333" lon="11.302553204381828"><ele>233.0</ele><time>2026-03-28T13:08:37.001Z</time></trkpt><trkpt lat="43.832929831545144" lon="11.302466625452801"><ele>233.0</ele><time>2026-03-28T13:08:38.001Z</time></trkpt><trkpt lat="43.832867260217434" lon="11.302401399502864"><ele>233.0</ele><time>2026-03-28T13:08:39.001Z</time></trkpt><trkpt lat="43.83280386124375" lon="11.302321634491339"><ele>233.00000000000003</ele><time>2026-03-28T13:08:40.001Z</time></trkpt><trkpt lat="43.832749413423514" lon="11.302214886087818"><ele>233.0</ele><time>2026-03-28T13:08:41.001Z</time></trkpt><trkpt lat="43.83266401518715" lon="11.302150537408172"><ele>231.8</ele><time>2026-03-28T13:08:42.001Z</time></trkpt><trkpt lat="43.832584386069534" lon="11.302097165347439"><ele>230.60000000000002</ele><time>2026-03-28T13:08:43.001Z</time></trkpt><trkpt lat="43.83250742167094" lon="11.30202563983561"><ele>229.39999999999998</ele><time>2026-03-28T13:08:44.001Z</time></trkpt><trkpt lat="43.8324124828383" lon="11.301972074691818"><ele>228.2</ele><time>2026-03-28T13:08:45.001Z</time></trkpt><trkpt lat="43.83232128550147" lon="11.301936154620561"><ele>227.0</ele><time>2026-03-28T13:08:46.001Z</time></trkpt><trkpt lat="43.83223969172708" lon="11.301899910357255"><ele>227.0</ele><time>2026-03-28T13:08:47.001Z</time></trkpt><trkpt lat="43.83214671722698" lon="11.301850667095051"><ele>227.0</ele><time>2026-03-28T13:08:48.001Z</time></trkpt><trkpt lat="43.83203340417479" lon="11.301798566353813"><ele>227.0</ele><time>2026-03-28T13:08:49.001Z</time></trkpt><trkpt lat="43.831919470162084" lon="11.30176127825268"><ele>227.0</ele><time>2026-03-28T13:08:50.001Z</time></trkpt><trkpt lat="43.83179552829109" lon="11.301723175745888"><ele>222.6</ele><time>2026-03-28T13:08:51.001Z</time></trkpt><trkpt lat="43.831675627278415" lon="11.301690993089657"><ele>218.2</ele><time>2026-03-28T13:08:52.001Z</time></trkpt><trkpt lat="43.8315652621611" lon="11.301670189905936"><ele>213.8</ele><time>2026-03-28T13:08:53.001Z</time></trkpt><trkpt lat="43.83146663134738" lon="11.301623768386008"><ele>209.4</ele><time>2026-03-28T13:08:54.001Z</time></trkpt><trkpt lat="43.831379086704814" lon="11.301593386588914"><ele>205.0</ele><time>2026-03-28T13:08:55.001Z</time></trkpt><trkpt lat="43.83129693994423" lon="11.301536454976427"><ele>204.99999999999997</ele><time>2026-03-28T13:08:56.001Z</time></trkpt><trkpt lat="43.83122516753621" lon="11.301469453146654"><ele>205.0</ele><time>2026-03-28T13:08:57.001Z</time></trkpt><trkpt lat="43.83116569806576" lon="11.301413478966836"><ele>205.0</ele><time>2026-03-28T13:08:58.001Z</time></trkpt><trkpt lat="43.83109119831231" lon="11.301364023063094"><ele>205.0</ele><time>2026-03-28T13:08:59.001Z</time></trkpt><trkpt lat="43.83101182135899" lon="11.301335715532469"><ele>204.99999999999997</ele><time>2026-03-28T13:09:00.001Z</time></trkpt><trkpt lat="43.83094308898661" lon="11.30131439288398"><ele>205.0</ele><time>2026-03-28T13:09:01.001Z</time></trkpt><trkpt lat="43.83086927126431" lon="11.301298550238911"><ele>203.0</ele><time>2026-03-28T13:09:02.001Z</time></trkpt><trkpt lat="43.830730510834165" lon="11.301233100712045"><ele>201.0</ele><time>2026-03-28T13:09:04.001Z</time></trkpt><trkpt lat="43.830626111766016" lon="11.301229220203323"><ele>199.0</ele><time>2026-03-28T13:09:05.001Z</time></trkpt><trkpt lat="43.830518132708605" lon="11.301241956407955"><ele>197.0</ele><time>2026-03-28T13:09:06.001Z</time></trkpt><trkpt lat="43.83040680767908" lon="11.3012576875495"><ele>197.00000000000003</ele><time>2026-03-28T13:09:07.001Z</time></trkpt><trkpt lat="43.830313274645235" lon="11.301271097454148"><ele>197.0</ele><time>2026-03-28T13:09:08.001Z</time></trkpt><trkpt lat="43.830250060167316" lon="11.301288667001424"><ele>197.0</ele><time>2026-03-28T13:09:09.001Z</time></trkpt><trkpt lat="43.83018428772018" lon="11.301312208410256"><ele>197.0</ele><time>2026-03-28T13:09:10.001Z</time></trkpt><trkpt lat="43.83010301002895" lon="11.301288623435502"><ele>197.00000000000003</ele><time>2026-03-28T13:09:11.001Z</time></trkpt><trkpt lat="43.83002089119021" lon="11.301273937170796"><ele>197.0</ele><time>2026-03-28T13:09:12.001Z</time></trkpt><trkpt lat="43.829931921127226" lon="11.301237113236148"><ele>194.16666666666669</ele><time>2026-03-28T13:09:13.001Z</time></trkpt><trkpt lat="43.8298295063547" lon="11.301207169997754"><ele>191.33333333333334</ele><time>2026-03-28T13:09:14.001Z</time></trkpt><trkpt lat="43.8297597218069" lon="11.301192596535254"><ele>188.5</ele><time>2026-03-28T13:09:15.002Z</time></trkpt><trkpt lat="43.82968573928425" lon="11.301178128457993"><ele>185.66666666666669</ele><time>2026-03-28T13:09:16.002Z</time></trkpt><trkpt lat="43.82961835830396" lon="11.301164594471382"><ele>182.83333333333334</ele><time>2026-03-28T13:09:17.002Z</time></trkpt><trkpt lat="43.82954296598732" lon="11.301109311463643"><ele>180.0</ele><time>2026-03-28T13:09:18.002Z</time></trkpt><trkpt lat="43.829477307333775" lon="11.301041075417897"><ele>180.0</ele><time>2026-03-28T13:09:19.002Z</time></trkpt><trkpt lat="43.82940120920332" lon="11.30098499343056"><ele>180.0</ele><time>2026-03-28T13:09:20.002Z</time></trkpt><trkpt lat="43.8293238274673" lon="11.30091060498406"><ele>180.0</ele><time>2026-03-28T13:09:21.002Z</time></trkpt><trkpt lat="43.82924467816438" lon="11.300818561331402"><ele>180.0</ele><time>2026-03-28T13:09:22.002Z</time></trkpt><trkpt lat="43.82917163305934" lon="11.300751329382466"><ele>180.0</ele><time>2026-03-28T13:09:23.002Z</time></trkpt><trkpt lat="43.82909356173463" lon="11.300660182355312"><ele>178.2</ele><time>2026-03-28T13:09:24.002Z</time></trkpt><trkpt lat="43.82898552445018" lon="11.300587542484426"><ele>176.4</ele><time>2026-03-28T13:09:25.002Z</time></trkpt><trkpt lat="43.82890922574122" lon="11.300536295893982"><ele>174.60000000000002</ele><time>2026-03-28T13:09:26.002Z</time></trkpt><trkpt lat="43.828828933288236" lon="11.300481581202062"><ele>172.8</ele><time>2026-03-28T13:09:27.002Z</time></trkpt><trkpt lat="43.82875423108792" lon="11.300437322393828"><ele>171.0</ele><time>2026-03-28T13:09:28.002Z</time></trkpt><trkpt lat="43.828663606025636" lon="11.300405345875422"><ele>170.66666666666666</ele><time>2026-03-28T13:09:29.002Z</time></trkpt><trkpt lat="43.82859019144529" lon="11.300381888218892"><ele>170.33333333333334</ele><time>2026-03-28T13:09:30.002Z</time></trkpt><trkpt lat="43.82852307698787" lon="11.300338580628061"><ele>170.0</ele><time>2026-03-28T13:09:31.002Z</time></trkpt><trkpt lat="43.82844432562986" lon="11.300337155915807"><ele>169.66666666666669</ele><time>2026-03-28T13:09:32.002Z</time></trkpt><trkpt lat="43.82836888080218" lon="11.300310732164398"><ele>169.33333333333334</ele><time>2026-03-28T13:09:33.002Z</time></trkpt><trkpt lat="43.82829621904334" lon="11.300277098270584"><ele>169.0</ele><time>2026-03-28T13:09:34.002Z</time></trkpt><trkpt lat="43.82821671349609" lon="11.300266148199235"><ele>165.79999999999998</ele><time>2026-03-28T13:09:35.002Z</time></trkpt><trkpt lat="43.828131669646766" lon="11.300256646171325"><ele>162.6</ele><time>2026-03-28T13:09:36.002Z</time></trkpt><trkpt lat="43.82802104789309" lon="11.300399456571459"><ele>159.4</ele><time>2026-03-28T13:09:37.002Z</time></trkpt><trkpt lat="43.82794675668236" lon="11.300484035676758"><ele>156.2</ele><time>2026-03-28T13:09:38.002Z</time></trkpt><trkpt lat="43.827883960147794" lon="11.300556425020185"><ele>153.0</ele><time>2026-03-28T13:09:39.002Z</time></trkpt><trkpt lat="43.827796164897784" lon="11.300666356301104"><ele>152.5</ele><time>2026-03-28T13:09:41.002Z</time></trkpt><trkpt lat="43.827749758383916" lon="11.300733986612858"><ele>152.0</ele><time>2026-03-28T13:09:43.002Z</time></trkpt><trkpt lat="43.82775358957139" lon="11.300830777028809"><ele>151.5</ele><time>2026-03-28T13:10:15.003Z</time></trkpt><trkpt lat="43.827821561584564" lon="11.30089759589263"><ele>151.0</ele><time>2026-03-28T13:10:18.003Z</time></trkpt><trkpt lat="43.82782903369498" lon="11.300773666039383"><ele>150.5</ele><time>2026-03-28T13:10:21.003Z</time></trkpt><trkpt lat="43.82773629157246" lon="11.300775613168078"><ele>150.0</ele><time>2026-03-28T13:10:23.003Z</time></trkpt><trkpt lat="43.82765701610663" lon="11.30082023450325"><ele>148.2</ele><time>2026-03-28T13:10:25.002Z</time></trkpt><trkpt lat="43.82757543897801" lon="11.300877623072314"><ele>146.4</ele><time>2026-03-28T13:10:27.002Z</time></trkpt><trkpt lat="43.827471631952285" lon="11.300934149305354"><ele>144.6</ele><time>2026-03-28T13:10:29.002Z</time></trkpt><trkpt lat="43.82741022856522" lon="11.300956621705863"><ele>142.8</ele><time>2026-03-28T13:10:30.002Z</time></trkpt><trkpt lat="43.827309781066646" lon="11.301021093409394"><ele>141.0</ele><time>2026-03-28T13:10:32.002Z</time></trkpt><trkpt lat="43.82721124735311" lon="11.301076343559751"><ele>141.0</ele><time>2026-03-28T13:10:34.002Z</time></trkpt><trkpt lat="43.827117421094776" lon="11.301128214082773"><ele>141.0</ele><time>2026-03-28T13:10:36.002Z</time></trkpt><trkpt lat="43.82702724175151" lon="11.301186635630748"><ele>141.0</ele><time>2026-03-28T13:10:38.002Z</time></trkpt><trkpt lat="43.826951562008716" lon="11.301253265562083"><ele>141.0</ele><time>2026-03-28T13:10:40.001Z</time></trkpt><trkpt lat="43.826873712824685" lon="11.301319329411099"><ele>141.0</ele><time>2026-03-28T13:10:42.001Z</time></trkpt><trkpt lat="43.82679607677136" lon="11.301360654259684"><ele>140.5</ele><time>2026-03-28T13:10:44.001Z</time></trkpt><trkpt lat="43.82672035699508" lon="11.301388376408521"><ele>140.0</ele><time>2026-03-28T13:10:46.001Z</time></trkpt><trkpt lat="43.82673909232665" lon="11.301622670782075"><ele>139.5</ele><time>2026-03-28T13:10:48.001Z</time></trkpt><trkpt lat="43.82678820278101" lon="11.301762960716475"><ele>139.0</ele><time>2026-03-28T13:10:50.001Z</time></trkpt><trkpt lat="43.826827903310026" lon="11.301897016577557"><ele>139.0</ele><time>2026-03-28T13:10:52.001Z</time></trkpt><trkpt lat="43.82686342987055" lon="11.302023059807002"><ele>139.0</ele><time>2026-03-28T13:10:54.001Z</time></trkpt><trkpt lat="43.826899997279426" lon="11.302150622885252"><ele>139.0</ele><time>2026-03-28T13:10:56.001Z</time></trkpt><trkpt lat="43.82693569923374" lon="11.302264983752151"><ele>139.0</ele><time>2026-03-28T13:10:58.001Z</time></trkpt><trkpt lat="43.82698773534124" lon="11.302347458902702"><ele>139.0</ele><time>2026-03-28T13:11:00.001Z</time></trkpt><trkpt lat="43.82707717766296" lon="11.302393183800767"><ele>139.0</ele><time>2026-03-28T13:11:03.001Z</time></trkpt><trkpt lat="43.827199401353454" lon="11.302396500121587"><ele>139.0</ele><time>2026-03-28T13:11:04.001Z</time></trkpt><trkpt lat="43.82727352446076" lon="11.302440814298738"><ele>139.0</ele><time>2026-03-28T13:11:06.001Z</time></trkpt><trkpt lat="43.827328672148106" lon="11.302487964305913"><ele>139.0</ele><time>2026-03-28T13:11:08.001Z</time></trkpt><trkpt lat="43.82738259571516" lon="11.302544706366643"><ele>139.0</ele><time>2026-03-28T13:11:10.001Z</time></trkpt><trkpt lat="43.827448105935936" lon="11.302619816105539"><ele>139.0</ele><time>2026-03-28T13:11:12.001Z</time></trkpt><trkpt lat="43.82751655047038" lon="11.302695540270223"><ele>139.0</ele><time>2026-03-28T13:11:14.001Z</time></trkpt><trkpt lat="43.82758628504868" lon="11.302770021347502"><ele>139.0</ele><time>2026-03-28T13:11:16.001Z</time></trkpt><trkpt lat="43.82765615146157" lon="11.302842311870224"><ele>139.0</ele><time>2026-03-28T13:11:18.001Z</time></trkpt><trkpt lat="43.82772202594628" lon="11.302942997686825"><ele>139.0</ele><time>2026-03-28T13:11:20.001Z</time></trkpt><trkpt lat="43.82778604676754" lon="11.303019882262365"><ele>139.0</ele><time>2026-03-28T13:11:22.001Z</time></trkpt><trkpt lat="43.82784259743387" lon="11.303084447402325"><ele>139.0</ele><time>2026-03-28T13:11:24.001Z</time></trkpt><trkpt lat="43.82787824026589" lon="11.303187192383124"><ele>139.42857142857142</ele><time>2026-03-28T13:11:29.002Z</time></trkpt><trkpt lat="43.8279256199846" lon="11.303258831879095"><ele>139.85714285714286</ele><time>2026-03-28T13:11:31.002Z</time></trkpt><trkpt lat="43.82797091182166" lon="11.30332484969297"><ele>140.28571428571428</ele><time>2026-03-28T13:11:33.002Z</time></trkpt><trkpt lat="43.828016266860644" lon="11.303389147748943"><ele>140.71428571428572</ele><time>2026-03-28T13:11:35.002Z</time></trkpt><trkpt lat="43.82806672525742" lon="11.303464934184062"><ele>141.14285714285714</ele><time>2026-03-28T13:11:37.002Z</time></trkpt><trkpt lat="43.82813084224082" lon="11.303539915430063"><ele>141.57142857142856</ele><time>2026-03-28T13:11:39.002Z</time></trkpt><trkpt lat="43.82820316884408" lon="11.303607413554532"><ele>142.0</ele><time>2026-03-28T13:11:41.002Z</time></trkpt><trkpt lat="43.828276761701495" lon="11.303696160983266"><ele>142.0</ele><time>2026-03-28T13:11:44.002Z</time></trkpt><trkpt lat="43.828328538311276" lon="11.303762600227401"><ele>142.0</ele><time>2026-03-28T13:11:46.002Z</time></trkpt><trkpt lat="43.82850606430639" lon="11.30394865029434"><ele>142.0</ele><time>2026-03-28T13:11:48.002Z</time></trkpt><trkpt lat="43.82856929856265" lon="11.304024211762236"><ele>142.0</ele><time>2026-03-28T13:11:50.002Z</time></trkpt><trkpt lat="43.828626391813806" lon="11.304095042059592"><ele>142.6</ele><time>2026-03-28T13:11:52.002Z</time></trkpt><trkpt lat="43.8286808475386" lon="11.304162600225979"><ele>143.2</ele><time>2026-03-28T13:11:54.002Z</time></trkpt><trkpt lat="43.82875897426664" lon="11.304215683127921"><ele>143.8</ele><time>2026-03-28T13:11:56.002Z</time></trkpt><trkpt lat="43.82884341261268" lon="11.304304172937057"><ele>144.4</ele><time>2026-03-28T13:11:58.002Z</time></trkpt><trkpt lat="43.82895037268154" lon="11.304354891266104"><ele>145.0</ele><time>2026-03-28T13:12:00.002Z</time></trkpt><trkpt lat="43.829050397228485" lon="11.304383689206567"><ele>145.0</ele><time>2026-03-28T13:12:02.002Z</time></trkpt><trkpt lat="43.82914114657955" lon="11.304408957742806"><ele>145.0</ele><time>2026-03-28T13:12:04.002Z</time></trkpt><trkpt lat="43.82918826439782" lon="11.304508107707756"><ele>145.0</ele><time>2026-03-28T13:12:06.002Z</time></trkpt><trkpt lat="43.82923624104067" lon="11.304570609640063"><ele>145.0</ele><time>2026-03-28T13:12:08.002Z</time></trkpt><trkpt lat="43.82933935186302" lon="11.304641927210213"><ele>145.0</ele><time>2026-03-28T13:12:09.002Z</time></trkpt><trkpt lat="43.82940619326158" lon="11.304738045928003"><ele>145.8</ele><time>2026-03-28T13:12:11.002Z</time></trkpt><trkpt lat="43.82947269179742" lon="11.304811662552844"><ele>146.6</ele><time>2026-03-28T13:12:13.002Z</time></trkpt><trkpt lat="43.829537140806664" lon="11.304888759313405"><ele>147.4</ele><time>2026-03-28T13:12:15.002Z</time></trkpt><trkpt lat="43.82960724984886" lon="11.30497594930232"><ele>148.2</ele><time>2026-03-28T13:12:17.002Z</time></trkpt><trkpt lat="43.829678515625154" lon="11.305058372325341"><ele>149.0</ele><time>2026-03-28T13:12:19.002Z</time></trkpt><trkpt lat="43.829743921777336" lon="11.305160145842343"><ele>149.0</ele><time>2026-03-28T13:12:21.002Z</time></trkpt><trkpt lat="43.829807023458514" lon="11.305259168502548"><ele>149.0</ele><time>2026-03-28T13:12:23.002Z</time></trkpt><trkpt lat="43.82990314442787" lon="11.305389556491843"><ele>149.0</ele><time>2026-03-28T13:12:26.002Z</time></trkpt><trkpt lat="43.8299873834307" lon="11.305509638302304"><ele>149.0</ele><time>2026-03-28T13:12:29.999Z</time></trkpt><trkpt lat="43.83010317002034" lon="11.305671741161392"><ele>149.16666666666666</ele><time>2026-03-28T13:12:32.999Z</time></trkpt><trkpt lat="43.8301718121828" lon="11.30575130915382"><ele>149.33333333333331</ele><time>2026-03-28T13:12:34.999Z</time></trkpt><trkpt lat="43.83024658880983" lon="11.305804252057266"><ele>149.5</ele><time>2026-03-28T13:12:36.999Z</time></trkpt><trkpt lat="43.830339762942664" lon="11.305860364072077"><ele>149.66666666666666</ele><time>2026-03-28T13:12:38.999Z</time></trkpt><trkpt lat="43.830422069934166" lon="11.305922812057522"><ele>149.83333333333334</ele><time>2026-03-28T13:12:40.999Z</time></trkpt><trkpt lat="43.83048741764194" lon="11.305978925949661"><ele>150.0</ele><time>2026-03-28T13:12:42.999Z</time></trkpt><trkpt lat="43.83055100110171" lon="11.306029284164028"><ele>150.0</ele><time>2026-03-28T13:12:44.999Z</time></trkpt><trkpt lat="43.83062884021372" lon="11.30607966059117"><ele>150.0</ele><time>2026-03-28T13:12:46.999Z</time></trkpt><trkpt lat="43.83071861568141" lon="11.306127659932764"><ele>150.0</ele><time>2026-03-28T13:12:48.999Z</time></trkpt><trkpt lat="43.83081577968536" lon="11.30616094413703"><ele>150.0</ele><time>2026-03-28T13:12:50.999Z</time></trkpt><trkpt lat="43.83088322299761" lon="11.306157140470097"><ele>150.0</ele><time>2026-03-28T13:12:52.999Z</time></trkpt><trkpt lat="43.83096826972342" lon="11.306170394451334"><ele>150.0</ele><time>2026-03-28T13:12:54.999Z</time></trkpt><trkpt lat="43.831045232635354" lon="11.30620101529542"><ele>150.8</ele><time>2026-03-28T13:12:57.999Z</time></trkpt><trkpt lat="43.83112043610585" lon="11.306243411549888"><ele>151.6</ele><time>2026-03-28T13:12:59.999Z</time></trkpt><trkpt lat="43.831215941187274" lon="11.306287846042602"><ele>152.4</ele><time>2026-03-28T13:13:02Z</time></trkpt><trkpt lat="43.83131909599931" lon="11.306323904523927"><ele>153.2</ele><time>2026-03-28T13:13:04Z</time></trkpt><trkpt lat="43.831402809123844" lon="11.306371557977961"><ele>154.0</ele><time>2026-03-28T13:13:06Z</time></trkpt><trkpt lat="43.831501669123504" lon="11.306430357127132"><ele>154.0</ele><time>2026-03-28T13:13:08Z</time></trkpt><trkpt lat="43.83159048888167" lon="11.306471676387886"><ele>154.0</ele><time>2026-03-28T13:13:10Z</time></trkpt><trkpt lat="43.83166736690618" lon="11.306510247817055"><ele>154.0</ele><time>2026-03-28T13:13:12Z</time></trkpt><trkpt lat="43.831746712584234" lon="11.306565481365437"><ele>154.0</ele><time>2026-03-28T13:13:15Z</time></trkpt><trkpt lat="43.83180898949089" lon="11.306627124103782"><ele>154.0</ele><time>2026-03-28T13:13:17Z</time></trkpt><trkpt lat="43.831868871451036" lon="11.306698954617902"><ele>154.0</ele><time>2026-03-28T13:13:19Z</time></trkpt><trkpt lat="43.8318971958836" lon="11.30677831628122"><ele>154.0</ele><time>2026-03-28T13:13:22Z</time></trkpt><trkpt lat="43.83182983349541" lon="11.306810556386194"><ele>154.0</ele><time>2026-03-28T13:13:24Z</time></trkpt><trkpt lat="43.83180653306549" lon="11.306900147434034"><ele>154.0</ele><time>2026-03-28T13:13:27Z</time></trkpt><trkpt lat="43.83178801897463" lon="11.306992266454136"><ele>154.0</ele><time>2026-03-28T13:13:30Z</time></trkpt><trkpt lat="43.83175834326818" lon="11.307131034307055"><ele>154.0</ele><time>2026-03-28T13:13:34Z</time></trkpt><trkpt lat="43.831737712554336" lon="11.30723993838241"><ele>154.0</ele><time>2026-03-28T13:13:37Z</time></trkpt><trkpt lat="43.83171052428538" lon="11.307327271777073"><ele>154.4</ele><time>2026-03-28T13:13:39Z</time></trkpt><trkpt lat="43.831718255471074" lon="11.307441442068706"><ele>154.8</ele><time>2026-03-28T13:13:44Z</time></trkpt><trkpt lat="43.83183943843947" lon="11.307570344955263"><ele>155.2</ele><time>2026-03-28T13:13:47Z</time></trkpt><trkpt lat="43.831889129212335" lon="11.30765382729241"><ele>155.6</ele><time>2026-03-28T13:13:51.001Z</time></trkpt><trkpt lat="43.8319538479797" lon="11.307706817684723"><ele>156.0</ele><time>2026-03-28T13:13:53.001Z</time></trkpt><trkpt lat="43.8319955707189" lon="11.307784458939055"><ele>156.0</ele><time>2026-03-28T13:13:55.001Z</time></trkpt><trkpt lat="43.83204511965834" lon="11.307865037837752"><ele>156.0</ele><time>2026-03-28T13:13:58.001Z</time></trkpt><trkpt lat="43.832110772666645" lon="11.307955531760895"><ele>156.0</ele><time>2026-03-28T13:14:01.001Z</time></trkpt><trkpt lat="43.832187329234834" lon="11.308111346106191"><ele>161.0</ele><time>2026-03-28T13:14:04.001Z</time></trkpt><trkpt lat="43.8322249622322" lon="11.308187982652848"><ele>161.0</ele><time>2026-03-28T13:14:07.001Z</time></trkpt></trkseg></trk></gpx>